<?xml version="1.0" encoding="UTF-8" standalone="no" ?>
<gpx xmlns="http://www.topografix.com/GPX/1/1" xmlns:xsi="http://www.w3.org/2001/XMLSchema-instance" xsi:schemaLocation="http://www.topografix.com/GPX/1/1 http://www.topografix.com/GPX/1/1/gpx.xsd" version="1.1" creator="VisuGPX - https://www.visugpx.com">
  <metadata>
    <name>Rando vtt</name>
    <desc><![CDATA[Montreuil 34km]]></desc>
  </metadata>
  <trk>
    <name><![CDATA[04/02/12 09:27]]></name>
    <desc><![CDATA[]]></desc>
    <trkseg>
      <trkpt lat="50.45637" lon="1.75886">
        <ele>91.4</ele>
        <time>2012-02-04T08:25:02Z</time>
      </trkpt>
      <trkpt lat="50.45632" lon="1.75883">
        <ele>98.6</ele>
        <time>2012-02-04T08:25:15Z</time>
      </trkpt>
      <trkpt lat="50.45622" lon="1.75876">
        <ele>115.7</ele>
        <time>2012-02-04T08:25:21Z</time>
      </trkpt>
      <trkpt lat="50.45621" lon="1.75896">
        <ele>78.6</ele>
        <time>2012-02-04T08:26:27Z</time>
      </trkpt>
      <trkpt lat="50.45616" lon="1.75893">
        <ele>72.8</ele>
        <time>2012-02-04T08:26:28Z</time>
      </trkpt>
      <trkpt lat="50.45617" lon="1.759">
        <ele>83.2</ele>
        <time>2012-02-04T08:26:35Z</time>
      </trkpt>
      <trkpt lat="50.45614" lon="1.75907">
        <ele>83.1</ele>
        <time>2012-02-04T08:26:39Z</time>
      </trkpt>
      <trkpt lat="50.45611" lon="1.75915">
        <ele>83</ele>
        <time>2012-02-04T08:26:42Z</time>
      </trkpt>
      <trkpt lat="50.4561" lon="1.75922">
        <ele>80</ele>
        <time>2012-02-04T08:26:49Z</time>
      </trkpt>
      <trkpt lat="50.45613" lon="1.75928">
        <ele>82.8</ele>
        <time>2012-02-04T08:26:53Z</time>
      </trkpt>
      <trkpt lat="50.45618" lon="1.75933">
        <ele>83.2</ele>
        <time>2012-02-04T08:26:55Z</time>
      </trkpt>
      <trkpt lat="50.45623" lon="1.75938">
        <ele>83</ele>
        <time>2012-02-04T08:26:58Z</time>
      </trkpt>
      <trkpt lat="50.45628" lon="1.7594">
        <ele>83</ele>
        <time>2012-02-04T08:27:00Z</time>
      </trkpt>
      <trkpt lat="50.45633" lon="1.75943">
        <ele>83</ele>
        <time>2012-02-04T08:27:02Z</time>
      </trkpt>
      <trkpt lat="50.45636" lon="1.75948">
        <ele>82.6</ele>
        <time>2012-02-04T08:27:04Z</time>
      </trkpt>
      <trkpt lat="50.45639" lon="1.75954">
        <ele>82.3</ele>
        <time>2012-02-04T08:27:06Z</time>
      </trkpt>
      <trkpt lat="50.45643" lon="1.75966">
        <ele>83</ele>
        <time>2012-02-04T08:27:08Z</time>
      </trkpt>
      <trkpt lat="50.45646" lon="1.7597">
        <ele>80.3</ele>
        <time>2012-02-04T08:27:09Z</time>
      </trkpt>
      <trkpt lat="50.45646" lon="1.75982">
        <ele>79.7</ele>
        <time>2012-02-04T08:27:11Z</time>
      </trkpt>
      <trkpt lat="50.45643" lon="1.75989">
        <ele>79.7</ele>
        <time>2012-02-04T08:27:12Z</time>
      </trkpt>
      <trkpt lat="50.45641" lon="1.75997">
        <ele>79.7</ele>
        <time>2012-02-04T08:27:13Z</time>
      </trkpt>
      <trkpt lat="50.45638" lon="1.76002">
        <ele>79</ele>
        <time>2012-02-04T08:27:14Z</time>
      </trkpt>
      <trkpt lat="50.45634" lon="1.76008">
        <ele>78.3</ele>
        <time>2012-02-04T08:27:15Z</time>
      </trkpt>
      <trkpt lat="50.4563" lon="1.76012">
        <ele>77.6</ele>
        <time>2012-02-04T08:27:16Z</time>
      </trkpt>
      <trkpt lat="50.45625" lon="1.76017">
        <ele>78</ele>
        <time>2012-02-04T08:27:17Z</time>
      </trkpt>
      <trkpt lat="50.45621" lon="1.76022">
        <ele>77.7</ele>
        <time>2012-02-04T08:27:18Z</time>
      </trkpt>
      <trkpt lat="50.45617" lon="1.76028">
        <ele>77.5</ele>
        <time>2012-02-04T08:27:19Z</time>
      </trkpt>
      <trkpt lat="50.45615" lon="1.76034">
        <ele>76.9</ele>
        <time>2012-02-04T08:27:20Z</time>
      </trkpt>
      <trkpt lat="50.45611" lon="1.7604">
        <ele>76.4</ele>
        <time>2012-02-04T08:27:21Z</time>
      </trkpt>
      <trkpt lat="50.45608" lon="1.76047">
        <ele>76.3</ele>
        <time>2012-02-04T08:27:22Z</time>
      </trkpt>
      <trkpt lat="50.45605" lon="1.76054">
        <ele>75.9</ele>
        <time>2012-02-04T08:27:23Z</time>
      </trkpt>
      <trkpt lat="50.45604" lon="1.76062">
        <ele>75.7</ele>
        <time>2012-02-04T08:27:24Z</time>
      </trkpt>
      <trkpt lat="50.45604" lon="1.76072">
        <ele>74.7</ele>
        <time>2012-02-04T08:27:25Z</time>
      </trkpt>
      <trkpt lat="50.45601" lon="1.76084">
        <ele>72.5</ele>
        <time>2012-02-04T08:27:27Z</time>
      </trkpt>
      <trkpt lat="50.45601" lon="1.76093">
        <ele>71.5</ele>
        <time>2012-02-04T08:27:28Z</time>
      </trkpt>
      <trkpt lat="50.456" lon="1.761">
        <ele>70.4</ele>
        <time>2012-02-04T08:27:29Z</time>
      </trkpt>
      <trkpt lat="50.45598" lon="1.76114">
        <ele>69</ele>
        <time>2012-02-04T08:27:31Z</time>
      </trkpt>
      <trkpt lat="50.45597" lon="1.76121">
        <ele>68.4</ele>
        <time>2012-02-04T08:27:32Z</time>
      </trkpt>
      <trkpt lat="50.45596" lon="1.76128">
        <ele>68</ele>
        <time>2012-02-04T08:27:33Z</time>
      </trkpt>
      <trkpt lat="50.45595" lon="1.76136">
        <ele>66.7</ele>
        <time>2012-02-04T08:27:34Z</time>
      </trkpt>
      <trkpt lat="50.45595" lon="1.76145">
        <ele>65.9</ele>
        <time>2012-02-04T08:27:35Z</time>
      </trkpt>
      <trkpt lat="50.45594" lon="1.76153">
        <ele>65.7</ele>
        <time>2012-02-04T08:27:36Z</time>
      </trkpt>
      <trkpt lat="50.45594" lon="1.76162">
        <ele>65.5</ele>
        <time>2012-02-04T08:27:37Z</time>
      </trkpt>
      <trkpt lat="50.45594" lon="1.7617">
        <ele>65.2</ele>
        <time>2012-02-04T08:27:38Z</time>
      </trkpt>
      <trkpt lat="50.45594" lon="1.76178">
        <ele>64.7</ele>
        <time>2012-02-04T08:27:39Z</time>
      </trkpt>
      <trkpt lat="50.45595" lon="1.76189">
        <ele>64.6</ele>
        <time>2012-02-04T08:27:40Z</time>
      </trkpt>
      <trkpt lat="50.45598" lon="1.76199">
        <ele>64.4</ele>
        <time>2012-02-04T08:27:41Z</time>
      </trkpt>
      <trkpt lat="50.45599" lon="1.76206">
        <ele>64.6</ele>
        <time>2012-02-04T08:27:42Z</time>
      </trkpt>
      <trkpt lat="50.456" lon="1.76215">
        <ele>64.8</ele>
        <time>2012-02-04T08:27:43Z</time>
      </trkpt>
      <trkpt lat="50.45602" lon="1.76222">
        <ele>65</ele>
        <time>2012-02-04T08:27:44Z</time>
      </trkpt>
      <trkpt lat="50.45604" lon="1.7623">
        <ele>65.1</ele>
        <time>2012-02-04T08:27:45Z</time>
      </trkpt>
      <trkpt lat="50.45607" lon="1.76238">
        <ele>64.8</ele>
        <time>2012-02-04T08:27:46Z</time>
      </trkpt>
      <trkpt lat="50.45609" lon="1.76245">
        <ele>65.1</ele>
        <time>2012-02-04T08:27:47Z</time>
      </trkpt>
      <trkpt lat="50.45612" lon="1.76254">
        <ele>64.8</ele>
        <time>2012-02-04T08:27:48Z</time>
      </trkpt>
      <trkpt lat="50.45614" lon="1.76262">
        <ele>64.8</ele>
        <time>2012-02-04T08:27:49Z</time>
      </trkpt>
      <trkpt lat="50.45615" lon="1.7627">
        <ele>63.6</ele>
        <time>2012-02-04T08:27:50Z</time>
      </trkpt>
      <trkpt lat="50.45617" lon="1.76278">
        <ele>63.4</ele>
        <time>2012-02-04T08:27:51Z</time>
      </trkpt>
      <trkpt lat="50.45619" lon="1.76287">
        <ele>63.5</ele>
        <time>2012-02-04T08:27:52Z</time>
      </trkpt>
      <trkpt lat="50.45621" lon="1.76296">
        <ele>62.9</ele>
        <time>2012-02-04T08:27:53Z</time>
      </trkpt>
      <trkpt lat="50.45623" lon="1.76305">
        <ele>62.8</ele>
        <time>2012-02-04T08:27:54Z</time>
      </trkpt>
      <trkpt lat="50.45625" lon="1.76313">
        <ele>61.9</ele>
        <time>2012-02-04T08:27:55Z</time>
      </trkpt>
      <trkpt lat="50.45627" lon="1.76322">
        <ele>61.6</ele>
        <time>2012-02-04T08:27:56Z</time>
      </trkpt>
      <trkpt lat="50.45628" lon="1.76331">
        <ele>61.7</ele>
        <time>2012-02-04T08:27:57Z</time>
      </trkpt>
      <trkpt lat="50.4563" lon="1.76339">
        <ele>60.8</ele>
        <time>2012-02-04T08:27:58Z</time>
      </trkpt>
      <trkpt lat="50.45631" lon="1.76347">
        <ele>60.5</ele>
        <time>2012-02-04T08:27:59Z</time>
      </trkpt>
      <trkpt lat="50.45632" lon="1.76354">
        <ele>60.2</ele>
        <time>2012-02-04T08:28:00Z</time>
      </trkpt>
      <trkpt lat="50.45633" lon="1.76362">
        <ele>60.2</ele>
        <time>2012-02-04T08:28:01Z</time>
      </trkpt>
      <trkpt lat="50.45634" lon="1.76376">
        <ele>58.7</ele>
        <time>2012-02-04T08:28:03Z</time>
      </trkpt>
      <trkpt lat="50.45635" lon="1.76383">
        <ele>58.5</ele>
        <time>2012-02-04T08:28:04Z</time>
      </trkpt>
      <trkpt lat="50.45636" lon="1.7639">
        <ele>58.1</ele>
        <time>2012-02-04T08:28:05Z</time>
      </trkpt>
      <trkpt lat="50.45637" lon="1.76397">
        <ele>57.3</ele>
        <time>2012-02-04T08:28:06Z</time>
      </trkpt>
      <trkpt lat="50.4564" lon="1.76403">
        <ele>57.2</ele>
        <time>2012-02-04T08:28:07Z</time>
      </trkpt>
      <trkpt lat="50.45646" lon="1.76413">
        <ele>57.8</ele>
        <time>2012-02-04T08:28:09Z</time>
      </trkpt>
      <trkpt lat="50.45654" lon="1.76416">
        <ele>58.3</ele>
        <time>2012-02-04T08:28:11Z</time>
      </trkpt>
      <trkpt lat="50.45661" lon="1.76418">
        <ele>57.5</ele>
        <time>2012-02-04T08:28:13Z</time>
      </trkpt>
      <trkpt lat="50.45669" lon="1.76423">
        <ele>57.1</ele>
        <time>2012-02-04T08:28:15Z</time>
      </trkpt>
      <trkpt lat="50.45673" lon="1.76426">
        <ele>57.1</ele>
        <time>2012-02-04T08:28:16Z</time>
      </trkpt>
      <trkpt lat="50.45677" lon="1.7643">
        <ele>57.2</ele>
        <time>2012-02-04T08:28:17Z</time>
      </trkpt>
      <trkpt lat="50.45685" lon="1.76437">
        <ele>56.8</ele>
        <time>2012-02-04T08:28:19Z</time>
      </trkpt>
      <trkpt lat="50.45689" lon="1.76442">
        <ele>56.8</ele>
        <time>2012-02-04T08:28:20Z</time>
      </trkpt>
      <trkpt lat="50.45692" lon="1.76448">
        <ele>57</ele>
        <time>2012-02-04T08:28:21Z</time>
      </trkpt>
      <trkpt lat="50.45694" lon="1.76455">
        <ele>56.9</ele>
        <time>2012-02-04T08:28:22Z</time>
      </trkpt>
      <trkpt lat="50.45696" lon="1.76462">
        <ele>56.6</ele>
        <time>2012-02-04T08:28:23Z</time>
      </trkpt>
      <trkpt lat="50.45698" lon="1.76468">
        <ele>56.2</ele>
        <time>2012-02-04T08:28:24Z</time>
      </trkpt>
      <trkpt lat="50.457" lon="1.76476">
        <ele>56.5</ele>
        <time>2012-02-04T08:28:25Z</time>
      </trkpt>
      <trkpt lat="50.45702" lon="1.76483">
        <ele>56.3</ele>
        <time>2012-02-04T08:28:26Z</time>
      </trkpt>
      <trkpt lat="50.45704" lon="1.76496">
        <ele>56.1</ele>
        <time>2012-02-04T08:28:28Z</time>
      </trkpt>
      <trkpt lat="50.45706" lon="1.76503">
        <ele>55.9</ele>
        <time>2012-02-04T08:28:29Z</time>
      </trkpt>
      <trkpt lat="50.45708" lon="1.7651">
        <ele>55.9</ele>
        <time>2012-02-04T08:28:30Z</time>
      </trkpt>
      <trkpt lat="50.4571" lon="1.76518">
        <ele>55.9</ele>
        <time>2012-02-04T08:28:31Z</time>
      </trkpt>
      <trkpt lat="50.45711" lon="1.76525">
        <ele>55.9</ele>
        <time>2012-02-04T08:28:32Z</time>
      </trkpt>
      <trkpt lat="50.45713" lon="1.76538">
        <ele>55.2</ele>
        <time>2012-02-04T08:28:34Z</time>
      </trkpt>
      <trkpt lat="50.45716" lon="1.76549">
        <ele>54.1</ele>
        <time>2012-02-04T08:28:36Z</time>
      </trkpt>
      <trkpt lat="50.45718" lon="1.76561">
        <ele>55.2</ele>
        <time>2012-02-04T08:28:38Z</time>
      </trkpt>
      <trkpt lat="50.45721" lon="1.76573">
        <ele>54.8</ele>
        <time>2012-02-04T08:28:40Z</time>
      </trkpt>
      <trkpt lat="50.45723" lon="1.76579">
        <ele>54.5</ele>
        <time>2012-02-04T08:28:41Z</time>
      </trkpt>
      <trkpt lat="50.45726" lon="1.76586">
        <ele>54.8</ele>
        <time>2012-02-04T08:28:42Z</time>
      </trkpt>
      <trkpt lat="50.45731" lon="1.76597">
        <ele>55.8</ele>
        <time>2012-02-04T08:28:44Z</time>
      </trkpt>
      <trkpt lat="50.45736" lon="1.76608">
        <ele>56.5</ele>
        <time>2012-02-04T08:28:46Z</time>
      </trkpt>
      <trkpt lat="50.45742" lon="1.76618">
        <ele>57.3</ele>
        <time>2012-02-04T08:28:48Z</time>
      </trkpt>
      <trkpt lat="50.45748" lon="1.76627">
        <ele>57.7</ele>
        <time>2012-02-04T08:28:50Z</time>
      </trkpt>
      <trkpt lat="50.45754" lon="1.76635">
        <ele>57.7</ele>
        <time>2012-02-04T08:28:52Z</time>
      </trkpt>
      <trkpt lat="50.4576" lon="1.76644">
        <ele>57.3</ele>
        <time>2012-02-04T08:28:54Z</time>
      </trkpt>
      <trkpt lat="50.45766" lon="1.7665">
        <ele>57.9</ele>
        <time>2012-02-04T08:28:56Z</time>
      </trkpt>
      <trkpt lat="50.45773" lon="1.76658">
        <ele>57.9</ele>
        <time>2012-02-04T08:28:58Z</time>
      </trkpt>
      <trkpt lat="50.4578" lon="1.76665">
        <ele>56.9</ele>
        <time>2012-02-04T08:29:00Z</time>
      </trkpt>
      <trkpt lat="50.45784" lon="1.76668">
        <ele>57.4</ele>
        <time>2012-02-04T08:29:01Z</time>
      </trkpt>
      <trkpt lat="50.45788" lon="1.76672">
        <ele>57.6</ele>
        <time>2012-02-04T08:29:02Z</time>
      </trkpt>
      <trkpt lat="50.45792" lon="1.76676">
        <ele>57.7</ele>
        <time>2012-02-04T08:29:03Z</time>
      </trkpt>
      <trkpt lat="50.45796" lon="1.7668">
        <ele>57.9</ele>
        <time>2012-02-04T08:29:04Z</time>
      </trkpt>
      <trkpt lat="50.458" lon="1.76683">
        <ele>58</ele>
        <time>2012-02-04T08:29:05Z</time>
      </trkpt>
      <trkpt lat="50.45804" lon="1.76687">
        <ele>57.6</ele>
        <time>2012-02-04T08:29:06Z</time>
      </trkpt>
      <trkpt lat="50.45808" lon="1.76692">
        <ele>57.4</ele>
        <time>2012-02-04T08:29:07Z</time>
      </trkpt>
      <trkpt lat="50.45811" lon="1.76696">
        <ele>57.2</ele>
        <time>2012-02-04T08:29:08Z</time>
      </trkpt>
      <trkpt lat="50.45816" lon="1.76701">
        <ele>57.8</ele>
        <time>2012-02-04T08:29:09Z</time>
      </trkpt>
      <trkpt lat="50.4582" lon="1.76707">
        <ele>57.5</ele>
        <time>2012-02-04T08:29:10Z</time>
      </trkpt>
      <trkpt lat="50.45824" lon="1.76713">
        <ele>57.6</ele>
        <time>2012-02-04T08:29:11Z</time>
      </trkpt>
      <trkpt lat="50.45828" lon="1.76718">
        <ele>57.6</ele>
        <time>2012-02-04T08:29:12Z</time>
      </trkpt>
      <trkpt lat="50.45831" lon="1.76724">
        <ele>57.5</ele>
        <time>2012-02-04T08:29:13Z</time>
      </trkpt>
      <trkpt lat="50.45836" lon="1.7673">
        <ele>57.5</ele>
        <time>2012-02-04T08:29:14Z</time>
      </trkpt>
      <trkpt lat="50.4584" lon="1.76736">
        <ele>57.3</ele>
        <time>2012-02-04T08:29:15Z</time>
      </trkpt>
      <trkpt lat="50.45844" lon="1.76743">
        <ele>57.3</ele>
        <time>2012-02-04T08:29:16Z</time>
      </trkpt>
      <trkpt lat="50.45847" lon="1.7675">
        <ele>57.2</ele>
        <time>2012-02-04T08:29:17Z</time>
      </trkpt>
      <trkpt lat="50.45852" lon="1.76757">
        <ele>57.2</ele>
        <time>2012-02-04T08:29:18Z</time>
      </trkpt>
      <trkpt lat="50.45855" lon="1.76764">
        <ele>56.9</ele>
        <time>2012-02-04T08:29:19Z</time>
      </trkpt>
      <trkpt lat="50.45858" lon="1.76772">
        <ele>56.6</ele>
        <time>2012-02-04T08:29:20Z</time>
      </trkpt>
      <trkpt lat="50.45861" lon="1.76779">
        <ele>56.1</ele>
        <time>2012-02-04T08:29:21Z</time>
      </trkpt>
      <trkpt lat="50.45865" lon="1.76788">
        <ele>54.9</ele>
        <time>2012-02-04T08:29:22Z</time>
      </trkpt>
      <trkpt lat="50.45868" lon="1.76795">
        <ele>55.7</ele>
        <time>2012-02-04T08:29:23Z</time>
      </trkpt>
      <trkpt lat="50.45871" lon="1.76803">
        <ele>55.3</ele>
        <time>2012-02-04T08:29:24Z</time>
      </trkpt>
      <trkpt lat="50.45874" lon="1.76811">
        <ele>54.6</ele>
        <time>2012-02-04T08:29:25Z</time>
      </trkpt>
      <trkpt lat="50.45877" lon="1.76818">
        <ele>54.1</ele>
        <time>2012-02-04T08:29:26Z</time>
      </trkpt>
      <trkpt lat="50.4588" lon="1.76827">
        <ele>54</ele>
        <time>2012-02-04T08:29:27Z</time>
      </trkpt>
      <trkpt lat="50.45883" lon="1.76835">
        <ele>53.9</ele>
        <time>2012-02-04T08:29:28Z</time>
      </trkpt>
      <trkpt lat="50.45886" lon="1.76842">
        <ele>54</ele>
        <time>2012-02-04T08:29:29Z</time>
      </trkpt>
      <trkpt lat="50.45889" lon="1.7685">
        <ele>53.9</ele>
        <time>2012-02-04T08:29:30Z</time>
      </trkpt>
      <trkpt lat="50.45892" lon="1.76858">
        <ele>54</ele>
        <time>2012-02-04T08:29:31Z</time>
      </trkpt>
      <trkpt lat="50.45895" lon="1.76865">
        <ele>53.8</ele>
        <time>2012-02-04T08:29:32Z</time>
      </trkpt>
      <trkpt lat="50.45898" lon="1.76871">
        <ele>54</ele>
        <time>2012-02-04T08:29:33Z</time>
      </trkpt>
      <trkpt lat="50.459" lon="1.76878">
        <ele>54.1</ele>
        <time>2012-02-04T08:29:34Z</time>
      </trkpt>
      <trkpt lat="50.45902" lon="1.76884">
        <ele>53.9</ele>
        <time>2012-02-04T08:29:35Z</time>
      </trkpt>
      <trkpt lat="50.45905" lon="1.7689">
        <ele>53.9</ele>
        <time>2012-02-04T08:29:36Z</time>
      </trkpt>
      <trkpt lat="50.45908" lon="1.76897">
        <ele>53.9</ele>
        <time>2012-02-04T08:29:37Z</time>
      </trkpt>
      <trkpt lat="50.4591" lon="1.76903">
        <ele>54.2</ele>
        <time>2012-02-04T08:29:38Z</time>
      </trkpt>
      <trkpt lat="50.45913" lon="1.7691">
        <ele>53.9</ele>
        <time>2012-02-04T08:29:39Z</time>
      </trkpt>
      <trkpt lat="50.45916" lon="1.76916">
        <ele>54.1</ele>
        <time>2012-02-04T08:29:40Z</time>
      </trkpt>
      <trkpt lat="50.45918" lon="1.76924">
        <ele>54.3</ele>
        <time>2012-02-04T08:29:41Z</time>
      </trkpt>
      <trkpt lat="50.45921" lon="1.76931">
        <ele>54.1</ele>
        <time>2012-02-04T08:29:42Z</time>
      </trkpt>
      <trkpt lat="50.45923" lon="1.76938">
        <ele>54.3</ele>
        <time>2012-02-04T08:29:43Z</time>
      </trkpt>
      <trkpt lat="50.45926" lon="1.76945">
        <ele>54.3</ele>
        <time>2012-02-04T08:29:44Z</time>
      </trkpt>
      <trkpt lat="50.45928" lon="1.76952">
        <ele>54.2</ele>
        <time>2012-02-04T08:29:45Z</time>
      </trkpt>
      <trkpt lat="50.45931" lon="1.7696">
        <ele>54.2</ele>
        <time>2012-02-04T08:29:46Z</time>
      </trkpt>
      <trkpt lat="50.45934" lon="1.76967">
        <ele>53.9</ele>
        <time>2012-02-04T08:29:47Z</time>
      </trkpt>
      <trkpt lat="50.45937" lon="1.76974">
        <ele>53.8</ele>
        <time>2012-02-04T08:29:48Z</time>
      </trkpt>
      <trkpt lat="50.45939" lon="1.76982">
        <ele>54</ele>
        <time>2012-02-04T08:29:49Z</time>
      </trkpt>
      <trkpt lat="50.45943" lon="1.76992">
        <ele>53.9</ele>
        <time>2012-02-04T08:29:50Z</time>
      </trkpt>
      <trkpt lat="50.45947" lon="1.77003">
        <ele>53.8</ele>
        <time>2012-02-04T08:29:52Z</time>
      </trkpt>
      <trkpt lat="50.45949" lon="1.7701">
        <ele>53.9</ele>
        <time>2012-02-04T08:29:53Z</time>
      </trkpt>
      <trkpt lat="50.45952" lon="1.77018">
        <ele>53.6</ele>
        <time>2012-02-04T08:29:54Z</time>
      </trkpt>
      <trkpt lat="50.45954" lon="1.77025">
        <ele>53.8</ele>
        <time>2012-02-04T08:29:55Z</time>
      </trkpt>
      <trkpt lat="50.45957" lon="1.77032">
        <ele>54.1</ele>
        <time>2012-02-04T08:29:56Z</time>
      </trkpt>
      <trkpt lat="50.4596" lon="1.77038">
        <ele>54.6</ele>
        <time>2012-02-04T08:29:57Z</time>
      </trkpt>
      <trkpt lat="50.45962" lon="1.77044">
        <ele>54.6</ele>
        <time>2012-02-04T08:29:58Z</time>
      </trkpt>
      <trkpt lat="50.45966" lon="1.77051">
        <ele>54.6</ele>
        <time>2012-02-04T08:29:59Z</time>
      </trkpt>
      <trkpt lat="50.45968" lon="1.77058">
        <ele>54</ele>
        <time>2012-02-04T08:30:00Z</time>
      </trkpt>
      <trkpt lat="50.4597" lon="1.77065">
        <ele>54.4</ele>
        <time>2012-02-04T08:30:01Z</time>
      </trkpt>
      <trkpt lat="50.45975" lon="1.77077">
        <ele>54.6</ele>
        <time>2012-02-04T08:30:03Z</time>
      </trkpt>
      <trkpt lat="50.45977" lon="1.77083">
        <ele>54.7</ele>
        <time>2012-02-04T08:30:04Z</time>
      </trkpt>
      <trkpt lat="50.4598" lon="1.7709">
        <ele>55.1</ele>
        <time>2012-02-04T08:30:05Z</time>
      </trkpt>
      <trkpt lat="50.45985" lon="1.77102">
        <ele>55.8</ele>
        <time>2012-02-04T08:30:07Z</time>
      </trkpt>
      <trkpt lat="50.45988" lon="1.77109">
        <ele>56</ele>
        <time>2012-02-04T08:30:08Z</time>
      </trkpt>
      <trkpt lat="50.4599" lon="1.77116">
        <ele>56.4</ele>
        <time>2012-02-04T08:30:09Z</time>
      </trkpt>
      <trkpt lat="50.45993" lon="1.77123">
        <ele>56.9</ele>
        <time>2012-02-04T08:30:10Z</time>
      </trkpt>
      <trkpt lat="50.45996" lon="1.77128">
        <ele>57.1</ele>
        <time>2012-02-04T08:30:11Z</time>
      </trkpt>
      <trkpt lat="50.45998" lon="1.77135">
        <ele>56.7</ele>
        <time>2012-02-04T08:30:12Z</time>
      </trkpt>
      <trkpt lat="50.46" lon="1.77142">
        <ele>56.7</ele>
        <time>2012-02-04T08:30:13Z</time>
      </trkpt>
      <trkpt lat="50.46003" lon="1.77149">
        <ele>57.3</ele>
        <time>2012-02-04T08:30:14Z</time>
      </trkpt>
      <trkpt lat="50.46006" lon="1.77157">
        <ele>58.2</ele>
        <time>2012-02-04T08:30:15Z</time>
      </trkpt>
      <trkpt lat="50.46008" lon="1.77163">
        <ele>58.6</ele>
        <time>2012-02-04T08:30:16Z</time>
      </trkpt>
      <trkpt lat="50.46011" lon="1.7717">
        <ele>59.4</ele>
        <time>2012-02-04T08:30:17Z</time>
      </trkpt>
      <trkpt lat="50.46013" lon="1.77176">
        <ele>59.5</ele>
        <time>2012-02-04T08:30:18Z</time>
      </trkpt>
      <trkpt lat="50.46016" lon="1.77182">
        <ele>59.4</ele>
        <time>2012-02-04T08:30:19Z</time>
      </trkpt>
      <trkpt lat="50.46022" lon="1.77192">
        <ele>59.7</ele>
        <time>2012-02-04T08:30:21Z</time>
      </trkpt>
      <trkpt lat="50.46026" lon="1.77197">
        <ele>59.4</ele>
        <time>2012-02-04T08:30:22Z</time>
      </trkpt>
      <trkpt lat="50.46032" lon="1.77207">
        <ele>59.6</ele>
        <time>2012-02-04T08:30:24Z</time>
      </trkpt>
      <trkpt lat="50.46035" lon="1.77212">
        <ele>59.4</ele>
        <time>2012-02-04T08:30:25Z</time>
      </trkpt>
      <trkpt lat="50.46039" lon="1.77216">
        <ele>59.7</ele>
        <time>2012-02-04T08:30:26Z</time>
      </trkpt>
      <trkpt lat="50.46046" lon="1.77224">
        <ele>60.1</ele>
        <time>2012-02-04T08:30:28Z</time>
      </trkpt>
      <trkpt lat="50.46053" lon="1.77228">
        <ele>59.2</ele>
        <time>2012-02-04T08:30:30Z</time>
      </trkpt>
      <trkpt lat="50.46062" lon="1.77233">
        <ele>58.5</ele>
        <time>2012-02-04T08:30:32Z</time>
      </trkpt>
      <trkpt lat="50.46067" lon="1.77235">
        <ele>58.4</ele>
        <time>2012-02-04T08:30:33Z</time>
      </trkpt>
      <trkpt lat="50.46071" lon="1.77237">
        <ele>59</ele>
        <time>2012-02-04T08:30:34Z</time>
      </trkpt>
      <trkpt lat="50.46076" lon="1.77238">
        <ele>59.1</ele>
        <time>2012-02-04T08:30:35Z</time>
      </trkpt>
      <trkpt lat="50.4608" lon="1.77239">
        <ele>59.7</ele>
        <time>2012-02-04T08:30:36Z</time>
      </trkpt>
      <trkpt lat="50.46088" lon="1.7724">
        <ele>59.8</ele>
        <time>2012-02-04T08:30:38Z</time>
      </trkpt>
      <trkpt lat="50.46096" lon="1.77241">
        <ele>59.8</ele>
        <time>2012-02-04T08:30:40Z</time>
      </trkpt>
      <trkpt lat="50.46101" lon="1.77238">
        <ele>59.5</ele>
        <time>2012-02-04T08:30:41Z</time>
      </trkpt>
      <trkpt lat="50.46107" lon="1.77236">
        <ele>59.7</ele>
        <time>2012-02-04T08:30:42Z</time>
      </trkpt>
      <trkpt lat="50.46112" lon="1.77234">
        <ele>59.8</ele>
        <time>2012-02-04T08:30:43Z</time>
      </trkpt>
      <trkpt lat="50.46118" lon="1.77231">
        <ele>60</ele>
        <time>2012-02-04T08:30:44Z</time>
      </trkpt>
      <trkpt lat="50.46124" lon="1.77229">
        <ele>59.9</ele>
        <time>2012-02-04T08:30:45Z</time>
      </trkpt>
      <trkpt lat="50.4613" lon="1.77229">
        <ele>60.1</ele>
        <time>2012-02-04T08:30:46Z</time>
      </trkpt>
      <trkpt lat="50.46135" lon="1.77229">
        <ele>59.8</ele>
        <time>2012-02-04T08:30:47Z</time>
      </trkpt>
      <trkpt lat="50.46143" lon="1.77233">
        <ele>58.2</ele>
        <time>2012-02-04T08:30:48Z</time>
      </trkpt>
      <trkpt lat="50.46151" lon="1.77234">
        <ele>58.6</ele>
        <time>2012-02-04T08:30:49Z</time>
      </trkpt>
      <trkpt lat="50.46158" lon="1.77236">
        <ele>58.6</ele>
        <time>2012-02-04T08:30:50Z</time>
      </trkpt>
      <trkpt lat="50.46165" lon="1.77238">
        <ele>58.3</ele>
        <time>2012-02-04T08:30:51Z</time>
      </trkpt>
      <trkpt lat="50.46172" lon="1.77238">
        <ele>58.3</ele>
        <time>2012-02-04T08:30:52Z</time>
      </trkpt>
      <trkpt lat="50.46179" lon="1.7724">
        <ele>58.1</ele>
        <time>2012-02-04T08:30:53Z</time>
      </trkpt>
      <trkpt lat="50.46187" lon="1.77245">
        <ele>58</ele>
        <time>2012-02-04T08:30:54Z</time>
      </trkpt>
      <trkpt lat="50.46193" lon="1.77248">
        <ele>57.6</ele>
        <time>2012-02-04T08:30:55Z</time>
      </trkpt>
      <trkpt lat="50.462" lon="1.77253">
        <ele>56.9</ele>
        <time>2012-02-04T08:30:56Z</time>
      </trkpt>
      <trkpt lat="50.46205" lon="1.77257">
        <ele>56.8</ele>
        <time>2012-02-04T08:30:57Z</time>
      </trkpt>
      <trkpt lat="50.46211" lon="1.7726">
        <ele>56.5</ele>
        <time>2012-02-04T08:30:58Z</time>
      </trkpt>
      <trkpt lat="50.46218" lon="1.77264">
        <ele>56.3</ele>
        <time>2012-02-04T08:30:59Z</time>
      </trkpt>
      <trkpt lat="50.46224" lon="1.77268">
        <ele>55.9</ele>
        <time>2012-02-04T08:31:00Z</time>
      </trkpt>
      <trkpt lat="50.46229" lon="1.77272">
        <ele>55.8</ele>
        <time>2012-02-04T08:31:01Z</time>
      </trkpt>
      <trkpt lat="50.46235" lon="1.77275">
        <ele>55.7</ele>
        <time>2012-02-04T08:31:02Z</time>
      </trkpt>
      <trkpt lat="50.4624" lon="1.77279">
        <ele>55.7</ele>
        <time>2012-02-04T08:31:03Z</time>
      </trkpt>
      <trkpt lat="50.46245" lon="1.77282">
        <ele>55.7</ele>
        <time>2012-02-04T08:31:04Z</time>
      </trkpt>
      <trkpt lat="50.46251" lon="1.77286">
        <ele>55.7</ele>
        <time>2012-02-04T08:31:05Z</time>
      </trkpt>
      <trkpt lat="50.46256" lon="1.77289">
        <ele>55.6</ele>
        <time>2012-02-04T08:31:06Z</time>
      </trkpt>
      <trkpt lat="50.46261" lon="1.77294">
        <ele>54.4</ele>
        <time>2012-02-04T08:31:07Z</time>
      </trkpt>
      <trkpt lat="50.46266" lon="1.77298">
        <ele>53.7</ele>
        <time>2012-02-04T08:31:08Z</time>
      </trkpt>
      <trkpt lat="50.46271" lon="1.77301">
        <ele>53.2</ele>
        <time>2012-02-04T08:31:09Z</time>
      </trkpt>
      <trkpt lat="50.46276" lon="1.77304">
        <ele>53</ele>
        <time>2012-02-04T08:31:10Z</time>
      </trkpt>
      <trkpt lat="50.46281" lon="1.77307">
        <ele>52.7</ele>
        <time>2012-02-04T08:31:11Z</time>
      </trkpt>
      <trkpt lat="50.46286" lon="1.7731">
        <ele>52.1</ele>
        <time>2012-02-04T08:31:12Z</time>
      </trkpt>
      <trkpt lat="50.46294" lon="1.77311">
        <ele>52.6</ele>
        <time>2012-02-04T08:31:14Z</time>
      </trkpt>
      <trkpt lat="50.46301" lon="1.77311">
        <ele>53</ele>
        <time>2012-02-04T08:31:16Z</time>
      </trkpt>
      <trkpt lat="50.46305" lon="1.77315">
        <ele>53.2</ele>
        <time>2012-02-04T08:31:17Z</time>
      </trkpt>
      <trkpt lat="50.46312" lon="1.77326">
        <ele>51.6</ele>
        <time>2012-02-04T08:31:18Z</time>
      </trkpt>
      <trkpt lat="50.46316" lon="1.7733">
        <ele>51.5</ele>
        <time>2012-02-04T08:31:19Z</time>
      </trkpt>
      <trkpt lat="50.46321" lon="1.77334">
        <ele>51.6</ele>
        <time>2012-02-04T08:31:20Z</time>
      </trkpt>
      <trkpt lat="50.46324" lon="1.77339">
        <ele>51.7</ele>
        <time>2012-02-04T08:31:21Z</time>
      </trkpt>
      <trkpt lat="50.46329" lon="1.77352">
        <ele>51.6</ele>
        <time>2012-02-04T08:31:23Z</time>
      </trkpt>
      <trkpt lat="50.4633" lon="1.7736">
        <ele>51.2</ele>
        <time>2012-02-04T08:31:24Z</time>
      </trkpt>
      <trkpt lat="50.46329" lon="1.77368">
        <ele>51</ele>
        <time>2012-02-04T08:31:25Z</time>
      </trkpt>
      <trkpt lat="50.46327" lon="1.77374">
        <ele>50.2</ele>
        <time>2012-02-04T08:31:26Z</time>
      </trkpt>
      <trkpt lat="50.46325" lon="1.77381">
        <ele>49.7</ele>
        <time>2012-02-04T08:31:27Z</time>
      </trkpt>
      <trkpt lat="50.4632" lon="1.77393">
        <ele>48.7</ele>
        <time>2012-02-04T08:31:29Z</time>
      </trkpt>
      <trkpt lat="50.46317" lon="1.774">
        <ele>48.4</ele>
        <time>2012-02-04T08:31:30Z</time>
      </trkpt>
      <trkpt lat="50.46315" lon="1.77408">
        <ele>48.2</ele>
        <time>2012-02-04T08:31:31Z</time>
      </trkpt>
      <trkpt lat="50.46313" lon="1.77414">
        <ele>48.1</ele>
        <time>2012-02-04T08:31:32Z</time>
      </trkpt>
      <trkpt lat="50.46309" lon="1.77426">
        <ele>48.1</ele>
        <time>2012-02-04T08:31:34Z</time>
      </trkpt>
      <trkpt lat="50.46306" lon="1.77438">
        <ele>47.5</ele>
        <time>2012-02-04T08:31:36Z</time>
      </trkpt>
      <trkpt lat="50.46304" lon="1.77448">
        <ele>48.1</ele>
        <time>2012-02-04T08:31:38Z</time>
      </trkpt>
      <trkpt lat="50.46297" lon="1.77448">
        <ele>48.9</ele>
        <time>2012-02-04T08:31:40Z</time>
      </trkpt>
      <trkpt lat="50.46291" lon="1.77452">
        <ele>49.4</ele>
        <time>2012-02-04T08:31:42Z</time>
      </trkpt>
      <trkpt lat="50.46288" lon="1.77461">
        <ele>48.6</ele>
        <time>2012-02-04T08:31:44Z</time>
      </trkpt>
      <trkpt lat="50.46286" lon="1.77468">
        <ele>50.3</ele>
        <time>2012-02-04T08:31:46Z</time>
      </trkpt>
      <trkpt lat="50.46287" lon="1.77478">
        <ele>50.1</ele>
        <time>2012-02-04T08:31:48Z</time>
      </trkpt>
      <trkpt lat="50.46288" lon="1.77485">
        <ele>50</ele>
        <time>2012-02-04T08:31:49Z</time>
      </trkpt>
      <trkpt lat="50.46287" lon="1.77495">
        <ele>50.5</ele>
        <time>2012-02-04T08:31:51Z</time>
      </trkpt>
      <trkpt lat="50.46284" lon="1.77505">
        <ele>50.7</ele>
        <time>2012-02-04T08:31:53Z</time>
      </trkpt>
      <trkpt lat="50.46283" lon="1.77512">
        <ele>48.5</ele>
        <time>2012-02-04T08:31:54Z</time>
      </trkpt>
      <trkpt lat="50.46278" lon="1.77524">
        <ele>48.1</ele>
        <time>2012-02-04T08:31:56Z</time>
      </trkpt>
      <trkpt lat="50.46273" lon="1.77533">
        <ele>47.6</ele>
        <time>2012-02-04T08:31:58Z</time>
      </trkpt>
      <trkpt lat="50.46267" lon="1.77526">
        <ele>48.7</ele>
        <time>2012-02-04T08:32:00Z</time>
      </trkpt>
      <trkpt lat="50.46261" lon="1.77523">
        <ele>49.4</ele>
        <time>2012-02-04T08:32:02Z</time>
      </trkpt>
      <trkpt lat="50.46256" lon="1.77524">
        <ele>49.3</ele>
        <time>2012-02-04T08:32:04Z</time>
      </trkpt>
      <trkpt lat="50.46253" lon="1.77532">
        <ele>47.1</ele>
        <time>2012-02-04T08:32:06Z</time>
      </trkpt>
      <trkpt lat="50.46253" lon="1.77542">
        <ele>46.6</ele>
        <time>2012-02-04T08:32:08Z</time>
      </trkpt>
      <trkpt lat="50.46252" lon="1.77551">
        <ele>47</ele>
        <time>2012-02-04T08:32:10Z</time>
      </trkpt>
      <trkpt lat="50.46251" lon="1.77561">
        <ele>47.2</ele>
        <time>2012-02-04T08:32:12Z</time>
      </trkpt>
      <trkpt lat="50.4625" lon="1.7757">
        <ele>47.6</ele>
        <time>2012-02-04T08:32:14Z</time>
      </trkpt>
      <trkpt lat="50.46249" lon="1.7758">
        <ele>50.9</ele>
        <time>2012-02-04T08:32:16Z</time>
      </trkpt>
      <trkpt lat="50.46248" lon="1.77591">
        <ele>51.9</ele>
        <time>2012-02-04T08:32:18Z</time>
      </trkpt>
      <trkpt lat="50.46246" lon="1.77601">
        <ele>53</ele>
        <time>2012-02-04T08:32:20Z</time>
      </trkpt>
      <trkpt lat="50.46244" lon="1.77612">
        <ele>53.1</ele>
        <time>2012-02-04T08:32:22Z</time>
      </trkpt>
      <trkpt lat="50.46242" lon="1.7762">
        <ele>52.5</ele>
        <time>2012-02-04T08:32:24Z</time>
      </trkpt>
      <trkpt lat="50.4624" lon="1.7763">
        <ele>55.8</ele>
        <time>2012-02-04T08:32:26Z</time>
      </trkpt>
      <trkpt lat="50.46239" lon="1.77639">
        <ele>55.7</ele>
        <time>2012-02-04T08:32:28Z</time>
      </trkpt>
      <trkpt lat="50.46237" lon="1.77648">
        <ele>55.9</ele>
        <time>2012-02-04T08:32:30Z</time>
      </trkpt>
      <trkpt lat="50.46236" lon="1.77658">
        <ele>57.6</ele>
        <time>2012-02-04T08:32:32Z</time>
      </trkpt>
      <trkpt lat="50.46235" lon="1.77666">
        <ele>58.8</ele>
        <time>2012-02-04T08:32:34Z</time>
      </trkpt>
      <trkpt lat="50.46234" lon="1.77677">
        <ele>57.4</ele>
        <time>2012-02-04T08:32:36Z</time>
      </trkpt>
      <trkpt lat="50.46232" lon="1.77687">
        <ele>58.1</ele>
        <time>2012-02-04T08:32:38Z</time>
      </trkpt>
      <trkpt lat="50.4623" lon="1.77695">
        <ele>61.7</ele>
        <time>2012-02-04T08:32:40Z</time>
      </trkpt>
      <trkpt lat="50.4623" lon="1.77706">
        <ele>62.5</ele>
        <time>2012-02-04T08:32:42Z</time>
      </trkpt>
      <trkpt lat="50.46229" lon="1.77715">
        <ele>63</ele>
        <time>2012-02-04T08:32:44Z</time>
      </trkpt>
      <trkpt lat="50.46228" lon="1.77725">
        <ele>62.5</ele>
        <time>2012-02-04T08:32:46Z</time>
      </trkpt>
      <trkpt lat="50.46227" lon="1.77733">
        <ele>60.5</ele>
        <time>2012-02-04T08:32:48Z</time>
      </trkpt>
      <trkpt lat="50.46225" lon="1.77744">
        <ele>60.4</ele>
        <time>2012-02-04T08:32:50Z</time>
      </trkpt>
      <trkpt lat="50.46224" lon="1.77754">
        <ele>60.1</ele>
        <time>2012-02-04T08:32:52Z</time>
      </trkpt>
      <trkpt lat="50.46222" lon="1.77763">
        <ele>60.8</ele>
        <time>2012-02-04T08:32:54Z</time>
      </trkpt>
      <trkpt lat="50.46221" lon="1.77773">
        <ele>60.9</ele>
        <time>2012-02-04T08:32:56Z</time>
      </trkpt>
      <trkpt lat="50.46221" lon="1.77785">
        <ele>63.3</ele>
        <time>2012-02-04T08:32:58Z</time>
      </trkpt>
      <trkpt lat="50.4622" lon="1.77796">
        <ele>62.5</ele>
        <time>2012-02-04T08:33:00Z</time>
      </trkpt>
      <trkpt lat="50.46219" lon="1.77805">
        <ele>62.2</ele>
        <time>2012-02-04T08:33:02Z</time>
      </trkpt>
      <trkpt lat="50.46218" lon="1.77816">
        <ele>62.3</ele>
        <time>2012-02-04T08:33:04Z</time>
      </trkpt>
      <trkpt lat="50.46215" lon="1.77824">
        <ele>59.9</ele>
        <time>2012-02-04T08:33:06Z</time>
      </trkpt>
      <trkpt lat="50.46213" lon="1.77832">
        <ele>59.9</ele>
        <time>2012-02-04T08:33:08Z</time>
      </trkpt>
      <trkpt lat="50.46213" lon="1.77841">
        <ele>60</ele>
        <time>2012-02-04T08:33:10Z</time>
      </trkpt>
      <trkpt lat="50.46211" lon="1.7785">
        <ele>59.6</ele>
        <time>2012-02-04T08:33:12Z</time>
      </trkpt>
      <trkpt lat="50.46209" lon="1.77859">
        <ele>60.2</ele>
        <time>2012-02-04T08:33:14Z</time>
      </trkpt>
      <trkpt lat="50.46206" lon="1.77867">
        <ele>61.8</ele>
        <time>2012-02-04T08:33:16Z</time>
      </trkpt>
      <trkpt lat="50.46204" lon="1.77876">
        <ele>62.5</ele>
        <time>2012-02-04T08:33:18Z</time>
      </trkpt>
      <trkpt lat="50.46201" lon="1.77884">
        <ele>62.6</ele>
        <time>2012-02-04T08:33:20Z</time>
      </trkpt>
      <trkpt lat="50.46197" lon="1.77892">
        <ele>61.4</ele>
        <time>2012-02-04T08:33:22Z</time>
      </trkpt>
      <trkpt lat="50.46194" lon="1.779">
        <ele>61.4</ele>
        <time>2012-02-04T08:33:24Z</time>
      </trkpt>
      <trkpt lat="50.4619" lon="1.77907">
        <ele>63.8</ele>
        <time>2012-02-04T08:33:26Z</time>
      </trkpt>
      <trkpt lat="50.46186" lon="1.77914">
        <ele>63.6</ele>
        <time>2012-02-04T08:33:28Z</time>
      </trkpt>
      <trkpt lat="50.46182" lon="1.77921">
        <ele>63.3</ele>
        <time>2012-02-04T08:33:30Z</time>
      </trkpt>
      <trkpt lat="50.46178" lon="1.77926">
        <ele>63.3</ele>
        <time>2012-02-04T08:33:32Z</time>
      </trkpt>
      <trkpt lat="50.46173" lon="1.77932">
        <ele>64.6</ele>
        <time>2012-02-04T08:33:34Z</time>
      </trkpt>
      <trkpt lat="50.46168" lon="1.77938">
        <ele>65.2</ele>
        <time>2012-02-04T08:33:36Z</time>
      </trkpt>
      <trkpt lat="50.46162" lon="1.77944">
        <ele>65.2</ele>
        <time>2012-02-04T08:33:38Z</time>
      </trkpt>
      <trkpt lat="50.46158" lon="1.7795">
        <ele>65.5</ele>
        <time>2012-02-04T08:33:40Z</time>
      </trkpt>
      <trkpt lat="50.46154" lon="1.77956">
        <ele>65.7</ele>
        <time>2012-02-04T08:33:42Z</time>
      </trkpt>
      <trkpt lat="50.46149" lon="1.77961">
        <ele>66.9</ele>
        <time>2012-02-04T08:33:44Z</time>
      </trkpt>
      <trkpt lat="50.46146" lon="1.77967">
        <ele>67.2</ele>
        <time>2012-02-04T08:33:46Z</time>
      </trkpt>
      <trkpt lat="50.46142" lon="1.77973">
        <ele>67.3</ele>
        <time>2012-02-04T08:33:48Z</time>
      </trkpt>
      <trkpt lat="50.46138" lon="1.77978">
        <ele>66.1</ele>
        <time>2012-02-04T08:33:50Z</time>
      </trkpt>
      <trkpt lat="50.46134" lon="1.77983">
        <ele>65.9</ele>
        <time>2012-02-04T08:33:52Z</time>
      </trkpt>
      <trkpt lat="50.46129" lon="1.7799">
        <ele>66.6</ele>
        <time>2012-02-04T08:33:55Z</time>
      </trkpt>
      <trkpt lat="50.46125" lon="1.77996">
        <ele>66.7</ele>
        <time>2012-02-04T08:33:57Z</time>
      </trkpt>
      <trkpt lat="50.46123" lon="1.78004">
        <ele>68.6</ele>
        <time>2012-02-04T08:33:59Z</time>
      </trkpt>
      <trkpt lat="50.46119" lon="1.78009">
        <ele>65.8</ele>
        <time>2012-02-04T08:34:01Z</time>
      </trkpt>
      <trkpt lat="50.46116" lon="1.78016">
        <ele>66.4</ele>
        <time>2012-02-04T08:34:03Z</time>
      </trkpt>
      <trkpt lat="50.46111" lon="1.78023">
        <ele>66.2</ele>
        <time>2012-02-04T08:34:06Z</time>
      </trkpt>
      <trkpt lat="50.46108" lon="1.78028">
        <ele>65.8</ele>
        <time>2012-02-04T08:34:08Z</time>
      </trkpt>
      <trkpt lat="50.46103" lon="1.78038">
        <ele>67.7</ele>
        <time>2012-02-04T08:34:11Z</time>
      </trkpt>
      <trkpt lat="50.461" lon="1.78045">
        <ele>69.2</ele>
        <time>2012-02-04T08:34:13Z</time>
      </trkpt>
      <trkpt lat="50.46097" lon="1.7805">
        <ele>72.5</ele>
        <time>2012-02-04T08:34:15Z</time>
      </trkpt>
      <trkpt lat="50.46094" lon="1.78055">
        <ele>73</ele>
        <time>2012-02-04T08:34:17Z</time>
      </trkpt>
      <trkpt lat="50.4609" lon="1.7806">
        <ele>73</ele>
        <time>2012-02-04T08:34:19Z</time>
      </trkpt>
      <trkpt lat="50.46087" lon="1.78066">
        <ele>71.4</ele>
        <time>2012-02-04T08:34:22Z</time>
      </trkpt>
      <trkpt lat="50.46084" lon="1.78072">
        <ele>73.8</ele>
        <time>2012-02-04T08:34:23Z</time>
      </trkpt>
      <trkpt lat="50.4608" lon="1.78078">
        <ele>74.2</ele>
        <time>2012-02-04T08:34:25Z</time>
      </trkpt>
      <trkpt lat="50.46075" lon="1.78082">
        <ele>75.5</ele>
        <time>2012-02-04T08:34:27Z</time>
      </trkpt>
      <trkpt lat="50.46071" lon="1.78087">
        <ele>76.1</ele>
        <time>2012-02-04T08:34:29Z</time>
      </trkpt>
      <trkpt lat="50.46067" lon="1.78092">
        <ele>76.3</ele>
        <time>2012-02-04T08:34:31Z</time>
      </trkpt>
      <trkpt lat="50.46062" lon="1.78097">
        <ele>76.5</ele>
        <time>2012-02-04T08:34:33Z</time>
      </trkpt>
      <trkpt lat="50.46057" lon="1.78099">
        <ele>76.9</ele>
        <time>2012-02-04T08:34:35Z</time>
      </trkpt>
      <trkpt lat="50.46051" lon="1.78102">
        <ele>77.4</ele>
        <time>2012-02-04T08:34:38Z</time>
      </trkpt>
      <trkpt lat="50.46046" lon="1.78104">
        <ele>78.7</ele>
        <time>2012-02-04T08:34:40Z</time>
      </trkpt>
      <trkpt lat="50.4604" lon="1.78107">
        <ele>79.5</ele>
        <time>2012-02-04T08:34:42Z</time>
      </trkpt>
      <trkpt lat="50.46035" lon="1.78109">
        <ele>80.8</ele>
        <time>2012-02-04T08:34:44Z</time>
      </trkpt>
      <trkpt lat="50.4603" lon="1.78111">
        <ele>80.9</ele>
        <time>2012-02-04T08:34:46Z</time>
      </trkpt>
      <trkpt lat="50.46025" lon="1.78113">
        <ele>81.3</ele>
        <time>2012-02-04T08:34:48Z</time>
      </trkpt>
      <trkpt lat="50.46018" lon="1.78116">
        <ele>82</ele>
        <time>2012-02-04T08:34:50Z</time>
      </trkpt>
      <trkpt lat="50.46013" lon="1.78116">
        <ele>83.3</ele>
        <time>2012-02-04T08:34:52Z</time>
      </trkpt>
      <trkpt lat="50.46003" lon="1.78117">
        <ele>83.3</ele>
        <time>2012-02-04T08:34:55Z</time>
      </trkpt>
      <trkpt lat="50.45996" lon="1.78118">
        <ele>83.5</ele>
        <time>2012-02-04T08:34:57Z</time>
      </trkpt>
      <trkpt lat="50.45989" lon="1.7812">
        <ele>84.1</ele>
        <time>2012-02-04T08:34:59Z</time>
      </trkpt>
      <trkpt lat="50.45982" lon="1.7812">
        <ele>84.8</ele>
        <time>2012-02-04T08:35:01Z</time>
      </trkpt>
      <trkpt lat="50.45975" lon="1.78123">
        <ele>84.7</ele>
        <time>2012-02-04T08:35:03Z</time>
      </trkpt>
      <trkpt lat="50.45968" lon="1.78125">
        <ele>85</ele>
        <time>2012-02-04T08:35:05Z</time>
      </trkpt>
      <trkpt lat="50.45961" lon="1.78128">
        <ele>86.1</ele>
        <time>2012-02-04T08:35:07Z</time>
      </trkpt>
      <trkpt lat="50.45954" lon="1.7813">
        <ele>86.1</ele>
        <time>2012-02-04T08:35:09Z</time>
      </trkpt>
      <trkpt lat="50.45947" lon="1.78133">
        <ele>85.5</ele>
        <time>2012-02-04T08:35:11Z</time>
      </trkpt>
      <trkpt lat="50.4594" lon="1.78136">
        <ele>85.2</ele>
        <time>2012-02-04T08:35:13Z</time>
      </trkpt>
      <trkpt lat="50.45932" lon="1.7814">
        <ele>85.5</ele>
        <time>2012-02-04T08:35:15Z</time>
      </trkpt>
      <trkpt lat="50.45926" lon="1.78143">
        <ele>85</ele>
        <time>2012-02-04T08:35:17Z</time>
      </trkpt>
      <trkpt lat="50.45919" lon="1.78146">
        <ele>85</ele>
        <time>2012-02-04T08:35:19Z</time>
      </trkpt>
      <trkpt lat="50.45912" lon="1.7815">
        <ele>85.3</ele>
        <time>2012-02-04T08:35:21Z</time>
      </trkpt>
      <trkpt lat="50.45905" lon="1.78154">
        <ele>85.3</ele>
        <time>2012-02-04T08:35:23Z</time>
      </trkpt>
      <trkpt lat="50.45898" lon="1.78158">
        <ele>84.8</ele>
        <time>2012-02-04T08:35:25Z</time>
      </trkpt>
      <trkpt lat="50.45892" lon="1.78161">
        <ele>85</ele>
        <time>2012-02-04T08:35:27Z</time>
      </trkpt>
      <trkpt lat="50.45884" lon="1.78167">
        <ele>84.9</ele>
        <time>2012-02-04T08:35:29Z</time>
      </trkpt>
      <trkpt lat="50.45876" lon="1.78172">
        <ele>85.7</ele>
        <time>2012-02-04T08:35:31Z</time>
      </trkpt>
      <trkpt lat="50.4587" lon="1.78177">
        <ele>85.9</ele>
        <time>2012-02-04T08:35:33Z</time>
      </trkpt>
      <trkpt lat="50.45862" lon="1.78181">
        <ele>85.4</ele>
        <time>2012-02-04T08:35:35Z</time>
      </trkpt>
      <trkpt lat="50.45855" lon="1.78186">
        <ele>84.8</ele>
        <time>2012-02-04T08:35:37Z</time>
      </trkpt>
      <trkpt lat="50.45848" lon="1.7819">
        <ele>84.6</ele>
        <time>2012-02-04T08:35:39Z</time>
      </trkpt>
      <trkpt lat="50.4584" lon="1.78194">
        <ele>84.5</ele>
        <time>2012-02-04T08:35:41Z</time>
      </trkpt>
      <trkpt lat="50.45834" lon="1.78198">
        <ele>84.9</ele>
        <time>2012-02-04T08:35:43Z</time>
      </trkpt>
      <trkpt lat="50.45828" lon="1.78202">
        <ele>84.7</ele>
        <time>2012-02-04T08:35:45Z</time>
      </trkpt>
      <trkpt lat="50.45822" lon="1.78206">
        <ele>84.4</ele>
        <time>2012-02-04T08:35:47Z</time>
      </trkpt>
      <trkpt lat="50.45818" lon="1.7821">
        <ele>85</ele>
        <time>2012-02-04T08:35:49Z</time>
      </trkpt>
      <trkpt lat="50.45813" lon="1.78214">
        <ele>84.9</ele>
        <time>2012-02-04T08:35:51Z</time>
      </trkpt>
      <trkpt lat="50.45809" lon="1.78218">
        <ele>85</ele>
        <time>2012-02-04T08:35:53Z</time>
      </trkpt>
      <trkpt lat="50.45805" lon="1.78222">
        <ele>84.6</ele>
        <time>2012-02-04T08:35:55Z</time>
      </trkpt>
      <trkpt lat="50.458" lon="1.78225">
        <ele>85.3</ele>
        <time>2012-02-04T08:35:57Z</time>
      </trkpt>
      <trkpt lat="50.45796" lon="1.78228">
        <ele>86</ele>
        <time>2012-02-04T08:35:59Z</time>
      </trkpt>
      <trkpt lat="50.45792" lon="1.78232">
        <ele>86.1</ele>
        <time>2012-02-04T08:36:01Z</time>
      </trkpt>
      <trkpt lat="50.45787" lon="1.78235">
        <ele>85.9</ele>
        <time>2012-02-04T08:36:03Z</time>
      </trkpt>
      <trkpt lat="50.45783" lon="1.78238">
        <ele>86</ele>
        <time>2012-02-04T08:36:05Z</time>
      </trkpt>
      <trkpt lat="50.45779" lon="1.78242">
        <ele>86.5</ele>
        <time>2012-02-04T08:36:07Z</time>
      </trkpt>
      <trkpt lat="50.45774" lon="1.78246">
        <ele>86.6</ele>
        <time>2012-02-04T08:36:09Z</time>
      </trkpt>
      <trkpt lat="50.4577" lon="1.7825">
        <ele>87</ele>
        <time>2012-02-04T08:36:11Z</time>
      </trkpt>
      <trkpt lat="50.45765" lon="1.78252">
        <ele>87.7</ele>
        <time>2012-02-04T08:36:13Z</time>
      </trkpt>
      <trkpt lat="50.45761" lon="1.78255">
        <ele>87.4</ele>
        <time>2012-02-04T08:36:15Z</time>
      </trkpt>
      <trkpt lat="50.45755" lon="1.78258">
        <ele>88.6</ele>
        <time>2012-02-04T08:36:17Z</time>
      </trkpt>
      <trkpt lat="50.4575" lon="1.78261">
        <ele>86.3</ele>
        <time>2012-02-04T08:36:20Z</time>
      </trkpt>
      <trkpt lat="50.45746" lon="1.78264">
        <ele>86.4</ele>
        <time>2012-02-04T08:36:22Z</time>
      </trkpt>
      <trkpt lat="50.45741" lon="1.78266">
        <ele>86.1</ele>
        <time>2012-02-04T08:36:24Z</time>
      </trkpt>
      <trkpt lat="50.45736" lon="1.78268">
        <ele>86.4</ele>
        <time>2012-02-04T08:36:26Z</time>
      </trkpt>
      <trkpt lat="50.45731" lon="1.7827">
        <ele>87.4</ele>
        <time>2012-02-04T08:36:28Z</time>
      </trkpt>
      <trkpt lat="50.45726" lon="1.78272">
        <ele>87.6</ele>
        <time>2012-02-04T08:36:30Z</time>
      </trkpt>
      <trkpt lat="50.4572" lon="1.78275">
        <ele>87.4</ele>
        <time>2012-02-04T08:36:33Z</time>
      </trkpt>
      <trkpt lat="50.45715" lon="1.78276">
        <ele>88.2</ele>
        <time>2012-02-04T08:36:35Z</time>
      </trkpt>
      <trkpt lat="50.4571" lon="1.78278">
        <ele>88.4</ele>
        <time>2012-02-04T08:36:37Z</time>
      </trkpt>
      <trkpt lat="50.45703" lon="1.78282">
        <ele>87.7</ele>
        <time>2012-02-04T08:36:40Z</time>
      </trkpt>
      <trkpt lat="50.45698" lon="1.78282">
        <ele>88</ele>
        <time>2012-02-04T08:36:42Z</time>
      </trkpt>
      <trkpt lat="50.45693" lon="1.78284">
        <ele>89</ele>
        <time>2012-02-04T08:36:43Z</time>
      </trkpt>
      <trkpt lat="50.45688" lon="1.78286">
        <ele>88.7</ele>
        <time>2012-02-04T08:36:45Z</time>
      </trkpt>
      <trkpt lat="50.45681" lon="1.78287">
        <ele>89.4</ele>
        <time>2012-02-04T08:36:47Z</time>
      </trkpt>
      <trkpt lat="50.45675" lon="1.78288">
        <ele>89.4</ele>
        <time>2012-02-04T08:36:49Z</time>
      </trkpt>
      <trkpt lat="50.45669" lon="1.78289">
        <ele>89.2</ele>
        <time>2012-02-04T08:36:51Z</time>
      </trkpt>
      <trkpt lat="50.45662" lon="1.7829">
        <ele>89.4</ele>
        <time>2012-02-04T08:36:53Z</time>
      </trkpt>
      <trkpt lat="50.45655" lon="1.78291">
        <ele>89.4</ele>
        <time>2012-02-04T08:36:55Z</time>
      </trkpt>
      <trkpt lat="50.45649" lon="1.78292">
        <ele>89.7</ele>
        <time>2012-02-04T08:36:57Z</time>
      </trkpt>
      <trkpt lat="50.45642" lon="1.78294">
        <ele>90</ele>
        <time>2012-02-04T08:36:59Z</time>
      </trkpt>
      <trkpt lat="50.45636" lon="1.78296">
        <ele>90.1</ele>
        <time>2012-02-04T08:37:01Z</time>
      </trkpt>
      <trkpt lat="50.45628" lon="1.78296">
        <ele>89.7</ele>
        <time>2012-02-04T08:37:04Z</time>
      </trkpt>
      <trkpt lat="50.45622" lon="1.78298">
        <ele>89.2</ele>
        <time>2012-02-04T08:37:06Z</time>
      </trkpt>
      <trkpt lat="50.45617" lon="1.78298">
        <ele>89.5</ele>
        <time>2012-02-04T08:37:08Z</time>
      </trkpt>
      <trkpt lat="50.45612" lon="1.78298">
        <ele>89.7</ele>
        <time>2012-02-04T08:37:10Z</time>
      </trkpt>
      <trkpt lat="50.45607" lon="1.78298">
        <ele>89.5</ele>
        <time>2012-02-04T08:37:12Z</time>
      </trkpt>
      <trkpt lat="50.45602" lon="1.78298">
        <ele>89.2</ele>
        <time>2012-02-04T08:37:14Z</time>
      </trkpt>
      <trkpt lat="50.45597" lon="1.78299">
        <ele>89.2</ele>
        <time>2012-02-04T08:37:16Z</time>
      </trkpt>
      <trkpt lat="50.45591" lon="1.78299">
        <ele>89.4</ele>
        <time>2012-02-04T08:37:18Z</time>
      </trkpt>
      <trkpt lat="50.45584" lon="1.78299">
        <ele>90.2</ele>
        <time>2012-02-04T08:37:20Z</time>
      </trkpt>
      <trkpt lat="50.45578" lon="1.783">
        <ele>90</ele>
        <time>2012-02-04T08:37:23Z</time>
      </trkpt>
      <trkpt lat="50.45572" lon="1.78301">
        <ele>89.9</ele>
        <time>2012-02-04T08:37:25Z</time>
      </trkpt>
      <trkpt lat="50.45566" lon="1.78302">
        <ele>89.8</ele>
        <time>2012-02-04T08:37:27Z</time>
      </trkpt>
      <trkpt lat="50.4556" lon="1.78302">
        <ele>89.5</ele>
        <time>2012-02-04T08:37:29Z</time>
      </trkpt>
      <trkpt lat="50.45554" lon="1.78303">
        <ele>89.7</ele>
        <time>2012-02-04T08:37:31Z</time>
      </trkpt>
      <trkpt lat="50.45548" lon="1.78303">
        <ele>90.3</ele>
        <time>2012-02-04T08:37:33Z</time>
      </trkpt>
      <trkpt lat="50.45542" lon="1.78303">
        <ele>89.9</ele>
        <time>2012-02-04T08:37:35Z</time>
      </trkpt>
      <trkpt lat="50.45536" lon="1.78304">
        <ele>90.2</ele>
        <time>2012-02-04T08:37:37Z</time>
      </trkpt>
      <trkpt lat="50.45531" lon="1.78305">
        <ele>89.8</ele>
        <time>2012-02-04T08:37:39Z</time>
      </trkpt>
      <trkpt lat="50.45525" lon="1.78306">
        <ele>89.9</ele>
        <time>2012-02-04T08:37:41Z</time>
      </trkpt>
      <trkpt lat="50.45518" lon="1.78306">
        <ele>90.1</ele>
        <time>2012-02-04T08:37:43Z</time>
      </trkpt>
      <trkpt lat="50.45513" lon="1.78306">
        <ele>89.9</ele>
        <time>2012-02-04T08:37:45Z</time>
      </trkpt>
      <trkpt lat="50.45508" lon="1.78306">
        <ele>90.2</ele>
        <time>2012-02-04T08:37:47Z</time>
      </trkpt>
      <trkpt lat="50.45502" lon="1.78306">
        <ele>90.5</ele>
        <time>2012-02-04T08:37:49Z</time>
      </trkpt>
      <trkpt lat="50.45497" lon="1.78306">
        <ele>90.8</ele>
        <time>2012-02-04T08:37:51Z</time>
      </trkpt>
      <trkpt lat="50.45491" lon="1.78306">
        <ele>90.9</ele>
        <time>2012-02-04T08:37:53Z</time>
      </trkpt>
      <trkpt lat="50.45486" lon="1.78306">
        <ele>91.2</ele>
        <time>2012-02-04T08:37:55Z</time>
      </trkpt>
      <trkpt lat="50.4548" lon="1.78308">
        <ele>90.9</ele>
        <time>2012-02-04T08:37:57Z</time>
      </trkpt>
      <trkpt lat="50.45475" lon="1.78309">
        <ele>91.3</ele>
        <time>2012-02-04T08:37:59Z</time>
      </trkpt>
      <trkpt lat="50.4547" lon="1.78312">
        <ele>90.6</ele>
        <time>2012-02-04T08:38:01Z</time>
      </trkpt>
      <trkpt lat="50.45465" lon="1.78316">
        <ele>90.8</ele>
        <time>2012-02-04T08:38:03Z</time>
      </trkpt>
      <trkpt lat="50.4546" lon="1.78319">
        <ele>90.8</ele>
        <time>2012-02-04T08:38:05Z</time>
      </trkpt>
      <trkpt lat="50.45456" lon="1.7832">
        <ele>91.2</ele>
        <time>2012-02-04T08:38:07Z</time>
      </trkpt>
      <trkpt lat="50.45451" lon="1.78324">
        <ele>91.4</ele>
        <time>2012-02-04T08:38:09Z</time>
      </trkpt>
      <trkpt lat="50.45444" lon="1.78329">
        <ele>91.5</ele>
        <time>2012-02-04T08:38:11Z</time>
      </trkpt>
      <trkpt lat="50.45439" lon="1.78333">
        <ele>91.8</ele>
        <time>2012-02-04T08:38:13Z</time>
      </trkpt>
      <trkpt lat="50.45434" lon="1.78338">
        <ele>91.8</ele>
        <time>2012-02-04T08:38:15Z</time>
      </trkpt>
      <trkpt lat="50.45429" lon="1.78342">
        <ele>92.3</ele>
        <time>2012-02-04T08:38:17Z</time>
      </trkpt>
      <trkpt lat="50.45423" lon="1.78346">
        <ele>92.5</ele>
        <time>2012-02-04T08:38:19Z</time>
      </trkpt>
      <trkpt lat="50.45415" lon="1.7835">
        <ele>91.5</ele>
        <time>2012-02-04T08:38:22Z</time>
      </trkpt>
      <trkpt lat="50.4541" lon="1.78354">
        <ele>91.8</ele>
        <time>2012-02-04T08:38:24Z</time>
      </trkpt>
      <trkpt lat="50.45404" lon="1.78358">
        <ele>92.1</ele>
        <time>2012-02-04T08:38:26Z</time>
      </trkpt>
      <trkpt lat="50.45399" lon="1.78362">
        <ele>91.9</ele>
        <time>2012-02-04T08:38:28Z</time>
      </trkpt>
      <trkpt lat="50.45393" lon="1.78366">
        <ele>91.9</ele>
        <time>2012-02-04T08:38:30Z</time>
      </trkpt>
      <trkpt lat="50.45387" lon="1.78368">
        <ele>91.6</ele>
        <time>2012-02-04T08:38:32Z</time>
      </trkpt>
      <trkpt lat="50.45381" lon="1.78372">
        <ele>91.5</ele>
        <time>2012-02-04T08:38:34Z</time>
      </trkpt>
      <trkpt lat="50.45375" lon="1.78376">
        <ele>91.7</ele>
        <time>2012-02-04T08:38:36Z</time>
      </trkpt>
      <trkpt lat="50.45369" lon="1.78378">
        <ele>92.2</ele>
        <time>2012-02-04T08:38:38Z</time>
      </trkpt>
      <trkpt lat="50.45363" lon="1.7838">
        <ele>92</ele>
        <time>2012-02-04T08:38:40Z</time>
      </trkpt>
      <trkpt lat="50.45356" lon="1.78383">
        <ele>92.7</ele>
        <time>2012-02-04T08:38:42Z</time>
      </trkpt>
      <trkpt lat="50.45348" lon="1.78386">
        <ele>92.9</ele>
        <time>2012-02-04T08:38:44Z</time>
      </trkpt>
      <trkpt lat="50.45341" lon="1.78387">
        <ele>92.3</ele>
        <time>2012-02-04T08:38:47Z</time>
      </trkpt>
      <trkpt lat="50.45335" lon="1.78388">
        <ele>92.4</ele>
        <time>2012-02-04T08:38:49Z</time>
      </trkpt>
      <trkpt lat="50.4533" lon="1.7839">
        <ele>92.5</ele>
        <time>2012-02-04T08:38:51Z</time>
      </trkpt>
      <trkpt lat="50.45325" lon="1.78392">
        <ele>92.9</ele>
        <time>2012-02-04T08:38:53Z</time>
      </trkpt>
      <trkpt lat="50.45321" lon="1.78401">
        <ele>91.4</ele>
        <time>2012-02-04T08:38:55Z</time>
      </trkpt>
      <trkpt lat="50.45318" lon="1.78411">
        <ele>91.5</ele>
        <time>2012-02-04T08:38:57Z</time>
      </trkpt>
      <trkpt lat="50.45317" lon="1.78421">
        <ele>91.5</ele>
        <time>2012-02-04T08:38:59Z</time>
      </trkpt>
      <trkpt lat="50.45315" lon="1.78431">
        <ele>91.1</ele>
        <time>2012-02-04T08:39:01Z</time>
      </trkpt>
      <trkpt lat="50.45313" lon="1.78441">
        <ele>90.7</ele>
        <time>2012-02-04T08:39:03Z</time>
      </trkpt>
      <trkpt lat="50.45312" lon="1.7845">
        <ele>90.6</ele>
        <time>2012-02-04T08:39:05Z</time>
      </trkpt>
      <trkpt lat="50.4531" lon="1.7846">
        <ele>90.6</ele>
        <time>2012-02-04T08:39:07Z</time>
      </trkpt>
      <trkpt lat="50.45308" lon="1.78469">
        <ele>90.8</ele>
        <time>2012-02-04T08:39:09Z</time>
      </trkpt>
      <trkpt lat="50.45307" lon="1.78478">
        <ele>90.9</ele>
        <time>2012-02-04T08:39:11Z</time>
      </trkpt>
      <trkpt lat="50.45306" lon="1.78487">
        <ele>91</ele>
        <time>2012-02-04T08:39:13Z</time>
      </trkpt>
      <trkpt lat="50.45304" lon="1.78498">
        <ele>90.2</ele>
        <time>2012-02-04T08:39:15Z</time>
      </trkpt>
      <trkpt lat="50.45302" lon="1.78508">
        <ele>90.5</ele>
        <time>2012-02-04T08:39:17Z</time>
      </trkpt>
      <trkpt lat="50.45301" lon="1.78517">
        <ele>90.4</ele>
        <time>2012-02-04T08:39:19Z</time>
      </trkpt>
      <trkpt lat="50.453" lon="1.78527">
        <ele>90.3</ele>
        <time>2012-02-04T08:39:21Z</time>
      </trkpt>
      <trkpt lat="50.45299" lon="1.78537">
        <ele>90.5</ele>
        <time>2012-02-04T08:39:23Z</time>
      </trkpt>
      <trkpt lat="50.45297" lon="1.78547">
        <ele>90.3</ele>
        <time>2012-02-04T08:39:25Z</time>
      </trkpt>
      <trkpt lat="50.45296" lon="1.78557">
        <ele>90.3</ele>
        <time>2012-02-04T08:39:27Z</time>
      </trkpt>
      <trkpt lat="50.45295" lon="1.78568">
        <ele>90.1</ele>
        <time>2012-02-04T08:39:29Z</time>
      </trkpt>
      <trkpt lat="50.45295" lon="1.7858">
        <ele>90</ele>
        <time>2012-02-04T08:39:31Z</time>
      </trkpt>
      <trkpt lat="50.45293" lon="1.78594">
        <ele>90.1</ele>
        <time>2012-02-04T08:39:33Z</time>
      </trkpt>
      <trkpt lat="50.45293" lon="1.78603">
        <ele>88.8</ele>
        <time>2012-02-04T08:39:34Z</time>
      </trkpt>
      <trkpt lat="50.45292" lon="1.78612">
        <ele>88.2</ele>
        <time>2012-02-04T08:39:35Z</time>
      </trkpt>
      <trkpt lat="50.45291" lon="1.7862">
        <ele>88.3</ele>
        <time>2012-02-04T08:39:36Z</time>
      </trkpt>
      <trkpt lat="50.4529" lon="1.78629">
        <ele>87.6</ele>
        <time>2012-02-04T08:39:37Z</time>
      </trkpt>
      <trkpt lat="50.4529" lon="1.78639">
        <ele>87.6</ele>
        <time>2012-02-04T08:39:38Z</time>
      </trkpt>
      <trkpt lat="50.45289" lon="1.78648">
        <ele>85.9</ele>
        <time>2012-02-04T08:39:39Z</time>
      </trkpt>
      <trkpt lat="50.45288" lon="1.78657">
        <ele>86</ele>
        <time>2012-02-04T08:39:40Z</time>
      </trkpt>
      <trkpt lat="50.45288" lon="1.78665">
        <ele>86</ele>
        <time>2012-02-04T08:39:41Z</time>
      </trkpt>
      <trkpt lat="50.45287" lon="1.78673">
        <ele>86</ele>
        <time>2012-02-04T08:39:42Z</time>
      </trkpt>
      <trkpt lat="50.45286" lon="1.78686">
        <ele>85.6</ele>
        <time>2012-02-04T08:39:44Z</time>
      </trkpt>
      <trkpt lat="50.45286" lon="1.78694">
        <ele>85.5</ele>
        <time>2012-02-04T08:39:45Z</time>
      </trkpt>
      <trkpt lat="50.45286" lon="1.78707">
        <ele>85.4</ele>
        <time>2012-02-04T08:39:47Z</time>
      </trkpt>
      <trkpt lat="50.45285" lon="1.78718">
        <ele>85.1</ele>
        <time>2012-02-04T08:39:49Z</time>
      </trkpt>
      <trkpt lat="50.45285" lon="1.78731">
        <ele>85.2</ele>
        <time>2012-02-04T08:39:51Z</time>
      </trkpt>
      <trkpt lat="50.45286" lon="1.78744">
        <ele>83.9</ele>
        <time>2012-02-04T08:39:53Z</time>
      </trkpt>
      <trkpt lat="50.45286" lon="1.78757">
        <ele>83.3</ele>
        <time>2012-02-04T08:39:55Z</time>
      </trkpt>
      <trkpt lat="50.45288" lon="1.78768">
        <ele>84.4</ele>
        <time>2012-02-04T08:39:57Z</time>
      </trkpt>
      <trkpt lat="50.45289" lon="1.78779">
        <ele>85.6</ele>
        <time>2012-02-04T08:39:59Z</time>
      </trkpt>
      <trkpt lat="50.45289" lon="1.7879">
        <ele>86.5</ele>
        <time>2012-02-04T08:40:01Z</time>
      </trkpt>
      <trkpt lat="50.4529" lon="1.78801">
        <ele>86.7</ele>
        <time>2012-02-04T08:40:03Z</time>
      </trkpt>
      <trkpt lat="50.45292" lon="1.78812">
        <ele>87</ele>
        <time>2012-02-04T08:40:05Z</time>
      </trkpt>
      <trkpt lat="50.45294" lon="1.78822">
        <ele>86.9</ele>
        <time>2012-02-04T08:40:07Z</time>
      </trkpt>
      <trkpt lat="50.45296" lon="1.78833">
        <ele>87.7</ele>
        <time>2012-02-04T08:40:09Z</time>
      </trkpt>
      <trkpt lat="50.45297" lon="1.78844">
        <ele>88.3</ele>
        <time>2012-02-04T08:40:11Z</time>
      </trkpt>
      <trkpt lat="50.45299" lon="1.78855">
        <ele>88.3</ele>
        <time>2012-02-04T08:40:13Z</time>
      </trkpt>
      <trkpt lat="50.453" lon="1.78866">
        <ele>88.8</ele>
        <time>2012-02-04T08:40:15Z</time>
      </trkpt>
      <trkpt lat="50.45302" lon="1.78877">
        <ele>89.4</ele>
        <time>2012-02-04T08:40:17Z</time>
      </trkpt>
      <trkpt lat="50.45303" lon="1.78889">
        <ele>89.3</ele>
        <time>2012-02-04T08:40:19Z</time>
      </trkpt>
      <trkpt lat="50.45304" lon="1.789">
        <ele>90</ele>
        <time>2012-02-04T08:40:21Z</time>
      </trkpt>
      <trkpt lat="50.45306" lon="1.78911">
        <ele>90.3</ele>
        <time>2012-02-04T08:40:23Z</time>
      </trkpt>
      <trkpt lat="50.45308" lon="1.78922">
        <ele>89.7</ele>
        <time>2012-02-04T08:40:25Z</time>
      </trkpt>
      <trkpt lat="50.4531" lon="1.78933">
        <ele>89.3</ele>
        <time>2012-02-04T08:40:27Z</time>
      </trkpt>
      <trkpt lat="50.45312" lon="1.78945">
        <ele>89.8</ele>
        <time>2012-02-04T08:40:29Z</time>
      </trkpt>
      <trkpt lat="50.45315" lon="1.78955">
        <ele>90.4</ele>
        <time>2012-02-04T08:40:31Z</time>
      </trkpt>
      <trkpt lat="50.45318" lon="1.78966">
        <ele>90.2</ele>
        <time>2012-02-04T08:40:33Z</time>
      </trkpt>
      <trkpt lat="50.45321" lon="1.78976">
        <ele>90.2</ele>
        <time>2012-02-04T08:40:35Z</time>
      </trkpt>
      <trkpt lat="50.45325" lon="1.78986">
        <ele>91</ele>
        <time>2012-02-04T08:40:37Z</time>
      </trkpt>
      <trkpt lat="50.45328" lon="1.78996">
        <ele>91.6</ele>
        <time>2012-02-04T08:40:39Z</time>
      </trkpt>
      <trkpt lat="50.45331" lon="1.79007">
        <ele>91.7</ele>
        <time>2012-02-04T08:40:41Z</time>
      </trkpt>
      <trkpt lat="50.45335" lon="1.79016">
        <ele>91.6</ele>
        <time>2012-02-04T08:40:43Z</time>
      </trkpt>
      <trkpt lat="50.45338" lon="1.79027">
        <ele>91.8</ele>
        <time>2012-02-04T08:40:45Z</time>
      </trkpt>
      <trkpt lat="50.45341" lon="1.79037">
        <ele>91.7</ele>
        <time>2012-02-04T08:40:47Z</time>
      </trkpt>
      <trkpt lat="50.45344" lon="1.79047">
        <ele>91.4</ele>
        <time>2012-02-04T08:40:49Z</time>
      </trkpt>
      <trkpt lat="50.45348" lon="1.79057">
        <ele>91.2</ele>
        <time>2012-02-04T08:40:51Z</time>
      </trkpt>
      <trkpt lat="50.45351" lon="1.79067">
        <ele>91.1</ele>
        <time>2012-02-04T08:40:53Z</time>
      </trkpt>
      <trkpt lat="50.45354" lon="1.79077">
        <ele>91.2</ele>
        <time>2012-02-04T08:40:55Z</time>
      </trkpt>
      <trkpt lat="50.45357" lon="1.79087">
        <ele>90.8</ele>
        <time>2012-02-04T08:40:57Z</time>
      </trkpt>
      <trkpt lat="50.45362" lon="1.79097">
        <ele>91.4</ele>
        <time>2012-02-04T08:40:59Z</time>
      </trkpt>
      <trkpt lat="50.45365" lon="1.79107">
        <ele>90.6</ele>
        <time>2012-02-04T08:41:01Z</time>
      </trkpt>
      <trkpt lat="50.45369" lon="1.79117">
        <ele>90.5</ele>
        <time>2012-02-04T08:41:03Z</time>
      </trkpt>
      <trkpt lat="50.45372" lon="1.79127">
        <ele>90.5</ele>
        <time>2012-02-04T08:41:05Z</time>
      </trkpt>
      <trkpt lat="50.45376" lon="1.79138">
        <ele>90.5</ele>
        <time>2012-02-04T08:41:07Z</time>
      </trkpt>
      <trkpt lat="50.4538" lon="1.79148">
        <ele>89.8</ele>
        <time>2012-02-04T08:41:09Z</time>
      </trkpt>
      <trkpt lat="50.45384" lon="1.79158">
        <ele>90</ele>
        <time>2012-02-04T08:41:11Z</time>
      </trkpt>
      <trkpt lat="50.45388" lon="1.79168">
        <ele>90.1</ele>
        <time>2012-02-04T08:41:13Z</time>
      </trkpt>
      <trkpt lat="50.45391" lon="1.79178">
        <ele>89.8</ele>
        <time>2012-02-04T08:41:15Z</time>
      </trkpt>
      <trkpt lat="50.45394" lon="1.79188">
        <ele>89.9</ele>
        <time>2012-02-04T08:41:17Z</time>
      </trkpt>
      <trkpt lat="50.45398" lon="1.79198">
        <ele>90.7</ele>
        <time>2012-02-04T08:41:19Z</time>
      </trkpt>
      <trkpt lat="50.45401" lon="1.79208">
        <ele>91</ele>
        <time>2012-02-04T08:41:21Z</time>
      </trkpt>
      <trkpt lat="50.45404" lon="1.79218">
        <ele>90.6</ele>
        <time>2012-02-04T08:41:23Z</time>
      </trkpt>
      <trkpt lat="50.45408" lon="1.79229">
        <ele>89.7</ele>
        <time>2012-02-04T08:41:25Z</time>
      </trkpt>
      <trkpt lat="50.45412" lon="1.79239">
        <ele>89.6</ele>
        <time>2012-02-04T08:41:27Z</time>
      </trkpt>
      <trkpt lat="50.45416" lon="1.7925">
        <ele>89.8</ele>
        <time>2012-02-04T08:41:29Z</time>
      </trkpt>
      <trkpt lat="50.45419" lon="1.79261">
        <ele>89.9</ele>
        <time>2012-02-04T08:41:31Z</time>
      </trkpt>
      <trkpt lat="50.45422" lon="1.79272">
        <ele>88.9</ele>
        <time>2012-02-04T08:41:33Z</time>
      </trkpt>
      <trkpt lat="50.45426" lon="1.79284">
        <ele>89.2</ele>
        <time>2012-02-04T08:41:35Z</time>
      </trkpt>
      <trkpt lat="50.45428" lon="1.79295">
        <ele>89.3</ele>
        <time>2012-02-04T08:41:37Z</time>
      </trkpt>
      <trkpt lat="50.45431" lon="1.79305">
        <ele>89.2</ele>
        <time>2012-02-04T08:41:39Z</time>
      </trkpt>
      <trkpt lat="50.45433" lon="1.79316">
        <ele>89.1</ele>
        <time>2012-02-04T08:41:41Z</time>
      </trkpt>
      <trkpt lat="50.45435" lon="1.79328">
        <ele>87.6</ele>
        <time>2012-02-04T08:41:43Z</time>
      </trkpt>
      <trkpt lat="50.45436" lon="1.79339">
        <ele>87.3</ele>
        <time>2012-02-04T08:41:45Z</time>
      </trkpt>
      <trkpt lat="50.45437" lon="1.7935">
        <ele>87.6</ele>
        <time>2012-02-04T08:41:47Z</time>
      </trkpt>
      <trkpt lat="50.45439" lon="1.7936">
        <ele>87.6</ele>
        <time>2012-02-04T08:41:49Z</time>
      </trkpt>
      <trkpt lat="50.4544" lon="1.79367">
        <ele>88.1</ele>
        <time>2012-02-04T08:41:51Z</time>
      </trkpt>
      <trkpt lat="50.45441" lon="1.79376">
        <ele>88.8</ele>
        <time>2012-02-04T08:41:53Z</time>
      </trkpt>
      <trkpt lat="50.45442" lon="1.79383">
        <ele>89.3</ele>
        <time>2012-02-04T08:41:55Z</time>
      </trkpt>
      <trkpt lat="50.45442" lon="1.79391">
        <ele>89.7</ele>
        <time>2012-02-04T08:41:57Z</time>
      </trkpt>
      <trkpt lat="50.45442" lon="1.79399">
        <ele>90.1</ele>
        <time>2012-02-04T08:41:59Z</time>
      </trkpt>
      <trkpt lat="50.45441" lon="1.79406">
        <ele>90</ele>
        <time>2012-02-04T08:42:01Z</time>
      </trkpt>
      <trkpt lat="50.45441" lon="1.79415">
        <ele>90.2</ele>
        <time>2012-02-04T08:42:03Z</time>
      </trkpt>
      <trkpt lat="50.45441" lon="1.79426">
        <ele>88.9</ele>
        <time>2012-02-04T08:42:05Z</time>
      </trkpt>
      <trkpt lat="50.45441" lon="1.79438">
        <ele>87.4</ele>
        <time>2012-02-04T08:42:07Z</time>
      </trkpt>
      <trkpt lat="50.45441" lon="1.79449">
        <ele>87.8</ele>
        <time>2012-02-04T08:42:09Z</time>
      </trkpt>
      <trkpt lat="50.45441" lon="1.79462">
        <ele>87.9</ele>
        <time>2012-02-04T08:42:11Z</time>
      </trkpt>
      <trkpt lat="50.45442" lon="1.79476">
        <ele>87</ele>
        <time>2012-02-04T08:42:13Z</time>
      </trkpt>
      <trkpt lat="50.45444" lon="1.7949">
        <ele>87.3</ele>
        <time>2012-02-04T08:42:15Z</time>
      </trkpt>
      <trkpt lat="50.45446" lon="1.79502">
        <ele>87.1</ele>
        <time>2012-02-04T08:42:17Z</time>
      </trkpt>
      <trkpt lat="50.4545" lon="1.79514">
        <ele>86</ele>
        <time>2012-02-04T08:42:19Z</time>
      </trkpt>
      <trkpt lat="50.45455" lon="1.79523">
        <ele>84.5</ele>
        <time>2012-02-04T08:42:21Z</time>
      </trkpt>
      <trkpt lat="50.45458" lon="1.79529">
        <ele>84.6</ele>
        <time>2012-02-04T08:42:22Z</time>
      </trkpt>
      <trkpt lat="50.45462" lon="1.79534">
        <ele>84.9</ele>
        <time>2012-02-04T08:42:23Z</time>
      </trkpt>
      <trkpt lat="50.45465" lon="1.7954">
        <ele>84.3</ele>
        <time>2012-02-04T08:42:24Z</time>
      </trkpt>
      <trkpt lat="50.4547" lon="1.79549">
        <ele>84.1</ele>
        <time>2012-02-04T08:42:26Z</time>
      </trkpt>
      <trkpt lat="50.45476" lon="1.79558">
        <ele>84.4</ele>
        <time>2012-02-04T08:42:28Z</time>
      </trkpt>
      <trkpt lat="50.45482" lon="1.79569">
        <ele>84.4</ele>
        <time>2012-02-04T08:42:30Z</time>
      </trkpt>
      <trkpt lat="50.45485" lon="1.79574">
        <ele>84.4</ele>
        <time>2012-02-04T08:42:31Z</time>
      </trkpt>
      <trkpt lat="50.45487" lon="1.79585">
        <ele>83.4</ele>
        <time>2012-02-04T08:42:33Z</time>
      </trkpt>
      <trkpt lat="50.45489" lon="1.79592">
        <ele>83</ele>
        <time>2012-02-04T08:42:34Z</time>
      </trkpt>
      <trkpt lat="50.45487" lon="1.79605">
        <ele>80.1</ele>
        <time>2012-02-04T08:42:36Z</time>
      </trkpt>
      <trkpt lat="50.45482" lon="1.79617">
        <ele>77.6</ele>
        <time>2012-02-04T08:42:38Z</time>
      </trkpt>
      <trkpt lat="50.4548" lon="1.79623">
        <ele>76.7</ele>
        <time>2012-02-04T08:42:39Z</time>
      </trkpt>
      <trkpt lat="50.45478" lon="1.7963">
        <ele>76.6</ele>
        <time>2012-02-04T08:42:40Z</time>
      </trkpt>
      <trkpt lat="50.45475" lon="1.79637">
        <ele>76.5</ele>
        <time>2012-02-04T08:42:41Z</time>
      </trkpt>
      <trkpt lat="50.45472" lon="1.79643">
        <ele>75.9</ele>
        <time>2012-02-04T08:42:42Z</time>
      </trkpt>
      <trkpt lat="50.4547" lon="1.7965">
        <ele>76</ele>
        <time>2012-02-04T08:42:43Z</time>
      </trkpt>
      <trkpt lat="50.45469" lon="1.79659">
        <ele>71.7</ele>
        <time>2012-02-04T08:42:44Z</time>
      </trkpt>
      <trkpt lat="50.45469" lon="1.79668">
        <ele>70.9</ele>
        <time>2012-02-04T08:42:45Z</time>
      </trkpt>
      <trkpt lat="50.45468" lon="1.79676">
        <ele>70</ele>
        <time>2012-02-04T08:42:46Z</time>
      </trkpt>
      <trkpt lat="50.45467" lon="1.79683">
        <ele>69.4</ele>
        <time>2012-02-04T08:42:47Z</time>
      </trkpt>
      <trkpt lat="50.45467" lon="1.7969">
        <ele>69.1</ele>
        <time>2012-02-04T08:42:48Z</time>
      </trkpt>
      <trkpt lat="50.45467" lon="1.79698">
        <ele>69</ele>
        <time>2012-02-04T08:42:49Z</time>
      </trkpt>
      <trkpt lat="50.45467" lon="1.79706">
        <ele>69.4</ele>
        <time>2012-02-04T08:42:50Z</time>
      </trkpt>
      <trkpt lat="50.45467" lon="1.79714">
        <ele>69.4</ele>
        <time>2012-02-04T08:42:51Z</time>
      </trkpt>
      <trkpt lat="50.45466" lon="1.79723">
        <ele>67.5</ele>
        <time>2012-02-04T08:42:52Z</time>
      </trkpt>
      <trkpt lat="50.45466" lon="1.79731">
        <ele>67</ele>
        <time>2012-02-04T08:42:53Z</time>
      </trkpt>
      <trkpt lat="50.45465" lon="1.79739">
        <ele>66.9</ele>
        <time>2012-02-04T08:42:54Z</time>
      </trkpt>
      <trkpt lat="50.45464" lon="1.79747">
        <ele>65.7</ele>
        <time>2012-02-04T08:42:55Z</time>
      </trkpt>
      <trkpt lat="50.45463" lon="1.79755">
        <ele>65.3</ele>
        <time>2012-02-04T08:42:56Z</time>
      </trkpt>
      <trkpt lat="50.45461" lon="1.79764">
        <ele>64.7</ele>
        <time>2012-02-04T08:42:57Z</time>
      </trkpt>
      <trkpt lat="50.45458" lon="1.79772">
        <ele>64.6</ele>
        <time>2012-02-04T08:42:58Z</time>
      </trkpt>
      <trkpt lat="50.45455" lon="1.79779">
        <ele>63.7</ele>
        <time>2012-02-04T08:42:59Z</time>
      </trkpt>
      <trkpt lat="50.45452" lon="1.79787">
        <ele>62.8</ele>
        <time>2012-02-04T08:43:00Z</time>
      </trkpt>
      <trkpt lat="50.4545" lon="1.79794">
        <ele>62.2</ele>
        <time>2012-02-04T08:43:01Z</time>
      </trkpt>
      <trkpt lat="50.45447" lon="1.79801">
        <ele>61.9</ele>
        <time>2012-02-04T08:43:02Z</time>
      </trkpt>
      <trkpt lat="50.45445" lon="1.79808">
        <ele>61.9</ele>
        <time>2012-02-04T08:43:03Z</time>
      </trkpt>
      <trkpt lat="50.45442" lon="1.79814">
        <ele>61.8</ele>
        <time>2012-02-04T08:43:04Z</time>
      </trkpt>
      <trkpt lat="50.45438" lon="1.79825">
        <ele>60</ele>
        <time>2012-02-04T08:43:06Z</time>
      </trkpt>
      <trkpt lat="50.45434" lon="1.79834">
        <ele>58.6</ele>
        <time>2012-02-04T08:43:08Z</time>
      </trkpt>
      <trkpt lat="50.45432" lon="1.7984">
        <ele>58.1</ele>
        <time>2012-02-04T08:43:10Z</time>
      </trkpt>
      <trkpt lat="50.45434" lon="1.79848">
        <ele>60.6</ele>
        <time>2012-02-04T08:46:23Z</time>
      </trkpt>
      <trkpt lat="50.4544" lon="1.7985">
        <ele>60.2</ele>
        <time>2012-02-04T08:46:25Z</time>
      </trkpt>
      <trkpt lat="50.45447" lon="1.79853">
        <ele>59.2</ele>
        <time>2012-02-04T08:46:27Z</time>
      </trkpt>
      <trkpt lat="50.45454" lon="1.79858">
        <ele>58.9</ele>
        <time>2012-02-04T08:46:29Z</time>
      </trkpt>
      <trkpt lat="50.45461" lon="1.79863">
        <ele>58.9</ele>
        <time>2012-02-04T08:46:31Z</time>
      </trkpt>
      <trkpt lat="50.45469" lon="1.7987">
        <ele>58.9</ele>
        <time>2012-02-04T08:46:33Z</time>
      </trkpt>
      <trkpt lat="50.45476" lon="1.79876">
        <ele>59</ele>
        <time>2012-02-04T08:46:35Z</time>
      </trkpt>
      <trkpt lat="50.45481" lon="1.79882">
        <ele>58.8</ele>
        <time>2012-02-04T08:46:37Z</time>
      </trkpt>
      <trkpt lat="50.45486" lon="1.79889">
        <ele>57.4</ele>
        <time>2012-02-04T08:46:39Z</time>
      </trkpt>
      <trkpt lat="50.45493" lon="1.79894">
        <ele>57.6</ele>
        <time>2012-02-04T08:46:41Z</time>
      </trkpt>
      <trkpt lat="50.45499" lon="1.79898">
        <ele>57.3</ele>
        <time>2012-02-04T08:46:43Z</time>
      </trkpt>
      <trkpt lat="50.45505" lon="1.79902">
        <ele>56.3</ele>
        <time>2012-02-04T08:46:45Z</time>
      </trkpt>
      <trkpt lat="50.45511" lon="1.79907">
        <ele>55.7</ele>
        <time>2012-02-04T08:46:47Z</time>
      </trkpt>
      <trkpt lat="50.45516" lon="1.79911">
        <ele>56.8</ele>
        <time>2012-02-04T08:46:49Z</time>
      </trkpt>
      <trkpt lat="50.4552" lon="1.79916">
        <ele>58.3</ele>
        <time>2012-02-04T08:46:51Z</time>
      </trkpt>
      <trkpt lat="50.45525" lon="1.79922">
        <ele>58.6</ele>
        <time>2012-02-04T08:46:53Z</time>
      </trkpt>
      <trkpt lat="50.45531" lon="1.79925">
        <ele>58.8</ele>
        <time>2012-02-04T08:46:55Z</time>
      </trkpt>
      <trkpt lat="50.45537" lon="1.79929">
        <ele>55.5</ele>
        <time>2012-02-04T08:46:57Z</time>
      </trkpt>
      <trkpt lat="50.45541" lon="1.79934">
        <ele>54.4</ele>
        <time>2012-02-04T08:46:59Z</time>
      </trkpt>
      <trkpt lat="50.45544" lon="1.79942">
        <ele>56.5</ele>
        <time>2012-02-04T08:47:02Z</time>
      </trkpt>
      <trkpt lat="50.45549" lon="1.79944">
        <ele>55.3</ele>
        <time>2012-02-04T08:47:04Z</time>
      </trkpt>
      <trkpt lat="50.45555" lon="1.79943">
        <ele>55.7</ele>
        <time>2012-02-04T08:47:06Z</time>
      </trkpt>
      <trkpt lat="50.45562" lon="1.79939">
        <ele>55.2</ele>
        <time>2012-02-04T08:47:08Z</time>
      </trkpt>
      <trkpt lat="50.4557" lon="1.79933">
        <ele>54.6</ele>
        <time>2012-02-04T08:47:10Z</time>
      </trkpt>
      <trkpt lat="50.45575" lon="1.79928">
        <ele>54.3</ele>
        <time>2012-02-04T08:47:11Z</time>
      </trkpt>
      <trkpt lat="50.45578" lon="1.79923">
        <ele>54.3</ele>
        <time>2012-02-04T08:47:12Z</time>
      </trkpt>
      <trkpt lat="50.45582" lon="1.79919">
        <ele>53.6</ele>
        <time>2012-02-04T08:47:13Z</time>
      </trkpt>
      <trkpt lat="50.45586" lon="1.79913">
        <ele>53.8</ele>
        <time>2012-02-04T08:47:14Z</time>
      </trkpt>
      <trkpt lat="50.4559" lon="1.79908">
        <ele>53.7</ele>
        <time>2012-02-04T08:47:15Z</time>
      </trkpt>
      <trkpt lat="50.45594" lon="1.79904">
        <ele>53.2</ele>
        <time>2012-02-04T08:47:16Z</time>
      </trkpt>
      <trkpt lat="50.45597" lon="1.799">
        <ele>52.9</ele>
        <time>2012-02-04T08:47:17Z</time>
      </trkpt>
      <trkpt lat="50.45601" lon="1.79895">
        <ele>52.2</ele>
        <time>2012-02-04T08:47:18Z</time>
      </trkpt>
      <trkpt lat="50.45608" lon="1.79888">
        <ele>52</ele>
        <time>2012-02-04T08:47:20Z</time>
      </trkpt>
      <trkpt lat="50.45614" lon="1.79879">
        <ele>51.5</ele>
        <time>2012-02-04T08:47:22Z</time>
      </trkpt>
      <trkpt lat="50.45618" lon="1.79873">
        <ele>51.8</ele>
        <time>2012-02-04T08:47:23Z</time>
      </trkpt>
      <trkpt lat="50.45621" lon="1.79868">
        <ele>51.6</ele>
        <time>2012-02-04T08:47:24Z</time>
      </trkpt>
      <trkpt lat="50.45627" lon="1.7986">
        <ele>51.1</ele>
        <time>2012-02-04T08:47:26Z</time>
      </trkpt>
      <trkpt lat="50.45634" lon="1.7985">
        <ele>50.8</ele>
        <time>2012-02-04T08:47:28Z</time>
      </trkpt>
      <trkpt lat="50.4564" lon="1.79841">
        <ele>50.1</ele>
        <time>2012-02-04T08:47:30Z</time>
      </trkpt>
      <trkpt lat="50.45645" lon="1.79832">
        <ele>50.3</ele>
        <time>2012-02-04T08:47:32Z</time>
      </trkpt>
      <trkpt lat="50.45648" lon="1.79827">
        <ele>50.4</ele>
        <time>2012-02-04T08:47:33Z</time>
      </trkpt>
      <trkpt lat="50.45652" lon="1.79822">
        <ele>50.4</ele>
        <time>2012-02-04T08:47:34Z</time>
      </trkpt>
      <trkpt lat="50.45656" lon="1.79819">
        <ele>50.6</ele>
        <time>2012-02-04T08:47:35Z</time>
      </trkpt>
      <trkpt lat="50.4566" lon="1.79814">
        <ele>50.3</ele>
        <time>2012-02-04T08:47:36Z</time>
      </trkpt>
      <trkpt lat="50.45666" lon="1.79805">
        <ele>49.4</ele>
        <time>2012-02-04T08:47:38Z</time>
      </trkpt>
      <trkpt lat="50.45671" lon="1.79796">
        <ele>49.4</ele>
        <time>2012-02-04T08:47:40Z</time>
      </trkpt>
      <trkpt lat="50.45677" lon="1.79793">
        <ele>50.3</ele>
        <time>2012-02-04T08:47:42Z</time>
      </trkpt>
      <trkpt lat="50.45684" lon="1.79796">
        <ele>50.3</ele>
        <time>2012-02-04T08:47:44Z</time>
      </trkpt>
      <trkpt lat="50.45688" lon="1.79802">
        <ele>49.5</ele>
        <time>2012-02-04T08:47:45Z</time>
      </trkpt>
      <trkpt lat="50.45692" lon="1.79805">
        <ele>48.8</ele>
        <time>2012-02-04T08:47:46Z</time>
      </trkpt>
      <trkpt lat="50.45696" lon="1.79809">
        <ele>48.5</ele>
        <time>2012-02-04T08:47:47Z</time>
      </trkpt>
      <trkpt lat="50.45704" lon="1.79816">
        <ele>48.4</ele>
        <time>2012-02-04T08:47:49Z</time>
      </trkpt>
      <trkpt lat="50.4571" lon="1.7982">
        <ele>48.6</ele>
        <time>2012-02-04T08:47:51Z</time>
      </trkpt>
      <trkpt lat="50.45715" lon="1.79825">
        <ele>48.2</ele>
        <time>2012-02-04T08:47:53Z</time>
      </trkpt>
      <trkpt lat="50.4572" lon="1.79831">
        <ele>47.8</ele>
        <time>2012-02-04T08:47:55Z</time>
      </trkpt>
      <trkpt lat="50.45727" lon="1.79837">
        <ele>48.1</ele>
        <time>2012-02-04T08:47:57Z</time>
      </trkpt>
      <trkpt lat="50.45732" lon="1.79838">
        <ele>48.5</ele>
        <time>2012-02-04T08:47:58Z</time>
      </trkpt>
      <trkpt lat="50.45736" lon="1.79842">
        <ele>48.2</ele>
        <time>2012-02-04T08:47:59Z</time>
      </trkpt>
      <trkpt lat="50.45741" lon="1.79846">
        <ele>48</ele>
        <time>2012-02-04T08:48:00Z</time>
      </trkpt>
      <trkpt lat="50.45745" lon="1.79848">
        <ele>48</ele>
        <time>2012-02-04T08:48:01Z</time>
      </trkpt>
      <trkpt lat="50.4575" lon="1.79851">
        <ele>48</ele>
        <time>2012-02-04T08:48:02Z</time>
      </trkpt>
      <trkpt lat="50.45755" lon="1.79854">
        <ele>48.1</ele>
        <time>2012-02-04T08:48:03Z</time>
      </trkpt>
      <trkpt lat="50.4576" lon="1.79856">
        <ele>48</ele>
        <time>2012-02-04T08:48:04Z</time>
      </trkpt>
      <trkpt lat="50.45766" lon="1.79862">
        <ele>48.2</ele>
        <time>2012-02-04T08:48:06Z</time>
      </trkpt>
      <trkpt lat="50.45771" lon="1.79866">
        <ele>48.2</ele>
        <time>2012-02-04T08:48:07Z</time>
      </trkpt>
      <trkpt lat="50.45775" lon="1.79869">
        <ele>47.7</ele>
        <time>2012-02-04T08:48:08Z</time>
      </trkpt>
      <trkpt lat="50.4578" lon="1.79871">
        <ele>46</ele>
        <time>2012-02-04T08:48:09Z</time>
      </trkpt>
      <trkpt lat="50.45787" lon="1.79878">
        <ele>45.9</ele>
        <time>2012-02-04T08:48:11Z</time>
      </trkpt>
      <trkpt lat="50.45791" lon="1.79882">
        <ele>45.7</ele>
        <time>2012-02-04T08:48:12Z</time>
      </trkpt>
      <trkpt lat="50.45799" lon="1.79887">
        <ele>46.2</ele>
        <time>2012-02-04T08:48:14Z</time>
      </trkpt>
      <trkpt lat="50.45803" lon="1.7989">
        <ele>46.3</ele>
        <time>2012-02-04T08:48:15Z</time>
      </trkpt>
      <trkpt lat="50.45811" lon="1.79895">
        <ele>46</ele>
        <time>2012-02-04T08:48:17Z</time>
      </trkpt>
      <trkpt lat="50.45816" lon="1.79901">
        <ele>47.1</ele>
        <time>2012-02-04T08:48:19Z</time>
      </trkpt>
      <trkpt lat="50.45822" lon="1.79909">
        <ele>52</ele>
        <time>2012-02-04T08:48:21Z</time>
      </trkpt>
      <trkpt lat="50.45828" lon="1.79914">
        <ele>54.9</ele>
        <time>2012-02-04T08:48:23Z</time>
      </trkpt>
      <trkpt lat="50.45834" lon="1.7992">
        <ele>55</ele>
        <time>2012-02-04T08:48:25Z</time>
      </trkpt>
      <trkpt lat="50.45839" lon="1.79923">
        <ele>56</ele>
        <time>2012-02-04T08:48:26Z</time>
      </trkpt>
      <trkpt lat="50.45843" lon="1.79925">
        <ele>56</ele>
        <time>2012-02-04T08:48:27Z</time>
      </trkpt>
      <trkpt lat="50.45851" lon="1.7993">
        <ele>55</ele>
        <time>2012-02-04T08:48:29Z</time>
      </trkpt>
      <trkpt lat="50.45858" lon="1.79937">
        <ele>53.5</ele>
        <time>2012-02-04T08:48:31Z</time>
      </trkpt>
      <trkpt lat="50.45865" lon="1.79942">
        <ele>52</ele>
        <time>2012-02-04T08:48:33Z</time>
      </trkpt>
      <trkpt lat="50.45872" lon="1.79947">
        <ele>51.1</ele>
        <time>2012-02-04T08:48:35Z</time>
      </trkpt>
      <trkpt lat="50.4588" lon="1.7995">
        <ele>50.8</ele>
        <time>2012-02-04T08:48:37Z</time>
      </trkpt>
      <trkpt lat="50.45884" lon="1.79954">
        <ele>50.2</ele>
        <time>2012-02-04T08:48:39Z</time>
      </trkpt>
      <trkpt lat="50.4589" lon="1.79959">
        <ele>50.1</ele>
        <time>2012-02-04T08:48:42Z</time>
      </trkpt>
      <trkpt lat="50.45895" lon="1.79961">
        <ele>48.5</ele>
        <time>2012-02-04T08:48:48Z</time>
      </trkpt>
      <trkpt lat="50.45899" lon="1.79967">
        <ele>49.7</ele>
        <time>2012-02-04T08:48:54Z</time>
      </trkpt>
      <trkpt lat="50.45905" lon="1.7997">
        <ele>48</ele>
        <time>2012-02-04T08:48:58Z</time>
      </trkpt>
      <trkpt lat="50.4591" lon="1.79973">
        <ele>47.5</ele>
        <time>2012-02-04T08:49:05Z</time>
      </trkpt>
      <trkpt lat="50.45914" lon="1.79975">
        <ele>46</ele>
        <time>2012-02-04T08:49:11Z</time>
      </trkpt>
      <trkpt lat="50.45916" lon="1.79968">
        <ele>47.3</ele>
        <time>2012-02-04T08:49:25Z</time>
      </trkpt>
      <trkpt lat="50.45916" lon="1.79959">
        <ele>48.1</ele>
        <time>2012-02-04T08:49:29Z</time>
      </trkpt>
      <trkpt lat="50.45918" lon="1.79949">
        <ele>47.1</ele>
        <time>2012-02-04T08:49:33Z</time>
      </trkpt>
      <trkpt lat="50.45918" lon="1.79939">
        <ele>46.6</ele>
        <time>2012-02-04T08:49:35Z</time>
      </trkpt>
      <trkpt lat="50.45919" lon="1.79931">
        <ele>45.3</ele>
        <time>2012-02-04T08:49:37Z</time>
      </trkpt>
      <trkpt lat="50.4592" lon="1.79923">
        <ele>46.1</ele>
        <time>2012-02-04T08:49:39Z</time>
      </trkpt>
      <trkpt lat="50.45921" lon="1.79914">
        <ele>47.2</ele>
        <time>2012-02-04T08:49:41Z</time>
      </trkpt>
      <trkpt lat="50.45922" lon="1.79905">
        <ele>47.3</ele>
        <time>2012-02-04T08:49:43Z</time>
      </trkpt>
      <trkpt lat="50.45924" lon="1.79895">
        <ele>47.7</ele>
        <time>2012-02-04T08:49:45Z</time>
      </trkpt>
      <trkpt lat="50.45927" lon="1.79887">
        <ele>44.7</ele>
        <time>2012-02-04T08:49:47Z</time>
      </trkpt>
      <trkpt lat="50.45929" lon="1.79879">
        <ele>45.1</ele>
        <time>2012-02-04T08:49:49Z</time>
      </trkpt>
      <trkpt lat="50.45931" lon="1.79869">
        <ele>44.9</ele>
        <time>2012-02-04T08:49:51Z</time>
      </trkpt>
      <trkpt lat="50.45932" lon="1.7986">
        <ele>45.1</ele>
        <time>2012-02-04T08:49:53Z</time>
      </trkpt>
      <trkpt lat="50.45934" lon="1.79851">
        <ele>44.9</ele>
        <time>2012-02-04T08:49:55Z</time>
      </trkpt>
      <trkpt lat="50.45936" lon="1.79843">
        <ele>46</ele>
        <time>2012-02-04T08:49:57Z</time>
      </trkpt>
      <trkpt lat="50.45939" lon="1.79836">
        <ele>46.7</ele>
        <time>2012-02-04T08:49:59Z</time>
      </trkpt>
      <trkpt lat="50.45941" lon="1.79825">
        <ele>47</ele>
        <time>2012-02-04T08:50:01Z</time>
      </trkpt>
      <trkpt lat="50.45944" lon="1.79816">
        <ele>48</ele>
        <time>2012-02-04T08:50:03Z</time>
      </trkpt>
      <trkpt lat="50.45945" lon="1.79805">
        <ele>48.7</ele>
        <time>2012-02-04T08:50:05Z</time>
      </trkpt>
      <trkpt lat="50.45947" lon="1.79796">
        <ele>48.7</ele>
        <time>2012-02-04T08:50:07Z</time>
      </trkpt>
      <trkpt lat="50.4595" lon="1.79786">
        <ele>49.4</ele>
        <time>2012-02-04T08:50:09Z</time>
      </trkpt>
      <trkpt lat="50.45951" lon="1.79775">
        <ele>50.2</ele>
        <time>2012-02-04T08:50:11Z</time>
      </trkpt>
      <trkpt lat="50.45952" lon="1.79765">
        <ele>49.6</ele>
        <time>2012-02-04T08:50:13Z</time>
      </trkpt>
      <trkpt lat="50.45954" lon="1.79757">
        <ele>50</ele>
        <time>2012-02-04T08:50:15Z</time>
      </trkpt>
      <trkpt lat="50.45956" lon="1.79748">
        <ele>49.2</ele>
        <time>2012-02-04T08:50:17Z</time>
      </trkpt>
      <trkpt lat="50.45961" lon="1.79747">
        <ele>49</ele>
        <time>2012-02-04T08:50:20Z</time>
      </trkpt>
      <trkpt lat="50.45966" lon="1.79751">
        <ele>49.1</ele>
        <time>2012-02-04T08:50:22Z</time>
      </trkpt>
      <trkpt lat="50.4597" lon="1.79757">
        <ele>49</ele>
        <time>2012-02-04T08:50:24Z</time>
      </trkpt>
      <trkpt lat="50.45975" lon="1.79764">
        <ele>48.9</ele>
        <time>2012-02-04T08:50:26Z</time>
      </trkpt>
      <trkpt lat="50.45979" lon="1.7977">
        <ele>49.3</ele>
        <time>2012-02-04T08:50:28Z</time>
      </trkpt>
      <trkpt lat="50.45983" lon="1.79774">
        <ele>49.4</ele>
        <time>2012-02-04T08:50:32Z</time>
      </trkpt>
      <trkpt lat="50.45986" lon="1.79779">
        <ele>50.6</ele>
        <time>2012-02-04T08:50:36Z</time>
      </trkpt>
      <trkpt lat="50.4599" lon="1.79784">
        <ele>51.3</ele>
        <time>2012-02-04T08:50:38Z</time>
      </trkpt>
      <trkpt lat="50.45994" lon="1.79793">
        <ele>51.3</ele>
        <time>2012-02-04T08:50:41Z</time>
      </trkpt>
      <trkpt lat="50.45998" lon="1.79797">
        <ele>51.3</ele>
        <time>2012-02-04T08:50:43Z</time>
      </trkpt>
      <trkpt lat="50.46002" lon="1.79801">
        <ele>51</ele>
        <time>2012-02-04T08:50:46Z</time>
      </trkpt>
      <trkpt lat="50.46008" lon="1.798">
        <ele>50.1</ele>
        <time>2012-02-04T08:50:48Z</time>
      </trkpt>
      <trkpt lat="50.46013" lon="1.79799">
        <ele>51.6</ele>
        <time>2012-02-04T08:50:51Z</time>
      </trkpt>
      <trkpt lat="50.4602" lon="1.79798">
        <ele>52.5</ele>
        <time>2012-02-04T08:50:54Z</time>
      </trkpt>
      <trkpt lat="50.46025" lon="1.79796">
        <ele>53.4</ele>
        <time>2012-02-04T08:50:56Z</time>
      </trkpt>
      <trkpt lat="50.46032" lon="1.79796">
        <ele>53.1</ele>
        <time>2012-02-04T08:50:59Z</time>
      </trkpt>
      <trkpt lat="50.46038" lon="1.79795">
        <ele>52.2</ele>
        <time>2012-02-04T08:51:01Z</time>
      </trkpt>
      <trkpt lat="50.46044" lon="1.79796">
        <ele>51.9</ele>
        <time>2012-02-04T08:51:03Z</time>
      </trkpt>
      <trkpt lat="50.46049" lon="1.79796">
        <ele>51.9</ele>
        <time>2012-02-04T08:51:05Z</time>
      </trkpt>
      <trkpt lat="50.46055" lon="1.79795">
        <ele>51.4</ele>
        <time>2012-02-04T08:51:08Z</time>
      </trkpt>
      <trkpt lat="50.4606" lon="1.79791">
        <ele>52.8</ele>
        <time>2012-02-04T08:51:11Z</time>
      </trkpt>
      <trkpt lat="50.46065" lon="1.79789">
        <ele>53.8</ele>
        <time>2012-02-04T08:51:14Z</time>
      </trkpt>
      <trkpt lat="50.4607" lon="1.79792">
        <ele>52.5</ele>
        <time>2012-02-04T08:51:18Z</time>
      </trkpt>
      <trkpt lat="50.46075" lon="1.79795">
        <ele>52</ele>
        <time>2012-02-04T08:51:22Z</time>
      </trkpt>
      <trkpt lat="50.4608" lon="1.79792">
        <ele>51.5</ele>
        <time>2012-02-04T08:51:24Z</time>
      </trkpt>
      <trkpt lat="50.46086" lon="1.7979">
        <ele>50.9</ele>
        <time>2012-02-04T08:51:28Z</time>
      </trkpt>
      <trkpt lat="50.4609" lon="1.79787">
        <ele>52.4</ele>
        <time>2012-02-04T08:51:32Z</time>
      </trkpt>
      <trkpt lat="50.46094" lon="1.79792">
        <ele>52.5</ele>
        <time>2012-02-04T08:51:35Z</time>
      </trkpt>
      <trkpt lat="50.46098" lon="1.79792">
        <ele>52.5</ele>
        <time>2012-02-04T08:51:38Z</time>
      </trkpt>
      <trkpt lat="50.46103" lon="1.79793">
        <ele>52.4</ele>
        <time>2012-02-04T08:51:40Z</time>
      </trkpt>
      <trkpt lat="50.46106" lon="1.79799">
        <ele>52.7</ele>
        <time>2012-02-04T08:51:42Z</time>
      </trkpt>
      <trkpt lat="50.46105" lon="1.79806">
        <ele>51.4</ele>
        <time>2012-02-04T08:51:44Z</time>
      </trkpt>
      <trkpt lat="50.46106" lon="1.79814">
        <ele>51.1</ele>
        <time>2012-02-04T08:51:46Z</time>
      </trkpt>
      <trkpt lat="50.46106" lon="1.79823">
        <ele>49.7</ele>
        <time>2012-02-04T08:51:48Z</time>
      </trkpt>
      <trkpt lat="50.46105" lon="1.79832">
        <ele>48.3</ele>
        <time>2012-02-04T08:51:50Z</time>
      </trkpt>
      <trkpt lat="50.46103" lon="1.79841">
        <ele>48.7</ele>
        <time>2012-02-04T08:51:52Z</time>
      </trkpt>
      <trkpt lat="50.46102" lon="1.79852">
        <ele>48.1</ele>
        <time>2012-02-04T08:51:54Z</time>
      </trkpt>
      <trkpt lat="50.461" lon="1.79862">
        <ele>49.7</ele>
        <time>2012-02-04T08:51:56Z</time>
      </trkpt>
      <trkpt lat="50.46098" lon="1.79872">
        <ele>50.1</ele>
        <time>2012-02-04T08:51:58Z</time>
      </trkpt>
      <trkpt lat="50.46096" lon="1.79881">
        <ele>50.5</ele>
        <time>2012-02-04T08:52:00Z</time>
      </trkpt>
      <trkpt lat="50.46095" lon="1.79891">
        <ele>50.2</ele>
        <time>2012-02-04T08:52:02Z</time>
      </trkpt>
      <trkpt lat="50.46094" lon="1.799">
        <ele>49.9</ele>
        <time>2012-02-04T08:52:04Z</time>
      </trkpt>
      <trkpt lat="50.46092" lon="1.79911">
        <ele>49.8</ele>
        <time>2012-02-04T08:52:06Z</time>
      </trkpt>
      <trkpt lat="50.4609" lon="1.79922">
        <ele>50.1</ele>
        <time>2012-02-04T08:52:08Z</time>
      </trkpt>
      <trkpt lat="50.46088" lon="1.79934">
        <ele>49.8</ele>
        <time>2012-02-04T08:52:10Z</time>
      </trkpt>
      <trkpt lat="50.46087" lon="1.79946">
        <ele>49.6</ele>
        <time>2012-02-04T08:52:12Z</time>
      </trkpt>
      <trkpt lat="50.46084" lon="1.79958">
        <ele>49.6</ele>
        <time>2012-02-04T08:52:14Z</time>
      </trkpt>
      <trkpt lat="50.46082" lon="1.7997">
        <ele>49.1</ele>
        <time>2012-02-04T08:52:16Z</time>
      </trkpt>
      <trkpt lat="50.4608" lon="1.79982">
        <ele>48.9</ele>
        <time>2012-02-04T08:52:18Z</time>
      </trkpt>
      <trkpt lat="50.46077" lon="1.79993">
        <ele>48.2</ele>
        <time>2012-02-04T08:52:20Z</time>
      </trkpt>
      <trkpt lat="50.46074" lon="1.80004">
        <ele>48.4</ele>
        <time>2012-02-04T08:52:22Z</time>
      </trkpt>
      <trkpt lat="50.46072" lon="1.80015">
        <ele>47.9</ele>
        <time>2012-02-04T08:52:24Z</time>
      </trkpt>
      <trkpt lat="50.4607" lon="1.80025">
        <ele>48.4</ele>
        <time>2012-02-04T08:52:26Z</time>
      </trkpt>
      <trkpt lat="50.4607" lon="1.80036">
        <ele>47.7</ele>
        <time>2012-02-04T08:52:28Z</time>
      </trkpt>
      <trkpt lat="50.46068" lon="1.80046">
        <ele>47.8</ele>
        <time>2012-02-04T08:52:30Z</time>
      </trkpt>
      <trkpt lat="50.46068" lon="1.80054">
        <ele>47.9</ele>
        <time>2012-02-04T08:52:32Z</time>
      </trkpt>
      <trkpt lat="50.46066" lon="1.80064">
        <ele>48.1</ele>
        <time>2012-02-04T08:52:34Z</time>
      </trkpt>
      <trkpt lat="50.46065" lon="1.80074">
        <ele>48.2</ele>
        <time>2012-02-04T08:52:36Z</time>
      </trkpt>
      <trkpt lat="50.46062" lon="1.80083">
        <ele>47.8</ele>
        <time>2012-02-04T08:52:38Z</time>
      </trkpt>
      <trkpt lat="50.46061" lon="1.80094">
        <ele>48.3</ele>
        <time>2012-02-04T08:52:40Z</time>
      </trkpt>
      <trkpt lat="50.4606" lon="1.80103">
        <ele>45.5</ele>
        <time>2012-02-04T08:52:42Z</time>
      </trkpt>
      <trkpt lat="50.46058" lon="1.80112">
        <ele>44.9</ele>
        <time>2012-02-04T08:52:44Z</time>
      </trkpt>
      <trkpt lat="50.46057" lon="1.80122">
        <ele>43.6</ele>
        <time>2012-02-04T08:52:46Z</time>
      </trkpt>
      <trkpt lat="50.46056" lon="1.80132">
        <ele>41.7</ele>
        <time>2012-02-04T08:52:48Z</time>
      </trkpt>
      <trkpt lat="50.46053" lon="1.80143">
        <ele>41.5</ele>
        <time>2012-02-04T08:52:50Z</time>
      </trkpt>
      <trkpt lat="50.46051" lon="1.80151">
        <ele>41.9</ele>
        <time>2012-02-04T08:52:52Z</time>
      </trkpt>
      <trkpt lat="50.46048" lon="1.80161">
        <ele>43</ele>
        <time>2012-02-04T08:52:54Z</time>
      </trkpt>
      <trkpt lat="50.46046" lon="1.80173">
        <ele>44.1</ele>
        <time>2012-02-04T08:52:56Z</time>
      </trkpt>
      <trkpt lat="50.46045" lon="1.80184">
        <ele>44.2</ele>
        <time>2012-02-04T08:52:58Z</time>
      </trkpt>
      <trkpt lat="50.46043" lon="1.80195">
        <ele>43.3</ele>
        <time>2012-02-04T08:53:00Z</time>
      </trkpt>
      <trkpt lat="50.4604" lon="1.80206">
        <ele>45.5</ele>
        <time>2012-02-04T08:53:02Z</time>
      </trkpt>
      <trkpt lat="50.46037" lon="1.80217">
        <ele>46.9</ele>
        <time>2012-02-04T08:53:04Z</time>
      </trkpt>
      <trkpt lat="50.46034" lon="1.80227">
        <ele>47.5</ele>
        <time>2012-02-04T08:53:06Z</time>
      </trkpt>
      <trkpt lat="50.46034" lon="1.80234">
        <ele>49.4</ele>
        <time>2012-02-04T08:53:07Z</time>
      </trkpt>
      <trkpt lat="50.46033" lon="1.80247">
        <ele>48</ele>
        <time>2012-02-04T08:53:09Z</time>
      </trkpt>
      <trkpt lat="50.46032" lon="1.80257">
        <ele>45.9</ele>
        <time>2012-02-04T08:53:11Z</time>
      </trkpt>
      <trkpt lat="50.4603" lon="1.80267">
        <ele>45.2</ele>
        <time>2012-02-04T08:53:13Z</time>
      </trkpt>
      <trkpt lat="50.46028" lon="1.80279">
        <ele>45.2</ele>
        <time>2012-02-04T08:53:15Z</time>
      </trkpt>
      <trkpt lat="50.46025" lon="1.8029">
        <ele>45.2</ele>
        <time>2012-02-04T08:53:17Z</time>
      </trkpt>
      <trkpt lat="50.46024" lon="1.80303">
        <ele>45</ele>
        <time>2012-02-04T08:53:19Z</time>
      </trkpt>
      <trkpt lat="50.46022" lon="1.80316">
        <ele>47.7</ele>
        <time>2012-02-04T08:53:21Z</time>
      </trkpt>
      <trkpt lat="50.46019" lon="1.80322">
        <ele>49.2</ele>
        <time>2012-02-04T08:53:22Z</time>
      </trkpt>
      <trkpt lat="50.46018" lon="1.80334">
        <ele>49.3</ele>
        <time>2012-02-04T08:53:24Z</time>
      </trkpt>
      <trkpt lat="50.46017" lon="1.80345">
        <ele>48.3</ele>
        <time>2012-02-04T08:53:26Z</time>
      </trkpt>
      <trkpt lat="50.46014" lon="1.80359">
        <ele>46.8</ele>
        <time>2012-02-04T08:53:28Z</time>
      </trkpt>
      <trkpt lat="50.46013" lon="1.80372">
        <ele>43.5</ele>
        <time>2012-02-04T08:53:30Z</time>
      </trkpt>
      <trkpt lat="50.46013" lon="1.80384">
        <ele>41.6</ele>
        <time>2012-02-04T08:53:32Z</time>
      </trkpt>
      <trkpt lat="50.4601" lon="1.80396">
        <ele>41.3</ele>
        <time>2012-02-04T08:53:34Z</time>
      </trkpt>
      <trkpt lat="50.46009" lon="1.80408">
        <ele>41.7</ele>
        <time>2012-02-04T08:53:36Z</time>
      </trkpt>
      <trkpt lat="50.46007" lon="1.80415">
        <ele>41.9</ele>
        <time>2012-02-04T08:53:37Z</time>
      </trkpt>
      <trkpt lat="50.46004" lon="1.80427">
        <ele>44.1</ele>
        <time>2012-02-04T08:53:39Z</time>
      </trkpt>
      <trkpt lat="50.46002" lon="1.80438">
        <ele>46</ele>
        <time>2012-02-04T08:53:41Z</time>
      </trkpt>
      <trkpt lat="50.45999" lon="1.80451">
        <ele>45.9</ele>
        <time>2012-02-04T08:53:43Z</time>
      </trkpt>
      <trkpt lat="50.45997" lon="1.80463">
        <ele>43.5</ele>
        <time>2012-02-04T08:53:45Z</time>
      </trkpt>
      <trkpt lat="50.45996" lon="1.80476">
        <ele>41.1</ele>
        <time>2012-02-04T08:53:47Z</time>
      </trkpt>
      <trkpt lat="50.45994" lon="1.80484">
        <ele>41.9</ele>
        <time>2012-02-04T08:53:48Z</time>
      </trkpt>
      <trkpt lat="50.4599" lon="1.80495">
        <ele>40.4</ele>
        <time>2012-02-04T08:53:50Z</time>
      </trkpt>
      <trkpt lat="50.45987" lon="1.80506">
        <ele>40.3</ele>
        <time>2012-02-04T08:53:52Z</time>
      </trkpt>
      <trkpt lat="50.45986" lon="1.80513">
        <ele>43.7</ele>
        <time>2012-02-04T08:53:53Z</time>
      </trkpt>
      <trkpt lat="50.45984" lon="1.8052">
        <ele>43.5</ele>
        <time>2012-02-04T08:53:54Z</time>
      </trkpt>
      <trkpt lat="50.45983" lon="1.80527">
        <ele>44</ele>
        <time>2012-02-04T08:53:55Z</time>
      </trkpt>
      <trkpt lat="50.45982" lon="1.80534">
        <ele>44.2</ele>
        <time>2012-02-04T08:53:56Z</time>
      </trkpt>
      <trkpt lat="50.4598" lon="1.80541">
        <ele>44.3</ele>
        <time>2012-02-04T08:53:57Z</time>
      </trkpt>
      <trkpt lat="50.45979" lon="1.80548">
        <ele>44.3</ele>
        <time>2012-02-04T08:53:58Z</time>
      </trkpt>
      <trkpt lat="50.45978" lon="1.80556">
        <ele>44.4</ele>
        <time>2012-02-04T08:53:59Z</time>
      </trkpt>
      <trkpt lat="50.45977" lon="1.80564">
        <ele>44.5</ele>
        <time>2012-02-04T08:54:00Z</time>
      </trkpt>
      <trkpt lat="50.45976" lon="1.80572">
        <ele>44.7</ele>
        <time>2012-02-04T08:54:01Z</time>
      </trkpt>
      <trkpt lat="50.45974" lon="1.80582">
        <ele>44.8</ele>
        <time>2012-02-04T08:54:02Z</time>
      </trkpt>
      <trkpt lat="50.45973" lon="1.8059">
        <ele>45.3</ele>
        <time>2012-02-04T08:54:03Z</time>
      </trkpt>
      <trkpt lat="50.45973" lon="1.80601">
        <ele>45.2</ele>
        <time>2012-02-04T08:54:04Z</time>
      </trkpt>
      <trkpt lat="50.45972" lon="1.80608">
        <ele>45.2</ele>
        <time>2012-02-04T08:54:05Z</time>
      </trkpt>
      <trkpt lat="50.45971" lon="1.80617">
        <ele>45.9</ele>
        <time>2012-02-04T08:54:06Z</time>
      </trkpt>
      <trkpt lat="50.45969" lon="1.80626">
        <ele>45.9</ele>
        <time>2012-02-04T08:54:07Z</time>
      </trkpt>
      <trkpt lat="50.45967" lon="1.80635">
        <ele>46</ele>
        <time>2012-02-04T08:54:08Z</time>
      </trkpt>
      <trkpt lat="50.45966" lon="1.80646">
        <ele>45.9</ele>
        <time>2012-02-04T08:54:09Z</time>
      </trkpt>
      <trkpt lat="50.45965" lon="1.80654">
        <ele>45.8</ele>
        <time>2012-02-04T08:54:10Z</time>
      </trkpt>
      <trkpt lat="50.45962" lon="1.80662">
        <ele>46</ele>
        <time>2012-02-04T08:54:11Z</time>
      </trkpt>
      <trkpt lat="50.4596" lon="1.8067">
        <ele>46.2</ele>
        <time>2012-02-04T08:54:12Z</time>
      </trkpt>
      <trkpt lat="50.45959" lon="1.80678">
        <ele>46.4</ele>
        <time>2012-02-04T08:54:13Z</time>
      </trkpt>
      <trkpt lat="50.45958" lon="1.80686">
        <ele>46.4</ele>
        <time>2012-02-04T08:54:14Z</time>
      </trkpt>
      <trkpt lat="50.45958" lon="1.80694">
        <ele>46.4</ele>
        <time>2012-02-04T08:54:15Z</time>
      </trkpt>
      <trkpt lat="50.45957" lon="1.80701">
        <ele>46.5</ele>
        <time>2012-02-04T08:54:16Z</time>
      </trkpt>
      <trkpt lat="50.45955" lon="1.80709">
        <ele>46.6</ele>
        <time>2012-02-04T08:54:17Z</time>
      </trkpt>
      <trkpt lat="50.45954" lon="1.8072">
        <ele>48.9</ele>
        <time>2012-02-04T08:54:18Z</time>
      </trkpt>
      <trkpt lat="50.45952" lon="1.80727">
        <ele>48.8</ele>
        <time>2012-02-04T08:54:19Z</time>
      </trkpt>
      <trkpt lat="50.4595" lon="1.80735">
        <ele>49.5</ele>
        <time>2012-02-04T08:54:20Z</time>
      </trkpt>
      <trkpt lat="50.45949" lon="1.80743">
        <ele>49.2</ele>
        <time>2012-02-04T08:54:21Z</time>
      </trkpt>
      <trkpt lat="50.45948" lon="1.8075">
        <ele>49.1</ele>
        <time>2012-02-04T08:54:22Z</time>
      </trkpt>
      <trkpt lat="50.45946" lon="1.80758">
        <ele>49.7</ele>
        <time>2012-02-04T08:54:23Z</time>
      </trkpt>
      <trkpt lat="50.45945" lon="1.80767">
        <ele>50.5</ele>
        <time>2012-02-04T08:54:24Z</time>
      </trkpt>
      <trkpt lat="50.45942" lon="1.8078">
        <ele>50</ele>
        <time>2012-02-04T08:54:26Z</time>
      </trkpt>
      <trkpt lat="50.45941" lon="1.80793">
        <ele>50.5</ele>
        <time>2012-02-04T08:54:28Z</time>
      </trkpt>
      <trkpt lat="50.45939" lon="1.80806">
        <ele>48.9</ele>
        <time>2012-02-04T08:54:30Z</time>
      </trkpt>
      <trkpt lat="50.45936" lon="1.80818">
        <ele>49.1</ele>
        <time>2012-02-04T08:54:32Z</time>
      </trkpt>
      <trkpt lat="50.45932" lon="1.80831">
        <ele>48.6</ele>
        <time>2012-02-04T08:54:34Z</time>
      </trkpt>
      <trkpt lat="50.45931" lon="1.80844">
        <ele>46.5</ele>
        <time>2012-02-04T08:54:36Z</time>
      </trkpt>
      <trkpt lat="50.45928" lon="1.80856">
        <ele>46.6</ele>
        <time>2012-02-04T08:54:38Z</time>
      </trkpt>
      <trkpt lat="50.45927" lon="1.80869">
        <ele>45.9</ele>
        <time>2012-02-04T08:54:40Z</time>
      </trkpt>
      <trkpt lat="50.45923" lon="1.80881">
        <ele>46.2</ele>
        <time>2012-02-04T08:54:42Z</time>
      </trkpt>
      <trkpt lat="50.45921" lon="1.80893">
        <ele>45.7</ele>
        <time>2012-02-04T08:54:44Z</time>
      </trkpt>
      <trkpt lat="50.45919" lon="1.80905">
        <ele>46</ele>
        <time>2012-02-04T08:54:46Z</time>
      </trkpt>
      <trkpt lat="50.45917" lon="1.80917">
        <ele>47.1</ele>
        <time>2012-02-04T08:54:48Z</time>
      </trkpt>
      <trkpt lat="50.45915" lon="1.80928">
        <ele>48</ele>
        <time>2012-02-04T08:54:50Z</time>
      </trkpt>
      <trkpt lat="50.45913" lon="1.80939">
        <ele>48.9</ele>
        <time>2012-02-04T08:54:52Z</time>
      </trkpt>
      <trkpt lat="50.4591" lon="1.80948">
        <ele>48.8</ele>
        <time>2012-02-04T08:54:54Z</time>
      </trkpt>
      <trkpt lat="50.45909" lon="1.8096">
        <ele>48.9</ele>
        <time>2012-02-04T08:54:56Z</time>
      </trkpt>
      <trkpt lat="50.45908" lon="1.80972">
        <ele>47.4</ele>
        <time>2012-02-04T08:54:58Z</time>
      </trkpt>
      <trkpt lat="50.45906" lon="1.80982">
        <ele>46.6</ele>
        <time>2012-02-04T08:55:00Z</time>
      </trkpt>
      <trkpt lat="50.45904" lon="1.80992">
        <ele>47</ele>
        <time>2012-02-04T08:55:02Z</time>
      </trkpt>
      <trkpt lat="50.45902" lon="1.81002">
        <ele>46.7</ele>
        <time>2012-02-04T08:55:04Z</time>
      </trkpt>
      <trkpt lat="50.45899" lon="1.81013">
        <ele>47.1</ele>
        <time>2012-02-04T08:55:06Z</time>
      </trkpt>
      <trkpt lat="50.45893" lon="1.81022">
        <ele>46.3</ele>
        <time>2012-02-04T08:55:08Z</time>
      </trkpt>
      <trkpt lat="50.45886" lon="1.81027">
        <ele>46.9</ele>
        <time>2012-02-04T08:55:10Z</time>
      </trkpt>
      <trkpt lat="50.45878" lon="1.8103">
        <ele>46.9</ele>
        <time>2012-02-04T08:55:12Z</time>
      </trkpt>
      <trkpt lat="50.4587" lon="1.81031">
        <ele>47.4</ele>
        <time>2012-02-04T08:55:14Z</time>
      </trkpt>
      <trkpt lat="50.45862" lon="1.81033">
        <ele>47.6</ele>
        <time>2012-02-04T08:55:16Z</time>
      </trkpt>
      <trkpt lat="50.45856" lon="1.81033">
        <ele>47.4</ele>
        <time>2012-02-04T08:55:18Z</time>
      </trkpt>
      <trkpt lat="50.4585" lon="1.81035">
        <ele>47.4</ele>
        <time>2012-02-04T08:55:20Z</time>
      </trkpt>
      <trkpt lat="50.45843" lon="1.81044">
        <ele>47.6</ele>
        <time>2012-02-04T08:55:22Z</time>
      </trkpt>
      <trkpt lat="50.45836" lon="1.81052">
        <ele>48</ele>
        <time>2012-02-04T08:55:24Z</time>
      </trkpt>
      <trkpt lat="50.45831" lon="1.8106">
        <ele>48.7</ele>
        <time>2012-02-04T08:55:26Z</time>
      </trkpt>
      <trkpt lat="50.45825" lon="1.81069">
        <ele>48.7</ele>
        <time>2012-02-04T08:55:28Z</time>
      </trkpt>
      <trkpt lat="50.45819" lon="1.81076">
        <ele>48.8</ele>
        <time>2012-02-04T08:55:30Z</time>
      </trkpt>
      <trkpt lat="50.45814" lon="1.81084">
        <ele>48.4</ele>
        <time>2012-02-04T08:55:32Z</time>
      </trkpt>
      <trkpt lat="50.45809" lon="1.81094">
        <ele>48.9</ele>
        <time>2012-02-04T08:55:34Z</time>
      </trkpt>
      <trkpt lat="50.45803" lon="1.81104">
        <ele>48.5</ele>
        <time>2012-02-04T08:55:36Z</time>
      </trkpt>
      <trkpt lat="50.45798" lon="1.81112">
        <ele>47.9</ele>
        <time>2012-02-04T08:55:38Z</time>
      </trkpt>
      <trkpt lat="50.45793" lon="1.81121">
        <ele>48.1</ele>
        <time>2012-02-04T08:55:40Z</time>
      </trkpt>
      <trkpt lat="50.45786" lon="1.81128">
        <ele>48</ele>
        <time>2012-02-04T08:55:42Z</time>
      </trkpt>
      <trkpt lat="50.4578" lon="1.81136">
        <ele>47.9</ele>
        <time>2012-02-04T08:55:44Z</time>
      </trkpt>
      <trkpt lat="50.45773" lon="1.81142">
        <ele>47.1</ele>
        <time>2012-02-04T08:55:46Z</time>
      </trkpt>
      <trkpt lat="50.45765" lon="1.81146">
        <ele>47.5</ele>
        <time>2012-02-04T08:55:48Z</time>
      </trkpt>
      <trkpt lat="50.45758" lon="1.81153">
        <ele>47.7</ele>
        <time>2012-02-04T08:55:50Z</time>
      </trkpt>
      <trkpt lat="50.45751" lon="1.81159">
        <ele>47.9</ele>
        <time>2012-02-04T08:55:52Z</time>
      </trkpt>
      <trkpt lat="50.45746" lon="1.81166">
        <ele>48.3</ele>
        <time>2012-02-04T08:55:54Z</time>
      </trkpt>
      <trkpt lat="50.45738" lon="1.81171">
        <ele>48.5</ele>
        <time>2012-02-04T08:55:56Z</time>
      </trkpt>
      <trkpt lat="50.45731" lon="1.81178">
        <ele>47.9</ele>
        <time>2012-02-04T08:55:58Z</time>
      </trkpt>
      <trkpt lat="50.45726" lon="1.81181">
        <ele>50.4</ele>
        <time>2012-02-04T08:55:59Z</time>
      </trkpt>
      <trkpt lat="50.4572" lon="1.81186">
        <ele>50.3</ele>
        <time>2012-02-04T08:56:01Z</time>
      </trkpt>
      <trkpt lat="50.45712" lon="1.81189">
        <ele>50.9</ele>
        <time>2012-02-04T08:56:03Z</time>
      </trkpt>
      <trkpt lat="50.45706" lon="1.81194">
        <ele>51.4</ele>
        <time>2012-02-04T08:56:05Z</time>
      </trkpt>
      <trkpt lat="50.45698" lon="1.81197">
        <ele>51.2</ele>
        <time>2012-02-04T08:56:07Z</time>
      </trkpt>
      <trkpt lat="50.45691" lon="1.81201">
        <ele>51.4</ele>
        <time>2012-02-04T08:56:09Z</time>
      </trkpt>
      <trkpt lat="50.45692" lon="1.81214">
        <ele>51.3</ele>
        <time>2012-02-04T08:56:10Z</time>
      </trkpt>
      <trkpt lat="50.45691" lon="1.81227">
        <ele>51.5</ele>
        <time>2012-02-04T08:56:12Z</time>
      </trkpt>
      <trkpt lat="50.45692" lon="1.81241">
        <ele>49.6</ele>
        <time>2012-02-04T08:56:14Z</time>
      </trkpt>
      <trkpt lat="50.45692" lon="1.81248">
        <ele>49.6</ele>
        <time>2012-02-04T08:56:15Z</time>
      </trkpt>
      <trkpt lat="50.45692" lon="1.81255">
        <ele>49.4</ele>
        <time>2012-02-04T08:56:16Z</time>
      </trkpt>
      <trkpt lat="50.45692" lon="1.81262">
        <ele>49.5</ele>
        <time>2012-02-04T08:56:17Z</time>
      </trkpt>
      <trkpt lat="50.45693" lon="1.81277">
        <ele>49.9</ele>
        <time>2012-02-04T08:56:19Z</time>
      </trkpt>
      <trkpt lat="50.45695" lon="1.81289">
        <ele>50.1</ele>
        <time>2012-02-04T08:56:21Z</time>
      </trkpt>
      <trkpt lat="50.45696" lon="1.81297">
        <ele>50.3</ele>
        <time>2012-02-04T08:56:22Z</time>
      </trkpt>
      <trkpt lat="50.45698" lon="1.81306">
        <ele>50.6</ele>
        <time>2012-02-04T08:56:23Z</time>
      </trkpt>
      <trkpt lat="50.45698" lon="1.8132">
        <ele>50.7</ele>
        <time>2012-02-04T08:56:25Z</time>
      </trkpt>
      <trkpt lat="50.45698" lon="1.81327">
        <ele>51.1</ele>
        <time>2012-02-04T08:56:26Z</time>
      </trkpt>
      <trkpt lat="50.45698" lon="1.8134">
        <ele>49.6</ele>
        <time>2012-02-04T08:56:28Z</time>
      </trkpt>
      <trkpt lat="50.45698" lon="1.81347">
        <ele>48.9</ele>
        <time>2012-02-04T08:56:29Z</time>
      </trkpt>
      <trkpt lat="50.45697" lon="1.8136">
        <ele>49.2</ele>
        <time>2012-02-04T08:56:31Z</time>
      </trkpt>
      <trkpt lat="50.45697" lon="1.81371">
        <ele>49.3</ele>
        <time>2012-02-04T08:56:33Z</time>
      </trkpt>
      <trkpt lat="50.45697" lon="1.81384">
        <ele>49.3</ele>
        <time>2012-02-04T08:56:35Z</time>
      </trkpt>
      <trkpt lat="50.45697" lon="1.81397">
        <ele>49.6</ele>
        <time>2012-02-04T08:56:37Z</time>
      </trkpt>
      <trkpt lat="50.45694" lon="1.81409">
        <ele>49.6</ele>
        <time>2012-02-04T08:56:39Z</time>
      </trkpt>
      <trkpt lat="50.45692" lon="1.81421">
        <ele>49.9</ele>
        <time>2012-02-04T08:56:41Z</time>
      </trkpt>
      <trkpt lat="50.45693" lon="1.81428">
        <ele>50.1</ele>
        <time>2012-02-04T08:56:42Z</time>
      </trkpt>
      <trkpt lat="50.45693" lon="1.81441">
        <ele>50.2</ele>
        <time>2012-02-04T08:56:44Z</time>
      </trkpt>
      <trkpt lat="50.45693" lon="1.81452">
        <ele>50.3</ele>
        <time>2012-02-04T08:56:46Z</time>
      </trkpt>
      <trkpt lat="50.45694" lon="1.81466">
        <ele>49.1</ele>
        <time>2012-02-04T08:56:48Z</time>
      </trkpt>
      <trkpt lat="50.45693" lon="1.81478">
        <ele>48.9</ele>
        <time>2012-02-04T08:56:50Z</time>
      </trkpt>
      <trkpt lat="50.45694" lon="1.81486">
        <ele>48.7</ele>
        <time>2012-02-04T08:56:51Z</time>
      </trkpt>
      <trkpt lat="50.45692" lon="1.81497">
        <ele>48.5</ele>
        <time>2012-02-04T08:56:53Z</time>
      </trkpt>
      <trkpt lat="50.4569" lon="1.81506">
        <ele>48.8</ele>
        <time>2012-02-04T08:56:55Z</time>
      </trkpt>
      <trkpt lat="50.4569" lon="1.81518">
        <ele>49.5</ele>
        <time>2012-02-04T08:56:57Z</time>
      </trkpt>
      <trkpt lat="50.45692" lon="1.81524">
        <ele>49.7</ele>
        <time>2012-02-04T08:56:58Z</time>
      </trkpt>
      <trkpt lat="50.45693" lon="1.81532">
        <ele>49.1</ele>
        <time>2012-02-04T08:56:59Z</time>
      </trkpt>
      <trkpt lat="50.45693" lon="1.81546">
        <ele>49.6</ele>
        <time>2012-02-04T08:57:01Z</time>
      </trkpt>
      <trkpt lat="50.45694" lon="1.81557">
        <ele>49.8</ele>
        <time>2012-02-04T08:57:03Z</time>
      </trkpt>
      <trkpt lat="50.45694" lon="1.81569">
        <ele>50</ele>
        <time>2012-02-04T08:57:05Z</time>
      </trkpt>
      <trkpt lat="50.45693" lon="1.81581">
        <ele>51</ele>
        <time>2012-02-04T08:57:07Z</time>
      </trkpt>
      <trkpt lat="50.45694" lon="1.81589">
        <ele>50.9</ele>
        <time>2012-02-04T08:57:08Z</time>
      </trkpt>
      <trkpt lat="50.45695" lon="1.81602">
        <ele>51.5</ele>
        <time>2012-02-04T08:57:10Z</time>
      </trkpt>
      <trkpt lat="50.45696" lon="1.81615">
        <ele>51.9</ele>
        <time>2012-02-04T08:57:12Z</time>
      </trkpt>
      <trkpt lat="50.45696" lon="1.81628">
        <ele>51.8</ele>
        <time>2012-02-04T08:57:14Z</time>
      </trkpt>
      <trkpt lat="50.45695" lon="1.81639">
        <ele>50.5</ele>
        <time>2012-02-04T08:57:16Z</time>
      </trkpt>
      <trkpt lat="50.45695" lon="1.81652">
        <ele>49.4</ele>
        <time>2012-02-04T08:57:18Z</time>
      </trkpt>
      <trkpt lat="50.45694" lon="1.81663">
        <ele>49.3</ele>
        <time>2012-02-04T08:57:20Z</time>
      </trkpt>
      <trkpt lat="50.45692" lon="1.81676">
        <ele>50.1</ele>
        <time>2012-02-04T08:57:22Z</time>
      </trkpt>
      <trkpt lat="50.45691" lon="1.81688">
        <ele>49.9</ele>
        <time>2012-02-04T08:57:24Z</time>
      </trkpt>
      <trkpt lat="50.45691" lon="1.817">
        <ele>49.8</ele>
        <time>2012-02-04T08:57:26Z</time>
      </trkpt>
      <trkpt lat="50.4569" lon="1.81713">
        <ele>49.6</ele>
        <time>2012-02-04T08:57:28Z</time>
      </trkpt>
      <trkpt lat="50.45691" lon="1.8172">
        <ele>49.4</ele>
        <time>2012-02-04T08:57:29Z</time>
      </trkpt>
      <trkpt lat="50.45692" lon="1.81733">
        <ele>49.5</ele>
        <time>2012-02-04T08:57:31Z</time>
      </trkpt>
      <trkpt lat="50.45693" lon="1.81747">
        <ele>49.1</ele>
        <time>2012-02-04T08:57:33Z</time>
      </trkpt>
      <trkpt lat="50.45693" lon="1.8176">
        <ele>49.4</ele>
        <time>2012-02-04T08:57:35Z</time>
      </trkpt>
      <trkpt lat="50.45694" lon="1.81767">
        <ele>49.8</ele>
        <time>2012-02-04T08:57:36Z</time>
      </trkpt>
      <trkpt lat="50.45693" lon="1.81778">
        <ele>49.3</ele>
        <time>2012-02-04T08:57:38Z</time>
      </trkpt>
      <trkpt lat="50.45692" lon="1.8179">
        <ele>49.5</ele>
        <time>2012-02-04T08:57:40Z</time>
      </trkpt>
      <trkpt lat="50.45691" lon="1.81802">
        <ele>47.8</ele>
        <time>2012-02-04T08:57:42Z</time>
      </trkpt>
      <trkpt lat="50.45691" lon="1.81814">
        <ele>48.3</ele>
        <time>2012-02-04T08:57:44Z</time>
      </trkpt>
      <trkpt lat="50.45692" lon="1.81826">
        <ele>47.6</ele>
        <time>2012-02-04T08:57:46Z</time>
      </trkpt>
      <trkpt lat="50.45692" lon="1.81837">
        <ele>48.1</ele>
        <time>2012-02-04T08:57:48Z</time>
      </trkpt>
      <trkpt lat="50.45692" lon="1.8185">
        <ele>46.6</ele>
        <time>2012-02-04T08:57:50Z</time>
      </trkpt>
      <trkpt lat="50.45692" lon="1.81862">
        <ele>46.5</ele>
        <time>2012-02-04T08:57:52Z</time>
      </trkpt>
      <trkpt lat="50.45692" lon="1.81873">
        <ele>46.5</ele>
        <time>2012-02-04T08:57:54Z</time>
      </trkpt>
      <trkpt lat="50.45692" lon="1.81885">
        <ele>50.2</ele>
        <time>2012-02-04T08:57:56Z</time>
      </trkpt>
      <trkpt lat="50.45692" lon="1.81899">
        <ele>50.7</ele>
        <time>2012-02-04T08:57:58Z</time>
      </trkpt>
      <trkpt lat="50.45693" lon="1.81911">
        <ele>51.3</ele>
        <time>2012-02-04T08:58:00Z</time>
      </trkpt>
      <trkpt lat="50.45692" lon="1.81922">
        <ele>51.6</ele>
        <time>2012-02-04T08:58:02Z</time>
      </trkpt>
      <trkpt lat="50.45693" lon="1.81936">
        <ele>52.2</ele>
        <time>2012-02-04T08:58:04Z</time>
      </trkpt>
      <trkpt lat="50.45692" lon="1.81947">
        <ele>52.3</ele>
        <time>2012-02-04T08:58:06Z</time>
      </trkpt>
      <trkpt lat="50.45692" lon="1.81961">
        <ele>51.9</ele>
        <time>2012-02-04T08:58:08Z</time>
      </trkpt>
      <trkpt lat="50.45692" lon="1.81974">
        <ele>52</ele>
        <time>2012-02-04T08:58:10Z</time>
      </trkpt>
      <trkpt lat="50.45692" lon="1.81986">
        <ele>52.6</ele>
        <time>2012-02-04T08:58:12Z</time>
      </trkpt>
      <trkpt lat="50.45692" lon="1.81999">
        <ele>52.7</ele>
        <time>2012-02-04T08:58:14Z</time>
      </trkpt>
      <trkpt lat="50.45691" lon="1.82012">
        <ele>52.9</ele>
        <time>2012-02-04T08:58:16Z</time>
      </trkpt>
      <trkpt lat="50.4569" lon="1.82024">
        <ele>53.3</ele>
        <time>2012-02-04T08:58:18Z</time>
      </trkpt>
      <trkpt lat="50.45691" lon="1.82031">
        <ele>52.4</ele>
        <time>2012-02-04T08:58:19Z</time>
      </trkpt>
      <trkpt lat="50.45691" lon="1.82043">
        <ele>52</ele>
        <time>2012-02-04T08:58:21Z</time>
      </trkpt>
      <trkpt lat="50.4569" lon="1.82056">
        <ele>51.8</ele>
        <time>2012-02-04T08:58:23Z</time>
      </trkpt>
      <trkpt lat="50.45691" lon="1.82063">
        <ele>51.3</ele>
        <time>2012-02-04T08:58:24Z</time>
      </trkpt>
      <trkpt lat="50.4569" lon="1.82075">
        <ele>50.2</ele>
        <time>2012-02-04T08:58:26Z</time>
      </trkpt>
      <trkpt lat="50.45689" lon="1.82088">
        <ele>49.8</ele>
        <time>2012-02-04T08:58:28Z</time>
      </trkpt>
      <trkpt lat="50.45689" lon="1.82096">
        <ele>50</ele>
        <time>2012-02-04T08:58:29Z</time>
      </trkpt>
      <trkpt lat="50.4569" lon="1.82111">
        <ele>50.1</ele>
        <time>2012-02-04T08:58:31Z</time>
      </trkpt>
      <trkpt lat="50.45691" lon="1.82119">
        <ele>50.1</ele>
        <time>2012-02-04T08:58:32Z</time>
      </trkpt>
      <trkpt lat="50.45692" lon="1.82126">
        <ele>50.3</ele>
        <time>2012-02-04T08:58:33Z</time>
      </trkpt>
      <trkpt lat="50.45691" lon="1.8214">
        <ele>49.7</ele>
        <time>2012-02-04T08:58:35Z</time>
      </trkpt>
      <trkpt lat="50.4569" lon="1.82154">
        <ele>50.4</ele>
        <time>2012-02-04T08:58:37Z</time>
      </trkpt>
      <trkpt lat="50.4569" lon="1.82168">
        <ele>50.5</ele>
        <time>2012-02-04T08:58:39Z</time>
      </trkpt>
      <trkpt lat="50.45691" lon="1.82175">
        <ele>50.8</ele>
        <time>2012-02-04T08:58:40Z</time>
      </trkpt>
      <trkpt lat="50.4569" lon="1.82188">
        <ele>51</ele>
        <time>2012-02-04T08:58:42Z</time>
      </trkpt>
      <trkpt lat="50.45689" lon="1.82196">
        <ele>51</ele>
        <time>2012-02-04T08:58:43Z</time>
      </trkpt>
      <trkpt lat="50.4569" lon="1.82203">
        <ele>51</ele>
        <time>2012-02-04T08:58:44Z</time>
      </trkpt>
      <trkpt lat="50.45689" lon="1.82216">
        <ele>50.5</ele>
        <time>2012-02-04T08:58:46Z</time>
      </trkpt>
      <trkpt lat="50.45689" lon="1.82224">
        <ele>50.4</ele>
        <time>2012-02-04T08:58:47Z</time>
      </trkpt>
      <trkpt lat="50.45689" lon="1.82231">
        <ele>49.6</ele>
        <time>2012-02-04T08:58:48Z</time>
      </trkpt>
      <trkpt lat="50.45688" lon="1.82245">
        <ele>50</ele>
        <time>2012-02-04T08:58:50Z</time>
      </trkpt>
      <trkpt lat="50.45689" lon="1.82253">
        <ele>49.9</ele>
        <time>2012-02-04T08:58:51Z</time>
      </trkpt>
      <trkpt lat="50.45688" lon="1.82266">
        <ele>49.1</ele>
        <time>2012-02-04T08:58:53Z</time>
      </trkpt>
      <trkpt lat="50.45688" lon="1.82273">
        <ele>48.9</ele>
        <time>2012-02-04T08:58:54Z</time>
      </trkpt>
      <trkpt lat="50.45688" lon="1.82286">
        <ele>48.6</ele>
        <time>2012-02-04T08:58:56Z</time>
      </trkpt>
      <trkpt lat="50.45689" lon="1.82294">
        <ele>44.7</ele>
        <time>2012-02-04T08:58:57Z</time>
      </trkpt>
      <trkpt lat="50.45689" lon="1.82307">
        <ele>45.7</ele>
        <time>2012-02-04T08:58:59Z</time>
      </trkpt>
      <trkpt lat="50.4569" lon="1.82314">
        <ele>46.4</ele>
        <time>2012-02-04T08:59:00Z</time>
      </trkpt>
      <trkpt lat="50.4569" lon="1.82328">
        <ele>46.7</ele>
        <time>2012-02-04T08:59:02Z</time>
      </trkpt>
      <trkpt lat="50.4569" lon="1.82341">
        <ele>47.1</ele>
        <time>2012-02-04T08:59:04Z</time>
      </trkpt>
      <trkpt lat="50.45691" lon="1.82355">
        <ele>47.4</ele>
        <time>2012-02-04T08:59:06Z</time>
      </trkpt>
      <trkpt lat="50.45692" lon="1.82362">
        <ele>47.5</ele>
        <time>2012-02-04T08:59:07Z</time>
      </trkpt>
      <trkpt lat="50.45692" lon="1.82376">
        <ele>46.8</ele>
        <time>2012-02-04T08:59:09Z</time>
      </trkpt>
      <trkpt lat="50.45693" lon="1.82383">
        <ele>46.8</ele>
        <time>2012-02-04T08:59:10Z</time>
      </trkpt>
      <trkpt lat="50.45694" lon="1.8239">
        <ele>47.4</ele>
        <time>2012-02-04T08:59:11Z</time>
      </trkpt>
      <trkpt lat="50.45697" lon="1.82403">
        <ele>51.4</ele>
        <time>2012-02-04T08:59:13Z</time>
      </trkpt>
      <trkpt lat="50.45699" lon="1.82415">
        <ele>52.2</ele>
        <time>2012-02-04T08:59:15Z</time>
      </trkpt>
      <trkpt lat="50.45702" lon="1.82426">
        <ele>52.8</ele>
        <time>2012-02-04T08:59:17Z</time>
      </trkpt>
      <trkpt lat="50.45704" lon="1.82433">
        <ele>52.8</ele>
        <time>2012-02-04T08:59:18Z</time>
      </trkpt>
      <trkpt lat="50.45708" lon="1.82444">
        <ele>52.9</ele>
        <time>2012-02-04T08:59:20Z</time>
      </trkpt>
      <trkpt lat="50.45713" lon="1.82455">
        <ele>51.7</ele>
        <time>2012-02-04T08:59:22Z</time>
      </trkpt>
      <trkpt lat="50.45719" lon="1.82465">
        <ele>51.3</ele>
        <time>2012-02-04T08:59:24Z</time>
      </trkpt>
      <trkpt lat="50.45726" lon="1.82475">
        <ele>52.7</ele>
        <time>2012-02-04T08:59:26Z</time>
      </trkpt>
      <trkpt lat="50.45729" lon="1.82485">
        <ele>50.4</ele>
        <time>2012-02-04T08:59:28Z</time>
      </trkpt>
      <trkpt lat="50.45734" lon="1.82496">
        <ele>49</ele>
        <time>2012-02-04T08:59:30Z</time>
      </trkpt>
      <trkpt lat="50.45738" lon="1.82505">
        <ele>46.6</ele>
        <time>2012-02-04T08:59:32Z</time>
      </trkpt>
      <trkpt lat="50.45743" lon="1.82514">
        <ele>51.6</ele>
        <time>2012-02-04T08:59:34Z</time>
      </trkpt>
      <trkpt lat="50.45748" lon="1.82524">
        <ele>49.3</ele>
        <time>2012-02-04T08:59:36Z</time>
      </trkpt>
      <trkpt lat="50.45752" lon="1.82532">
        <ele>47.7</ele>
        <time>2012-02-04T08:59:38Z</time>
      </trkpt>
      <trkpt lat="50.45757" lon="1.82541">
        <ele>47.3</ele>
        <time>2012-02-04T08:59:40Z</time>
      </trkpt>
      <trkpt lat="50.45758" lon="1.82548">
        <ele>53.1</ele>
        <time>2012-02-04T08:59:41Z</time>
      </trkpt>
      <trkpt lat="50.4576" lon="1.82555">
        <ele>53.5</ele>
        <time>2012-02-04T08:59:42Z</time>
      </trkpt>
      <trkpt lat="50.45764" lon="1.82566">
        <ele>53.3</ele>
        <time>2012-02-04T08:59:44Z</time>
      </trkpt>
      <trkpt lat="50.45766" lon="1.82578">
        <ele>54</ele>
        <time>2012-02-04T08:59:46Z</time>
      </trkpt>
      <trkpt lat="50.45768" lon="1.82591">
        <ele>52.8</ele>
        <time>2012-02-04T08:59:48Z</time>
      </trkpt>
      <trkpt lat="50.4577" lon="1.82602">
        <ele>54.5</ele>
        <time>2012-02-04T08:59:50Z</time>
      </trkpt>
      <trkpt lat="50.45773" lon="1.82614">
        <ele>54.7</ele>
        <time>2012-02-04T08:59:52Z</time>
      </trkpt>
      <trkpt lat="50.45776" lon="1.82624">
        <ele>55.8</ele>
        <time>2012-02-04T08:59:54Z</time>
      </trkpt>
      <trkpt lat="50.45779" lon="1.82635">
        <ele>56.6</ele>
        <time>2012-02-04T08:59:56Z</time>
      </trkpt>
      <trkpt lat="50.45783" lon="1.82646">
        <ele>58.6</ele>
        <time>2012-02-04T08:59:58Z</time>
      </trkpt>
      <trkpt lat="50.45786" lon="1.82657">
        <ele>59.2</ele>
        <time>2012-02-04T09:00:00Z</time>
      </trkpt>
      <trkpt lat="50.45789" lon="1.82668">
        <ele>61</ele>
        <time>2012-02-04T09:00:02Z</time>
      </trkpt>
      <trkpt lat="50.45793" lon="1.82679">
        <ele>62.3</ele>
        <time>2012-02-04T09:00:04Z</time>
      </trkpt>
      <trkpt lat="50.45797" lon="1.82685">
        <ele>62.5</ele>
        <time>2012-02-04T09:00:06Z</time>
      </trkpt>
      <trkpt lat="50.45802" lon="1.82691">
        <ele>62.3</ele>
        <time>2012-02-04T09:00:08Z</time>
      </trkpt>
      <trkpt lat="50.45806" lon="1.82695">
        <ele>62</ele>
        <time>2012-02-04T09:00:10Z</time>
      </trkpt>
      <trkpt lat="50.45811" lon="1.82699">
        <ele>61.6</ele>
        <time>2012-02-04T09:00:13Z</time>
      </trkpt>
      <trkpt lat="50.45817" lon="1.82699">
        <ele>60.6</ele>
        <time>2012-02-04T09:00:15Z</time>
      </trkpt>
      <trkpt lat="50.45824" lon="1.82699">
        <ele>60.4</ele>
        <time>2012-02-04T09:00:17Z</time>
      </trkpt>
      <trkpt lat="50.45829" lon="1.82701">
        <ele>60.1</ele>
        <time>2012-02-04T09:00:19Z</time>
      </trkpt>
      <trkpt lat="50.45835" lon="1.82707">
        <ele>60.5</ele>
        <time>2012-02-04T09:00:21Z</time>
      </trkpt>
      <trkpt lat="50.45838" lon="1.82716">
        <ele>61</ele>
        <time>2012-02-04T09:00:23Z</time>
      </trkpt>
      <trkpt lat="50.45839" lon="1.82725">
        <ele>60.8</ele>
        <time>2012-02-04T09:00:25Z</time>
      </trkpt>
      <trkpt lat="50.4584" lon="1.82736">
        <ele>61.5</ele>
        <time>2012-02-04T09:00:27Z</time>
      </trkpt>
      <trkpt lat="50.45839" lon="1.82745">
        <ele>61.4</ele>
        <time>2012-02-04T09:00:29Z</time>
      </trkpt>
      <trkpt lat="50.4584" lon="1.82755">
        <ele>62.6</ele>
        <time>2012-02-04T09:00:31Z</time>
      </trkpt>
      <trkpt lat="50.45839" lon="1.82764">
        <ele>62.9</ele>
        <time>2012-02-04T09:00:33Z</time>
      </trkpt>
      <trkpt lat="50.4584" lon="1.82772">
        <ele>63.6</ele>
        <time>2012-02-04T09:00:35Z</time>
      </trkpt>
      <trkpt lat="50.4584" lon="1.8278">
        <ele>64.2</ele>
        <time>2012-02-04T09:00:37Z</time>
      </trkpt>
      <trkpt lat="50.4584" lon="1.82789">
        <ele>65.2</ele>
        <time>2012-02-04T09:00:39Z</time>
      </trkpt>
      <trkpt lat="50.45847" lon="1.82788">
        <ele>63.4</ele>
        <time>2012-02-04T09:00:40Z</time>
      </trkpt>
      <trkpt lat="50.45852" lon="1.82793">
        <ele>64.2</ele>
        <time>2012-02-04T09:00:43Z</time>
      </trkpt>
      <trkpt lat="50.45859" lon="1.82795">
        <ele>65.6</ele>
        <time>2012-02-04T09:00:45Z</time>
      </trkpt>
      <trkpt lat="50.45864" lon="1.82796">
        <ele>66.6</ele>
        <time>2012-02-04T09:00:47Z</time>
      </trkpt>
      <trkpt lat="50.45869" lon="1.82798">
        <ele>67.5</ele>
        <time>2012-02-04T09:00:49Z</time>
      </trkpt>
      <trkpt lat="50.45874" lon="1.828">
        <ele>68.3</ele>
        <time>2012-02-04T09:00:51Z</time>
      </trkpt>
      <trkpt lat="50.45878" lon="1.82803">
        <ele>69.3</ele>
        <time>2012-02-04T09:00:53Z</time>
      </trkpt>
      <trkpt lat="50.45883" lon="1.8281">
        <ele>68.8</ele>
        <time>2012-02-04T09:00:55Z</time>
      </trkpt>
      <trkpt lat="50.45886" lon="1.82819">
        <ele>69.3</ele>
        <time>2012-02-04T09:00:57Z</time>
      </trkpt>
      <trkpt lat="50.45891" lon="1.82826">
        <ele>69.8</ele>
        <time>2012-02-04T09:00:59Z</time>
      </trkpt>
      <trkpt lat="50.45894" lon="1.82832">
        <ele>70.6</ele>
        <time>2012-02-04T09:01:01Z</time>
      </trkpt>
      <trkpt lat="50.45897" lon="1.82839">
        <ele>71.4</ele>
        <time>2012-02-04T09:01:03Z</time>
      </trkpt>
      <trkpt lat="50.459" lon="1.82846">
        <ele>71.7</ele>
        <time>2012-02-04T09:01:05Z</time>
      </trkpt>
      <trkpt lat="50.45902" lon="1.82853">
        <ele>71.9</ele>
        <time>2012-02-04T09:01:07Z</time>
      </trkpt>
      <trkpt lat="50.45905" lon="1.82859">
        <ele>72.1</ele>
        <time>2012-02-04T09:01:09Z</time>
      </trkpt>
      <trkpt lat="50.45908" lon="1.82867">
        <ele>71.9</ele>
        <time>2012-02-04T09:01:11Z</time>
      </trkpt>
      <trkpt lat="50.45911" lon="1.82874">
        <ele>73.3</ele>
        <time>2012-02-04T09:01:13Z</time>
      </trkpt>
      <trkpt lat="50.45915" lon="1.8288">
        <ele>73.8</ele>
        <time>2012-02-04T09:01:15Z</time>
      </trkpt>
      <trkpt lat="50.45917" lon="1.82887">
        <ele>74.5</ele>
        <time>2012-02-04T09:01:17Z</time>
      </trkpt>
      <trkpt lat="50.45921" lon="1.82897">
        <ele>75.9</ele>
        <time>2012-02-04T09:01:20Z</time>
      </trkpt>
      <trkpt lat="50.45925" lon="1.82903">
        <ele>76.7</ele>
        <time>2012-02-04T09:01:22Z</time>
      </trkpt>
      <trkpt lat="50.45929" lon="1.82909">
        <ele>76.9</ele>
        <time>2012-02-04T09:01:24Z</time>
      </trkpt>
      <trkpt lat="50.45931" lon="1.82916">
        <ele>80.4</ele>
        <time>2012-02-04T09:01:26Z</time>
      </trkpt>
      <trkpt lat="50.45935" lon="1.82922">
        <ele>81.9</ele>
        <time>2012-02-04T09:01:28Z</time>
      </trkpt>
      <trkpt lat="50.4594" lon="1.82928">
        <ele>81.7</ele>
        <time>2012-02-04T09:01:30Z</time>
      </trkpt>
      <trkpt lat="50.45944" lon="1.82932">
        <ele>84.2</ele>
        <time>2012-02-04T09:01:33Z</time>
      </trkpt>
      <trkpt lat="50.45948" lon="1.82936">
        <ele>82.4</ele>
        <time>2012-02-04T09:01:35Z</time>
      </trkpt>
      <trkpt lat="50.45953" lon="1.8294">
        <ele>81.9</ele>
        <time>2012-02-04T09:01:37Z</time>
      </trkpt>
      <trkpt lat="50.45958" lon="1.82943">
        <ele>82</ele>
        <time>2012-02-04T09:01:39Z</time>
      </trkpt>
      <trkpt lat="50.45962" lon="1.82946">
        <ele>81.4</ele>
        <time>2012-02-04T09:01:41Z</time>
      </trkpt>
      <trkpt lat="50.45968" lon="1.82949">
        <ele>80.9</ele>
        <time>2012-02-04T09:01:43Z</time>
      </trkpt>
      <trkpt lat="50.45973" lon="1.82952">
        <ele>79.9</ele>
        <time>2012-02-04T09:01:45Z</time>
      </trkpt>
      <trkpt lat="50.45979" lon="1.82958">
        <ele>79.5</ele>
        <time>2012-02-04T09:01:47Z</time>
      </trkpt>
      <trkpt lat="50.45983" lon="1.82964">
        <ele>81.2</ele>
        <time>2012-02-04T09:01:50Z</time>
      </trkpt>
      <trkpt lat="50.45988" lon="1.82968">
        <ele>80.1</ele>
        <time>2012-02-04T09:01:52Z</time>
      </trkpt>
      <trkpt lat="50.4599" lon="1.82974">
        <ele>82.6</ele>
        <time>2012-02-04T09:01:54Z</time>
      </trkpt>
      <trkpt lat="50.45995" lon="1.8298">
        <ele>83</ele>
        <time>2012-02-04T09:01:56Z</time>
      </trkpt>
      <trkpt lat="50.45999" lon="1.82985">
        <ele>83.7</ele>
        <time>2012-02-04T09:01:58Z</time>
      </trkpt>
      <trkpt lat="50.46002" lon="1.82992">
        <ele>84.2</ele>
        <time>2012-02-04T09:02:00Z</time>
      </trkpt>
      <trkpt lat="50.46006" lon="1.82998">
        <ele>84.4</ele>
        <time>2012-02-04T09:02:02Z</time>
      </trkpt>
      <trkpt lat="50.46011" lon="1.83005">
        <ele>83.9</ele>
        <time>2012-02-04T09:02:05Z</time>
      </trkpt>
      <trkpt lat="50.46014" lon="1.83012">
        <ele>84.2</ele>
        <time>2012-02-04T09:02:07Z</time>
      </trkpt>
      <trkpt lat="50.46017" lon="1.83019">
        <ele>84.2</ele>
        <time>2012-02-04T09:02:10Z</time>
      </trkpt>
      <trkpt lat="50.46021" lon="1.83027">
        <ele>84.4</ele>
        <time>2012-02-04T09:02:12Z</time>
      </trkpt>
      <trkpt lat="50.46025" lon="1.83034">
        <ele>84.6</ele>
        <time>2012-02-04T09:02:14Z</time>
      </trkpt>
      <trkpt lat="50.46029" lon="1.83041">
        <ele>84.6</ele>
        <time>2012-02-04T09:02:16Z</time>
      </trkpt>
      <trkpt lat="50.46033" lon="1.83047">
        <ele>85.3</ele>
        <time>2012-02-04T09:02:18Z</time>
      </trkpt>
      <trkpt lat="50.46038" lon="1.83054">
        <ele>85.8</ele>
        <time>2012-02-04T09:02:20Z</time>
      </trkpt>
      <trkpt lat="50.46044" lon="1.83062">
        <ele>84.6</ele>
        <time>2012-02-04T09:02:22Z</time>
      </trkpt>
      <trkpt lat="50.46048" lon="1.83069">
        <ele>84.7</ele>
        <time>2012-02-04T09:02:24Z</time>
      </trkpt>
      <trkpt lat="50.46056" lon="1.83076">
        <ele>83.3</ele>
        <time>2012-02-04T09:02:26Z</time>
      </trkpt>
      <trkpt lat="50.46062" lon="1.83083">
        <ele>85.2</ele>
        <time>2012-02-04T09:02:28Z</time>
      </trkpt>
      <trkpt lat="50.46069" lon="1.8309">
        <ele>84.1</ele>
        <time>2012-02-04T09:02:30Z</time>
      </trkpt>
      <trkpt lat="50.46075" lon="1.83095">
        <ele>85.8</ele>
        <time>2012-02-04T09:02:32Z</time>
      </trkpt>
      <trkpt lat="50.46084" lon="1.83101">
        <ele>84.1</ele>
        <time>2012-02-04T09:02:34Z</time>
      </trkpt>
      <trkpt lat="50.46091" lon="1.83106">
        <ele>83.4</ele>
        <time>2012-02-04T09:02:36Z</time>
      </trkpt>
      <trkpt lat="50.46099" lon="1.83109">
        <ele>82.5</ele>
        <time>2012-02-04T09:02:38Z</time>
      </trkpt>
      <trkpt lat="50.46108" lon="1.83112">
        <ele>81.3</ele>
        <time>2012-02-04T09:02:40Z</time>
      </trkpt>
      <trkpt lat="50.46113" lon="1.83113">
        <ele>80.8</ele>
        <time>2012-02-04T09:02:41Z</time>
      </trkpt>
      <trkpt lat="50.46117" lon="1.83114">
        <ele>81</ele>
        <time>2012-02-04T09:02:42Z</time>
      </trkpt>
      <trkpt lat="50.46123" lon="1.83113">
        <ele>80.7</ele>
        <time>2012-02-04T09:02:43Z</time>
      </trkpt>
      <trkpt lat="50.46129" lon="1.83112">
        <ele>80.3</ele>
        <time>2012-02-04T09:02:44Z</time>
      </trkpt>
      <trkpt lat="50.46134" lon="1.83111">
        <ele>80</ele>
        <time>2012-02-04T09:02:45Z</time>
      </trkpt>
      <trkpt lat="50.4614" lon="1.83109">
        <ele>79.8</ele>
        <time>2012-02-04T09:02:46Z</time>
      </trkpt>
      <trkpt lat="50.46146" lon="1.83107">
        <ele>79.6</ele>
        <time>2012-02-04T09:02:47Z</time>
      </trkpt>
      <trkpt lat="50.46152" lon="1.83105">
        <ele>79.5</ele>
        <time>2012-02-04T09:02:48Z</time>
      </trkpt>
      <trkpt lat="50.46157" lon="1.83102">
        <ele>79.6</ele>
        <time>2012-02-04T09:02:49Z</time>
      </trkpt>
      <trkpt lat="50.46163" lon="1.83101">
        <ele>79.5</ele>
        <time>2012-02-04T09:02:50Z</time>
      </trkpt>
      <trkpt lat="50.46168" lon="1.83098">
        <ele>79.5</ele>
        <time>2012-02-04T09:02:51Z</time>
      </trkpt>
      <trkpt lat="50.46173" lon="1.83095">
        <ele>79.2</ele>
        <time>2012-02-04T09:02:52Z</time>
      </trkpt>
      <trkpt lat="50.46179" lon="1.83092">
        <ele>79</ele>
        <time>2012-02-04T09:02:53Z</time>
      </trkpt>
      <trkpt lat="50.46183" lon="1.8309">
        <ele>79.3</ele>
        <time>2012-02-04T09:02:54Z</time>
      </trkpt>
      <trkpt lat="50.46188" lon="1.83088">
        <ele>79.6</ele>
        <time>2012-02-04T09:02:55Z</time>
      </trkpt>
      <trkpt lat="50.46194" lon="1.83087">
        <ele>78.7</ele>
        <time>2012-02-04T09:02:56Z</time>
      </trkpt>
      <trkpt lat="50.462" lon="1.83083">
        <ele>78.8</ele>
        <time>2012-02-04T09:02:57Z</time>
      </trkpt>
      <trkpt lat="50.46205" lon="1.83083">
        <ele>79</ele>
        <time>2012-02-04T09:02:58Z</time>
      </trkpt>
      <trkpt lat="50.4621" lon="1.83082">
        <ele>78.6</ele>
        <time>2012-02-04T09:02:59Z</time>
      </trkpt>
      <trkpt lat="50.46216" lon="1.83082">
        <ele>78.5</ele>
        <time>2012-02-04T09:03:00Z</time>
      </trkpt>
      <trkpt lat="50.46221" lon="1.83082">
        <ele>77.8</ele>
        <time>2012-02-04T09:03:01Z</time>
      </trkpt>
      <trkpt lat="50.46226" lon="1.83083">
        <ele>77.8</ele>
        <time>2012-02-04T09:03:02Z</time>
      </trkpt>
      <trkpt lat="50.46232" lon="1.83084">
        <ele>77.9</ele>
        <time>2012-02-04T09:03:03Z</time>
      </trkpt>
      <trkpt lat="50.46238" lon="1.83085">
        <ele>78.1</ele>
        <time>2012-02-04T09:03:04Z</time>
      </trkpt>
      <trkpt lat="50.46244" lon="1.83087">
        <ele>78</ele>
        <time>2012-02-04T09:03:05Z</time>
      </trkpt>
      <trkpt lat="50.4625" lon="1.83088">
        <ele>78.3</ele>
        <time>2012-02-04T09:03:06Z</time>
      </trkpt>
      <trkpt lat="50.46256" lon="1.83091">
        <ele>77.8</ele>
        <time>2012-02-04T09:03:07Z</time>
      </trkpt>
      <trkpt lat="50.46262" lon="1.83093">
        <ele>77.8</ele>
        <time>2012-02-04T09:03:08Z</time>
      </trkpt>
      <trkpt lat="50.46268" lon="1.83094">
        <ele>77.6</ele>
        <time>2012-02-04T09:03:09Z</time>
      </trkpt>
      <trkpt lat="50.46274" lon="1.83096">
        <ele>77.6</ele>
        <time>2012-02-04T09:03:10Z</time>
      </trkpt>
      <trkpt lat="50.46281" lon="1.83098">
        <ele>77.5</ele>
        <time>2012-02-04T09:03:11Z</time>
      </trkpt>
      <trkpt lat="50.46286" lon="1.831">
        <ele>77.2</ele>
        <time>2012-02-04T09:03:12Z</time>
      </trkpt>
      <trkpt lat="50.46293" lon="1.83102">
        <ele>77.1</ele>
        <time>2012-02-04T09:03:13Z</time>
      </trkpt>
      <trkpt lat="50.46299" lon="1.83104">
        <ele>77</ele>
        <time>2012-02-04T09:03:14Z</time>
      </trkpt>
      <trkpt lat="50.46305" lon="1.83106">
        <ele>76.9</ele>
        <time>2012-02-04T09:03:15Z</time>
      </trkpt>
      <trkpt lat="50.4631" lon="1.83108">
        <ele>76.5</ele>
        <time>2012-02-04T09:03:16Z</time>
      </trkpt>
      <trkpt lat="50.46316" lon="1.83109">
        <ele>76.5</ele>
        <time>2012-02-04T09:03:17Z</time>
      </trkpt>
      <trkpt lat="50.46322" lon="1.83111">
        <ele>76.8</ele>
        <time>2012-02-04T09:03:18Z</time>
      </trkpt>
      <trkpt lat="50.46328" lon="1.83112">
        <ele>76.6</ele>
        <time>2012-02-04T09:03:19Z</time>
      </trkpt>
      <trkpt lat="50.46333" lon="1.83114">
        <ele>76.8</ele>
        <time>2012-02-04T09:03:20Z</time>
      </trkpt>
      <trkpt lat="50.46339" lon="1.83115">
        <ele>77.3</ele>
        <time>2012-02-04T09:03:21Z</time>
      </trkpt>
      <trkpt lat="50.46345" lon="1.83116">
        <ele>77.6</ele>
        <time>2012-02-04T09:03:22Z</time>
      </trkpt>
      <trkpt lat="50.4635" lon="1.83117">
        <ele>77.6</ele>
        <time>2012-02-04T09:03:23Z</time>
      </trkpt>
      <trkpt lat="50.46356" lon="1.83118">
        <ele>77.9</ele>
        <time>2012-02-04T09:03:24Z</time>
      </trkpt>
      <trkpt lat="50.46361" lon="1.83119">
        <ele>78.2</ele>
        <time>2012-02-04T09:03:25Z</time>
      </trkpt>
      <trkpt lat="50.46367" lon="1.8312">
        <ele>78.2</ele>
        <time>2012-02-04T09:03:26Z</time>
      </trkpt>
      <trkpt lat="50.46373" lon="1.83123">
        <ele>78.2</ele>
        <time>2012-02-04T09:03:27Z</time>
      </trkpt>
      <trkpt lat="50.46379" lon="1.83124">
        <ele>78.1</ele>
        <time>2012-02-04T09:03:28Z</time>
      </trkpt>
      <trkpt lat="50.46386" lon="1.83124">
        <ele>77.9</ele>
        <time>2012-02-04T09:03:29Z</time>
      </trkpt>
      <trkpt lat="50.46391" lon="1.83125">
        <ele>78.4</ele>
        <time>2012-02-04T09:03:30Z</time>
      </trkpt>
      <trkpt lat="50.46395" lon="1.83128">
        <ele>79.4</ele>
        <time>2012-02-04T09:03:31Z</time>
      </trkpt>
      <trkpt lat="50.464" lon="1.83129">
        <ele>79.6</ele>
        <time>2012-02-04T09:03:32Z</time>
      </trkpt>
      <trkpt lat="50.46405" lon="1.8313">
        <ele>79.6</ele>
        <time>2012-02-04T09:03:33Z</time>
      </trkpt>
      <trkpt lat="50.46411" lon="1.83129">
        <ele>79.9</ele>
        <time>2012-02-04T09:03:34Z</time>
      </trkpt>
      <trkpt lat="50.46416" lon="1.83129">
        <ele>80.1</ele>
        <time>2012-02-04T09:03:35Z</time>
      </trkpt>
      <trkpt lat="50.46422" lon="1.83128">
        <ele>80.3</ele>
        <time>2012-02-04T09:03:36Z</time>
      </trkpt>
      <trkpt lat="50.46427" lon="1.83127">
        <ele>80.3</ele>
        <time>2012-02-04T09:03:37Z</time>
      </trkpt>
      <trkpt lat="50.46433" lon="1.83126">
        <ele>80.3</ele>
        <time>2012-02-04T09:03:38Z</time>
      </trkpt>
      <trkpt lat="50.46438" lon="1.83126">
        <ele>79.7</ele>
        <time>2012-02-04T09:03:39Z</time>
      </trkpt>
      <trkpt lat="50.46443" lon="1.83125">
        <ele>79.4</ele>
        <time>2012-02-04T09:03:40Z</time>
      </trkpt>
      <trkpt lat="50.46448" lon="1.83124">
        <ele>79.7</ele>
        <time>2012-02-04T09:03:41Z</time>
      </trkpt>
      <trkpt lat="50.46453" lon="1.83122">
        <ele>79.7</ele>
        <time>2012-02-04T09:03:42Z</time>
      </trkpt>
      <trkpt lat="50.46459" lon="1.83121">
        <ele>79.9</ele>
        <time>2012-02-04T09:03:43Z</time>
      </trkpt>
      <trkpt lat="50.46464" lon="1.8312">
        <ele>79.9</ele>
        <time>2012-02-04T09:03:44Z</time>
      </trkpt>
      <trkpt lat="50.46468" lon="1.83119">
        <ele>80.3</ele>
        <time>2012-02-04T09:03:45Z</time>
      </trkpt>
      <trkpt lat="50.46473" lon="1.83118">
        <ele>80.7</ele>
        <time>2012-02-04T09:03:46Z</time>
      </trkpt>
      <trkpt lat="50.46478" lon="1.83117">
        <ele>80.9</ele>
        <time>2012-02-04T09:03:47Z</time>
      </trkpt>
      <trkpt lat="50.46483" lon="1.83116">
        <ele>81</ele>
        <time>2012-02-04T09:03:48Z</time>
      </trkpt>
      <trkpt lat="50.46488" lon="1.83114">
        <ele>81</ele>
        <time>2012-02-04T09:03:49Z</time>
      </trkpt>
      <trkpt lat="50.46493" lon="1.83112">
        <ele>80.8</ele>
        <time>2012-02-04T09:03:50Z</time>
      </trkpt>
      <trkpt lat="50.46497" lon="1.83111">
        <ele>80.4</ele>
        <time>2012-02-04T09:03:51Z</time>
      </trkpt>
      <trkpt lat="50.46502" lon="1.8311">
        <ele>80.2</ele>
        <time>2012-02-04T09:03:52Z</time>
      </trkpt>
      <trkpt lat="50.46506" lon="1.83106">
        <ele>79.9</ele>
        <time>2012-02-04T09:03:53Z</time>
      </trkpt>
      <trkpt lat="50.46511" lon="1.83104">
        <ele>80.2</ele>
        <time>2012-02-04T09:03:54Z</time>
      </trkpt>
      <trkpt lat="50.4652" lon="1.83098">
        <ele>80.4</ele>
        <time>2012-02-04T09:03:56Z</time>
      </trkpt>
      <trkpt lat="50.46524" lon="1.83095">
        <ele>80.4</ele>
        <time>2012-02-04T09:03:57Z</time>
      </trkpt>
      <trkpt lat="50.46529" lon="1.83092">
        <ele>80.6</ele>
        <time>2012-02-04T09:03:58Z</time>
      </trkpt>
      <trkpt lat="50.46534" lon="1.83089">
        <ele>80.3</ele>
        <time>2012-02-04T09:03:59Z</time>
      </trkpt>
      <trkpt lat="50.46539" lon="1.83086">
        <ele>80.7</ele>
        <time>2012-02-04T09:04:00Z</time>
      </trkpt>
      <trkpt lat="50.46548" lon="1.83083">
        <ele>80.6</ele>
        <time>2012-02-04T09:04:02Z</time>
      </trkpt>
      <trkpt lat="50.46553" lon="1.8308">
        <ele>80.3</ele>
        <time>2012-02-04T09:04:03Z</time>
      </trkpt>
      <trkpt lat="50.46562" lon="1.83076">
        <ele>81.4</ele>
        <time>2012-02-04T09:04:05Z</time>
      </trkpt>
      <trkpt lat="50.46566" lon="1.83073">
        <ele>81.5</ele>
        <time>2012-02-04T09:04:06Z</time>
      </trkpt>
      <trkpt lat="50.4657" lon="1.8307">
        <ele>81.6</ele>
        <time>2012-02-04T09:04:07Z</time>
      </trkpt>
      <trkpt lat="50.46574" lon="1.83068">
        <ele>81.5</ele>
        <time>2012-02-04T09:04:08Z</time>
      </trkpt>
      <trkpt lat="50.46579" lon="1.83064">
        <ele>82</ele>
        <time>2012-02-04T09:04:09Z</time>
      </trkpt>
      <trkpt lat="50.46584" lon="1.83062">
        <ele>81.6</ele>
        <time>2012-02-04T09:04:10Z</time>
      </trkpt>
      <trkpt lat="50.46589" lon="1.83058">
        <ele>81.6</ele>
        <time>2012-02-04T09:04:11Z</time>
      </trkpt>
      <trkpt lat="50.46594" lon="1.83055">
        <ele>81.6</ele>
        <time>2012-02-04T09:04:12Z</time>
      </trkpt>
      <trkpt lat="50.46599" lon="1.8305">
        <ele>81.6</ele>
        <time>2012-02-04T09:04:13Z</time>
      </trkpt>
      <trkpt lat="50.46604" lon="1.83046">
        <ele>81.7</ele>
        <time>2012-02-04T09:04:14Z</time>
      </trkpt>
      <trkpt lat="50.46609" lon="1.83041">
        <ele>81.2</ele>
        <time>2012-02-04T09:04:15Z</time>
      </trkpt>
      <trkpt lat="50.46615" lon="1.83036">
        <ele>80.1</ele>
        <time>2012-02-04T09:04:16Z</time>
      </trkpt>
      <trkpt lat="50.4662" lon="1.83031">
        <ele>80.3</ele>
        <time>2012-02-04T09:04:17Z</time>
      </trkpt>
      <trkpt lat="50.46625" lon="1.83026">
        <ele>79.6</ele>
        <time>2012-02-04T09:04:18Z</time>
      </trkpt>
      <trkpt lat="50.4663" lon="1.83021">
        <ele>79.6</ele>
        <time>2012-02-04T09:04:19Z</time>
      </trkpt>
      <trkpt lat="50.46635" lon="1.83016">
        <ele>79.3</ele>
        <time>2012-02-04T09:04:20Z</time>
      </trkpt>
      <trkpt lat="50.4664" lon="1.83011">
        <ele>78.9</ele>
        <time>2012-02-04T09:04:21Z</time>
      </trkpt>
      <trkpt lat="50.46645" lon="1.83006">
        <ele>78.4</ele>
        <time>2012-02-04T09:04:22Z</time>
      </trkpt>
      <trkpt lat="50.4665" lon="1.83001">
        <ele>78</ele>
        <time>2012-02-04T09:04:23Z</time>
      </trkpt>
      <trkpt lat="50.46656" lon="1.82996">
        <ele>77.5</ele>
        <time>2012-02-04T09:04:24Z</time>
      </trkpt>
      <trkpt lat="50.4666" lon="1.82991">
        <ele>77.5</ele>
        <time>2012-02-04T09:04:25Z</time>
      </trkpt>
      <trkpt lat="50.46665" lon="1.82986">
        <ele>77.6</ele>
        <time>2012-02-04T09:04:26Z</time>
      </trkpt>
      <trkpt lat="50.46669" lon="1.82979">
        <ele>77.8</ele>
        <time>2012-02-04T09:04:27Z</time>
      </trkpt>
      <trkpt lat="50.46674" lon="1.82971">
        <ele>78</ele>
        <time>2012-02-04T09:04:28Z</time>
      </trkpt>
      <trkpt lat="50.46686" lon="1.82967">
        <ele>75</ele>
        <time>2012-02-04T09:04:29Z</time>
      </trkpt>
      <trkpt lat="50.46692" lon="1.82961">
        <ele>74.8</ele>
        <time>2012-02-04T09:04:30Z</time>
      </trkpt>
      <trkpt lat="50.46698" lon="1.82954">
        <ele>74.6</ele>
        <time>2012-02-04T09:04:31Z</time>
      </trkpt>
      <trkpt lat="50.46704" lon="1.82948">
        <ele>74.4</ele>
        <time>2012-02-04T09:04:32Z</time>
      </trkpt>
      <trkpt lat="50.46709" lon="1.82942">
        <ele>74.2</ele>
        <time>2012-02-04T09:04:33Z</time>
      </trkpt>
      <trkpt lat="50.46715" lon="1.82935">
        <ele>73.6</ele>
        <time>2012-02-04T09:04:34Z</time>
      </trkpt>
      <trkpt lat="50.4672" lon="1.82928">
        <ele>73.6</ele>
        <time>2012-02-04T09:04:35Z</time>
      </trkpt>
      <trkpt lat="50.46726" lon="1.82922">
        <ele>73.9</ele>
        <time>2012-02-04T09:04:36Z</time>
      </trkpt>
      <trkpt lat="50.46731" lon="1.82916">
        <ele>73.7</ele>
        <time>2012-02-04T09:04:37Z</time>
      </trkpt>
      <trkpt lat="50.46736" lon="1.8291">
        <ele>73.8</ele>
        <time>2012-02-04T09:04:38Z</time>
      </trkpt>
      <trkpt lat="50.46742" lon="1.82904">
        <ele>73.2</ele>
        <time>2012-02-04T09:04:39Z</time>
      </trkpt>
      <trkpt lat="50.46747" lon="1.82898">
        <ele>74.1</ele>
        <time>2012-02-04T09:04:40Z</time>
      </trkpt>
      <trkpt lat="50.46753" lon="1.82893">
        <ele>74</ele>
        <time>2012-02-04T09:04:41Z</time>
      </trkpt>
      <trkpt lat="50.46758" lon="1.82888">
        <ele>74.5</ele>
        <time>2012-02-04T09:04:42Z</time>
      </trkpt>
      <trkpt lat="50.46763" lon="1.82882">
        <ele>74.6</ele>
        <time>2012-02-04T09:04:43Z</time>
      </trkpt>
      <trkpt lat="50.46769" lon="1.82876">
        <ele>74.4</ele>
        <time>2012-02-04T09:04:44Z</time>
      </trkpt>
      <trkpt lat="50.46774" lon="1.8287">
        <ele>74</ele>
        <time>2012-02-04T09:04:45Z</time>
      </trkpt>
      <trkpt lat="50.46778" lon="1.82863">
        <ele>74.4</ele>
        <time>2012-02-04T09:04:46Z</time>
      </trkpt>
      <trkpt lat="50.46783" lon="1.82857">
        <ele>74.8</ele>
        <time>2012-02-04T09:04:47Z</time>
      </trkpt>
      <trkpt lat="50.46788" lon="1.82852">
        <ele>74.3</ele>
        <time>2012-02-04T09:04:48Z</time>
      </trkpt>
      <trkpt lat="50.46793" lon="1.82848">
        <ele>75.3</ele>
        <time>2012-02-04T09:04:49Z</time>
      </trkpt>
      <trkpt lat="50.46798" lon="1.82843">
        <ele>75.7</ele>
        <time>2012-02-04T09:04:50Z</time>
      </trkpt>
      <trkpt lat="50.46802" lon="1.82839">
        <ele>75.8</ele>
        <time>2012-02-04T09:04:51Z</time>
      </trkpt>
      <trkpt lat="50.46807" lon="1.82834">
        <ele>75.5</ele>
        <time>2012-02-04T09:04:52Z</time>
      </trkpt>
      <trkpt lat="50.46812" lon="1.82829">
        <ele>75.4</ele>
        <time>2012-02-04T09:04:53Z</time>
      </trkpt>
      <trkpt lat="50.4682" lon="1.82822">
        <ele>78.6</ele>
        <time>2012-02-04T09:04:55Z</time>
      </trkpt>
      <trkpt lat="50.46826" lon="1.8282">
        <ele>78.2</ele>
        <time>2012-02-04T09:04:56Z</time>
      </trkpt>
      <trkpt lat="50.46832" lon="1.82816">
        <ele>78.1</ele>
        <time>2012-02-04T09:04:57Z</time>
      </trkpt>
      <trkpt lat="50.46837" lon="1.82808">
        <ele>77.9</ele>
        <time>2012-02-04T09:04:59Z</time>
      </trkpt>
      <trkpt lat="50.46841" lon="1.82804">
        <ele>77.7</ele>
        <time>2012-02-04T09:05:00Z</time>
      </trkpt>
      <trkpt lat="50.46848" lon="1.82798">
        <ele>78.6</ele>
        <time>2012-02-04T09:05:02Z</time>
      </trkpt>
      <trkpt lat="50.46852" lon="1.82794">
        <ele>78.4</ele>
        <time>2012-02-04T09:05:03Z</time>
      </trkpt>
      <trkpt lat="50.46859" lon="1.82788">
        <ele>78</ele>
        <time>2012-02-04T09:05:05Z</time>
      </trkpt>
      <trkpt lat="50.46866" lon="1.82782">
        <ele>78.6</ele>
        <time>2012-02-04T09:05:07Z</time>
      </trkpt>
      <trkpt lat="50.46871" lon="1.82775">
        <ele>79</ele>
        <time>2012-02-04T09:05:09Z</time>
      </trkpt>
      <trkpt lat="50.46877" lon="1.82767">
        <ele>79.3</ele>
        <time>2012-02-04T09:05:11Z</time>
      </trkpt>
      <trkpt lat="50.46882" lon="1.82758">
        <ele>80</ele>
        <time>2012-02-04T09:05:13Z</time>
      </trkpt>
      <trkpt lat="50.46888" lon="1.8275">
        <ele>80.7</ele>
        <time>2012-02-04T09:05:15Z</time>
      </trkpt>
      <trkpt lat="50.46893" lon="1.8274">
        <ele>81</ele>
        <time>2012-02-04T09:05:17Z</time>
      </trkpt>
      <trkpt lat="50.46897" lon="1.82731">
        <ele>81.6</ele>
        <time>2012-02-04T09:05:19Z</time>
      </trkpt>
      <trkpt lat="50.46902" lon="1.82723">
        <ele>82.8</ele>
        <time>2012-02-04T09:05:21Z</time>
      </trkpt>
      <trkpt lat="50.46907" lon="1.82718">
        <ele>84.3</ele>
        <time>2012-02-04T09:05:23Z</time>
      </trkpt>
      <trkpt lat="50.46911" lon="1.82712">
        <ele>84.4</ele>
        <time>2012-02-04T09:05:25Z</time>
      </trkpt>
      <trkpt lat="50.46917" lon="1.82708">
        <ele>83.9</ele>
        <time>2012-02-04T09:05:27Z</time>
      </trkpt>
      <trkpt lat="50.4692" lon="1.82702">
        <ele>84.7</ele>
        <time>2012-02-04T09:05:29Z</time>
      </trkpt>
      <trkpt lat="50.46923" lon="1.82695">
        <ele>85.5</ele>
        <time>2012-02-04T09:05:31Z</time>
      </trkpt>
      <trkpt lat="50.46928" lon="1.82691">
        <ele>82.2</ele>
        <time>2012-02-04T09:05:32Z</time>
      </trkpt>
      <trkpt lat="50.46933" lon="1.82684">
        <ele>81.9</ele>
        <time>2012-02-04T09:05:34Z</time>
      </trkpt>
      <trkpt lat="50.46938" lon="1.82678">
        <ele>81.4</ele>
        <time>2012-02-04T09:05:36Z</time>
      </trkpt>
      <trkpt lat="50.46943" lon="1.82669">
        <ele>81.3</ele>
        <time>2012-02-04T09:05:38Z</time>
      </trkpt>
      <trkpt lat="50.46948" lon="1.82661">
        <ele>81.3</ele>
        <time>2012-02-04T09:05:40Z</time>
      </trkpt>
      <trkpt lat="50.46955" lon="1.82653">
        <ele>80.3</ele>
        <time>2012-02-04T09:05:42Z</time>
      </trkpt>
      <trkpt lat="50.4696" lon="1.82646">
        <ele>80.8</ele>
        <time>2012-02-04T09:05:44Z</time>
      </trkpt>
      <trkpt lat="50.46964" lon="1.82638">
        <ele>81.1</ele>
        <time>2012-02-04T09:05:46Z</time>
      </trkpt>
      <trkpt lat="50.46968" lon="1.82633">
        <ele>83.6</ele>
        <time>2012-02-04T09:05:48Z</time>
      </trkpt>
      <trkpt lat="50.46973" lon="1.82627">
        <ele>83.8</ele>
        <time>2012-02-04T09:05:50Z</time>
      </trkpt>
      <trkpt lat="50.46977" lon="1.82621">
        <ele>84.9</ele>
        <time>2012-02-04T09:05:52Z</time>
      </trkpt>
      <trkpt lat="50.4698" lon="1.82613">
        <ele>85.2</ele>
        <time>2012-02-04T09:05:54Z</time>
      </trkpt>
      <trkpt lat="50.46983" lon="1.82606">
        <ele>85</ele>
        <time>2012-02-04T09:05:56Z</time>
      </trkpt>
      <trkpt lat="50.46985" lon="1.82599">
        <ele>85</ele>
        <time>2012-02-04T09:05:58Z</time>
      </trkpt>
      <trkpt lat="50.46985" lon="1.82589">
        <ele>85.5</ele>
        <time>2012-02-04T09:06:00Z</time>
      </trkpt>
      <trkpt lat="50.46987" lon="1.82581">
        <ele>86.1</ele>
        <time>2012-02-04T09:06:02Z</time>
      </trkpt>
      <trkpt lat="50.46988" lon="1.82574">
        <ele>87</ele>
        <time>2012-02-04T09:06:04Z</time>
      </trkpt>
      <trkpt lat="50.46989" lon="1.82566">
        <ele>87.4</ele>
        <time>2012-02-04T09:06:06Z</time>
      </trkpt>
      <trkpt lat="50.4699" lon="1.82557">
        <ele>88.4</ele>
        <time>2012-02-04T09:06:08Z</time>
      </trkpt>
      <trkpt lat="50.46991" lon="1.82549">
        <ele>89.5</ele>
        <time>2012-02-04T09:06:10Z</time>
      </trkpt>
      <trkpt lat="50.46992" lon="1.8254">
        <ele>89.7</ele>
        <time>2012-02-04T09:06:12Z</time>
      </trkpt>
      <trkpt lat="50.46994" lon="1.82532">
        <ele>90.1</ele>
        <time>2012-02-04T09:06:14Z</time>
      </trkpt>
      <trkpt lat="50.46995" lon="1.82522">
        <ele>90.6</ele>
        <time>2012-02-04T09:06:16Z</time>
      </trkpt>
      <trkpt lat="50.46996" lon="1.82513">
        <ele>90.7</ele>
        <time>2012-02-04T09:06:18Z</time>
      </trkpt>
      <trkpt lat="50.46999" lon="1.82506">
        <ele>91.3</ele>
        <time>2012-02-04T09:06:20Z</time>
      </trkpt>
      <trkpt lat="50.47001" lon="1.82499">
        <ele>91.9</ele>
        <time>2012-02-04T09:06:22Z</time>
      </trkpt>
      <trkpt lat="50.47003" lon="1.82492">
        <ele>92</ele>
        <time>2012-02-04T09:06:24Z</time>
      </trkpt>
      <trkpt lat="50.47006" lon="1.82483">
        <ele>92.5</ele>
        <time>2012-02-04T09:06:27Z</time>
      </trkpt>
      <trkpt lat="50.47008" lon="1.82474">
        <ele>92.9</ele>
        <time>2012-02-04T09:06:30Z</time>
      </trkpt>
      <trkpt lat="50.47012" lon="1.82467">
        <ele>93.8</ele>
        <time>2012-02-04T09:06:33Z</time>
      </trkpt>
      <trkpt lat="50.47014" lon="1.8246">
        <ele>95.7</ele>
        <time>2012-02-04T09:06:36Z</time>
      </trkpt>
      <trkpt lat="50.47017" lon="1.82455">
        <ele>96.1</ele>
        <time>2012-02-04T09:06:39Z</time>
      </trkpt>
      <trkpt lat="50.4702" lon="1.82448">
        <ele>97</ele>
        <time>2012-02-04T09:06:42Z</time>
      </trkpt>
      <trkpt lat="50.47024" lon="1.82441">
        <ele>96.9</ele>
        <time>2012-02-04T09:06:46Z</time>
      </trkpt>
      <trkpt lat="50.47028" lon="1.82436">
        <ele>98</ele>
        <time>2012-02-04T09:06:50Z</time>
      </trkpt>
      <trkpt lat="50.47031" lon="1.82431">
        <ele>99.2</ele>
        <time>2012-02-04T09:06:53Z</time>
      </trkpt>
      <trkpt lat="50.47035" lon="1.82426">
        <ele>99.2</ele>
        <time>2012-02-04T09:06:56Z</time>
      </trkpt>
      <trkpt lat="50.47039" lon="1.82423">
        <ele>100.8</ele>
        <time>2012-02-04T09:06:59Z</time>
      </trkpt>
      <trkpt lat="50.47043" lon="1.82418">
        <ele>101.9</ele>
        <time>2012-02-04T09:07:03Z</time>
      </trkpt>
      <trkpt lat="50.47046" lon="1.82411">
        <ele>102</ele>
        <time>2012-02-04T09:07:08Z</time>
      </trkpt>
      <trkpt lat="50.47051" lon="1.82405">
        <ele>103.2</ele>
        <time>2012-02-04T09:07:12Z</time>
      </trkpt>
      <trkpt lat="50.47055" lon="1.82399">
        <ele>103.8</ele>
        <time>2012-02-04T09:07:16Z</time>
      </trkpt>
      <trkpt lat="50.47059" lon="1.82393">
        <ele>104.7</ele>
        <time>2012-02-04T09:07:20Z</time>
      </trkpt>
      <trkpt lat="50.47063" lon="1.82387">
        <ele>105.9</ele>
        <time>2012-02-04T09:07:24Z</time>
      </trkpt>
      <trkpt lat="50.47068" lon="1.82382">
        <ele>106.6</ele>
        <time>2012-02-04T09:07:28Z</time>
      </trkpt>
      <trkpt lat="50.47072" lon="1.82376">
        <ele>107.4</ele>
        <time>2012-02-04T09:07:32Z</time>
      </trkpt>
      <trkpt lat="50.47072" lon="1.82366">
        <ele>106.5</ele>
        <time>2012-02-04T09:07:35Z</time>
      </trkpt>
      <trkpt lat="50.47075" lon="1.82361">
        <ele>106</ele>
        <time>2012-02-04T09:07:38Z</time>
      </trkpt>
      <trkpt lat="50.47078" lon="1.82356">
        <ele>107.5</ele>
        <time>2012-02-04T09:07:41Z</time>
      </trkpt>
      <trkpt lat="50.47082" lon="1.8235">
        <ele>108.3</ele>
        <time>2012-02-04T09:07:44Z</time>
      </trkpt>
      <trkpt lat="50.47085" lon="1.82346">
        <ele>108.2</ele>
        <time>2012-02-04T09:07:47Z</time>
      </trkpt>
      <trkpt lat="50.47088" lon="1.82337">
        <ele>108.6</ele>
        <time>2012-02-04T09:07:51Z</time>
      </trkpt>
      <trkpt lat="50.4709" lon="1.8233">
        <ele>108.6</ele>
        <time>2012-02-04T09:07:54Z</time>
      </trkpt>
      <trkpt lat="50.4709" lon="1.82322">
        <ele>108.5</ele>
        <time>2012-02-04T09:07:56Z</time>
      </trkpt>
      <trkpt lat="50.47093" lon="1.82316">
        <ele>109.1</ele>
        <time>2012-02-04T09:07:59Z</time>
      </trkpt>
      <trkpt lat="50.47094" lon="1.82307">
        <ele>110.1</ele>
        <time>2012-02-04T09:08:02Z</time>
      </trkpt>
      <trkpt lat="50.47097" lon="1.82299">
        <ele>110.4</ele>
        <time>2012-02-04T09:08:05Z</time>
      </trkpt>
      <trkpt lat="50.47096" lon="1.8229">
        <ele>110.4</ele>
        <time>2012-02-04T09:08:08Z</time>
      </trkpt>
      <trkpt lat="50.47098" lon="1.82284">
        <ele>112.3</ele>
        <time>2012-02-04T09:08:12Z</time>
      </trkpt>
      <trkpt lat="50.47097" lon="1.82276">
        <ele>112.3</ele>
        <time>2012-02-04T09:08:15Z</time>
      </trkpt>
      <trkpt lat="50.47096" lon="1.82268">
        <ele>112.8</ele>
        <time>2012-02-04T09:08:18Z</time>
      </trkpt>
      <trkpt lat="50.47094" lon="1.8226">
        <ele>114.4</ele>
        <time>2012-02-04T09:08:22Z</time>
      </trkpt>
      <trkpt lat="50.47092" lon="1.82253">
        <ele>115.5</ele>
        <time>2012-02-04T09:08:25Z</time>
      </trkpt>
      <trkpt lat="50.47089" lon="1.82246">
        <ele>116</ele>
        <time>2012-02-04T09:08:28Z</time>
      </trkpt>
      <trkpt lat="50.47087" lon="1.82238">
        <ele>116.8</ele>
        <time>2012-02-04T09:08:31Z</time>
      </trkpt>
      <trkpt lat="50.47085" lon="1.8223">
        <ele>117.2</ele>
        <time>2012-02-04T09:08:34Z</time>
      </trkpt>
      <trkpt lat="50.47083" lon="1.82223">
        <ele>117.4</ele>
        <time>2012-02-04T09:08:37Z</time>
      </trkpt>
      <trkpt lat="50.4708" lon="1.82216">
        <ele>117.6</ele>
        <time>2012-02-04T09:08:40Z</time>
      </trkpt>
      <trkpt lat="50.47078" lon="1.82208">
        <ele>117.5</ele>
        <time>2012-02-04T09:08:43Z</time>
      </trkpt>
      <trkpt lat="50.47076" lon="1.822">
        <ele>117.3</ele>
        <time>2012-02-04T09:08:46Z</time>
      </trkpt>
      <trkpt lat="50.47074" lon="1.82192">
        <ele>117.1</ele>
        <time>2012-02-04T09:08:49Z</time>
      </trkpt>
      <trkpt lat="50.47072" lon="1.82183">
        <ele>117.8</ele>
        <time>2012-02-04T09:08:52Z</time>
      </trkpt>
      <trkpt lat="50.47069" lon="1.82173">
        <ele>118.3</ele>
        <time>2012-02-04T09:08:55Z</time>
      </trkpt>
      <trkpt lat="50.47067" lon="1.82164">
        <ele>118.4</ele>
        <time>2012-02-04T09:08:58Z</time>
      </trkpt>
      <trkpt lat="50.47065" lon="1.82154">
        <ele>118.6</ele>
        <time>2012-02-04T09:09:01Z</time>
      </trkpt>
      <trkpt lat="50.47062" lon="1.82145">
        <ele>118.9</ele>
        <time>2012-02-04T09:09:04Z</time>
      </trkpt>
      <trkpt lat="50.4706" lon="1.82136">
        <ele>119.1</ele>
        <time>2012-02-04T09:09:07Z</time>
      </trkpt>
      <trkpt lat="50.47058" lon="1.82126">
        <ele>119.9</ele>
        <time>2012-02-04T09:09:10Z</time>
      </trkpt>
      <trkpt lat="50.47055" lon="1.82116">
        <ele>120.2</ele>
        <time>2012-02-04T09:09:13Z</time>
      </trkpt>
      <trkpt lat="50.47053" lon="1.82107">
        <ele>120.6</ele>
        <time>2012-02-04T09:09:16Z</time>
      </trkpt>
      <trkpt lat="50.47051" lon="1.821">
        <ele>121</ele>
        <time>2012-02-04T09:09:18Z</time>
      </trkpt>
      <trkpt lat="50.47049" lon="1.82093">
        <ele>121.2</ele>
        <time>2012-02-04T09:09:20Z</time>
      </trkpt>
      <trkpt lat="50.47047" lon="1.82086">
        <ele>121.3</ele>
        <time>2012-02-04T09:09:22Z</time>
      </trkpt>
      <trkpt lat="50.47045" lon="1.8208">
        <ele>121.6</ele>
        <time>2012-02-04T09:09:24Z</time>
      </trkpt>
      <trkpt lat="50.47043" lon="1.8207">
        <ele>122.1</ele>
        <time>2012-02-04T09:09:27Z</time>
      </trkpt>
      <trkpt lat="50.47041" lon="1.82062">
        <ele>122.4</ele>
        <time>2012-02-04T09:09:29Z</time>
      </trkpt>
      <trkpt lat="50.4704" lon="1.82056">
        <ele>122.7</ele>
        <time>2012-02-04T09:09:31Z</time>
      </trkpt>
      <trkpt lat="50.47037" lon="1.82046">
        <ele>122.8</ele>
        <time>2012-02-04T09:09:34Z</time>
      </trkpt>
      <trkpt lat="50.47035" lon="1.82039">
        <ele>123</ele>
        <time>2012-02-04T09:09:36Z</time>
      </trkpt>
      <trkpt lat="50.47033" lon="1.82032">
        <ele>123.2</ele>
        <time>2012-02-04T09:09:38Z</time>
      </trkpt>
      <trkpt lat="50.47032" lon="1.82025">
        <ele>123.6</ele>
        <time>2012-02-04T09:09:40Z</time>
      </trkpt>
      <trkpt lat="50.4703" lon="1.82017">
        <ele>123.9</ele>
        <time>2012-02-04T09:09:42Z</time>
      </trkpt>
      <trkpt lat="50.47028" lon="1.82009">
        <ele>123.9</ele>
        <time>2012-02-04T09:09:44Z</time>
      </trkpt>
      <trkpt lat="50.47026" lon="1.82001">
        <ele>123.8</ele>
        <time>2012-02-04T09:09:46Z</time>
      </trkpt>
      <trkpt lat="50.47024" lon="1.81993">
        <ele>124.1</ele>
        <time>2012-02-04T09:09:48Z</time>
      </trkpt>
      <trkpt lat="50.47022" lon="1.81986">
        <ele>124.2</ele>
        <time>2012-02-04T09:09:50Z</time>
      </trkpt>
      <trkpt lat="50.4702" lon="1.81977">
        <ele>124.3</ele>
        <time>2012-02-04T09:09:52Z</time>
      </trkpt>
      <trkpt lat="50.47017" lon="1.81968">
        <ele>124.3</ele>
        <time>2012-02-04T09:09:54Z</time>
      </trkpt>
      <trkpt lat="50.47015" lon="1.81959">
        <ele>124.1</ele>
        <time>2012-02-04T09:09:56Z</time>
      </trkpt>
      <trkpt lat="50.47013" lon="1.81951">
        <ele>123.7</ele>
        <time>2012-02-04T09:09:58Z</time>
      </trkpt>
      <trkpt lat="50.47011" lon="1.81943">
        <ele>124.3</ele>
        <time>2012-02-04T09:10:00Z</time>
      </trkpt>
      <trkpt lat="50.47009" lon="1.81935">
        <ele>124.3</ele>
        <time>2012-02-04T09:10:02Z</time>
      </trkpt>
      <trkpt lat="50.47008" lon="1.81927">
        <ele>123.9</ele>
        <time>2012-02-04T09:10:04Z</time>
      </trkpt>
      <trkpt lat="50.47005" lon="1.8192">
        <ele>123.9</ele>
        <time>2012-02-04T09:10:06Z</time>
      </trkpt>
      <trkpt lat="50.47004" lon="1.81913">
        <ele>124.4</ele>
        <time>2012-02-04T09:10:08Z</time>
      </trkpt>
      <trkpt lat="50.47003" lon="1.81904">
        <ele>123.7</ele>
        <time>2012-02-04T09:13:11Z</time>
      </trkpt>
      <trkpt lat="50.47007" lon="1.81897">
        <ele>123.2</ele>
        <time>2012-02-04T09:13:14Z</time>
      </trkpt>
      <trkpt lat="50.47011" lon="1.8189">
        <ele>124.7</ele>
        <time>2012-02-04T09:13:17Z</time>
      </trkpt>
      <trkpt lat="50.47017" lon="1.81883">
        <ele>124</ele>
        <time>2012-02-04T09:13:20Z</time>
      </trkpt>
      <trkpt lat="50.47021" lon="1.81877">
        <ele>123.5</ele>
        <time>2012-02-04T09:13:22Z</time>
      </trkpt>
      <trkpt lat="50.47025" lon="1.81871">
        <ele>122.9</ele>
        <time>2012-02-04T09:13:24Z</time>
      </trkpt>
      <trkpt lat="50.4703" lon="1.81866">
        <ele>122.7</ele>
        <time>2012-02-04T09:13:26Z</time>
      </trkpt>
      <trkpt lat="50.47034" lon="1.81859">
        <ele>122.3</ele>
        <time>2012-02-04T09:13:28Z</time>
      </trkpt>
      <trkpt lat="50.4704" lon="1.81852">
        <ele>122</ele>
        <time>2012-02-04T09:13:30Z</time>
      </trkpt>
      <trkpt lat="50.47046" lon="1.81844">
        <ele>121.9</ele>
        <time>2012-02-04T09:13:32Z</time>
      </trkpt>
      <trkpt lat="50.47052" lon="1.81836">
        <ele>122.2</ele>
        <time>2012-02-04T09:13:34Z</time>
      </trkpt>
      <trkpt lat="50.47057" lon="1.81829">
        <ele>122.4</ele>
        <time>2012-02-04T09:13:36Z</time>
      </trkpt>
      <trkpt lat="50.47063" lon="1.81821">
        <ele>122.5</ele>
        <time>2012-02-04T09:13:38Z</time>
      </trkpt>
      <trkpt lat="50.47068" lon="1.81813">
        <ele>122.8</ele>
        <time>2012-02-04T09:13:40Z</time>
      </trkpt>
      <trkpt lat="50.47074" lon="1.81804">
        <ele>122.8</ele>
        <time>2012-02-04T09:13:42Z</time>
      </trkpt>
      <trkpt lat="50.47081" lon="1.81796">
        <ele>122.8</ele>
        <time>2012-02-04T09:13:44Z</time>
      </trkpt>
      <trkpt lat="50.47084" lon="1.81791">
        <ele>122.8</ele>
        <time>2012-02-04T09:13:45Z</time>
      </trkpt>
      <trkpt lat="50.47088" lon="1.81786">
        <ele>122.9</ele>
        <time>2012-02-04T09:13:46Z</time>
      </trkpt>
      <trkpt lat="50.47094" lon="1.81778">
        <ele>123.3</ele>
        <time>2012-02-04T09:13:48Z</time>
      </trkpt>
      <trkpt lat="50.471" lon="1.81769">
        <ele>123</ele>
        <time>2012-02-04T09:13:50Z</time>
      </trkpt>
      <trkpt lat="50.47107" lon="1.81761">
        <ele>123.4</ele>
        <time>2012-02-04T09:13:52Z</time>
      </trkpt>
      <trkpt lat="50.47114" lon="1.81752">
        <ele>123.6</ele>
        <time>2012-02-04T09:13:54Z</time>
      </trkpt>
      <trkpt lat="50.47121" lon="1.81744">
        <ele>123.8</ele>
        <time>2012-02-04T09:13:56Z</time>
      </trkpt>
      <trkpt lat="50.47124" lon="1.81739">
        <ele>123.7</ele>
        <time>2012-02-04T09:13:57Z</time>
      </trkpt>
      <trkpt lat="50.47128" lon="1.81734">
        <ele>123.6</ele>
        <time>2012-02-04T09:13:58Z</time>
      </trkpt>
      <trkpt lat="50.47131" lon="1.81729">
        <ele>123.3</ele>
        <time>2012-02-04T09:13:59Z</time>
      </trkpt>
      <trkpt lat="50.47135" lon="1.81724">
        <ele>123.3</ele>
        <time>2012-02-04T09:14:00Z</time>
      </trkpt>
      <trkpt lat="50.47138" lon="1.81719">
        <ele>123.4</ele>
        <time>2012-02-04T09:14:01Z</time>
      </trkpt>
      <trkpt lat="50.47142" lon="1.81715">
        <ele>123.3</ele>
        <time>2012-02-04T09:14:02Z</time>
      </trkpt>
      <trkpt lat="50.47146" lon="1.8171">
        <ele>123.4</ele>
        <time>2012-02-04T09:14:03Z</time>
      </trkpt>
      <trkpt lat="50.47149" lon="1.81706">
        <ele>123.3</ele>
        <time>2012-02-04T09:14:04Z</time>
      </trkpt>
      <trkpt lat="50.47153" lon="1.81701">
        <ele>123.6</ele>
        <time>2012-02-04T09:14:05Z</time>
      </trkpt>
      <trkpt lat="50.47156" lon="1.81696">
        <ele>124.3</ele>
        <time>2012-02-04T09:14:06Z</time>
      </trkpt>
      <trkpt lat="50.47159" lon="1.81691">
        <ele>124.5</ele>
        <time>2012-02-04T09:14:07Z</time>
      </trkpt>
      <trkpt lat="50.47166" lon="1.81682">
        <ele>124.4</ele>
        <time>2012-02-04T09:14:09Z</time>
      </trkpt>
      <trkpt lat="50.47172" lon="1.81673">
        <ele>124.9</ele>
        <time>2012-02-04T09:14:11Z</time>
      </trkpt>
      <trkpt lat="50.47175" lon="1.81668">
        <ele>125.1</ele>
        <time>2012-02-04T09:14:12Z</time>
      </trkpt>
      <trkpt lat="50.47182" lon="1.81659">
        <ele>125.2</ele>
        <time>2012-02-04T09:14:14Z</time>
      </trkpt>
      <trkpt lat="50.47188" lon="1.8165">
        <ele>125.6</ele>
        <time>2012-02-04T09:14:16Z</time>
      </trkpt>
      <trkpt lat="50.47192" lon="1.81644">
        <ele>125</ele>
        <time>2012-02-04T09:14:17Z</time>
      </trkpt>
      <trkpt lat="50.47195" lon="1.81639">
        <ele>125.4</ele>
        <time>2012-02-04T09:14:18Z</time>
      </trkpt>
      <trkpt lat="50.47202" lon="1.8163">
        <ele>125.2</ele>
        <time>2012-02-04T09:14:20Z</time>
      </trkpt>
      <trkpt lat="50.47206" lon="1.81625">
        <ele>125</ele>
        <time>2012-02-04T09:14:21Z</time>
      </trkpt>
      <trkpt lat="50.47209" lon="1.8162">
        <ele>125.1</ele>
        <time>2012-02-04T09:14:22Z</time>
      </trkpt>
      <trkpt lat="50.47216" lon="1.81613">
        <ele>125</ele>
        <time>2012-02-04T09:14:24Z</time>
      </trkpt>
      <trkpt lat="50.47224" lon="1.81604">
        <ele>125.1</ele>
        <time>2012-02-04T09:14:26Z</time>
      </trkpt>
      <trkpt lat="50.47229" lon="1.81602">
        <ele>125</ele>
        <time>2012-02-04T09:14:27Z</time>
      </trkpt>
      <trkpt lat="50.47236" lon="1.81594">
        <ele>124.5</ele>
        <time>2012-02-04T09:14:29Z</time>
      </trkpt>
      <trkpt lat="50.4724" lon="1.81589">
        <ele>124.7</ele>
        <time>2012-02-04T09:14:30Z</time>
      </trkpt>
      <trkpt lat="50.47247" lon="1.8158">
        <ele>125.3</ele>
        <time>2012-02-04T09:14:32Z</time>
      </trkpt>
      <trkpt lat="50.4725" lon="1.81574">
        <ele>124.9</ele>
        <time>2012-02-04T09:14:33Z</time>
      </trkpt>
      <trkpt lat="50.47253" lon="1.81568">
        <ele>125.1</ele>
        <time>2012-02-04T09:14:34Z</time>
      </trkpt>
      <trkpt lat="50.47257" lon="1.81563">
        <ele>125.2</ele>
        <time>2012-02-04T09:14:35Z</time>
      </trkpt>
      <trkpt lat="50.4726" lon="1.81558">
        <ele>125</ele>
        <time>2012-02-04T09:14:36Z</time>
      </trkpt>
      <trkpt lat="50.47264" lon="1.81553">
        <ele>125</ele>
        <time>2012-02-04T09:14:37Z</time>
      </trkpt>
      <trkpt lat="50.4727" lon="1.81545">
        <ele>124.8</ele>
        <time>2012-02-04T09:14:39Z</time>
      </trkpt>
      <trkpt lat="50.47277" lon="1.81538">
        <ele>124.8</ele>
        <time>2012-02-04T09:14:41Z</time>
      </trkpt>
      <trkpt lat="50.47283" lon="1.81529">
        <ele>125.2</ele>
        <time>2012-02-04T09:14:43Z</time>
      </trkpt>
      <trkpt lat="50.47287" lon="1.81524">
        <ele>125.1</ele>
        <time>2012-02-04T09:14:44Z</time>
      </trkpt>
      <trkpt lat="50.47291" lon="1.8152">
        <ele>125.5</ele>
        <time>2012-02-04T09:14:45Z</time>
      </trkpt>
      <trkpt lat="50.47297" lon="1.81511">
        <ele>126.1</ele>
        <time>2012-02-04T09:14:47Z</time>
      </trkpt>
      <trkpt lat="50.47304" lon="1.81503">
        <ele>125.8</ele>
        <time>2012-02-04T09:14:49Z</time>
      </trkpt>
      <trkpt lat="50.47308" lon="1.81499">
        <ele>126</ele>
        <time>2012-02-04T09:14:50Z</time>
      </trkpt>
      <trkpt lat="50.47313" lon="1.81492">
        <ele>126.7</ele>
        <time>2012-02-04T09:14:52Z</time>
      </trkpt>
      <trkpt lat="50.47319" lon="1.81484">
        <ele>126.7</ele>
        <time>2012-02-04T09:14:54Z</time>
      </trkpt>
      <trkpt lat="50.47324" lon="1.81476">
        <ele>126.7</ele>
        <time>2012-02-04T09:14:56Z</time>
      </trkpt>
      <trkpt lat="50.4733" lon="1.81468">
        <ele>126.8</ele>
        <time>2012-02-04T09:14:58Z</time>
      </trkpt>
      <trkpt lat="50.47336" lon="1.81461">
        <ele>127.2</ele>
        <time>2012-02-04T09:15:00Z</time>
      </trkpt>
      <trkpt lat="50.47341" lon="1.81454">
        <ele>127.1</ele>
        <time>2012-02-04T09:15:02Z</time>
      </trkpt>
      <trkpt lat="50.47346" lon="1.81442">
        <ele>126.9</ele>
        <time>2012-02-04T09:15:04Z</time>
      </trkpt>
      <trkpt lat="50.47352" lon="1.81436">
        <ele>127.1</ele>
        <time>2012-02-04T09:15:06Z</time>
      </trkpt>
      <trkpt lat="50.47359" lon="1.8143">
        <ele>127.4</ele>
        <time>2012-02-04T09:15:08Z</time>
      </trkpt>
      <trkpt lat="50.47364" lon="1.8142">
        <ele>127.6</ele>
        <time>2012-02-04T09:15:10Z</time>
      </trkpt>
      <trkpt lat="50.4737" lon="1.81411">
        <ele>127.5</ele>
        <time>2012-02-04T09:15:12Z</time>
      </trkpt>
      <trkpt lat="50.47376" lon="1.81402">
        <ele>127.7</ele>
        <time>2012-02-04T09:15:14Z</time>
      </trkpt>
      <trkpt lat="50.47382" lon="1.81394">
        <ele>127.6</ele>
        <time>2012-02-04T09:15:16Z</time>
      </trkpt>
      <trkpt lat="50.47386" lon="1.8139">
        <ele>127</ele>
        <time>2012-02-04T09:15:17Z</time>
      </trkpt>
      <trkpt lat="50.47392" lon="1.81383">
        <ele>127.3</ele>
        <time>2012-02-04T09:15:19Z</time>
      </trkpt>
      <trkpt lat="50.47399" lon="1.81375">
        <ele>126.9</ele>
        <time>2012-02-04T09:15:21Z</time>
      </trkpt>
      <trkpt lat="50.47405" lon="1.81366">
        <ele>127</ele>
        <time>2012-02-04T09:15:23Z</time>
      </trkpt>
      <trkpt lat="50.47411" lon="1.81359">
        <ele>126.7</ele>
        <time>2012-02-04T09:15:25Z</time>
      </trkpt>
      <trkpt lat="50.47417" lon="1.81352">
        <ele>126.6</ele>
        <time>2012-02-04T09:15:27Z</time>
      </trkpt>
      <trkpt lat="50.47424" lon="1.81344">
        <ele>126.3</ele>
        <time>2012-02-04T09:15:29Z</time>
      </trkpt>
      <trkpt lat="50.47431" lon="1.81336">
        <ele>126.3</ele>
        <time>2012-02-04T09:15:31Z</time>
      </trkpt>
      <trkpt lat="50.47439" lon="1.81329">
        <ele>126.1</ele>
        <time>2012-02-04T09:15:33Z</time>
      </trkpt>
      <trkpt lat="50.47446" lon="1.81322">
        <ele>126</ele>
        <time>2012-02-04T09:15:35Z</time>
      </trkpt>
      <trkpt lat="50.47452" lon="1.81314">
        <ele>126.2</ele>
        <time>2012-02-04T09:15:37Z</time>
      </trkpt>
      <trkpt lat="50.47459" lon="1.81307">
        <ele>125.8</ele>
        <time>2012-02-04T09:15:39Z</time>
      </trkpt>
      <trkpt lat="50.47465" lon="1.81301">
        <ele>125.5</ele>
        <time>2012-02-04T09:15:41Z</time>
      </trkpt>
      <trkpt lat="50.47471" lon="1.81294">
        <ele>125.1</ele>
        <time>2012-02-04T09:15:43Z</time>
      </trkpt>
      <trkpt lat="50.47478" lon="1.81286">
        <ele>124.7</ele>
        <time>2012-02-04T09:15:45Z</time>
      </trkpt>
      <trkpt lat="50.47482" lon="1.81282">
        <ele>124.3</ele>
        <time>2012-02-04T09:15:46Z</time>
      </trkpt>
      <trkpt lat="50.47486" lon="1.81278">
        <ele>123.7</ele>
        <time>2012-02-04T09:15:47Z</time>
      </trkpt>
      <trkpt lat="50.4749" lon="1.81274">
        <ele>123.4</ele>
        <time>2012-02-04T09:15:48Z</time>
      </trkpt>
      <trkpt lat="50.47493" lon="1.8127">
        <ele>123</ele>
        <time>2012-02-04T09:15:49Z</time>
      </trkpt>
      <trkpt lat="50.47497" lon="1.81266">
        <ele>122.3</ele>
        <time>2012-02-04T09:15:50Z</time>
      </trkpt>
      <trkpt lat="50.47501" lon="1.81262">
        <ele>122.2</ele>
        <time>2012-02-04T09:15:51Z</time>
      </trkpt>
      <trkpt lat="50.47505" lon="1.81258">
        <ele>121.8</ele>
        <time>2012-02-04T09:15:52Z</time>
      </trkpt>
      <trkpt lat="50.47509" lon="1.81254">
        <ele>121.5</ele>
        <time>2012-02-04T09:15:53Z</time>
      </trkpt>
      <trkpt lat="50.47513" lon="1.8125">
        <ele>121.5</ele>
        <time>2012-02-04T09:15:54Z</time>
      </trkpt>
      <trkpt lat="50.47517" lon="1.81245">
        <ele>121.1</ele>
        <time>2012-02-04T09:15:55Z</time>
      </trkpt>
      <trkpt lat="50.47521" lon="1.81241">
        <ele>121</ele>
        <time>2012-02-04T09:15:56Z</time>
      </trkpt>
      <trkpt lat="50.47525" lon="1.81236">
        <ele>120.7</ele>
        <time>2012-02-04T09:15:57Z</time>
      </trkpt>
      <trkpt lat="50.47529" lon="1.81232">
        <ele>120.5</ele>
        <time>2012-02-04T09:15:58Z</time>
      </trkpt>
      <trkpt lat="50.47533" lon="1.81228">
        <ele>120.3</ele>
        <time>2012-02-04T09:15:59Z</time>
      </trkpt>
      <trkpt lat="50.47538" lon="1.81224">
        <ele>120.2</ele>
        <time>2012-02-04T09:16:00Z</time>
      </trkpt>
      <trkpt lat="50.47542" lon="1.8122">
        <ele>120.2</ele>
        <time>2012-02-04T09:16:01Z</time>
      </trkpt>
      <trkpt lat="50.47546" lon="1.81215">
        <ele>119.9</ele>
        <time>2012-02-04T09:16:02Z</time>
      </trkpt>
      <trkpt lat="50.4755" lon="1.81212">
        <ele>119.8</ele>
        <time>2012-02-04T09:16:03Z</time>
      </trkpt>
      <trkpt lat="50.47554" lon="1.81207">
        <ele>119.1</ele>
        <time>2012-02-04T09:16:04Z</time>
      </trkpt>
      <trkpt lat="50.47558" lon="1.81203">
        <ele>118.9</ele>
        <time>2012-02-04T09:16:05Z</time>
      </trkpt>
      <trkpt lat="50.47562" lon="1.81198">
        <ele>118.4</ele>
        <time>2012-02-04T09:16:06Z</time>
      </trkpt>
      <trkpt lat="50.47566" lon="1.81193">
        <ele>118</ele>
        <time>2012-02-04T09:16:07Z</time>
      </trkpt>
      <trkpt lat="50.4757" lon="1.81188">
        <ele>118</ele>
        <time>2012-02-04T09:16:08Z</time>
      </trkpt>
      <trkpt lat="50.47575" lon="1.81183">
        <ele>117.6</ele>
        <time>2012-02-04T09:16:09Z</time>
      </trkpt>
      <trkpt lat="50.4758" lon="1.81177">
        <ele>117.3</ele>
        <time>2012-02-04T09:16:10Z</time>
      </trkpt>
      <trkpt lat="50.47584" lon="1.81172">
        <ele>116.9</ele>
        <time>2012-02-04T09:16:11Z</time>
      </trkpt>
      <trkpt lat="50.47589" lon="1.81168">
        <ele>116.2</ele>
        <time>2012-02-04T09:16:12Z</time>
      </trkpt>
      <trkpt lat="50.47593" lon="1.81163">
        <ele>115.9</ele>
        <time>2012-02-04T09:16:13Z</time>
      </trkpt>
      <trkpt lat="50.47598" lon="1.81157">
        <ele>115.9</ele>
        <time>2012-02-04T09:16:14Z</time>
      </trkpt>
      <trkpt lat="50.47602" lon="1.81152">
        <ele>115.8</ele>
        <time>2012-02-04T09:16:15Z</time>
      </trkpt>
      <trkpt lat="50.47606" lon="1.81148">
        <ele>115.6</ele>
        <time>2012-02-04T09:16:16Z</time>
      </trkpt>
      <trkpt lat="50.47611" lon="1.81142">
        <ele>115.5</ele>
        <time>2012-02-04T09:16:17Z</time>
      </trkpt>
      <trkpt lat="50.47616" lon="1.81136">
        <ele>115.5</ele>
        <time>2012-02-04T09:16:18Z</time>
      </trkpt>
      <trkpt lat="50.4762" lon="1.81131">
        <ele>115.4</ele>
        <time>2012-02-04T09:16:19Z</time>
      </trkpt>
      <trkpt lat="50.47625" lon="1.81126">
        <ele>115.5</ele>
        <time>2012-02-04T09:16:20Z</time>
      </trkpt>
      <trkpt lat="50.47629" lon="1.81122">
        <ele>115.1</ele>
        <time>2012-02-04T09:16:21Z</time>
      </trkpt>
      <trkpt lat="50.47634" lon="1.81116">
        <ele>114.9</ele>
        <time>2012-02-04T09:16:22Z</time>
      </trkpt>
      <trkpt lat="50.47638" lon="1.81111">
        <ele>115.1</ele>
        <time>2012-02-04T09:16:23Z</time>
      </trkpt>
      <trkpt lat="50.47642" lon="1.81107">
        <ele>114.9</ele>
        <time>2012-02-04T09:16:24Z</time>
      </trkpt>
      <trkpt lat="50.47646" lon="1.81102">
        <ele>114.5</ele>
        <time>2012-02-04T09:16:25Z</time>
      </trkpt>
      <trkpt lat="50.47648" lon="1.81095">
        <ele>114.2</ele>
        <time>2012-02-04T09:16:26Z</time>
      </trkpt>
      <trkpt lat="50.47654" lon="1.81091">
        <ele>114.9</ele>
        <time>2012-02-04T09:16:28Z</time>
      </trkpt>
      <trkpt lat="50.47655" lon="1.81101">
        <ele>115.3</ele>
        <time>2012-02-04T09:16:31Z</time>
      </trkpt>
      <trkpt lat="50.47654" lon="1.8111">
        <ele>115.7</ele>
        <time>2012-02-04T09:16:33Z</time>
      </trkpt>
      <trkpt lat="50.47655" lon="1.81123">
        <ele>116.1</ele>
        <time>2012-02-04T09:16:35Z</time>
      </trkpt>
      <trkpt lat="50.47655" lon="1.81136">
        <ele>116.2</ele>
        <time>2012-02-04T09:16:37Z</time>
      </trkpt>
      <trkpt lat="50.47657" lon="1.81148">
        <ele>116.3</ele>
        <time>2012-02-04T09:16:39Z</time>
      </trkpt>
      <trkpt lat="50.47657" lon="1.81159">
        <ele>116.2</ele>
        <time>2012-02-04T09:16:41Z</time>
      </trkpt>
      <trkpt lat="50.47657" lon="1.81167">
        <ele>116.2</ele>
        <time>2012-02-04T09:16:42Z</time>
      </trkpt>
      <trkpt lat="50.47656" lon="1.8118">
        <ele>116.7</ele>
        <time>2012-02-04T09:16:44Z</time>
      </trkpt>
      <trkpt lat="50.47657" lon="1.81189">
        <ele>116.6</ele>
        <time>2012-02-04T09:16:45Z</time>
      </trkpt>
      <trkpt lat="50.47657" lon="1.81203">
        <ele>114.2</ele>
        <time>2012-02-04T09:16:47Z</time>
      </trkpt>
      <trkpt lat="50.47658" lon="1.8121">
        <ele>113.4</ele>
        <time>2012-02-04T09:16:48Z</time>
      </trkpt>
      <trkpt lat="50.47657" lon="1.81218">
        <ele>113</ele>
        <time>2012-02-04T09:16:49Z</time>
      </trkpt>
      <trkpt lat="50.47657" lon="1.81225">
        <ele>113</ele>
        <time>2012-02-04T09:16:50Z</time>
      </trkpt>
      <trkpt lat="50.47656" lon="1.81232">
        <ele>113.3</ele>
        <time>2012-02-04T09:16:51Z</time>
      </trkpt>
      <trkpt lat="50.47656" lon="1.8124">
        <ele>113.5</ele>
        <time>2012-02-04T09:16:52Z</time>
      </trkpt>
      <trkpt lat="50.47655" lon="1.81248">
        <ele>113.4</ele>
        <time>2012-02-04T09:16:53Z</time>
      </trkpt>
      <trkpt lat="50.47656" lon="1.81256">
        <ele>113.2</ele>
        <time>2012-02-04T09:16:54Z</time>
      </trkpt>
      <trkpt lat="50.47656" lon="1.81265">
        <ele>113</ele>
        <time>2012-02-04T09:16:55Z</time>
      </trkpt>
      <trkpt lat="50.47658" lon="1.81272">
        <ele>113.8</ele>
        <time>2012-02-04T09:16:56Z</time>
      </trkpt>
      <trkpt lat="50.4766" lon="1.8128">
        <ele>113.6</ele>
        <time>2012-02-04T09:16:57Z</time>
      </trkpt>
      <trkpt lat="50.47659" lon="1.81287">
        <ele>113.5</ele>
        <time>2012-02-04T09:16:58Z</time>
      </trkpt>
      <trkpt lat="50.47659" lon="1.81303">
        <ele>113</ele>
        <time>2012-02-04T09:17:00Z</time>
      </trkpt>
      <trkpt lat="50.47662" lon="1.8131">
        <ele>112.8</ele>
        <time>2012-02-04T09:17:01Z</time>
      </trkpt>
      <trkpt lat="50.47663" lon="1.81316">
        <ele>111.3</ele>
        <time>2012-02-04T09:17:02Z</time>
      </trkpt>
      <trkpt lat="50.47664" lon="1.8133">
        <ele>111.1</ele>
        <time>2012-02-04T09:17:04Z</time>
      </trkpt>
      <trkpt lat="50.47666" lon="1.81338">
        <ele>110.3</ele>
        <time>2012-02-04T09:17:05Z</time>
      </trkpt>
      <trkpt lat="50.47667" lon="1.81346">
        <ele>110.2</ele>
        <time>2012-02-04T09:17:06Z</time>
      </trkpt>
      <trkpt lat="50.47668" lon="1.81353">
        <ele>110.5</ele>
        <time>2012-02-04T09:17:07Z</time>
      </trkpt>
      <trkpt lat="50.47669" lon="1.8136">
        <ele>109.6</ele>
        <time>2012-02-04T09:17:08Z</time>
      </trkpt>
      <trkpt lat="50.4767" lon="1.81368">
        <ele>109.2</ele>
        <time>2012-02-04T09:17:09Z</time>
      </trkpt>
      <trkpt lat="50.47671" lon="1.81375">
        <ele>109</ele>
        <time>2012-02-04T09:17:10Z</time>
      </trkpt>
      <trkpt lat="50.47672" lon="1.81383">
        <ele>108.4</ele>
        <time>2012-02-04T09:17:11Z</time>
      </trkpt>
      <trkpt lat="50.47674" lon="1.8139">
        <ele>108.5</ele>
        <time>2012-02-04T09:17:12Z</time>
      </trkpt>
      <trkpt lat="50.47675" lon="1.81398">
        <ele>108.3</ele>
        <time>2012-02-04T09:17:13Z</time>
      </trkpt>
      <trkpt lat="50.47676" lon="1.81405">
        <ele>107.8</ele>
        <time>2012-02-04T09:17:14Z</time>
      </trkpt>
      <trkpt lat="50.47678" lon="1.81412">
        <ele>107.4</ele>
        <time>2012-02-04T09:17:15Z</time>
      </trkpt>
      <trkpt lat="50.47679" lon="1.8142">
        <ele>107.1</ele>
        <time>2012-02-04T09:17:16Z</time>
      </trkpt>
      <trkpt lat="50.47681" lon="1.81427">
        <ele>106.9</ele>
        <time>2012-02-04T09:17:17Z</time>
      </trkpt>
      <trkpt lat="50.47682" lon="1.81435">
        <ele>106.9</ele>
        <time>2012-02-04T09:17:18Z</time>
      </trkpt>
      <trkpt lat="50.47684" lon="1.81442">
        <ele>107.3</ele>
        <time>2012-02-04T09:17:19Z</time>
      </trkpt>
      <trkpt lat="50.47686" lon="1.8145">
        <ele>107.3</ele>
        <time>2012-02-04T09:17:20Z</time>
      </trkpt>
      <trkpt lat="50.47687" lon="1.81458">
        <ele>107.3</ele>
        <time>2012-02-04T09:17:21Z</time>
      </trkpt>
      <trkpt lat="50.47688" lon="1.81466">
        <ele>107.1</ele>
        <time>2012-02-04T09:17:22Z</time>
      </trkpt>
      <trkpt lat="50.47689" lon="1.81474">
        <ele>106.6</ele>
        <time>2012-02-04T09:17:23Z</time>
      </trkpt>
      <trkpt lat="50.4769" lon="1.81481">
        <ele>104.5</ele>
        <time>2012-02-04T09:17:24Z</time>
      </trkpt>
      <trkpt lat="50.47692" lon="1.81488">
        <ele>103.9</ele>
        <time>2012-02-04T09:17:25Z</time>
      </trkpt>
      <trkpt lat="50.47693" lon="1.81496">
        <ele>104.4</ele>
        <time>2012-02-04T09:17:26Z</time>
      </trkpt>
      <trkpt lat="50.47693" lon="1.81503">
        <ele>104.3</ele>
        <time>2012-02-04T09:17:27Z</time>
      </trkpt>
      <trkpt lat="50.47694" lon="1.81511">
        <ele>104.2</ele>
        <time>2012-02-04T09:17:28Z</time>
      </trkpt>
      <trkpt lat="50.47694" lon="1.81519">
        <ele>104.3</ele>
        <time>2012-02-04T09:17:29Z</time>
      </trkpt>
      <trkpt lat="50.47694" lon="1.81528">
        <ele>104.5</ele>
        <time>2012-02-04T09:17:30Z</time>
      </trkpt>
      <trkpt lat="50.47694" lon="1.81535">
        <ele>104.6</ele>
        <time>2012-02-04T09:17:31Z</time>
      </trkpt>
      <trkpt lat="50.47694" lon="1.81544">
        <ele>104.6</ele>
        <time>2012-02-04T09:17:32Z</time>
      </trkpt>
      <trkpt lat="50.47695" lon="1.81553">
        <ele>104.7</ele>
        <time>2012-02-04T09:17:33Z</time>
      </trkpt>
      <trkpt lat="50.47695" lon="1.81562">
        <ele>104.8</ele>
        <time>2012-02-04T09:17:34Z</time>
      </trkpt>
      <trkpt lat="50.47694" lon="1.8157">
        <ele>104.9</ele>
        <time>2012-02-04T09:17:35Z</time>
      </trkpt>
      <trkpt lat="50.47693" lon="1.81578">
        <ele>104.9</ele>
        <time>2012-02-04T09:17:36Z</time>
      </trkpt>
      <trkpt lat="50.47692" lon="1.81587">
        <ele>101.8</ele>
        <time>2012-02-04T09:17:37Z</time>
      </trkpt>
      <trkpt lat="50.47692" lon="1.81595">
        <ele>101.3</ele>
        <time>2012-02-04T09:17:38Z</time>
      </trkpt>
      <trkpt lat="50.47691" lon="1.81609">
        <ele>100.6</ele>
        <time>2012-02-04T09:17:40Z</time>
      </trkpt>
      <trkpt lat="50.47689" lon="1.81616">
        <ele>100.7</ele>
        <time>2012-02-04T09:17:41Z</time>
      </trkpt>
      <trkpt lat="50.47688" lon="1.81624">
        <ele>100.9</ele>
        <time>2012-02-04T09:17:42Z</time>
      </trkpt>
      <trkpt lat="50.47688" lon="1.81632">
        <ele>101.3</ele>
        <time>2012-02-04T09:17:43Z</time>
      </trkpt>
      <trkpt lat="50.47687" lon="1.81639">
        <ele>101.3</ele>
        <time>2012-02-04T09:17:44Z</time>
      </trkpt>
      <trkpt lat="50.47686" lon="1.81649">
        <ele>102</ele>
        <time>2012-02-04T09:17:45Z</time>
      </trkpt>
      <trkpt lat="50.47685" lon="1.81657">
        <ele>102.3</ele>
        <time>2012-02-04T09:17:46Z</time>
      </trkpt>
      <trkpt lat="50.47685" lon="1.81665">
        <ele>102</ele>
        <time>2012-02-04T09:17:47Z</time>
      </trkpt>
      <trkpt lat="50.47684" lon="1.81672">
        <ele>102.3</ele>
        <time>2012-02-04T09:17:48Z</time>
      </trkpt>
      <trkpt lat="50.47682" lon="1.81686">
        <ele>102.7</ele>
        <time>2012-02-04T09:17:50Z</time>
      </trkpt>
      <trkpt lat="50.4768" lon="1.81693">
        <ele>102.7</ele>
        <time>2012-02-04T09:17:51Z</time>
      </trkpt>
      <trkpt lat="50.47681" lon="1.81702">
        <ele>105</ele>
        <time>2012-02-04T09:17:52Z</time>
      </trkpt>
      <trkpt lat="50.47681" lon="1.81711">
        <ele>105.5</ele>
        <time>2012-02-04T09:17:53Z</time>
      </trkpt>
      <trkpt lat="50.4768" lon="1.8172">
        <ele>105.9</ele>
        <time>2012-02-04T09:17:54Z</time>
      </trkpt>
      <trkpt lat="50.47679" lon="1.81728">
        <ele>105.9</ele>
        <time>2012-02-04T09:17:55Z</time>
      </trkpt>
      <trkpt lat="50.47677" lon="1.81734">
        <ele>105.8</ele>
        <time>2012-02-04T09:17:56Z</time>
      </trkpt>
      <trkpt lat="50.47676" lon="1.81743">
        <ele>105.1</ele>
        <time>2012-02-04T09:17:57Z</time>
      </trkpt>
      <trkpt lat="50.47675" lon="1.8175">
        <ele>105.5</ele>
        <time>2012-02-04T09:17:58Z</time>
      </trkpt>
      <trkpt lat="50.47674" lon="1.81758">
        <ele>105.8</ele>
        <time>2012-02-04T09:17:59Z</time>
      </trkpt>
      <trkpt lat="50.47673" lon="1.81766">
        <ele>104.3</ele>
        <time>2012-02-04T09:18:00Z</time>
      </trkpt>
      <trkpt lat="50.47672" lon="1.8178">
        <ele>104</ele>
        <time>2012-02-04T09:18:02Z</time>
      </trkpt>
      <trkpt lat="50.47671" lon="1.81787">
        <ele>103</ele>
        <time>2012-02-04T09:18:03Z</time>
      </trkpt>
      <trkpt lat="50.47671" lon="1.81795">
        <ele>103.6</ele>
        <time>2012-02-04T09:18:04Z</time>
      </trkpt>
      <trkpt lat="50.47669" lon="1.81802">
        <ele>104</ele>
        <time>2012-02-04T09:18:05Z</time>
      </trkpt>
      <trkpt lat="50.47668" lon="1.8181">
        <ele>103.3</ele>
        <time>2012-02-04T09:18:06Z</time>
      </trkpt>
      <trkpt lat="50.47667" lon="1.81818">
        <ele>103</ele>
        <time>2012-02-04T09:18:07Z</time>
      </trkpt>
      <trkpt lat="50.47665" lon="1.81826">
        <ele>102.9</ele>
        <time>2012-02-04T09:18:08Z</time>
      </trkpt>
      <trkpt lat="50.47662" lon="1.81834">
        <ele>102.1</ele>
        <time>2012-02-04T09:18:09Z</time>
      </trkpt>
      <trkpt lat="50.47661" lon="1.81843">
        <ele>102.6</ele>
        <time>2012-02-04T09:18:10Z</time>
      </trkpt>
      <trkpt lat="50.4766" lon="1.81851">
        <ele>102.5</ele>
        <time>2012-02-04T09:18:11Z</time>
      </trkpt>
      <trkpt lat="50.47658" lon="1.81858">
        <ele>102.4</ele>
        <time>2012-02-04T09:18:12Z</time>
      </trkpt>
      <trkpt lat="50.47655" lon="1.81866">
        <ele>101.4</ele>
        <time>2012-02-04T09:18:13Z</time>
      </trkpt>
      <trkpt lat="50.47653" lon="1.81874">
        <ele>101.6</ele>
        <time>2012-02-04T09:18:14Z</time>
      </trkpt>
      <trkpt lat="50.47651" lon="1.8188">
        <ele>100.9</ele>
        <time>2012-02-04T09:18:15Z</time>
      </trkpt>
      <trkpt lat="50.47649" lon="1.81888">
        <ele>100.2</ele>
        <time>2012-02-04T09:18:16Z</time>
      </trkpt>
      <trkpt lat="50.47648" lon="1.81895">
        <ele>99.6</ele>
        <time>2012-02-04T09:18:17Z</time>
      </trkpt>
      <trkpt lat="50.47645" lon="1.81903">
        <ele>99.5</ele>
        <time>2012-02-04T09:18:18Z</time>
      </trkpt>
      <trkpt lat="50.47643" lon="1.8191">
        <ele>99.9</ele>
        <time>2012-02-04T09:18:19Z</time>
      </trkpt>
      <trkpt lat="50.47641" lon="1.81918">
        <ele>99.7</ele>
        <time>2012-02-04T09:18:20Z</time>
      </trkpt>
      <trkpt lat="50.47639" lon="1.81927">
        <ele>98.8</ele>
        <time>2012-02-04T09:18:21Z</time>
      </trkpt>
      <trkpt lat="50.47637" lon="1.81934">
        <ele>98.4</ele>
        <time>2012-02-04T09:18:22Z</time>
      </trkpt>
      <trkpt lat="50.47635" lon="1.81942">
        <ele>98.3</ele>
        <time>2012-02-04T09:18:23Z</time>
      </trkpt>
      <trkpt lat="50.47634" lon="1.8195">
        <ele>97.9</ele>
        <time>2012-02-04T09:18:24Z</time>
      </trkpt>
      <trkpt lat="50.47632" lon="1.81958">
        <ele>97.5</ele>
        <time>2012-02-04T09:18:25Z</time>
      </trkpt>
      <trkpt lat="50.4763" lon="1.81967">
        <ele>97.4</ele>
        <time>2012-02-04T09:18:26Z</time>
      </trkpt>
      <trkpt lat="50.47629" lon="1.81975">
        <ele>97</ele>
        <time>2012-02-04T09:18:27Z</time>
      </trkpt>
      <trkpt lat="50.47627" lon="1.81983">
        <ele>97.6</ele>
        <time>2012-02-04T09:18:28Z</time>
      </trkpt>
      <trkpt lat="50.47626" lon="1.8199">
        <ele>97.7</ele>
        <time>2012-02-04T09:18:29Z</time>
      </trkpt>
      <trkpt lat="50.47625" lon="1.81998">
        <ele>98</ele>
        <time>2012-02-04T09:18:30Z</time>
      </trkpt>
      <trkpt lat="50.47623" lon="1.82006">
        <ele>98.8</ele>
        <time>2012-02-04T09:18:31Z</time>
      </trkpt>
      <trkpt lat="50.47622" lon="1.82014">
        <ele>99.6</ele>
        <time>2012-02-04T09:18:32Z</time>
      </trkpt>
      <trkpt lat="50.47621" lon="1.82022">
        <ele>100</ele>
        <time>2012-02-04T09:18:33Z</time>
      </trkpt>
      <trkpt lat="50.4762" lon="1.82035">
        <ele>99.3</ele>
        <time>2012-02-04T09:18:35Z</time>
      </trkpt>
      <trkpt lat="50.47618" lon="1.82046">
        <ele>100.1</ele>
        <time>2012-02-04T09:18:37Z</time>
      </trkpt>
      <trkpt lat="50.47618" lon="1.82057">
        <ele>100.5</ele>
        <time>2012-02-04T09:18:39Z</time>
      </trkpt>
      <trkpt lat="50.47617" lon="1.82067">
        <ele>99.3</ele>
        <time>2012-02-04T09:18:41Z</time>
      </trkpt>
      <trkpt lat="50.47615" lon="1.82076">
        <ele>97.8</ele>
        <time>2012-02-04T09:18:43Z</time>
      </trkpt>
      <trkpt lat="50.47612" lon="1.82085">
        <ele>98.7</ele>
        <time>2012-02-04T09:18:45Z</time>
      </trkpt>
      <trkpt lat="50.4761" lon="1.82096">
        <ele>98.5</ele>
        <time>2012-02-04T09:18:47Z</time>
      </trkpt>
      <trkpt lat="50.47608" lon="1.82106">
        <ele>96.9</ele>
        <time>2012-02-04T09:18:49Z</time>
      </trkpt>
      <trkpt lat="50.47606" lon="1.82117">
        <ele>95.7</ele>
        <time>2012-02-04T09:18:51Z</time>
      </trkpt>
      <trkpt lat="50.47605" lon="1.82128">
        <ele>94.3</ele>
        <time>2012-02-04T09:18:53Z</time>
      </trkpt>
      <trkpt lat="50.47604" lon="1.82142">
        <ele>93.9</ele>
        <time>2012-02-04T09:18:55Z</time>
      </trkpt>
      <trkpt lat="50.47606" lon="1.82153">
        <ele>93.3</ele>
        <time>2012-02-04T09:18:57Z</time>
      </trkpt>
      <trkpt lat="50.47605" lon="1.82165">
        <ele>92.2</ele>
        <time>2012-02-04T09:18:59Z</time>
      </trkpt>
      <trkpt lat="50.47609" lon="1.82177">
        <ele>92.4</ele>
        <time>2012-02-04T09:19:01Z</time>
      </trkpt>
      <trkpt lat="50.4761" lon="1.82188">
        <ele>91.2</ele>
        <time>2012-02-04T09:19:03Z</time>
      </trkpt>
      <trkpt lat="50.47612" lon="1.82199">
        <ele>89.5</ele>
        <time>2012-02-04T09:19:05Z</time>
      </trkpt>
      <trkpt lat="50.47611" lon="1.82207">
        <ele>86.1</ele>
        <time>2012-02-04T09:19:07Z</time>
      </trkpt>
      <trkpt lat="50.47615" lon="1.82217">
        <ele>87</ele>
        <time>2012-02-04T09:19:09Z</time>
      </trkpt>
      <trkpt lat="50.47617" lon="1.82227">
        <ele>87.4</ele>
        <time>2012-02-04T09:19:11Z</time>
      </trkpt>
      <trkpt lat="50.47621" lon="1.82237">
        <ele>88.7</ele>
        <time>2012-02-04T09:19:13Z</time>
      </trkpt>
      <trkpt lat="50.47624" lon="1.82247">
        <ele>88.8</ele>
        <time>2012-02-04T09:19:15Z</time>
      </trkpt>
      <trkpt lat="50.47626" lon="1.82257">
        <ele>90.9</ele>
        <time>2012-02-04T09:19:18Z</time>
      </trkpt>
      <trkpt lat="50.47626" lon="1.82268">
        <ele>90.9</ele>
        <time>2012-02-04T09:19:21Z</time>
      </trkpt>
      <trkpt lat="50.47626" lon="1.82275">
        <ele>91.2</ele>
        <time>2012-02-04T09:19:23Z</time>
      </trkpt>
      <trkpt lat="50.47627" lon="1.82282">
        <ele>92.5</ele>
        <time>2012-02-04T09:19:25Z</time>
      </trkpt>
      <trkpt lat="50.47628" lon="1.82289">
        <ele>93</ele>
        <time>2012-02-04T09:19:27Z</time>
      </trkpt>
      <trkpt lat="50.47632" lon="1.82297">
        <ele>92.7</ele>
        <time>2012-02-04T09:19:30Z</time>
      </trkpt>
      <trkpt lat="50.47634" lon="1.82304">
        <ele>94.1</ele>
        <time>2012-02-04T09:19:32Z</time>
      </trkpt>
      <trkpt lat="50.47638" lon="1.8231">
        <ele>94.5</ele>
        <time>2012-02-04T09:19:34Z</time>
      </trkpt>
      <trkpt lat="50.47641" lon="1.82316">
        <ele>95.2</ele>
        <time>2012-02-04T09:19:36Z</time>
      </trkpt>
      <trkpt lat="50.47644" lon="1.82323">
        <ele>95.9</ele>
        <time>2012-02-04T09:19:38Z</time>
      </trkpt>
      <trkpt lat="50.47646" lon="1.8233">
        <ele>95.3</ele>
        <time>2012-02-04T09:19:40Z</time>
      </trkpt>
      <trkpt lat="50.4765" lon="1.82338">
        <ele>96.1</ele>
        <time>2012-02-04T09:19:42Z</time>
      </trkpt>
      <trkpt lat="50.47652" lon="1.82344">
        <ele>98.2</ele>
        <time>2012-02-04T09:19:44Z</time>
      </trkpt>
      <trkpt lat="50.47653" lon="1.82351">
        <ele>97.1</ele>
        <time>2012-02-04T09:19:47Z</time>
      </trkpt>
      <trkpt lat="50.47656" lon="1.82355">
        <ele>97.4</ele>
        <time>2012-02-04T09:19:49Z</time>
      </trkpt>
      <trkpt lat="50.47662" lon="1.82354">
        <ele>98.2</ele>
        <time>2012-02-04T09:19:51Z</time>
      </trkpt>
      <trkpt lat="50.47667" lon="1.8235">
        <ele>99</ele>
        <time>2012-02-04T09:19:54Z</time>
      </trkpt>
      <trkpt lat="50.47663" lon="1.82377">
        <ele>102.6</ele>
        <time>2012-02-04T09:19:55Z</time>
      </trkpt>
      <trkpt lat="50.47666" lon="1.82383">
        <ele>104.7</ele>
        <time>2012-02-04T09:19:58Z</time>
      </trkpt>
      <trkpt lat="50.47667" lon="1.82391">
        <ele>105</ele>
        <time>2012-02-04T09:20:00Z</time>
      </trkpt>
      <trkpt lat="50.47667" lon="1.82401">
        <ele>106.7</ele>
        <time>2012-02-04T09:20:03Z</time>
      </trkpt>
      <trkpt lat="50.47667" lon="1.8241">
        <ele>107.6</ele>
        <time>2012-02-04T09:20:06Z</time>
      </trkpt>
      <trkpt lat="50.47667" lon="1.8242">
        <ele>107.4</ele>
        <time>2012-02-04T09:20:09Z</time>
      </trkpt>
      <trkpt lat="50.47667" lon="1.82429">
        <ele>108.1</ele>
        <time>2012-02-04T09:20:12Z</time>
      </trkpt>
      <trkpt lat="50.47668" lon="1.82439">
        <ele>108.3</ele>
        <time>2012-02-04T09:20:15Z</time>
      </trkpt>
      <trkpt lat="50.47668" lon="1.82447">
        <ele>108.8</ele>
        <time>2012-02-04T09:20:18Z</time>
      </trkpt>
      <trkpt lat="50.47669" lon="1.82458">
        <ele>109.3</ele>
        <time>2012-02-04T09:20:21Z</time>
      </trkpt>
      <trkpt lat="50.47671" lon="1.82469">
        <ele>110.2</ele>
        <time>2012-02-04T09:20:24Z</time>
      </trkpt>
      <trkpt lat="50.47672" lon="1.82476">
        <ele>110.3</ele>
        <time>2012-02-04T09:20:26Z</time>
      </trkpt>
      <trkpt lat="50.47674" lon="1.82487">
        <ele>110.9</ele>
        <time>2012-02-04T09:20:29Z</time>
      </trkpt>
      <trkpt lat="50.47676" lon="1.82494">
        <ele>111.4</ele>
        <time>2012-02-04T09:20:31Z</time>
      </trkpt>
      <trkpt lat="50.47677" lon="1.82501">
        <ele>111.8</ele>
        <time>2012-02-04T09:20:33Z</time>
      </trkpt>
      <trkpt lat="50.47678" lon="1.82508">
        <ele>112.9</ele>
        <time>2012-02-04T09:20:35Z</time>
      </trkpt>
      <trkpt lat="50.4768" lon="1.82514">
        <ele>113.9</ele>
        <time>2012-02-04T09:20:37Z</time>
      </trkpt>
      <trkpt lat="50.47681" lon="1.82521">
        <ele>114.4</ele>
        <time>2012-02-04T09:20:39Z</time>
      </trkpt>
      <trkpt lat="50.47683" lon="1.8253">
        <ele>114</ele>
        <time>2012-02-04T09:20:42Z</time>
      </trkpt>
      <trkpt lat="50.47686" lon="1.8254">
        <ele>114.2</ele>
        <time>2012-02-04T09:20:45Z</time>
      </trkpt>
      <trkpt lat="50.47688" lon="1.8255">
        <ele>114.6</ele>
        <time>2012-02-04T09:20:48Z</time>
      </trkpt>
      <trkpt lat="50.4769" lon="1.8256">
        <ele>114.9</ele>
        <time>2012-02-04T09:20:51Z</time>
      </trkpt>
      <trkpt lat="50.47692" lon="1.82567">
        <ele>115</ele>
        <time>2012-02-04T09:20:53Z</time>
      </trkpt>
      <trkpt lat="50.47694" lon="1.82574">
        <ele>115.2</ele>
        <time>2012-02-04T09:20:55Z</time>
      </trkpt>
      <trkpt lat="50.47696" lon="1.82581">
        <ele>115.1</ele>
        <time>2012-02-04T09:20:57Z</time>
      </trkpt>
      <trkpt lat="50.47697" lon="1.82588">
        <ele>115.1</ele>
        <time>2012-02-04T09:20:59Z</time>
      </trkpt>
      <trkpt lat="50.47699" lon="1.82594">
        <ele>115.3</ele>
        <time>2012-02-04T09:21:01Z</time>
      </trkpt>
      <trkpt lat="50.477" lon="1.82601">
        <ele>115.1</ele>
        <time>2012-02-04T09:21:03Z</time>
      </trkpt>
      <trkpt lat="50.47702" lon="1.82609">
        <ele>115.1</ele>
        <time>2012-02-04T09:21:05Z</time>
      </trkpt>
      <trkpt lat="50.47704" lon="1.82616">
        <ele>115.1</ele>
        <time>2012-02-04T09:21:07Z</time>
      </trkpt>
      <trkpt lat="50.47706" lon="1.82622">
        <ele>115.1</ele>
        <time>2012-02-04T09:21:09Z</time>
      </trkpt>
      <trkpt lat="50.47708" lon="1.82629">
        <ele>115</ele>
        <time>2012-02-04T09:21:11Z</time>
      </trkpt>
      <trkpt lat="50.47709" lon="1.82636">
        <ele>115.3</ele>
        <time>2012-02-04T09:21:13Z</time>
      </trkpt>
      <trkpt lat="50.47711" lon="1.82642">
        <ele>115.5</ele>
        <time>2012-02-04T09:21:15Z</time>
      </trkpt>
      <trkpt lat="50.47713" lon="1.8265">
        <ele>115.7</ele>
        <time>2012-02-04T09:21:17Z</time>
      </trkpt>
      <trkpt lat="50.47714" lon="1.82657">
        <ele>116.2</ele>
        <time>2012-02-04T09:21:19Z</time>
      </trkpt>
      <trkpt lat="50.47716" lon="1.82664">
        <ele>116.4</ele>
        <time>2012-02-04T09:21:21Z</time>
      </trkpt>
      <trkpt lat="50.47718" lon="1.82673">
        <ele>116.9</ele>
        <time>2012-02-04T09:21:24Z</time>
      </trkpt>
      <trkpt lat="50.4772" lon="1.8268">
        <ele>117.1</ele>
        <time>2012-02-04T09:21:26Z</time>
      </trkpt>
      <trkpt lat="50.47722" lon="1.82687">
        <ele>117.7</ele>
        <time>2012-02-04T09:21:28Z</time>
      </trkpt>
      <trkpt lat="50.47723" lon="1.82693">
        <ele>118.2</ele>
        <time>2012-02-04T09:21:30Z</time>
      </trkpt>
      <trkpt lat="50.47725" lon="1.827">
        <ele>118.9</ele>
        <time>2012-02-04T09:21:32Z</time>
      </trkpt>
      <trkpt lat="50.47727" lon="1.82706">
        <ele>119.5</ele>
        <time>2012-02-04T09:21:34Z</time>
      </trkpt>
      <trkpt lat="50.47728" lon="1.82713">
        <ele>120.2</ele>
        <time>2012-02-04T09:21:36Z</time>
      </trkpt>
      <trkpt lat="50.47731" lon="1.82723">
        <ele>120.9</ele>
        <time>2012-02-04T09:21:39Z</time>
      </trkpt>
      <trkpt lat="50.47732" lon="1.8273">
        <ele>121</ele>
        <time>2012-02-04T09:21:41Z</time>
      </trkpt>
      <trkpt lat="50.47734" lon="1.82736">
        <ele>121.8</ele>
        <time>2012-02-04T09:21:43Z</time>
      </trkpt>
      <trkpt lat="50.47736" lon="1.82743">
        <ele>121.8</ele>
        <time>2012-02-04T09:21:45Z</time>
      </trkpt>
      <trkpt lat="50.47739" lon="1.82752">
        <ele>122.1</ele>
        <time>2012-02-04T09:21:48Z</time>
      </trkpt>
      <trkpt lat="50.4774" lon="1.82759">
        <ele>122.1</ele>
        <time>2012-02-04T09:21:50Z</time>
      </trkpt>
      <trkpt lat="50.47742" lon="1.82766">
        <ele>122.4</ele>
        <time>2012-02-04T09:21:52Z</time>
      </trkpt>
      <trkpt lat="50.47744" lon="1.82773">
        <ele>122.5</ele>
        <time>2012-02-04T09:21:54Z</time>
      </trkpt>
      <trkpt lat="50.47745" lon="1.8278">
        <ele>122.7</ele>
        <time>2012-02-04T09:21:56Z</time>
      </trkpt>
      <trkpt lat="50.47747" lon="1.82787">
        <ele>123</ele>
        <time>2012-02-04T09:21:58Z</time>
      </trkpt>
      <trkpt lat="50.47748" lon="1.82794">
        <ele>123.2</ele>
        <time>2012-02-04T09:22:00Z</time>
      </trkpt>
      <trkpt lat="50.4775" lon="1.82801">
        <ele>123.6</ele>
        <time>2012-02-04T09:22:02Z</time>
      </trkpt>
      <trkpt lat="50.47752" lon="1.82808">
        <ele>123.8</ele>
        <time>2012-02-04T09:22:04Z</time>
      </trkpt>
      <trkpt lat="50.47753" lon="1.82815">
        <ele>123.9</ele>
        <time>2012-02-04T09:22:06Z</time>
      </trkpt>
      <trkpt lat="50.47755" lon="1.82822">
        <ele>124.8</ele>
        <time>2012-02-04T09:22:08Z</time>
      </trkpt>
      <trkpt lat="50.47757" lon="1.82829">
        <ele>125.5</ele>
        <time>2012-02-04T09:22:10Z</time>
      </trkpt>
      <trkpt lat="50.47759" lon="1.82836">
        <ele>125.7</ele>
        <time>2012-02-04T09:22:12Z</time>
      </trkpt>
      <trkpt lat="50.4776" lon="1.82843">
        <ele>125.9</ele>
        <time>2012-02-04T09:22:14Z</time>
      </trkpt>
      <trkpt lat="50.47763" lon="1.82851">
        <ele>126.5</ele>
        <time>2012-02-04T09:22:16Z</time>
      </trkpt>
      <trkpt lat="50.47765" lon="1.82858">
        <ele>126.5</ele>
        <time>2012-02-04T09:22:18Z</time>
      </trkpt>
      <trkpt lat="50.47767" lon="1.82866">
        <ele>126.8</ele>
        <time>2012-02-04T09:22:20Z</time>
      </trkpt>
      <trkpt lat="50.47768" lon="1.82873">
        <ele>126.9</ele>
        <time>2012-02-04T09:22:22Z</time>
      </trkpt>
      <trkpt lat="50.47769" lon="1.82881">
        <ele>126.4</ele>
        <time>2012-02-04T09:22:24Z</time>
      </trkpt>
      <trkpt lat="50.47771" lon="1.82888">
        <ele>126</ele>
        <time>2012-02-04T09:22:26Z</time>
      </trkpt>
      <trkpt lat="50.47772" lon="1.82896">
        <ele>125.8</ele>
        <time>2012-02-04T09:22:28Z</time>
      </trkpt>
      <trkpt lat="50.47774" lon="1.82904">
        <ele>125.7</ele>
        <time>2012-02-04T09:22:30Z</time>
      </trkpt>
      <trkpt lat="50.47776" lon="1.82911">
        <ele>125.8</ele>
        <time>2012-02-04T09:22:32Z</time>
      </trkpt>
      <trkpt lat="50.47777" lon="1.82918">
        <ele>125.9</ele>
        <time>2012-02-04T09:22:34Z</time>
      </trkpt>
      <trkpt lat="50.47779" lon="1.82926">
        <ele>125.9</ele>
        <time>2012-02-04T09:22:36Z</time>
      </trkpt>
      <trkpt lat="50.4778" lon="1.82933">
        <ele>125.6</ele>
        <time>2012-02-04T09:22:38Z</time>
      </trkpt>
      <trkpt lat="50.47782" lon="1.8294">
        <ele>125.8</ele>
        <time>2012-02-04T09:22:40Z</time>
      </trkpt>
      <trkpt lat="50.47783" lon="1.82947">
        <ele>126.3</ele>
        <time>2012-02-04T09:22:42Z</time>
      </trkpt>
      <trkpt lat="50.47785" lon="1.82955">
        <ele>126.4</ele>
        <time>2012-02-04T09:22:44Z</time>
      </trkpt>
      <trkpt lat="50.47787" lon="1.82964">
        <ele>126.6</ele>
        <time>2012-02-04T09:22:46Z</time>
      </trkpt>
      <trkpt lat="50.4779" lon="1.82974">
        <ele>126.8</ele>
        <time>2012-02-04T09:22:48Z</time>
      </trkpt>
      <trkpt lat="50.47792" lon="1.82985">
        <ele>127.3</ele>
        <time>2012-02-04T09:22:50Z</time>
      </trkpt>
      <trkpt lat="50.47794" lon="1.82995">
        <ele>127.3</ele>
        <time>2012-02-04T09:22:52Z</time>
      </trkpt>
      <trkpt lat="50.47797" lon="1.83005">
        <ele>128</ele>
        <time>2012-02-04T09:22:54Z</time>
      </trkpt>
      <trkpt lat="50.47799" lon="1.83014">
        <ele>128</ele>
        <time>2012-02-04T09:22:56Z</time>
      </trkpt>
      <trkpt lat="50.47802" lon="1.83024">
        <ele>128</ele>
        <time>2012-02-04T09:22:58Z</time>
      </trkpt>
      <trkpt lat="50.47805" lon="1.83033">
        <ele>127.8</ele>
        <time>2012-02-04T09:23:00Z</time>
      </trkpt>
      <trkpt lat="50.47807" lon="1.83043">
        <ele>128</ele>
        <time>2012-02-04T09:23:02Z</time>
      </trkpt>
      <trkpt lat="50.4781" lon="1.83053">
        <ele>128.8</ele>
        <time>2012-02-04T09:23:04Z</time>
      </trkpt>
      <trkpt lat="50.47813" lon="1.83063">
        <ele>128.8</ele>
        <time>2012-02-04T09:23:06Z</time>
      </trkpt>
      <trkpt lat="50.47816" lon="1.83072">
        <ele>129</ele>
        <time>2012-02-04T09:23:08Z</time>
      </trkpt>
      <trkpt lat="50.47818" lon="1.83081">
        <ele>129</ele>
        <time>2012-02-04T09:23:10Z</time>
      </trkpt>
      <trkpt lat="50.47821" lon="1.83091">
        <ele>129.2</ele>
        <time>2012-02-04T09:23:12Z</time>
      </trkpt>
      <trkpt lat="50.47823" lon="1.83101">
        <ele>129.6</ele>
        <time>2012-02-04T09:23:14Z</time>
      </trkpt>
      <trkpt lat="50.47826" lon="1.83111">
        <ele>129.5</ele>
        <time>2012-02-04T09:23:16Z</time>
      </trkpt>
      <trkpt lat="50.4783" lon="1.83121">
        <ele>129.9</ele>
        <time>2012-02-04T09:23:18Z</time>
      </trkpt>
      <trkpt lat="50.47832" lon="1.83131">
        <ele>130.4</ele>
        <time>2012-02-04T09:23:20Z</time>
      </trkpt>
      <trkpt lat="50.47836" lon="1.8314">
        <ele>130.5</ele>
        <time>2012-02-04T09:23:22Z</time>
      </trkpt>
      <trkpt lat="50.47838" lon="1.8315">
        <ele>130.1</ele>
        <time>2012-02-04T09:23:24Z</time>
      </trkpt>
      <trkpt lat="50.47841" lon="1.8316">
        <ele>130.1</ele>
        <time>2012-02-04T09:23:26Z</time>
      </trkpt>
      <trkpt lat="50.47844" lon="1.8317">
        <ele>130</ele>
        <time>2012-02-04T09:23:28Z</time>
      </trkpt>
      <trkpt lat="50.47846" lon="1.8318">
        <ele>129.8</ele>
        <time>2012-02-04T09:23:30Z</time>
      </trkpt>
      <trkpt lat="50.47849" lon="1.83191">
        <ele>129.5</ele>
        <time>2012-02-04T09:23:32Z</time>
      </trkpt>
      <trkpt lat="50.47852" lon="1.83201">
        <ele>129.4</ele>
        <time>2012-02-04T09:23:34Z</time>
      </trkpt>
      <trkpt lat="50.47855" lon="1.83211">
        <ele>129.3</ele>
        <time>2012-02-04T09:23:36Z</time>
      </trkpt>
      <trkpt lat="50.47858" lon="1.8322">
        <ele>129.2</ele>
        <time>2012-02-04T09:23:38Z</time>
      </trkpt>
      <trkpt lat="50.4786" lon="1.8323">
        <ele>129.3</ele>
        <time>2012-02-04T09:23:40Z</time>
      </trkpt>
      <trkpt lat="50.47862" lon="1.83239">
        <ele>129.4</ele>
        <time>2012-02-04T09:23:42Z</time>
      </trkpt>
      <trkpt lat="50.47864" lon="1.83248">
        <ele>129.4</ele>
        <time>2012-02-04T09:23:44Z</time>
      </trkpt>
      <trkpt lat="50.47866" lon="1.83257">
        <ele>129.7</ele>
        <time>2012-02-04T09:23:46Z</time>
      </trkpt>
      <trkpt lat="50.47869" lon="1.83266">
        <ele>129.8</ele>
        <time>2012-02-04T09:23:48Z</time>
      </trkpt>
      <trkpt lat="50.47871" lon="1.83273">
        <ele>129.8</ele>
        <time>2012-02-04T09:23:50Z</time>
      </trkpt>
      <trkpt lat="50.47874" lon="1.83281">
        <ele>130.3</ele>
        <time>2012-02-04T09:23:52Z</time>
      </trkpt>
      <trkpt lat="50.47876" lon="1.83289">
        <ele>131</ele>
        <time>2012-02-04T09:23:54Z</time>
      </trkpt>
      <trkpt lat="50.47878" lon="1.83296">
        <ele>130.7</ele>
        <time>2012-02-04T09:23:56Z</time>
      </trkpt>
      <trkpt lat="50.4788" lon="1.83303">
        <ele>130.3</ele>
        <time>2012-02-04T09:23:58Z</time>
      </trkpt>
      <trkpt lat="50.47882" lon="1.83311">
        <ele>129.9</ele>
        <time>2012-02-04T09:24:00Z</time>
      </trkpt>
      <trkpt lat="50.47884" lon="1.83319">
        <ele>130.1</ele>
        <time>2012-02-04T09:24:02Z</time>
      </trkpt>
      <trkpt lat="50.47885" lon="1.83326">
        <ele>129.6</ele>
        <time>2012-02-04T09:24:04Z</time>
      </trkpt>
      <trkpt lat="50.47888" lon="1.83333">
        <ele>129.8</ele>
        <time>2012-02-04T09:24:06Z</time>
      </trkpt>
      <trkpt lat="50.4789" lon="1.83341">
        <ele>129.7</ele>
        <time>2012-02-04T09:24:08Z</time>
      </trkpt>
      <trkpt lat="50.47892" lon="1.83348">
        <ele>129.3</ele>
        <time>2012-02-04T09:24:10Z</time>
      </trkpt>
      <trkpt lat="50.47894" lon="1.83355">
        <ele>129.2</ele>
        <time>2012-02-04T09:24:12Z</time>
      </trkpt>
      <trkpt lat="50.47896" lon="1.83363">
        <ele>129.4</ele>
        <time>2012-02-04T09:24:14Z</time>
      </trkpt>
      <trkpt lat="50.47899" lon="1.8337">
        <ele>129.1</ele>
        <time>2012-02-04T09:24:16Z</time>
      </trkpt>
      <trkpt lat="50.47901" lon="1.83378">
        <ele>129.1</ele>
        <time>2012-02-04T09:24:18Z</time>
      </trkpt>
      <trkpt lat="50.47903" lon="1.83386">
        <ele>128.9</ele>
        <time>2012-02-04T09:24:20Z</time>
      </trkpt>
      <trkpt lat="50.47906" lon="1.83393">
        <ele>128.7</ele>
        <time>2012-02-04T09:24:22Z</time>
      </trkpt>
      <trkpt lat="50.47909" lon="1.83401">
        <ele>129.2</ele>
        <time>2012-02-04T09:24:24Z</time>
      </trkpt>
      <trkpt lat="50.47911" lon="1.83409">
        <ele>129</ele>
        <time>2012-02-04T09:24:26Z</time>
      </trkpt>
      <trkpt lat="50.47913" lon="1.83416">
        <ele>129.4</ele>
        <time>2012-02-04T09:24:28Z</time>
      </trkpt>
      <trkpt lat="50.47915" lon="1.83424">
        <ele>129.5</ele>
        <time>2012-02-04T09:24:30Z</time>
      </trkpt>
      <trkpt lat="50.47918" lon="1.83432">
        <ele>129.4</ele>
        <time>2012-02-04T09:24:32Z</time>
      </trkpt>
      <trkpt lat="50.4792" lon="1.83439">
        <ele>129.6</ele>
        <time>2012-02-04T09:24:34Z</time>
      </trkpt>
      <trkpt lat="50.47922" lon="1.83447">
        <ele>129.6</ele>
        <time>2012-02-04T09:24:36Z</time>
      </trkpt>
      <trkpt lat="50.47925" lon="1.83456">
        <ele>129.2</ele>
        <time>2012-02-04T09:24:38Z</time>
      </trkpt>
      <trkpt lat="50.47927" lon="1.83464">
        <ele>129.2</ele>
        <time>2012-02-04T09:24:40Z</time>
      </trkpt>
      <trkpt lat="50.47929" lon="1.83472">
        <ele>129.1</ele>
        <time>2012-02-04T09:24:42Z</time>
      </trkpt>
      <trkpt lat="50.47932" lon="1.8348">
        <ele>129.1</ele>
        <time>2012-02-04T09:24:44Z</time>
      </trkpt>
      <trkpt lat="50.47935" lon="1.83488">
        <ele>129.3</ele>
        <time>2012-02-04T09:24:46Z</time>
      </trkpt>
      <trkpt lat="50.47937" lon="1.83496">
        <ele>129</ele>
        <time>2012-02-04T09:24:48Z</time>
      </trkpt>
      <trkpt lat="50.4794" lon="1.83503">
        <ele>129.1</ele>
        <time>2012-02-04T09:24:50Z</time>
      </trkpt>
      <trkpt lat="50.47942" lon="1.83511">
        <ele>129</ele>
        <time>2012-02-04T09:24:52Z</time>
      </trkpt>
      <trkpt lat="50.47945" lon="1.83519">
        <ele>129.2</ele>
        <time>2012-02-04T09:24:54Z</time>
      </trkpt>
      <trkpt lat="50.47948" lon="1.83527">
        <ele>129.5</ele>
        <time>2012-02-04T09:24:56Z</time>
      </trkpt>
      <trkpt lat="50.4795" lon="1.83534">
        <ele>129.8</ele>
        <time>2012-02-04T09:24:58Z</time>
      </trkpt>
      <trkpt lat="50.47953" lon="1.83542">
        <ele>130.1</ele>
        <time>2012-02-04T09:25:00Z</time>
      </trkpt>
      <trkpt lat="50.47955" lon="1.8355">
        <ele>130.6</ele>
        <time>2012-02-04T09:25:02Z</time>
      </trkpt>
      <trkpt lat="50.47958" lon="1.83557">
        <ele>130.9</ele>
        <time>2012-02-04T09:25:04Z</time>
      </trkpt>
      <trkpt lat="50.4796" lon="1.83564">
        <ele>131.3</ele>
        <time>2012-02-04T09:25:06Z</time>
      </trkpt>
      <trkpt lat="50.47963" lon="1.83572">
        <ele>131.4</ele>
        <time>2012-02-04T09:25:08Z</time>
      </trkpt>
      <trkpt lat="50.47965" lon="1.8358">
        <ele>131.4</ele>
        <time>2012-02-04T09:25:10Z</time>
      </trkpt>
      <trkpt lat="50.47968" lon="1.83589">
        <ele>131.4</ele>
        <time>2012-02-04T09:25:12Z</time>
      </trkpt>
      <trkpt lat="50.47971" lon="1.83597">
        <ele>131.1</ele>
        <time>2012-02-04T09:25:14Z</time>
      </trkpt>
      <trkpt lat="50.47974" lon="1.83606">
        <ele>131</ele>
        <time>2012-02-04T09:25:16Z</time>
      </trkpt>
      <trkpt lat="50.47977" lon="1.83615">
        <ele>131.5</ele>
        <time>2012-02-04T09:25:18Z</time>
      </trkpt>
      <trkpt lat="50.4798" lon="1.83624">
        <ele>130.9</ele>
        <time>2012-02-04T09:25:20Z</time>
      </trkpt>
      <trkpt lat="50.47982" lon="1.83633">
        <ele>130.9</ele>
        <time>2012-02-04T09:25:22Z</time>
      </trkpt>
      <trkpt lat="50.47986" lon="1.83642">
        <ele>130.8</ele>
        <time>2012-02-04T09:25:24Z</time>
      </trkpt>
      <trkpt lat="50.47988" lon="1.83651">
        <ele>130.7</ele>
        <time>2012-02-04T09:25:26Z</time>
      </trkpt>
      <trkpt lat="50.47992" lon="1.83661">
        <ele>131.1</ele>
        <time>2012-02-04T09:25:28Z</time>
      </trkpt>
      <trkpt lat="50.47994" lon="1.8367">
        <ele>131.1</ele>
        <time>2012-02-04T09:25:30Z</time>
      </trkpt>
      <trkpt lat="50.47997" lon="1.8368">
        <ele>131.2</ele>
        <time>2012-02-04T09:25:32Z</time>
      </trkpt>
      <trkpt lat="50.48" lon="1.8369">
        <ele>130.9</ele>
        <time>2012-02-04T09:25:34Z</time>
      </trkpt>
      <trkpt lat="50.48004" lon="1.837">
        <ele>130.8</ele>
        <time>2012-02-04T09:25:36Z</time>
      </trkpt>
      <trkpt lat="50.48007" lon="1.8371">
        <ele>131</ele>
        <time>2012-02-04T09:25:38Z</time>
      </trkpt>
      <trkpt lat="50.4801" lon="1.8372">
        <ele>131</ele>
        <time>2012-02-04T09:25:40Z</time>
      </trkpt>
      <trkpt lat="50.48014" lon="1.83731">
        <ele>131.3</ele>
        <time>2012-02-04T09:25:42Z</time>
      </trkpt>
      <trkpt lat="50.48017" lon="1.83742">
        <ele>131.2</ele>
        <time>2012-02-04T09:25:44Z</time>
      </trkpt>
      <trkpt lat="50.4802" lon="1.83751">
        <ele>131.2</ele>
        <time>2012-02-04T09:25:46Z</time>
      </trkpt>
      <trkpt lat="50.48024" lon="1.83762">
        <ele>131.2</ele>
        <time>2012-02-04T09:25:48Z</time>
      </trkpt>
      <trkpt lat="50.48027" lon="1.83772">
        <ele>131.7</ele>
        <time>2012-02-04T09:25:50Z</time>
      </trkpt>
      <trkpt lat="50.4803" lon="1.83782">
        <ele>132.1</ele>
        <time>2012-02-04T09:25:52Z</time>
      </trkpt>
      <trkpt lat="50.48034" lon="1.83793">
        <ele>132.2</ele>
        <time>2012-02-04T09:25:54Z</time>
      </trkpt>
      <trkpt lat="50.48037" lon="1.83803">
        <ele>132.5</ele>
        <time>2012-02-04T09:25:56Z</time>
      </trkpt>
      <trkpt lat="50.4804" lon="1.83814">
        <ele>132.7</ele>
        <time>2012-02-04T09:25:58Z</time>
      </trkpt>
      <trkpt lat="50.48044" lon="1.83825">
        <ele>132.9</ele>
        <time>2012-02-04T09:26:00Z</time>
      </trkpt>
      <trkpt lat="50.48047" lon="1.83836">
        <ele>132.9</ele>
        <time>2012-02-04T09:26:02Z</time>
      </trkpt>
      <trkpt lat="50.48051" lon="1.83847">
        <ele>133</ele>
        <time>2012-02-04T09:26:04Z</time>
      </trkpt>
      <trkpt lat="50.48054" lon="1.83858">
        <ele>133.2</ele>
        <time>2012-02-04T09:26:06Z</time>
      </trkpt>
      <trkpt lat="50.48058" lon="1.83868">
        <ele>133.5</ele>
        <time>2012-02-04T09:26:08Z</time>
      </trkpt>
      <trkpt lat="50.48061" lon="1.83879">
        <ele>133.8</ele>
        <time>2012-02-04T09:26:10Z</time>
      </trkpt>
      <trkpt lat="50.48064" lon="1.8389">
        <ele>133.9</ele>
        <time>2012-02-04T09:26:12Z</time>
      </trkpt>
      <trkpt lat="50.48067" lon="1.839">
        <ele>134.1</ele>
        <time>2012-02-04T09:26:14Z</time>
      </trkpt>
      <trkpt lat="50.4807" lon="1.83911">
        <ele>134.4</ele>
        <time>2012-02-04T09:26:16Z</time>
      </trkpt>
      <trkpt lat="50.48074" lon="1.83922">
        <ele>134.3</ele>
        <time>2012-02-04T09:26:18Z</time>
      </trkpt>
      <trkpt lat="50.48078" lon="1.83933">
        <ele>133.9</ele>
        <time>2012-02-04T09:26:20Z</time>
      </trkpt>
      <trkpt lat="50.48081" lon="1.83945">
        <ele>133.4</ele>
        <time>2012-02-04T09:26:22Z</time>
      </trkpt>
      <trkpt lat="50.48085" lon="1.83956">
        <ele>132.7</ele>
        <time>2012-02-04T09:26:24Z</time>
      </trkpt>
      <trkpt lat="50.48089" lon="1.83968">
        <ele>132.5</ele>
        <time>2012-02-04T09:26:26Z</time>
      </trkpt>
      <trkpt lat="50.48093" lon="1.83979">
        <ele>132.7</ele>
        <time>2012-02-04T09:26:28Z</time>
      </trkpt>
      <trkpt lat="50.48097" lon="1.8399">
        <ele>132.5</ele>
        <time>2012-02-04T09:26:30Z</time>
      </trkpt>
      <trkpt lat="50.481" lon="1.84001">
        <ele>132.3</ele>
        <time>2012-02-04T09:26:32Z</time>
      </trkpt>
      <trkpt lat="50.48104" lon="1.84012">
        <ele>131.9</ele>
        <time>2012-02-04T09:26:34Z</time>
      </trkpt>
      <trkpt lat="50.48108" lon="1.84024">
        <ele>131.8</ele>
        <time>2012-02-04T09:26:36Z</time>
      </trkpt>
      <trkpt lat="50.48113" lon="1.84034">
        <ele>132.2</ele>
        <time>2012-02-04T09:26:38Z</time>
      </trkpt>
      <trkpt lat="50.48116" lon="1.84044">
        <ele>132.2</ele>
        <time>2012-02-04T09:26:40Z</time>
      </trkpt>
      <trkpt lat="50.4812" lon="1.84054">
        <ele>132.4</ele>
        <time>2012-02-04T09:26:42Z</time>
      </trkpt>
      <trkpt lat="50.48123" lon="1.84063">
        <ele>131.8</ele>
        <time>2012-02-04T09:26:44Z</time>
      </trkpt>
      <trkpt lat="50.48127" lon="1.84073">
        <ele>131.6</ele>
        <time>2012-02-04T09:26:46Z</time>
      </trkpt>
      <trkpt lat="50.48129" lon="1.8408">
        <ele>131.4</ele>
        <time>2012-02-04T09:26:47Z</time>
      </trkpt>
      <trkpt lat="50.48131" lon="1.84087">
        <ele>131.8</ele>
        <time>2012-02-04T09:26:48Z</time>
      </trkpt>
      <trkpt lat="50.48133" lon="1.84093">
        <ele>132.3</ele>
        <time>2012-02-04T09:26:49Z</time>
      </trkpt>
      <trkpt lat="50.48137" lon="1.84105">
        <ele>131.8</ele>
        <time>2012-02-04T09:26:51Z</time>
      </trkpt>
      <trkpt lat="50.48141" lon="1.84117">
        <ele>132.1</ele>
        <time>2012-02-04T09:26:53Z</time>
      </trkpt>
      <trkpt lat="50.48145" lon="1.84128">
        <ele>132.2</ele>
        <time>2012-02-04T09:26:55Z</time>
      </trkpt>
      <trkpt lat="50.48147" lon="1.84135">
        <ele>132.5</ele>
        <time>2012-02-04T09:26:56Z</time>
      </trkpt>
      <trkpt lat="50.48152" lon="1.84146">
        <ele>132.4</ele>
        <time>2012-02-04T09:26:58Z</time>
      </trkpt>
      <trkpt lat="50.48156" lon="1.84158">
        <ele>132.4</ele>
        <time>2012-02-04T09:27:00Z</time>
      </trkpt>
      <trkpt lat="50.48158" lon="1.84164">
        <ele>132.5</ele>
        <time>2012-02-04T09:27:01Z</time>
      </trkpt>
      <trkpt lat="50.4816" lon="1.8417">
        <ele>132.4</ele>
        <time>2012-02-04T09:27:02Z</time>
      </trkpt>
      <trkpt lat="50.48163" lon="1.84177">
        <ele>132.2</ele>
        <time>2012-02-04T09:27:03Z</time>
      </trkpt>
      <trkpt lat="50.48166" lon="1.84183">
        <ele>132.1</ele>
        <time>2012-02-04T09:27:04Z</time>
      </trkpt>
      <trkpt lat="50.48168" lon="1.8419">
        <ele>132.5</ele>
        <time>2012-02-04T09:27:05Z</time>
      </trkpt>
      <trkpt lat="50.48171" lon="1.84196">
        <ele>132.4</ele>
        <time>2012-02-04T09:27:06Z</time>
      </trkpt>
      <trkpt lat="50.48174" lon="1.84202">
        <ele>132.1</ele>
        <time>2012-02-04T09:27:07Z</time>
      </trkpt>
      <trkpt lat="50.48179" lon="1.84212">
        <ele>132.1</ele>
        <time>2012-02-04T09:27:09Z</time>
      </trkpt>
      <trkpt lat="50.48182" lon="1.84218">
        <ele>132.4</ele>
        <time>2012-02-04T09:27:10Z</time>
      </trkpt>
      <trkpt lat="50.48185" lon="1.84224">
        <ele>131.8</ele>
        <time>2012-02-04T09:27:11Z</time>
      </trkpt>
      <trkpt lat="50.48188" lon="1.84229">
        <ele>131.7</ele>
        <time>2012-02-04T09:27:12Z</time>
      </trkpt>
      <trkpt lat="50.48193" lon="1.84241">
        <ele>131.6</ele>
        <time>2012-02-04T09:27:14Z</time>
      </trkpt>
      <trkpt lat="50.48196" lon="1.84254">
        <ele>131.9</ele>
        <time>2012-02-04T09:27:16Z</time>
      </trkpt>
      <trkpt lat="50.48198" lon="1.84261">
        <ele>132.3</ele>
        <time>2012-02-04T09:27:17Z</time>
      </trkpt>
      <trkpt lat="50.482" lon="1.84267">
        <ele>132.6</ele>
        <time>2012-02-04T09:27:18Z</time>
      </trkpt>
      <trkpt lat="50.48204" lon="1.84279">
        <ele>132.4</ele>
        <time>2012-02-04T09:27:20Z</time>
      </trkpt>
      <trkpt lat="50.48207" lon="1.84292">
        <ele>133.1</ele>
        <time>2012-02-04T09:27:22Z</time>
      </trkpt>
      <trkpt lat="50.4821" lon="1.84304">
        <ele>132.8</ele>
        <time>2012-02-04T09:27:24Z</time>
      </trkpt>
      <trkpt lat="50.48213" lon="1.84317">
        <ele>133.1</ele>
        <time>2012-02-04T09:27:26Z</time>
      </trkpt>
      <trkpt lat="50.48215" lon="1.84329">
        <ele>131.5</ele>
        <time>2012-02-04T09:27:28Z</time>
      </trkpt>
      <trkpt lat="50.48216" lon="1.84341">
        <ele>129.9</ele>
        <time>2012-02-04T09:27:30Z</time>
      </trkpt>
      <trkpt lat="50.48218" lon="1.84353">
        <ele>129</ele>
        <time>2012-02-04T09:27:32Z</time>
      </trkpt>
      <trkpt lat="50.4822" lon="1.84364">
        <ele>128.4</ele>
        <time>2012-02-04T09:27:34Z</time>
      </trkpt>
      <trkpt lat="50.48222" lon="1.8437">
        <ele>128.5</ele>
        <time>2012-02-04T09:27:35Z</time>
      </trkpt>
      <trkpt lat="50.48224" lon="1.84383">
        <ele>128.2</ele>
        <time>2012-02-04T09:27:37Z</time>
      </trkpt>
      <trkpt lat="50.48226" lon="1.84396">
        <ele>128.2</ele>
        <time>2012-02-04T09:27:39Z</time>
      </trkpt>
      <trkpt lat="50.4823" lon="1.84408">
        <ele>130.3</ele>
        <time>2012-02-04T09:27:41Z</time>
      </trkpt>
      <trkpt lat="50.48232" lon="1.84415">
        <ele>130.6</ele>
        <time>2012-02-04T09:27:42Z</time>
      </trkpt>
      <trkpt lat="50.48234" lon="1.84427">
        <ele>130.8</ele>
        <time>2012-02-04T09:27:44Z</time>
      </trkpt>
      <trkpt lat="50.48235" lon="1.84439">
        <ele>130.7</ele>
        <time>2012-02-04T09:27:46Z</time>
      </trkpt>
      <trkpt lat="50.48237" lon="1.84452">
        <ele>130.6</ele>
        <time>2012-02-04T09:27:48Z</time>
      </trkpt>
      <trkpt lat="50.48239" lon="1.84458">
        <ele>130.9</ele>
        <time>2012-02-04T09:27:49Z</time>
      </trkpt>
      <trkpt lat="50.48242" lon="1.84471">
        <ele>131.6</ele>
        <time>2012-02-04T09:27:51Z</time>
      </trkpt>
      <trkpt lat="50.48244" lon="1.84485">
        <ele>131.3</ele>
        <time>2012-02-04T09:27:53Z</time>
      </trkpt>
      <trkpt lat="50.48244" lon="1.84496">
        <ele>129.8</ele>
        <time>2012-02-04T09:27:55Z</time>
      </trkpt>
      <trkpt lat="50.48242" lon="1.84504">
        <ele>129</ele>
        <time>2012-02-04T09:27:56Z</time>
      </trkpt>
      <trkpt lat="50.48241" lon="1.84512">
        <ele>128.4</ele>
        <time>2012-02-04T09:27:57Z</time>
      </trkpt>
      <trkpt lat="50.48238" lon="1.84522">
        <ele>127.8</ele>
        <time>2012-02-04T09:27:58Z</time>
      </trkpt>
      <trkpt lat="50.48234" lon="1.84532">
        <ele>127.4</ele>
        <time>2012-02-04T09:27:59Z</time>
      </trkpt>
      <trkpt lat="50.48227" lon="1.84546">
        <ele>126.9</ele>
        <time>2012-02-04T09:28:00Z</time>
      </trkpt>
      <trkpt lat="50.48221" lon="1.84555">
        <ele>126.4</ele>
        <time>2012-02-04T09:28:01Z</time>
      </trkpt>
      <trkpt lat="50.48247" lon="1.84543">
        <ele>130.8</ele>
        <time>2012-02-04T09:28:02Z</time>
      </trkpt>
      <trkpt lat="50.48249" lon="1.84551">
        <ele>131.1</ele>
        <time>2012-02-04T09:28:04Z</time>
      </trkpt>
      <trkpt lat="50.48254" lon="1.84562">
        <ele>132.5</ele>
        <time>2012-02-04T09:28:06Z</time>
      </trkpt>
      <trkpt lat="50.48257" lon="1.84568">
        <ele>134.6</ele>
        <time>2012-02-04T09:28:07Z</time>
      </trkpt>
      <trkpt lat="50.4826" lon="1.84579">
        <ele>135.2</ele>
        <time>2012-02-04T09:28:09Z</time>
      </trkpt>
      <trkpt lat="50.48263" lon="1.84591">
        <ele>136.9</ele>
        <time>2012-02-04T09:28:11Z</time>
      </trkpt>
      <trkpt lat="50.48264" lon="1.84602">
        <ele>137.6</ele>
        <time>2012-02-04T09:28:13Z</time>
      </trkpt>
      <trkpt lat="50.48266" lon="1.84614">
        <ele>137.8</ele>
        <time>2012-02-04T09:28:15Z</time>
      </trkpt>
      <trkpt lat="50.48268" lon="1.84626">
        <ele>138.6</ele>
        <time>2012-02-04T09:28:17Z</time>
      </trkpt>
      <trkpt lat="50.48269" lon="1.84637">
        <ele>138.8</ele>
        <time>2012-02-04T09:28:19Z</time>
      </trkpt>
      <trkpt lat="50.4827" lon="1.84648">
        <ele>139.5</ele>
        <time>2012-02-04T09:28:21Z</time>
      </trkpt>
      <trkpt lat="50.48272" lon="1.84659">
        <ele>140</ele>
        <time>2012-02-04T09:28:23Z</time>
      </trkpt>
      <trkpt lat="50.48272" lon="1.84668">
        <ele>140.1</ele>
        <time>2012-02-04T09:28:25Z</time>
      </trkpt>
      <trkpt lat="50.48273" lon="1.84677">
        <ele>140.9</ele>
        <time>2012-02-04T09:28:27Z</time>
      </trkpt>
      <trkpt lat="50.48274" lon="1.84687">
        <ele>140.6</ele>
        <time>2012-02-04T09:28:29Z</time>
      </trkpt>
      <trkpt lat="50.48274" lon="1.84698">
        <ele>140.2</ele>
        <time>2012-02-04T09:28:31Z</time>
      </trkpt>
      <trkpt lat="50.48275" lon="1.8471">
        <ele>139.8</ele>
        <time>2012-02-04T09:28:33Z</time>
      </trkpt>
      <trkpt lat="50.48276" lon="1.84722">
        <ele>139.8</ele>
        <time>2012-02-04T09:28:35Z</time>
      </trkpt>
      <trkpt lat="50.48276" lon="1.84734">
        <ele>140.2</ele>
        <time>2012-02-04T09:28:37Z</time>
      </trkpt>
      <trkpt lat="50.48277" lon="1.84747">
        <ele>140.3</ele>
        <time>2012-02-04T09:28:39Z</time>
      </trkpt>
      <trkpt lat="50.48279" lon="1.84755">
        <ele>140.6</ele>
        <time>2012-02-04T09:28:40Z</time>
      </trkpt>
      <trkpt lat="50.48281" lon="1.8477">
        <ele>140.3</ele>
        <time>2012-02-04T09:28:42Z</time>
      </trkpt>
      <trkpt lat="50.48281" lon="1.84777">
        <ele>140.1</ele>
        <time>2012-02-04T09:28:43Z</time>
      </trkpt>
      <trkpt lat="50.48282" lon="1.84791">
        <ele>138.8</ele>
        <time>2012-02-04T09:28:45Z</time>
      </trkpt>
      <trkpt lat="50.48283" lon="1.84798">
        <ele>138.7</ele>
        <time>2012-02-04T09:28:46Z</time>
      </trkpt>
      <trkpt lat="50.48285" lon="1.84806">
        <ele>138.8</ele>
        <time>2012-02-04T09:28:47Z</time>
      </trkpt>
      <trkpt lat="50.48288" lon="1.84814">
        <ele>139.3</ele>
        <time>2012-02-04T09:28:48Z</time>
      </trkpt>
      <trkpt lat="50.48286" lon="1.84823">
        <ele>137.1</ele>
        <time>2012-02-04T09:28:49Z</time>
      </trkpt>
      <trkpt lat="50.48291" lon="1.84837">
        <ele>137</ele>
        <time>2012-02-04T09:28:51Z</time>
      </trkpt>
      <trkpt lat="50.48294" lon="1.84846">
        <ele>137.3</ele>
        <time>2012-02-04T09:28:52Z</time>
      </trkpt>
      <trkpt lat="50.48291" lon="1.84855">
        <ele>136.4</ele>
        <time>2012-02-04T09:28:53Z</time>
      </trkpt>
      <trkpt lat="50.48294" lon="1.84863">
        <ele>135.4</ele>
        <time>2012-02-04T09:28:54Z</time>
      </trkpt>
      <trkpt lat="50.48295" lon="1.84872">
        <ele>134.9</ele>
        <time>2012-02-04T09:28:55Z</time>
      </trkpt>
      <trkpt lat="50.48297" lon="1.84881">
        <ele>134.6</ele>
        <time>2012-02-04T09:28:56Z</time>
      </trkpt>
      <trkpt lat="50.48298" lon="1.84891">
        <ele>134.3</ele>
        <time>2012-02-04T09:28:57Z</time>
      </trkpt>
      <trkpt lat="50.483" lon="1.849">
        <ele>134</ele>
        <time>2012-02-04T09:28:58Z</time>
      </trkpt>
      <trkpt lat="50.48302" lon="1.84909">
        <ele>133.7</ele>
        <time>2012-02-04T09:28:59Z</time>
      </trkpt>
      <trkpt lat="50.48303" lon="1.84918">
        <ele>133</ele>
        <time>2012-02-04T09:29:00Z</time>
      </trkpt>
      <trkpt lat="50.48305" lon="1.84927">
        <ele>132.9</ele>
        <time>2012-02-04T09:29:01Z</time>
      </trkpt>
      <trkpt lat="50.48307" lon="1.84936">
        <ele>132.9</ele>
        <time>2012-02-04T09:29:02Z</time>
      </trkpt>
      <trkpt lat="50.4831" lon="1.84946">
        <ele>132.9</ele>
        <time>2012-02-04T09:29:03Z</time>
      </trkpt>
      <trkpt lat="50.48312" lon="1.84954">
        <ele>133.3</ele>
        <time>2012-02-04T09:29:04Z</time>
      </trkpt>
      <trkpt lat="50.48314" lon="1.84963">
        <ele>133.6</ele>
        <time>2012-02-04T09:29:05Z</time>
      </trkpt>
      <trkpt lat="50.48313" lon="1.84973">
        <ele>132.3</ele>
        <time>2012-02-04T09:29:06Z</time>
      </trkpt>
      <trkpt lat="50.48315" lon="1.84982">
        <ele>132</ele>
        <time>2012-02-04T09:29:07Z</time>
      </trkpt>
      <trkpt lat="50.48316" lon="1.84991">
        <ele>131.5</ele>
        <time>2012-02-04T09:29:08Z</time>
      </trkpt>
      <trkpt lat="50.48317" lon="1.85">
        <ele>131.2</ele>
        <time>2012-02-04T09:29:09Z</time>
      </trkpt>
      <trkpt lat="50.48318" lon="1.8501">
        <ele>131.3</ele>
        <time>2012-02-04T09:29:10Z</time>
      </trkpt>
      <trkpt lat="50.4832" lon="1.85018">
        <ele>131.4</ele>
        <time>2012-02-04T09:29:11Z</time>
      </trkpt>
      <trkpt lat="50.48321" lon="1.85028">
        <ele>131.5</ele>
        <time>2012-02-04T09:29:12Z</time>
      </trkpt>
      <trkpt lat="50.48322" lon="1.85037">
        <ele>131.7</ele>
        <time>2012-02-04T09:29:13Z</time>
      </trkpt>
      <trkpt lat="50.48324" lon="1.85046">
        <ele>131.6</ele>
        <time>2012-02-04T09:29:14Z</time>
      </trkpt>
      <trkpt lat="50.48325" lon="1.85056">
        <ele>132.1</ele>
        <time>2012-02-04T09:29:15Z</time>
      </trkpt>
      <trkpt lat="50.48326" lon="1.85064">
        <ele>132.5</ele>
        <time>2012-02-04T09:29:16Z</time>
      </trkpt>
      <trkpt lat="50.48326" lon="1.85073">
        <ele>132.3</ele>
        <time>2012-02-04T09:29:17Z</time>
      </trkpt>
      <trkpt lat="50.48327" lon="1.85084">
        <ele>132.2</ele>
        <time>2012-02-04T09:29:18Z</time>
      </trkpt>
      <trkpt lat="50.48323" lon="1.85092">
        <ele>131.8</ele>
        <time>2012-02-04T09:29:19Z</time>
      </trkpt>
      <trkpt lat="50.48322" lon="1.85103">
        <ele>130.4</ele>
        <time>2012-02-04T09:29:20Z</time>
      </trkpt>
      <trkpt lat="50.48322" lon="1.85114">
        <ele>130.1</ele>
        <time>2012-02-04T09:29:21Z</time>
      </trkpt>
      <trkpt lat="50.48322" lon="1.85124">
        <ele>130.3</ele>
        <time>2012-02-04T09:29:22Z</time>
      </trkpt>
      <trkpt lat="50.48323" lon="1.85134">
        <ele>129.8</ele>
        <time>2012-02-04T09:29:23Z</time>
      </trkpt>
      <trkpt lat="50.48323" lon="1.85144">
        <ele>130</ele>
        <time>2012-02-04T09:29:24Z</time>
      </trkpt>
      <trkpt lat="50.48322" lon="1.85154">
        <ele>128</ele>
        <time>2012-02-04T09:29:25Z</time>
      </trkpt>
      <trkpt lat="50.48322" lon="1.85164">
        <ele>127.4</ele>
        <time>2012-02-04T09:29:26Z</time>
      </trkpt>
      <trkpt lat="50.48323" lon="1.85173">
        <ele>127.8</ele>
        <time>2012-02-04T09:29:27Z</time>
      </trkpt>
      <trkpt lat="50.48322" lon="1.85182">
        <ele>126.6</ele>
        <time>2012-02-04T09:29:28Z</time>
      </trkpt>
      <trkpt lat="50.48323" lon="1.85191">
        <ele>125.6</ele>
        <time>2012-02-04T09:29:29Z</time>
      </trkpt>
      <trkpt lat="50.48323" lon="1.85201">
        <ele>125.3</ele>
        <time>2012-02-04T09:29:30Z</time>
      </trkpt>
      <trkpt lat="50.48325" lon="1.85211">
        <ele>125</ele>
        <time>2012-02-04T09:29:31Z</time>
      </trkpt>
      <trkpt lat="50.48326" lon="1.85222">
        <ele>123.2</ele>
        <time>2012-02-04T09:29:32Z</time>
      </trkpt>
      <trkpt lat="50.48327" lon="1.85231">
        <ele>122.5</ele>
        <time>2012-02-04T09:29:33Z</time>
      </trkpt>
      <trkpt lat="50.48329" lon="1.8524">
        <ele>122.5</ele>
        <time>2012-02-04T09:29:34Z</time>
      </trkpt>
      <trkpt lat="50.48331" lon="1.8525">
        <ele>122.5</ele>
        <time>2012-02-04T09:29:35Z</time>
      </trkpt>
      <trkpt lat="50.48334" lon="1.85257">
        <ele>122.1</ele>
        <time>2012-02-04T09:29:36Z</time>
      </trkpt>
      <trkpt lat="50.48337" lon="1.85266">
        <ele>121.5</ele>
        <time>2012-02-04T09:29:37Z</time>
      </trkpt>
      <trkpt lat="50.48338" lon="1.85273">
        <ele>120.8</ele>
        <time>2012-02-04T09:29:38Z</time>
      </trkpt>
      <trkpt lat="50.48339" lon="1.8528">
        <ele>120.6</ele>
        <time>2012-02-04T09:29:39Z</time>
      </trkpt>
      <trkpt lat="50.48341" lon="1.85287">
        <ele>120.5</ele>
        <time>2012-02-04T09:29:40Z</time>
      </trkpt>
      <trkpt lat="50.48342" lon="1.85294">
        <ele>120.5</ele>
        <time>2012-02-04T09:29:41Z</time>
      </trkpt>
      <trkpt lat="50.48343" lon="1.85301">
        <ele>120.6</ele>
        <time>2012-02-04T09:29:42Z</time>
      </trkpt>
      <trkpt lat="50.4834" lon="1.85308">
        <ele>118.5</ele>
        <time>2012-02-04T09:29:43Z</time>
      </trkpt>
      <trkpt lat="50.48339" lon="1.85316">
        <ele>118.1</ele>
        <time>2012-02-04T09:29:44Z</time>
      </trkpt>
      <trkpt lat="50.48337" lon="1.85323">
        <ele>117.8</ele>
        <time>2012-02-04T09:29:45Z</time>
      </trkpt>
      <trkpt lat="50.48335" lon="1.85332">
        <ele>117.7</ele>
        <time>2012-02-04T09:29:46Z</time>
      </trkpt>
      <trkpt lat="50.48331" lon="1.85341">
        <ele>117.4</ele>
        <time>2012-02-04T09:29:47Z</time>
      </trkpt>
      <trkpt lat="50.48329" lon="1.85349">
        <ele>117.6</ele>
        <time>2012-02-04T09:29:48Z</time>
      </trkpt>
      <trkpt lat="50.48325" lon="1.85357">
        <ele>116.4</ele>
        <time>2012-02-04T09:29:49Z</time>
      </trkpt>
      <trkpt lat="50.48322" lon="1.85364">
        <ele>115.7</ele>
        <time>2012-02-04T09:29:50Z</time>
      </trkpt>
      <trkpt lat="50.48318" lon="1.85372">
        <ele>115</ele>
        <time>2012-02-04T09:29:51Z</time>
      </trkpt>
      <trkpt lat="50.48314" lon="1.8538">
        <ele>114.3</ele>
        <time>2012-02-04T09:29:52Z</time>
      </trkpt>
      <trkpt lat="50.48311" lon="1.85388">
        <ele>113.1</ele>
        <time>2012-02-04T09:29:53Z</time>
      </trkpt>
      <trkpt lat="50.48309" lon="1.85396">
        <ele>112.6</ele>
        <time>2012-02-04T09:29:54Z</time>
      </trkpt>
      <trkpt lat="50.48307" lon="1.85405">
        <ele>111.4</ele>
        <time>2012-02-04T09:29:55Z</time>
      </trkpt>
      <trkpt lat="50.48304" lon="1.85414">
        <ele>110.7</ele>
        <time>2012-02-04T09:29:56Z</time>
      </trkpt>
      <trkpt lat="50.48302" lon="1.85424">
        <ele>110.7</ele>
        <time>2012-02-04T09:29:57Z</time>
      </trkpt>
      <trkpt lat="50.48301" lon="1.85434">
        <ele>109.9</ele>
        <time>2012-02-04T09:29:58Z</time>
      </trkpt>
      <trkpt lat="50.483" lon="1.85442">
        <ele>109.4</ele>
        <time>2012-02-04T09:29:59Z</time>
      </trkpt>
      <trkpt lat="50.48299" lon="1.85452">
        <ele>108.2</ele>
        <time>2012-02-04T09:30:00Z</time>
      </trkpt>
      <trkpt lat="50.48298" lon="1.85462">
        <ele>107.1</ele>
        <time>2012-02-04T09:30:01Z</time>
      </trkpt>
      <trkpt lat="50.48297" lon="1.8547">
        <ele>106.3</ele>
        <time>2012-02-04T09:30:02Z</time>
      </trkpt>
      <trkpt lat="50.48296" lon="1.85478">
        <ele>105.2</ele>
        <time>2012-02-04T09:30:03Z</time>
      </trkpt>
      <trkpt lat="50.48295" lon="1.85486">
        <ele>104.8</ele>
        <time>2012-02-04T09:30:04Z</time>
      </trkpt>
      <trkpt lat="50.48294" lon="1.85494">
        <ele>105</ele>
        <time>2012-02-04T09:30:05Z</time>
      </trkpt>
      <trkpt lat="50.48292" lon="1.85505">
        <ele>103.4</ele>
        <time>2012-02-04T09:30:07Z</time>
      </trkpt>
      <trkpt lat="50.48292" lon="1.85514">
        <ele>102.7</ele>
        <time>2012-02-04T09:30:09Z</time>
      </trkpt>
      <trkpt lat="50.48292" lon="1.85522">
        <ele>101.3</ele>
        <time>2012-02-04T09:30:13Z</time>
      </trkpt>
      <trkpt lat="50.48298" lon="1.85529">
        <ele>102.5</ele>
        <time>2012-02-04T09:30:19Z</time>
      </trkpt>
      <trkpt lat="50.48302" lon="1.85536">
        <ele>102.6</ele>
        <time>2012-02-04T09:30:21Z</time>
      </trkpt>
      <trkpt lat="50.48305" lon="1.85543">
        <ele>102.5</ele>
        <time>2012-02-04T09:30:22Z</time>
      </trkpt>
      <trkpt lat="50.48308" lon="1.8555">
        <ele>102.4</ele>
        <time>2012-02-04T09:30:23Z</time>
      </trkpt>
      <trkpt lat="50.48313" lon="1.85563">
        <ele>102.2</ele>
        <time>2012-02-04T09:30:25Z</time>
      </trkpt>
      <trkpt lat="50.48312" lon="1.85571">
        <ele>99.1</ele>
        <time>2012-02-04T09:30:26Z</time>
      </trkpt>
      <trkpt lat="50.48314" lon="1.85579">
        <ele>98.4</ele>
        <time>2012-02-04T09:30:27Z</time>
      </trkpt>
      <trkpt lat="50.48316" lon="1.85586">
        <ele>97.4</ele>
        <time>2012-02-04T09:30:28Z</time>
      </trkpt>
      <trkpt lat="50.48318" lon="1.85592">
        <ele>96.6</ele>
        <time>2012-02-04T09:30:29Z</time>
      </trkpt>
      <trkpt lat="50.48319" lon="1.856">
        <ele>96.6</ele>
        <time>2012-02-04T09:30:30Z</time>
      </trkpt>
      <trkpt lat="50.48322" lon="1.85606">
        <ele>96.3</ele>
        <time>2012-02-04T09:30:31Z</time>
      </trkpt>
      <trkpt lat="50.48323" lon="1.85613">
        <ele>96.4</ele>
        <time>2012-02-04T09:30:32Z</time>
      </trkpt>
      <trkpt lat="50.48325" lon="1.8562">
        <ele>96.3</ele>
        <time>2012-02-04T09:30:33Z</time>
      </trkpt>
      <trkpt lat="50.48327" lon="1.85626">
        <ele>96.2</ele>
        <time>2012-02-04T09:30:34Z</time>
      </trkpt>
      <trkpt lat="50.48329" lon="1.85633">
        <ele>96.2</ele>
        <time>2012-02-04T09:30:35Z</time>
      </trkpt>
      <trkpt lat="50.48335" lon="1.85639">
        <ele>97.8</ele>
        <time>2012-02-04T09:30:36Z</time>
      </trkpt>
      <trkpt lat="50.48338" lon="1.85646">
        <ele>98</ele>
        <time>2012-02-04T09:30:37Z</time>
      </trkpt>
      <trkpt lat="50.48342" lon="1.85653">
        <ele>97.6</ele>
        <time>2012-02-04T09:30:38Z</time>
      </trkpt>
      <trkpt lat="50.48346" lon="1.85659">
        <ele>97.6</ele>
        <time>2012-02-04T09:30:39Z</time>
      </trkpt>
      <trkpt lat="50.48348" lon="1.85666">
        <ele>98.5</ele>
        <time>2012-02-04T09:30:40Z</time>
      </trkpt>
      <trkpt lat="50.4835" lon="1.85674">
        <ele>98.5</ele>
        <time>2012-02-04T09:30:41Z</time>
      </trkpt>
      <trkpt lat="50.48352" lon="1.85682">
        <ele>98.8</ele>
        <time>2012-02-04T09:30:42Z</time>
      </trkpt>
      <trkpt lat="50.48355" lon="1.85689">
        <ele>98.9</ele>
        <time>2012-02-04T09:30:43Z</time>
      </trkpt>
      <trkpt lat="50.48356" lon="1.85697">
        <ele>98.5</ele>
        <time>2012-02-04T09:30:44Z</time>
      </trkpt>
      <trkpt lat="50.48357" lon="1.85705">
        <ele>98.2</ele>
        <time>2012-02-04T09:30:45Z</time>
      </trkpt>
      <trkpt lat="50.48358" lon="1.85713">
        <ele>98</ele>
        <time>2012-02-04T09:30:46Z</time>
      </trkpt>
      <trkpt lat="50.4836" lon="1.85721">
        <ele>97.7</ele>
        <time>2012-02-04T09:30:47Z</time>
      </trkpt>
      <trkpt lat="50.48361" lon="1.8573">
        <ele>97.7</ele>
        <time>2012-02-04T09:30:48Z</time>
      </trkpt>
      <trkpt lat="50.48362" lon="1.85737">
        <ele>97.8</ele>
        <time>2012-02-04T09:30:49Z</time>
      </trkpt>
      <trkpt lat="50.48362" lon="1.85745">
        <ele>97.9</ele>
        <time>2012-02-04T09:30:50Z</time>
      </trkpt>
      <trkpt lat="50.48363" lon="1.85754">
        <ele>98</ele>
        <time>2012-02-04T09:30:51Z</time>
      </trkpt>
      <trkpt lat="50.48363" lon="1.85762">
        <ele>97.9</ele>
        <time>2012-02-04T09:30:52Z</time>
      </trkpt>
      <trkpt lat="50.48363" lon="1.85769">
        <ele>97.9</ele>
        <time>2012-02-04T09:30:53Z</time>
      </trkpt>
      <trkpt lat="50.48364" lon="1.85778">
        <ele>97.9</ele>
        <time>2012-02-04T09:30:54Z</time>
      </trkpt>
      <trkpt lat="50.48365" lon="1.85786">
        <ele>97.9</ele>
        <time>2012-02-04T09:30:55Z</time>
      </trkpt>
      <trkpt lat="50.48368" lon="1.85794">
        <ele>97.8</ele>
        <time>2012-02-04T09:30:56Z</time>
      </trkpt>
      <trkpt lat="50.48369" lon="1.85801">
        <ele>97.8</ele>
        <time>2012-02-04T09:30:57Z</time>
      </trkpt>
      <trkpt lat="50.4837" lon="1.85813">
        <ele>97.8</ele>
        <time>2012-02-04T09:30:59Z</time>
      </trkpt>
      <trkpt lat="50.48363" lon="1.85819">
        <ele>95.4</ele>
        <time>2012-02-04T09:31:00Z</time>
      </trkpt>
      <trkpt lat="50.48362" lon="1.85827">
        <ele>94</ele>
        <time>2012-02-04T09:31:01Z</time>
      </trkpt>
      <trkpt lat="50.48363" lon="1.85835">
        <ele>93.5</ele>
        <time>2012-02-04T09:31:02Z</time>
      </trkpt>
      <trkpt lat="50.48365" lon="1.8585">
        <ele>93.5</ele>
        <time>2012-02-04T09:31:04Z</time>
      </trkpt>
      <trkpt lat="50.48365" lon="1.85857">
        <ele>92.8</ele>
        <time>2012-02-04T09:31:05Z</time>
      </trkpt>
      <trkpt lat="50.48366" lon="1.85865">
        <ele>92.3</ele>
        <time>2012-02-04T09:31:06Z</time>
      </trkpt>
      <trkpt lat="50.48367" lon="1.85873">
        <ele>91.7</ele>
        <time>2012-02-04T09:31:07Z</time>
      </trkpt>
      <trkpt lat="50.48368" lon="1.85882">
        <ele>91.4</ele>
        <time>2012-02-04T09:31:08Z</time>
      </trkpt>
      <trkpt lat="50.48369" lon="1.8589">
        <ele>91.2</ele>
        <time>2012-02-04T09:31:09Z</time>
      </trkpt>
      <trkpt lat="50.4837" lon="1.85898">
        <ele>90.9</ele>
        <time>2012-02-04T09:31:10Z</time>
      </trkpt>
      <trkpt lat="50.48371" lon="1.85906">
        <ele>90.3</ele>
        <time>2012-02-04T09:31:11Z</time>
      </trkpt>
      <trkpt lat="50.48372" lon="1.85914">
        <ele>90</ele>
        <time>2012-02-04T09:31:12Z</time>
      </trkpt>
      <trkpt lat="50.48373" lon="1.85922">
        <ele>90.2</ele>
        <time>2012-02-04T09:31:13Z</time>
      </trkpt>
      <trkpt lat="50.48375" lon="1.8593">
        <ele>90.4</ele>
        <time>2012-02-04T09:31:14Z</time>
      </trkpt>
      <trkpt lat="50.48375" lon="1.85937">
        <ele>90.3</ele>
        <time>2012-02-04T09:31:15Z</time>
      </trkpt>
      <trkpt lat="50.48375" lon="1.85946">
        <ele>89.8</ele>
        <time>2012-02-04T09:31:16Z</time>
      </trkpt>
      <trkpt lat="50.48376" lon="1.85953">
        <ele>89.9</ele>
        <time>2012-02-04T09:31:17Z</time>
      </trkpt>
      <trkpt lat="50.48376" lon="1.85961">
        <ele>89.8</ele>
        <time>2012-02-04T09:31:18Z</time>
      </trkpt>
      <trkpt lat="50.48375" lon="1.85969">
        <ele>88.3</ele>
        <time>2012-02-04T09:31:19Z</time>
      </trkpt>
      <trkpt lat="50.48375" lon="1.85983">
        <ele>87.6</ele>
        <time>2012-02-04T09:31:21Z</time>
      </trkpt>
      <trkpt lat="50.48376" lon="1.85991">
        <ele>87.9</ele>
        <time>2012-02-04T09:31:22Z</time>
      </trkpt>
      <trkpt lat="50.48376" lon="1.86005">
        <ele>86.6</ele>
        <time>2012-02-04T09:31:24Z</time>
      </trkpt>
      <trkpt lat="50.48376" lon="1.86013">
        <ele>86.8</ele>
        <time>2012-02-04T09:31:25Z</time>
      </trkpt>
      <trkpt lat="50.48375" lon="1.8602">
        <ele>86.3</ele>
        <time>2012-02-04T09:31:26Z</time>
      </trkpt>
      <trkpt lat="50.48374" lon="1.86033">
        <ele>86.8</ele>
        <time>2012-02-04T09:31:28Z</time>
      </trkpt>
      <trkpt lat="50.48374" lon="1.8604">
        <ele>86.2</ele>
        <time>2012-02-04T09:31:29Z</time>
      </trkpt>
      <trkpt lat="50.48374" lon="1.86053">
        <ele>85.2</ele>
        <time>2012-02-04T09:31:31Z</time>
      </trkpt>
      <trkpt lat="50.48373" lon="1.86066">
        <ele>85.3</ele>
        <time>2012-02-04T09:31:33Z</time>
      </trkpt>
      <trkpt lat="50.48373" lon="1.86074">
        <ele>86</ele>
        <time>2012-02-04T09:31:34Z</time>
      </trkpt>
      <trkpt lat="50.48372" lon="1.86081">
        <ele>86.4</ele>
        <time>2012-02-04T09:31:35Z</time>
      </trkpt>
      <trkpt lat="50.48372" lon="1.86088">
        <ele>86.7</ele>
        <time>2012-02-04T09:31:36Z</time>
      </trkpt>
      <trkpt lat="50.48371" lon="1.86095">
        <ele>86.2</ele>
        <time>2012-02-04T09:31:37Z</time>
      </trkpt>
      <trkpt lat="50.4837" lon="1.86103">
        <ele>86.4</ele>
        <time>2012-02-04T09:31:38Z</time>
      </trkpt>
      <trkpt lat="50.4837" lon="1.8611">
        <ele>86.3</ele>
        <time>2012-02-04T09:31:39Z</time>
      </trkpt>
      <trkpt lat="50.48369" lon="1.86117">
        <ele>86.1</ele>
        <time>2012-02-04T09:31:40Z</time>
      </trkpt>
      <trkpt lat="50.48368" lon="1.8613">
        <ele>86.1</ele>
        <time>2012-02-04T09:31:42Z</time>
      </trkpt>
      <trkpt lat="50.48366" lon="1.86144">
        <ele>85.7</ele>
        <time>2012-02-04T09:31:44Z</time>
      </trkpt>
      <trkpt lat="50.48364" lon="1.86152">
        <ele>85.9</ele>
        <time>2012-02-04T09:31:45Z</time>
      </trkpt>
      <trkpt lat="50.48364" lon="1.8616">
        <ele>86.5</ele>
        <time>2012-02-04T09:31:46Z</time>
      </trkpt>
      <trkpt lat="50.48363" lon="1.86168">
        <ele>86.4</ele>
        <time>2012-02-04T09:31:47Z</time>
      </trkpt>
      <trkpt lat="50.48361" lon="1.86175">
        <ele>86.1</ele>
        <time>2012-02-04T09:31:48Z</time>
      </trkpt>
      <trkpt lat="50.48359" lon="1.8619">
        <ele>85.2</ele>
        <time>2012-02-04T09:31:50Z</time>
      </trkpt>
      <trkpt lat="50.48358" lon="1.86198">
        <ele>85.4</ele>
        <time>2012-02-04T09:31:51Z</time>
      </trkpt>
      <trkpt lat="50.48357" lon="1.86205">
        <ele>85.7</ele>
        <time>2012-02-04T09:31:52Z</time>
      </trkpt>
      <trkpt lat="50.48356" lon="1.86213">
        <ele>86.3</ele>
        <time>2012-02-04T09:31:53Z</time>
      </trkpt>
      <trkpt lat="50.48355" lon="1.8622">
        <ele>85.8</ele>
        <time>2012-02-04T09:31:54Z</time>
      </trkpt>
      <trkpt lat="50.48355" lon="1.86233">
        <ele>85.4</ele>
        <time>2012-02-04T09:31:56Z</time>
      </trkpt>
      <trkpt lat="50.48355" lon="1.86246">
        <ele>85.3</ele>
        <time>2012-02-04T09:31:58Z</time>
      </trkpt>
      <trkpt lat="50.48357" lon="1.86258">
        <ele>85.2</ele>
        <time>2012-02-04T09:32:00Z</time>
      </trkpt>
      <trkpt lat="50.48359" lon="1.86267">
        <ele>85.5</ele>
        <time>2012-02-04T09:32:02Z</time>
      </trkpt>
      <trkpt lat="50.4836" lon="1.86278">
        <ele>85.8</ele>
        <time>2012-02-04T09:32:04Z</time>
      </trkpt>
      <trkpt lat="50.48361" lon="1.86288">
        <ele>86</ele>
        <time>2012-02-04T09:32:06Z</time>
      </trkpt>
      <trkpt lat="50.48362" lon="1.86299">
        <ele>87.4</ele>
        <time>2012-02-04T09:32:08Z</time>
      </trkpt>
      <trkpt lat="50.48364" lon="1.86309">
        <ele>87.9</ele>
        <time>2012-02-04T09:32:10Z</time>
      </trkpt>
      <trkpt lat="50.48363" lon="1.86319">
        <ele>88.1</ele>
        <time>2012-02-04T09:32:12Z</time>
      </trkpt>
      <trkpt lat="50.48364" lon="1.86331">
        <ele>89</ele>
        <time>2012-02-04T09:32:14Z</time>
      </trkpt>
      <trkpt lat="50.48363" lon="1.86342">
        <ele>87.3</ele>
        <time>2012-02-04T09:32:16Z</time>
      </trkpt>
      <trkpt lat="50.48365" lon="1.86352">
        <ele>88.3</ele>
        <time>2012-02-04T09:32:18Z</time>
      </trkpt>
      <trkpt lat="50.48368" lon="1.86363">
        <ele>89.3</ele>
        <time>2012-02-04T09:32:20Z</time>
      </trkpt>
      <trkpt lat="50.48371" lon="1.86373">
        <ele>89.7</ele>
        <time>2012-02-04T09:32:22Z</time>
      </trkpt>
      <trkpt lat="50.48373" lon="1.86384">
        <ele>90</ele>
        <time>2012-02-04T09:32:24Z</time>
      </trkpt>
      <trkpt lat="50.48375" lon="1.86392">
        <ele>90.1</ele>
        <time>2012-02-04T09:32:26Z</time>
      </trkpt>
      <trkpt lat="50.48379" lon="1.86401">
        <ele>89.6</ele>
        <time>2012-02-04T09:32:28Z</time>
      </trkpt>
      <trkpt lat="50.48383" lon="1.86412">
        <ele>89.6</ele>
        <time>2012-02-04T09:32:30Z</time>
      </trkpt>
      <trkpt lat="50.48385" lon="1.86423">
        <ele>89.6</ele>
        <time>2012-02-04T09:32:32Z</time>
      </trkpt>
      <trkpt lat="50.48389" lon="1.86434">
        <ele>90.3</ele>
        <time>2012-02-04T09:32:34Z</time>
      </trkpt>
      <trkpt lat="50.48392" lon="1.86445">
        <ele>90.5</ele>
        <time>2012-02-04T09:32:36Z</time>
      </trkpt>
      <trkpt lat="50.48398" lon="1.86454">
        <ele>91.3</ele>
        <time>2012-02-04T09:32:38Z</time>
      </trkpt>
      <trkpt lat="50.48404" lon="1.86463">
        <ele>91.1</ele>
        <time>2012-02-04T09:32:40Z</time>
      </trkpt>
      <trkpt lat="50.48409" lon="1.86471">
        <ele>91.8</ele>
        <time>2012-02-04T09:32:42Z</time>
      </trkpt>
      <trkpt lat="50.48415" lon="1.86479">
        <ele>90.7</ele>
        <time>2012-02-04T09:32:44Z</time>
      </trkpt>
      <trkpt lat="50.48421" lon="1.86488">
        <ele>90.5</ele>
        <time>2012-02-04T09:32:46Z</time>
      </trkpt>
      <trkpt lat="50.48426" lon="1.86497">
        <ele>90.2</ele>
        <time>2012-02-04T09:32:48Z</time>
      </trkpt>
      <trkpt lat="50.48432" lon="1.86506">
        <ele>89.7</ele>
        <time>2012-02-04T09:32:50Z</time>
      </trkpt>
      <trkpt lat="50.48437" lon="1.86514">
        <ele>89.4</ele>
        <time>2012-02-04T09:32:52Z</time>
      </trkpt>
      <trkpt lat="50.48443" lon="1.86522">
        <ele>89.5</ele>
        <time>2012-02-04T09:32:54Z</time>
      </trkpt>
      <trkpt lat="50.48448" lon="1.86529">
        <ele>89.7</ele>
        <time>2012-02-04T09:32:56Z</time>
      </trkpt>
      <trkpt lat="50.48454" lon="1.86536">
        <ele>89.5</ele>
        <time>2012-02-04T09:32:58Z</time>
      </trkpt>
      <trkpt lat="50.48457" lon="1.8654">
        <ele>89.4</ele>
        <time>2012-02-04T09:33:00Z</time>
      </trkpt>
      <trkpt lat="50.48461" lon="1.86548">
        <ele>89.1</ele>
        <time>2012-02-04T09:33:02Z</time>
      </trkpt>
      <trkpt lat="50.48465" lon="1.86551">
        <ele>89.2</ele>
        <time>2012-02-04T09:33:03Z</time>
      </trkpt>
      <trkpt lat="50.48471" lon="1.86558">
        <ele>87.4</ele>
        <time>2012-02-04T09:33:05Z</time>
      </trkpt>
      <trkpt lat="50.48476" lon="1.86566">
        <ele>87.6</ele>
        <time>2012-02-04T09:33:07Z</time>
      </trkpt>
      <trkpt lat="50.48482" lon="1.86576">
        <ele>87.5</ele>
        <time>2012-02-04T09:33:09Z</time>
      </trkpt>
      <trkpt lat="50.48486" lon="1.86581">
        <ele>87.3</ele>
        <time>2012-02-04T09:33:10Z</time>
      </trkpt>
      <trkpt lat="50.4849" lon="1.86586">
        <ele>87.4</ele>
        <time>2012-02-04T09:33:11Z</time>
      </trkpt>
      <trkpt lat="50.48493" lon="1.86591">
        <ele>86.9</ele>
        <time>2012-02-04T09:33:12Z</time>
      </trkpt>
      <trkpt lat="50.48497" lon="1.86597">
        <ele>87</ele>
        <time>2012-02-04T09:33:13Z</time>
      </trkpt>
      <trkpt lat="50.485" lon="1.86603">
        <ele>87</ele>
        <time>2012-02-04T09:33:14Z</time>
      </trkpt>
      <trkpt lat="50.48504" lon="1.86608">
        <ele>86.6</ele>
        <time>2012-02-04T09:33:15Z</time>
      </trkpt>
      <trkpt lat="50.48508" lon="1.86614">
        <ele>86.1</ele>
        <time>2012-02-04T09:33:16Z</time>
      </trkpt>
      <trkpt lat="50.48511" lon="1.8662">
        <ele>86.2</ele>
        <time>2012-02-04T09:33:17Z</time>
      </trkpt>
      <trkpt lat="50.48515" lon="1.86626">
        <ele>86.4</ele>
        <time>2012-02-04T09:33:18Z</time>
      </trkpt>
      <trkpt lat="50.48518" lon="1.86632">
        <ele>86.2</ele>
        <time>2012-02-04T09:33:19Z</time>
      </trkpt>
      <trkpt lat="50.48522" lon="1.86639">
        <ele>85.9</ele>
        <time>2012-02-04T09:33:20Z</time>
      </trkpt>
      <trkpt lat="50.48526" lon="1.86645">
        <ele>85.5</ele>
        <time>2012-02-04T09:33:21Z</time>
      </trkpt>
      <trkpt lat="50.48529" lon="1.86651">
        <ele>85.4</ele>
        <time>2012-02-04T09:33:22Z</time>
      </trkpt>
      <trkpt lat="50.48532" lon="1.86658">
        <ele>85.5</ele>
        <time>2012-02-04T09:33:23Z</time>
      </trkpt>
      <trkpt lat="50.48535" lon="1.86663">
        <ele>85.5</ele>
        <time>2012-02-04T09:33:24Z</time>
      </trkpt>
      <trkpt lat="50.48538" lon="1.86668">
        <ele>85.9</ele>
        <time>2012-02-04T09:33:25Z</time>
      </trkpt>
      <trkpt lat="50.48541" lon="1.86674">
        <ele>85.6</ele>
        <time>2012-02-04T09:33:26Z</time>
      </trkpt>
      <trkpt lat="50.48545" lon="1.8668">
        <ele>85.4</ele>
        <time>2012-02-04T09:33:27Z</time>
      </trkpt>
      <trkpt lat="50.48548" lon="1.86685">
        <ele>84.9</ele>
        <time>2012-02-04T09:33:28Z</time>
      </trkpt>
      <trkpt lat="50.48551" lon="1.86691">
        <ele>84.8</ele>
        <time>2012-02-04T09:33:29Z</time>
      </trkpt>
      <trkpt lat="50.48555" lon="1.86696">
        <ele>84.1</ele>
        <time>2012-02-04T09:33:30Z</time>
      </trkpt>
      <trkpt lat="50.48559" lon="1.86702">
        <ele>83.5</ele>
        <time>2012-02-04T09:33:31Z</time>
      </trkpt>
      <trkpt lat="50.48563" lon="1.86707">
        <ele>82.9</ele>
        <time>2012-02-04T09:33:32Z</time>
      </trkpt>
      <trkpt lat="50.48566" lon="1.86712">
        <ele>82.6</ele>
        <time>2012-02-04T09:33:33Z</time>
      </trkpt>
      <trkpt lat="50.4857" lon="1.86717">
        <ele>82.4</ele>
        <time>2012-02-04T09:33:34Z</time>
      </trkpt>
      <trkpt lat="50.48574" lon="1.86723">
        <ele>81.7</ele>
        <time>2012-02-04T09:33:35Z</time>
      </trkpt>
      <trkpt lat="50.48577" lon="1.86728">
        <ele>81.6</ele>
        <time>2012-02-04T09:33:36Z</time>
      </trkpt>
      <trkpt lat="50.48581" lon="1.86734">
        <ele>81.4</ele>
        <time>2012-02-04T09:33:37Z</time>
      </trkpt>
      <trkpt lat="50.48585" lon="1.86739">
        <ele>80.8</ele>
        <time>2012-02-04T09:33:38Z</time>
      </trkpt>
      <trkpt lat="50.48589" lon="1.86745">
        <ele>80.8</ele>
        <time>2012-02-04T09:33:39Z</time>
      </trkpt>
      <trkpt lat="50.48593" lon="1.86749">
        <ele>80.3</ele>
        <time>2012-02-04T09:33:40Z</time>
      </trkpt>
      <trkpt lat="50.48596" lon="1.86754">
        <ele>79.3</ele>
        <time>2012-02-04T09:33:41Z</time>
      </trkpt>
      <trkpt lat="50.486" lon="1.86759">
        <ele>79.3</ele>
        <time>2012-02-04T09:33:42Z</time>
      </trkpt>
      <trkpt lat="50.48605" lon="1.86763">
        <ele>79.5</ele>
        <time>2012-02-04T09:33:43Z</time>
      </trkpt>
      <trkpt lat="50.48609" lon="1.86768">
        <ele>80</ele>
        <time>2012-02-04T09:33:44Z</time>
      </trkpt>
      <trkpt lat="50.48615" lon="1.86776">
        <ele>80</ele>
        <time>2012-02-04T09:33:46Z</time>
      </trkpt>
      <trkpt lat="50.48619" lon="1.8678">
        <ele>80.1</ele>
        <time>2012-02-04T09:33:47Z</time>
      </trkpt>
      <trkpt lat="50.48626" lon="1.86786">
        <ele>79.7</ele>
        <time>2012-02-04T09:33:49Z</time>
      </trkpt>
      <trkpt lat="50.48629" lon="1.86792">
        <ele>79.4</ele>
        <time>2012-02-04T09:33:51Z</time>
      </trkpt>
      <trkpt lat="50.48634" lon="1.86795">
        <ele>81.1</ele>
        <time>2012-02-04T09:34:09Z</time>
      </trkpt>
      <trkpt lat="50.48638" lon="1.86796">
        <ele>82.2</ele>
        <time>2012-02-04T09:35:14Z</time>
      </trkpt>
      <trkpt lat="50.48642" lon="1.86793">
        <ele>81</ele>
        <time>2012-02-04T09:35:21Z</time>
      </trkpt>
      <trkpt lat="50.48647" lon="1.86792">
        <ele>80.6</ele>
        <time>2012-02-04T09:35:40Z</time>
      </trkpt>
      <trkpt lat="50.48642" lon="1.8679">
        <ele>85.7</ele>
        <time>2012-02-04T09:36:42Z</time>
      </trkpt>
      <trkpt lat="50.48639" lon="1.868">
        <ele>86.7</ele>
        <time>2012-02-04T09:36:45Z</time>
      </trkpt>
      <trkpt lat="50.48642" lon="1.86794">
        <ele>84.8</ele>
        <time>2012-02-04T09:36:46Z</time>
      </trkpt>
      <trkpt lat="50.48641" lon="1.86802">
        <ele>85.8</ele>
        <time>2012-02-04T09:36:49Z</time>
      </trkpt>
      <trkpt lat="50.48639" lon="1.86795">
        <ele>82.3</ele>
        <time>2012-02-04T09:37:59Z</time>
      </trkpt>
      <trkpt lat="50.48644" lon="1.86795">
        <ele>79.1</ele>
        <time>2012-02-04T09:43:51Z</time>
      </trkpt>
      <trkpt lat="50.48639" lon="1.868">
        <ele>75.3</ele>
        <time>2012-02-04T09:44:13Z</time>
      </trkpt>
      <trkpt lat="50.48638" lon="1.86807">
        <ele>75.8</ele>
        <time>2012-02-04T09:44:16Z</time>
      </trkpt>
      <trkpt lat="50.48642" lon="1.86811">
        <ele>74.8</ele>
        <time>2012-02-04T09:44:18Z</time>
      </trkpt>
      <trkpt lat="50.48649" lon="1.86812">
        <ele>76</ele>
        <time>2012-02-04T09:44:19Z</time>
      </trkpt>
      <trkpt lat="50.48655" lon="1.86816">
        <ele>74.8</ele>
        <time>2012-02-04T09:44:21Z</time>
      </trkpt>
      <trkpt lat="50.48662" lon="1.8682">
        <ele>75.9</ele>
        <time>2012-02-04T09:44:23Z</time>
      </trkpt>
      <trkpt lat="50.48668" lon="1.86823">
        <ele>76.3</ele>
        <time>2012-02-04T09:44:25Z</time>
      </trkpt>
      <trkpt lat="50.48674" lon="1.86826">
        <ele>76</ele>
        <time>2012-02-04T09:44:27Z</time>
      </trkpt>
      <trkpt lat="50.48679" lon="1.86828">
        <ele>76.2</ele>
        <time>2012-02-04T09:44:29Z</time>
      </trkpt>
      <trkpt lat="50.48684" lon="1.86833">
        <ele>77.5</ele>
        <time>2012-02-04T09:44:31Z</time>
      </trkpt>
      <trkpt lat="50.48689" lon="1.86834">
        <ele>76.7</ele>
        <time>2012-02-04T09:44:33Z</time>
      </trkpt>
      <trkpt lat="50.48694" lon="1.86835">
        <ele>77.6</ele>
        <time>2012-02-04T09:44:35Z</time>
      </trkpt>
      <trkpt lat="50.487" lon="1.86836">
        <ele>77.2</ele>
        <time>2012-02-04T09:44:38Z</time>
      </trkpt>
      <trkpt lat="50.48704" lon="1.86842">
        <ele>76.6</ele>
        <time>2012-02-04T09:44:41Z</time>
      </trkpt>
      <trkpt lat="50.48709" lon="1.86844">
        <ele>76.2</ele>
        <time>2012-02-04T09:44:43Z</time>
      </trkpt>
      <trkpt lat="50.48714" lon="1.86848">
        <ele>76.1</ele>
        <time>2012-02-04T09:44:45Z</time>
      </trkpt>
      <trkpt lat="50.4872" lon="1.86853">
        <ele>77.2</ele>
        <time>2012-02-04T09:44:47Z</time>
      </trkpt>
      <trkpt lat="50.48726" lon="1.86856">
        <ele>78.7</ele>
        <time>2012-02-04T09:44:49Z</time>
      </trkpt>
      <trkpt lat="50.48729" lon="1.86863">
        <ele>81.9</ele>
        <time>2012-02-04T09:44:51Z</time>
      </trkpt>
      <trkpt lat="50.48734" lon="1.8687">
        <ele>81.6</ele>
        <time>2012-02-04T09:44:53Z</time>
      </trkpt>
      <trkpt lat="50.48741" lon="1.86876">
        <ele>80.8</ele>
        <time>2012-02-04T09:44:55Z</time>
      </trkpt>
      <trkpt lat="50.48747" lon="1.8688">
        <ele>81.7</ele>
        <time>2012-02-04T09:44:57Z</time>
      </trkpt>
      <trkpt lat="50.48752" lon="1.86886">
        <ele>80.4</ele>
        <time>2012-02-04T09:44:59Z</time>
      </trkpt>
      <trkpt lat="50.48758" lon="1.86893">
        <ele>81</ele>
        <time>2012-02-04T09:45:01Z</time>
      </trkpt>
      <trkpt lat="50.48763" lon="1.869">
        <ele>81.4</ele>
        <time>2012-02-04T09:45:03Z</time>
      </trkpt>
      <trkpt lat="50.48768" lon="1.86907">
        <ele>81</ele>
        <time>2012-02-04T09:45:05Z</time>
      </trkpt>
      <trkpt lat="50.48773" lon="1.86914">
        <ele>79.5</ele>
        <time>2012-02-04T09:45:07Z</time>
      </trkpt>
      <trkpt lat="50.48778" lon="1.86921">
        <ele>83.3</ele>
        <time>2012-02-04T09:45:09Z</time>
      </trkpt>
      <trkpt lat="50.48782" lon="1.86926">
        <ele>81.6</ele>
        <time>2012-02-04T09:45:11Z</time>
      </trkpt>
      <trkpt lat="50.48787" lon="1.86933">
        <ele>80.3</ele>
        <time>2012-02-04T09:45:13Z</time>
      </trkpt>
      <trkpt lat="50.48792" lon="1.8694">
        <ele>80.6</ele>
        <time>2012-02-04T09:45:15Z</time>
      </trkpt>
      <trkpt lat="50.48798" lon="1.86946">
        <ele>82.1</ele>
        <time>2012-02-04T09:45:17Z</time>
      </trkpt>
      <trkpt lat="50.48801" lon="1.86952">
        <ele>79.6</ele>
        <time>2012-02-04T09:45:19Z</time>
      </trkpt>
      <trkpt lat="50.48805" lon="1.86958">
        <ele>79.9</ele>
        <time>2012-02-04T09:45:21Z</time>
      </trkpt>
      <trkpt lat="50.48813" lon="1.86966">
        <ele>79.9</ele>
        <time>2012-02-04T09:45:24Z</time>
      </trkpt>
      <trkpt lat="50.48819" lon="1.86974">
        <ele>80</ele>
        <time>2012-02-04T09:45:26Z</time>
      </trkpt>
      <trkpt lat="50.48824" lon="1.86982">
        <ele>79.3</ele>
        <time>2012-02-04T09:45:28Z</time>
      </trkpt>
      <trkpt lat="50.48829" lon="1.8699">
        <ele>79.1</ele>
        <time>2012-02-04T09:45:30Z</time>
      </trkpt>
      <trkpt lat="50.48833" lon="1.86997">
        <ele>78.5</ele>
        <time>2012-02-04T09:45:32Z</time>
      </trkpt>
      <trkpt lat="50.48838" lon="1.87004">
        <ele>78.3</ele>
        <time>2012-02-04T09:45:34Z</time>
      </trkpt>
      <trkpt lat="50.48842" lon="1.87011">
        <ele>78.7</ele>
        <time>2012-02-04T09:45:36Z</time>
      </trkpt>
      <trkpt lat="50.48846" lon="1.87018">
        <ele>78.7</ele>
        <time>2012-02-04T09:45:38Z</time>
      </trkpt>
      <trkpt lat="50.48848" lon="1.87025">
        <ele>77.7</ele>
        <time>2012-02-04T09:45:40Z</time>
      </trkpt>
      <trkpt lat="50.4885" lon="1.87033">
        <ele>76.2</ele>
        <time>2012-02-04T09:45:42Z</time>
      </trkpt>
      <trkpt lat="50.48851" lon="1.87041">
        <ele>75.3</ele>
        <time>2012-02-04T09:45:45Z</time>
      </trkpt>
      <trkpt lat="50.48855" lon="1.87047">
        <ele>75.2</ele>
        <time>2012-02-04T09:45:47Z</time>
      </trkpt>
      <trkpt lat="50.4886" lon="1.87054">
        <ele>75</ele>
        <time>2012-02-04T09:45:49Z</time>
      </trkpt>
      <trkpt lat="50.48864" lon="1.87058">
        <ele>75.1</ele>
        <time>2012-02-04T09:45:50Z</time>
      </trkpt>
      <trkpt lat="50.48869" lon="1.87066">
        <ele>75.6</ele>
        <time>2012-02-04T09:45:52Z</time>
      </trkpt>
      <trkpt lat="50.48875" lon="1.87073">
        <ele>76.1</ele>
        <time>2012-02-04T09:45:54Z</time>
      </trkpt>
      <trkpt lat="50.48881" lon="1.8708">
        <ele>77.1</ele>
        <time>2012-02-04T09:45:56Z</time>
      </trkpt>
      <trkpt lat="50.48887" lon="1.87087">
        <ele>77.7</ele>
        <time>2012-02-04T09:45:58Z</time>
      </trkpt>
      <trkpt lat="50.48893" lon="1.87093">
        <ele>76.9</ele>
        <time>2012-02-04T09:46:00Z</time>
      </trkpt>
      <trkpt lat="50.48899" lon="1.87098">
        <ele>76.5</ele>
        <time>2012-02-04T09:46:02Z</time>
      </trkpt>
      <trkpt lat="50.48904" lon="1.87101">
        <ele>76.9</ele>
        <time>2012-02-04T09:46:04Z</time>
      </trkpt>
      <trkpt lat="50.4891" lon="1.87106">
        <ele>76.6</ele>
        <time>2012-02-04T09:46:06Z</time>
      </trkpt>
      <trkpt lat="50.48916" lon="1.8711">
        <ele>77.3</ele>
        <time>2012-02-04T09:46:08Z</time>
      </trkpt>
      <trkpt lat="50.4892" lon="1.87113">
        <ele>77.1</ele>
        <time>2012-02-04T09:46:10Z</time>
      </trkpt>
      <trkpt lat="50.48926" lon="1.87113">
        <ele>77.6</ele>
        <time>2012-02-04T09:46:12Z</time>
      </trkpt>
      <trkpt lat="50.48933" lon="1.87114">
        <ele>77.8</ele>
        <time>2012-02-04T09:46:15Z</time>
      </trkpt>
      <trkpt lat="50.48938" lon="1.87115">
        <ele>78.3</ele>
        <time>2012-02-04T09:46:17Z</time>
      </trkpt>
      <trkpt lat="50.48943" lon="1.87118">
        <ele>77.8</ele>
        <time>2012-02-04T09:46:19Z</time>
      </trkpt>
      <trkpt lat="50.48949" lon="1.87119">
        <ele>77.3</ele>
        <time>2012-02-04T09:46:21Z</time>
      </trkpt>
      <trkpt lat="50.48955" lon="1.87124">
        <ele>78</ele>
        <time>2012-02-04T09:46:23Z</time>
      </trkpt>
      <trkpt lat="50.48961" lon="1.87129">
        <ele>78.1</ele>
        <time>2012-02-04T09:46:25Z</time>
      </trkpt>
      <trkpt lat="50.48966" lon="1.87134">
        <ele>78.5</ele>
        <time>2012-02-04T09:46:27Z</time>
      </trkpt>
      <trkpt lat="50.48971" lon="1.87139">
        <ele>78.4</ele>
        <time>2012-02-04T09:46:29Z</time>
      </trkpt>
      <trkpt lat="50.48978" lon="1.87143">
        <ele>78.3</ele>
        <time>2012-02-04T09:46:31Z</time>
      </trkpt>
      <trkpt lat="50.48984" lon="1.87147">
        <ele>78.8</ele>
        <time>2012-02-04T09:46:33Z</time>
      </trkpt>
      <trkpt lat="50.48991" lon="1.87151">
        <ele>79.9</ele>
        <time>2012-02-04T09:46:35Z</time>
      </trkpt>
      <trkpt lat="50.48997" lon="1.87156">
        <ele>78.8</ele>
        <time>2012-02-04T09:46:37Z</time>
      </trkpt>
      <trkpt lat="50.49004" lon="1.87159">
        <ele>78.4</ele>
        <time>2012-02-04T09:46:39Z</time>
      </trkpt>
      <trkpt lat="50.49011" lon="1.87162">
        <ele>77.9</ele>
        <time>2012-02-04T09:46:41Z</time>
      </trkpt>
      <trkpt lat="50.49018" lon="1.87168">
        <ele>76.7</ele>
        <time>2012-02-04T09:46:43Z</time>
      </trkpt>
      <trkpt lat="50.49024" lon="1.8717">
        <ele>76.5</ele>
        <time>2012-02-04T09:46:45Z</time>
      </trkpt>
      <trkpt lat="50.49029" lon="1.87175">
        <ele>76.8</ele>
        <time>2012-02-04T09:46:47Z</time>
      </trkpt>
      <trkpt lat="50.49036" lon="1.87179">
        <ele>76.8</ele>
        <time>2012-02-04T09:46:49Z</time>
      </trkpt>
      <trkpt lat="50.49042" lon="1.87183">
        <ele>76.9</ele>
        <time>2012-02-04T09:46:51Z</time>
      </trkpt>
      <trkpt lat="50.49048" lon="1.87189">
        <ele>76.7</ele>
        <time>2012-02-04T09:46:53Z</time>
      </trkpt>
      <trkpt lat="50.49055" lon="1.87194">
        <ele>75</ele>
        <time>2012-02-04T09:46:55Z</time>
      </trkpt>
      <trkpt lat="50.4906" lon="1.87197">
        <ele>74.4</ele>
        <time>2012-02-04T09:46:56Z</time>
      </trkpt>
      <trkpt lat="50.49066" lon="1.87202">
        <ele>73.7</ele>
        <time>2012-02-04T09:46:58Z</time>
      </trkpt>
      <trkpt lat="50.4907" lon="1.87209">
        <ele>73.5</ele>
        <time>2012-02-04T09:47:00Z</time>
      </trkpt>
      <trkpt lat="50.49072" lon="1.87217">
        <ele>74.4</ele>
        <time>2012-02-04T09:47:02Z</time>
      </trkpt>
      <trkpt lat="50.49067" lon="1.87223">
        <ele>73.3</ele>
        <time>2012-02-04T09:47:05Z</time>
      </trkpt>
      <trkpt lat="50.49062" lon="1.8722">
        <ele>72.9</ele>
        <time>2012-02-04T09:47:08Z</time>
      </trkpt>
      <trkpt lat="50.4906" lon="1.87212">
        <ele>73.3</ele>
        <time>2012-02-04T09:47:12Z</time>
      </trkpt>
      <trkpt lat="50.49054" lon="1.87209">
        <ele>73.7</ele>
        <time>2012-02-04T09:47:15Z</time>
      </trkpt>
      <trkpt lat="50.4905" lon="1.87206">
        <ele>73.8</ele>
        <time>2012-02-04T09:47:18Z</time>
      </trkpt>
      <trkpt lat="50.49042" lon="1.87207">
        <ele>74</ele>
        <time>2012-02-04T09:47:21Z</time>
      </trkpt>
      <trkpt lat="50.49037" lon="1.87208">
        <ele>76.9</ele>
        <time>2012-02-04T09:47:58Z</time>
      </trkpt>
      <trkpt lat="50.49042" lon="1.87204">
        <ele>81.1</ele>
        <time>2012-02-04T09:48:49Z</time>
      </trkpt>
      <trkpt lat="50.49039" lon="1.8721">
        <ele>82.7</ele>
        <time>2012-02-04T09:48:54Z</time>
      </trkpt>
      <trkpt lat="50.49042" lon="1.87216">
        <ele>82.9</ele>
        <time>2012-02-04T09:48:58Z</time>
      </trkpt>
      <trkpt lat="50.49046" lon="1.8722">
        <ele>81.7</ele>
        <time>2012-02-04T09:49:01Z</time>
      </trkpt>
      <trkpt lat="50.49053" lon="1.87228">
        <ele>82</ele>
        <time>2012-02-04T09:49:04Z</time>
      </trkpt>
      <trkpt lat="50.49058" lon="1.87234">
        <ele>81.1</ele>
        <time>2012-02-04T09:49:07Z</time>
      </trkpt>
      <trkpt lat="50.49063" lon="1.87241">
        <ele>80.1</ele>
        <time>2012-02-04T09:49:10Z</time>
      </trkpt>
      <trkpt lat="50.49066" lon="1.87246">
        <ele>80.9</ele>
        <time>2012-02-04T09:49:12Z</time>
      </trkpt>
      <trkpt lat="50.49071" lon="1.87254">
        <ele>81.1</ele>
        <time>2012-02-04T09:49:15Z</time>
      </trkpt>
      <trkpt lat="50.49074" lon="1.87261">
        <ele>81.1</ele>
        <time>2012-02-04T09:49:18Z</time>
      </trkpt>
      <trkpt lat="50.49078" lon="1.87268">
        <ele>81.6</ele>
        <time>2012-02-04T09:49:20Z</time>
      </trkpt>
      <trkpt lat="50.49082" lon="1.87273">
        <ele>81.2</ele>
        <time>2012-02-04T09:49:22Z</time>
      </trkpt>
      <trkpt lat="50.49088" lon="1.87278">
        <ele>79.9</ele>
        <time>2012-02-04T09:49:24Z</time>
      </trkpt>
      <trkpt lat="50.49093" lon="1.87284">
        <ele>80.2</ele>
        <time>2012-02-04T09:49:26Z</time>
      </trkpt>
      <trkpt lat="50.49097" lon="1.87291">
        <ele>79.5</ele>
        <time>2012-02-04T09:49:28Z</time>
      </trkpt>
      <trkpt lat="50.49103" lon="1.87297">
        <ele>79.1</ele>
        <time>2012-02-04T09:49:30Z</time>
      </trkpt>
      <trkpt lat="50.49111" lon="1.87301">
        <ele>79.1</ele>
        <time>2012-02-04T09:49:32Z</time>
      </trkpt>
      <trkpt lat="50.49118" lon="1.87305">
        <ele>80.8</ele>
        <time>2012-02-04T09:49:34Z</time>
      </trkpt>
      <trkpt lat="50.49124" lon="1.87312">
        <ele>80.9</ele>
        <time>2012-02-04T09:49:36Z</time>
      </trkpt>
      <trkpt lat="50.4913" lon="1.87319">
        <ele>79.9</ele>
        <time>2012-02-04T09:49:38Z</time>
      </trkpt>
      <trkpt lat="50.49136" lon="1.87326">
        <ele>78.2</ele>
        <time>2012-02-04T09:49:40Z</time>
      </trkpt>
      <trkpt lat="50.49142" lon="1.87332">
        <ele>76.9</ele>
        <time>2012-02-04T09:49:42Z</time>
      </trkpt>
      <trkpt lat="50.49146" lon="1.87338">
        <ele>79.6</ele>
        <time>2012-02-04T09:49:43Z</time>
      </trkpt>
      <trkpt lat="50.49151" lon="1.87344">
        <ele>79.4</ele>
        <time>2012-02-04T09:49:45Z</time>
      </trkpt>
      <trkpt lat="50.49156" lon="1.87352">
        <ele>78.3</ele>
        <time>2012-02-04T09:49:47Z</time>
      </trkpt>
      <trkpt lat="50.49162" lon="1.87361">
        <ele>77.1</ele>
        <time>2012-02-04T09:49:49Z</time>
      </trkpt>
      <trkpt lat="50.49168" lon="1.87368">
        <ele>80.1</ele>
        <time>2012-02-04T09:49:51Z</time>
      </trkpt>
      <trkpt lat="50.49174" lon="1.87377">
        <ele>80.9</ele>
        <time>2012-02-04T09:49:53Z</time>
      </trkpt>
      <trkpt lat="50.49178" lon="1.87386">
        <ele>81</ele>
        <time>2012-02-04T09:49:55Z</time>
      </trkpt>
      <trkpt lat="50.4918" lon="1.87398">
        <ele>79.6</ele>
        <time>2012-02-04T09:49:57Z</time>
      </trkpt>
      <trkpt lat="50.49182" lon="1.87409">
        <ele>79.1</ele>
        <time>2012-02-04T09:49:59Z</time>
      </trkpt>
      <trkpt lat="50.49185" lon="1.8742">
        <ele>78.7</ele>
        <time>2012-02-04T09:50:01Z</time>
      </trkpt>
      <trkpt lat="50.49187" lon="1.8743">
        <ele>79.3</ele>
        <time>2012-02-04T09:50:03Z</time>
      </trkpt>
      <trkpt lat="50.49193" lon="1.87438">
        <ele>80.2</ele>
        <time>2012-02-04T09:50:05Z</time>
      </trkpt>
      <trkpt lat="50.49198" lon="1.87448">
        <ele>81.3</ele>
        <time>2012-02-04T09:50:07Z</time>
      </trkpt>
      <trkpt lat="50.49202" lon="1.87458">
        <ele>81.6</ele>
        <time>2012-02-04T09:50:09Z</time>
      </trkpt>
      <trkpt lat="50.49207" lon="1.87467">
        <ele>81.9</ele>
        <time>2012-02-04T09:50:11Z</time>
      </trkpt>
      <trkpt lat="50.49212" lon="1.87477">
        <ele>81.9</ele>
        <time>2012-02-04T09:50:13Z</time>
      </trkpt>
      <trkpt lat="50.49216" lon="1.87487">
        <ele>82</ele>
        <time>2012-02-04T09:50:15Z</time>
      </trkpt>
      <trkpt lat="50.49218" lon="1.87498">
        <ele>82.3</ele>
        <time>2012-02-04T09:50:17Z</time>
      </trkpt>
      <trkpt lat="50.49222" lon="1.87508">
        <ele>82.6</ele>
        <time>2012-02-04T09:50:19Z</time>
      </trkpt>
      <trkpt lat="50.49224" lon="1.87518">
        <ele>82.8</ele>
        <time>2012-02-04T09:50:21Z</time>
      </trkpt>
      <trkpt lat="50.49225" lon="1.87528">
        <ele>82.8</ele>
        <time>2012-02-04T09:50:23Z</time>
      </trkpt>
      <trkpt lat="50.4923" lon="1.87538">
        <ele>82.6</ele>
        <time>2012-02-04T09:50:25Z</time>
      </trkpt>
      <trkpt lat="50.49235" lon="1.87548">
        <ele>82.8</ele>
        <time>2012-02-04T09:50:27Z</time>
      </trkpt>
      <trkpt lat="50.49238" lon="1.87553">
        <ele>83.3</ele>
        <time>2012-02-04T09:50:28Z</time>
      </trkpt>
      <trkpt lat="50.49242" lon="1.8756">
        <ele>82.1</ele>
        <time>2012-02-04T09:50:30Z</time>
      </trkpt>
      <trkpt lat="50.49247" lon="1.87569">
        <ele>82.3</ele>
        <time>2012-02-04T09:50:32Z</time>
      </trkpt>
      <trkpt lat="50.4925" lon="1.87578">
        <ele>83.4</ele>
        <time>2012-02-04T09:50:34Z</time>
      </trkpt>
      <trkpt lat="50.49255" lon="1.87588">
        <ele>84</ele>
        <time>2012-02-04T09:50:36Z</time>
      </trkpt>
      <trkpt lat="50.49256" lon="1.876">
        <ele>84.6</ele>
        <time>2012-02-04T09:50:38Z</time>
      </trkpt>
      <trkpt lat="50.49256" lon="1.87611">
        <ele>84.5</ele>
        <time>2012-02-04T09:50:40Z</time>
      </trkpt>
      <trkpt lat="50.49256" lon="1.87624">
        <ele>84.5</ele>
        <time>2012-02-04T09:50:42Z</time>
      </trkpt>
      <trkpt lat="50.49256" lon="1.87636">
        <ele>87.6</ele>
        <time>2012-02-04T09:50:44Z</time>
      </trkpt>
      <trkpt lat="50.49254" lon="1.87648">
        <ele>85.1</ele>
        <time>2012-02-04T09:50:46Z</time>
      </trkpt>
      <trkpt lat="50.49254" lon="1.87658">
        <ele>85.4</ele>
        <time>2012-02-04T09:50:48Z</time>
      </trkpt>
      <trkpt lat="50.49254" lon="1.87669">
        <ele>86.4</ele>
        <time>2012-02-04T09:50:50Z</time>
      </trkpt>
      <trkpt lat="50.49254" lon="1.87679">
        <ele>87.1</ele>
        <time>2012-02-04T09:50:52Z</time>
      </trkpt>
      <trkpt lat="50.49254" lon="1.87688">
        <ele>87.4</ele>
        <time>2012-02-04T09:50:54Z</time>
      </trkpt>
      <trkpt lat="50.49256" lon="1.87695">
        <ele>85.6</ele>
        <time>2012-02-04T09:50:55Z</time>
      </trkpt>
      <trkpt lat="50.49258" lon="1.87707">
        <ele>84.5</ele>
        <time>2012-02-04T09:50:57Z</time>
      </trkpt>
      <trkpt lat="50.4926" lon="1.87721">
        <ele>82.2</ele>
        <time>2012-02-04T09:50:59Z</time>
      </trkpt>
      <trkpt lat="50.49262" lon="1.87732">
        <ele>82.3</ele>
        <time>2012-02-04T09:51:01Z</time>
      </trkpt>
      <trkpt lat="50.49264" lon="1.87743">
        <ele>82.3</ele>
        <time>2012-02-04T09:51:03Z</time>
      </trkpt>
      <trkpt lat="50.49267" lon="1.87753">
        <ele>82.8</ele>
        <time>2012-02-04T09:51:05Z</time>
      </trkpt>
      <trkpt lat="50.4927" lon="1.87765">
        <ele>83.7</ele>
        <time>2012-02-04T09:51:07Z</time>
      </trkpt>
      <trkpt lat="50.49271" lon="1.87776">
        <ele>84.7</ele>
        <time>2012-02-04T09:51:09Z</time>
      </trkpt>
      <trkpt lat="50.49275" lon="1.87781">
        <ele>84.9</ele>
        <time>2012-02-04T09:51:10Z</time>
      </trkpt>
      <trkpt lat="50.49278" lon="1.87793">
        <ele>84.2</ele>
        <time>2012-02-04T09:51:12Z</time>
      </trkpt>
      <trkpt lat="50.49281" lon="1.87803">
        <ele>82.8</ele>
        <time>2012-02-04T09:51:14Z</time>
      </trkpt>
      <trkpt lat="50.49285" lon="1.87813">
        <ele>82.5</ele>
        <time>2012-02-04T09:51:16Z</time>
      </trkpt>
      <trkpt lat="50.4929" lon="1.87826">
        <ele>82.6</ele>
        <time>2012-02-04T09:51:18Z</time>
      </trkpt>
      <trkpt lat="50.49293" lon="1.87837">
        <ele>83.3</ele>
        <time>2012-02-04T09:51:20Z</time>
      </trkpt>
      <trkpt lat="50.49296" lon="1.87848">
        <ele>83.7</ele>
        <time>2012-02-04T09:51:22Z</time>
      </trkpt>
      <trkpt lat="50.49301" lon="1.87858">
        <ele>82.7</ele>
        <time>2012-02-04T09:51:24Z</time>
      </trkpt>
      <trkpt lat="50.49304" lon="1.87867">
        <ele>83.2</ele>
        <time>2012-02-04T09:51:26Z</time>
      </trkpt>
      <trkpt lat="50.49308" lon="1.87876">
        <ele>83.5</ele>
        <time>2012-02-04T09:51:28Z</time>
      </trkpt>
      <trkpt lat="50.49312" lon="1.87886">
        <ele>83.9</ele>
        <time>2012-02-04T09:51:30Z</time>
      </trkpt>
      <trkpt lat="50.49315" lon="1.87895">
        <ele>83.9</ele>
        <time>2012-02-04T09:51:32Z</time>
      </trkpt>
      <trkpt lat="50.4932" lon="1.87905">
        <ele>84.8</ele>
        <time>2012-02-04T09:51:34Z</time>
      </trkpt>
      <trkpt lat="50.49324" lon="1.87913">
        <ele>85.4</ele>
        <time>2012-02-04T09:51:36Z</time>
      </trkpt>
      <trkpt lat="50.49329" lon="1.87921">
        <ele>85.6</ele>
        <time>2012-02-04T09:51:38Z</time>
      </trkpt>
      <trkpt lat="50.49331" lon="1.87927">
        <ele>85.8</ele>
        <time>2012-02-04T09:51:40Z</time>
      </trkpt>
      <trkpt lat="50.49333" lon="1.87934">
        <ele>86.2</ele>
        <time>2012-02-04T09:51:42Z</time>
      </trkpt>
      <trkpt lat="50.49335" lon="1.87941">
        <ele>87.3</ele>
        <time>2012-02-04T09:51:45Z</time>
      </trkpt>
      <trkpt lat="50.49338" lon="1.87948">
        <ele>88.2</ele>
        <time>2012-02-04T09:51:48Z</time>
      </trkpt>
      <trkpt lat="50.49334" lon="1.87953">
        <ele>83.3</ele>
        <time>2012-02-04T09:52:17Z</time>
      </trkpt>
      <trkpt lat="50.49337" lon="1.87959">
        <ele>84.2</ele>
        <time>2012-02-04T09:52:54Z</time>
      </trkpt>
      <trkpt lat="50.49338" lon="1.87967">
        <ele>82.8</ele>
        <time>2012-02-04T09:53:28Z</time>
      </trkpt>
      <trkpt lat="50.49336" lon="1.87974">
        <ele>81.4</ele>
        <time>2012-02-04T09:53:31Z</time>
      </trkpt>
      <trkpt lat="50.49332" lon="1.87976">
        <ele>81.6</ele>
        <time>2012-02-04T09:53:34Z</time>
      </trkpt>
      <trkpt lat="50.49325" lon="1.87976">
        <ele>82</ele>
        <time>2012-02-04T09:53:37Z</time>
      </trkpt>
      <trkpt lat="50.49318" lon="1.87977">
        <ele>82.2</ele>
        <time>2012-02-04T09:53:39Z</time>
      </trkpt>
      <trkpt lat="50.49309" lon="1.87978">
        <ele>82.4</ele>
        <time>2012-02-04T09:53:41Z</time>
      </trkpt>
      <trkpt lat="50.49304" lon="1.87977">
        <ele>81.3</ele>
        <time>2012-02-04T09:53:43Z</time>
      </trkpt>
      <trkpt lat="50.493" lon="1.87969">
        <ele>81.3</ele>
        <time>2012-02-04T09:53:45Z</time>
      </trkpt>
      <trkpt lat="50.49294" lon="1.87961">
        <ele>81.3</ele>
        <time>2012-02-04T09:53:47Z</time>
      </trkpt>
      <trkpt lat="50.49289" lon="1.87951">
        <ele>81.6</ele>
        <time>2012-02-04T09:53:49Z</time>
      </trkpt>
      <trkpt lat="50.49284" lon="1.87942">
        <ele>80.9</ele>
        <time>2012-02-04T09:53:51Z</time>
      </trkpt>
      <trkpt lat="50.49279" lon="1.87932">
        <ele>81.7</ele>
        <time>2012-02-04T09:53:53Z</time>
      </trkpt>
      <trkpt lat="50.49273" lon="1.87922">
        <ele>82.8</ele>
        <time>2012-02-04T09:53:55Z</time>
      </trkpt>
      <trkpt lat="50.49269" lon="1.87917">
        <ele>82.1</ele>
        <time>2012-02-04T09:53:56Z</time>
      </trkpt>
      <trkpt lat="50.49266" lon="1.87913">
        <ele>82.2</ele>
        <time>2012-02-04T09:53:57Z</time>
      </trkpt>
      <trkpt lat="50.49262" lon="1.87908">
        <ele>82.3</ele>
        <time>2012-02-04T09:53:58Z</time>
      </trkpt>
      <trkpt lat="50.49256" lon="1.87907">
        <ele>83.5</ele>
        <time>2012-02-04T09:54:00Z</time>
      </trkpt>
      <trkpt lat="50.49249" lon="1.87901">
        <ele>86.1</ele>
        <time>2012-02-04T09:54:02Z</time>
      </trkpt>
      <trkpt lat="50.49242" lon="1.87894">
        <ele>88.2</ele>
        <time>2012-02-04T09:54:04Z</time>
      </trkpt>
      <trkpt lat="50.49235" lon="1.87887">
        <ele>88.8</ele>
        <time>2012-02-04T09:54:06Z</time>
      </trkpt>
      <trkpt lat="50.49231" lon="1.87885">
        <ele>88.5</ele>
        <time>2012-02-04T09:54:07Z</time>
      </trkpt>
      <trkpt lat="50.49227" lon="1.87879">
        <ele>87.7</ele>
        <time>2012-02-04T09:54:08Z</time>
      </trkpt>
      <trkpt lat="50.49223" lon="1.87874">
        <ele>87.4</ele>
        <time>2012-02-04T09:54:09Z</time>
      </trkpt>
      <trkpt lat="50.49218" lon="1.87869">
        <ele>88.7</ele>
        <time>2012-02-04T09:54:11Z</time>
      </trkpt>
      <trkpt lat="50.4921" lon="1.87868">
        <ele>89.1</ele>
        <time>2012-02-04T09:54:13Z</time>
      </trkpt>
      <trkpt lat="50.49203" lon="1.87872">
        <ele>88.7</ele>
        <time>2012-02-04T09:54:15Z</time>
      </trkpt>
      <trkpt lat="50.49197" lon="1.87876">
        <ele>88.9</ele>
        <time>2012-02-04T09:54:17Z</time>
      </trkpt>
      <trkpt lat="50.49192" lon="1.8788">
        <ele>89.1</ele>
        <time>2012-02-04T09:54:19Z</time>
      </trkpt>
      <trkpt lat="50.49186" lon="1.87884">
        <ele>87.9</ele>
        <time>2012-02-04T09:54:21Z</time>
      </trkpt>
      <trkpt lat="50.4918" lon="1.87889">
        <ele>88</ele>
        <time>2012-02-04T09:54:23Z</time>
      </trkpt>
      <trkpt lat="50.49175" lon="1.87894">
        <ele>88.6</ele>
        <time>2012-02-04T09:54:25Z</time>
      </trkpt>
      <trkpt lat="50.4917" lon="1.87898">
        <ele>90.7</ele>
        <time>2012-02-04T09:54:27Z</time>
      </trkpt>
      <trkpt lat="50.49166" lon="1.87904">
        <ele>91.3</ele>
        <time>2012-02-04T09:54:29Z</time>
      </trkpt>
      <trkpt lat="50.49162" lon="1.87908">
        <ele>92.2</ele>
        <time>2012-02-04T09:54:31Z</time>
      </trkpt>
      <trkpt lat="50.49158" lon="1.87913">
        <ele>92.5</ele>
        <time>2012-02-04T09:54:33Z</time>
      </trkpt>
      <trkpt lat="50.49155" lon="1.8792">
        <ele>94.1</ele>
        <time>2012-02-04T09:54:35Z</time>
      </trkpt>
      <trkpt lat="50.49152" lon="1.87926">
        <ele>94.6</ele>
        <time>2012-02-04T09:54:37Z</time>
      </trkpt>
      <trkpt lat="50.49148" lon="1.87933">
        <ele>94.7</ele>
        <time>2012-02-04T09:54:39Z</time>
      </trkpt>
      <trkpt lat="50.49142" lon="1.87941">
        <ele>94.7</ele>
        <time>2012-02-04T09:54:41Z</time>
      </trkpt>
      <trkpt lat="50.49138" lon="1.87948">
        <ele>95.8</ele>
        <time>2012-02-04T09:54:43Z</time>
      </trkpt>
      <trkpt lat="50.49134" lon="1.87954">
        <ele>96.9</ele>
        <time>2012-02-04T09:54:45Z</time>
      </trkpt>
      <trkpt lat="50.49129" lon="1.87962">
        <ele>99.4</ele>
        <time>2012-02-04T09:54:47Z</time>
      </trkpt>
      <trkpt lat="50.49124" lon="1.87966">
        <ele>99.2</ele>
        <time>2012-02-04T09:54:49Z</time>
      </trkpt>
      <trkpt lat="50.49119" lon="1.8797">
        <ele>99.2</ele>
        <time>2012-02-04T09:54:51Z</time>
      </trkpt>
      <trkpt lat="50.49114" lon="1.87976">
        <ele>101</ele>
        <time>2012-02-04T09:54:53Z</time>
      </trkpt>
      <trkpt lat="50.49109" lon="1.8798">
        <ele>99.3</ele>
        <time>2012-02-04T09:54:55Z</time>
      </trkpt>
      <trkpt lat="50.49103" lon="1.87982">
        <ele>98.5</ele>
        <time>2012-02-04T09:54:57Z</time>
      </trkpt>
      <trkpt lat="50.49097" lon="1.87985">
        <ele>98.2</ele>
        <time>2012-02-04T09:54:59Z</time>
      </trkpt>
      <trkpt lat="50.49092" lon="1.8799">
        <ele>97.1</ele>
        <time>2012-02-04T09:55:01Z</time>
      </trkpt>
      <trkpt lat="50.49086" lon="1.87994">
        <ele>99.4</ele>
        <time>2012-02-04T09:55:03Z</time>
      </trkpt>
      <trkpt lat="50.49082" lon="1.87999">
        <ele>100.5</ele>
        <time>2012-02-04T09:55:05Z</time>
      </trkpt>
      <trkpt lat="50.49078" lon="1.88005">
        <ele>102.7</ele>
        <time>2012-02-04T09:55:07Z</time>
      </trkpt>
      <trkpt lat="50.49075" lon="1.88011">
        <ele>103.3</ele>
        <time>2012-02-04T09:55:09Z</time>
      </trkpt>
      <trkpt lat="50.49073" lon="1.8802">
        <ele>103</ele>
        <time>2012-02-04T09:55:11Z</time>
      </trkpt>
      <trkpt lat="50.49072" lon="1.88028">
        <ele>103.5</ele>
        <time>2012-02-04T09:55:13Z</time>
      </trkpt>
      <trkpt lat="50.49072" lon="1.88037">
        <ele>105</ele>
        <time>2012-02-04T09:55:15Z</time>
      </trkpt>
      <trkpt lat="50.49071" lon="1.88045">
        <ele>105.4</ele>
        <time>2012-02-04T09:55:17Z</time>
      </trkpt>
      <trkpt lat="50.49071" lon="1.88053">
        <ele>105.6</ele>
        <time>2012-02-04T09:55:20Z</time>
      </trkpt>
      <trkpt lat="50.49073" lon="1.8806">
        <ele>107.6</ele>
        <time>2012-02-04T09:55:22Z</time>
      </trkpt>
      <trkpt lat="50.49073" lon="1.88068">
        <ele>108.5</ele>
        <time>2012-02-04T09:55:24Z</time>
      </trkpt>
      <trkpt lat="50.49074" lon="1.88076">
        <ele>110.1</ele>
        <time>2012-02-04T09:55:26Z</time>
      </trkpt>
      <trkpt lat="50.49075" lon="1.88085">
        <ele>111.1</ele>
        <time>2012-02-04T09:55:28Z</time>
      </trkpt>
      <trkpt lat="50.49075" lon="1.88094">
        <ele>111.1</ele>
        <time>2012-02-04T09:55:30Z</time>
      </trkpt>
      <trkpt lat="50.49076" lon="1.88101">
        <ele>113.8</ele>
        <time>2012-02-04T09:55:32Z</time>
      </trkpt>
      <trkpt lat="50.49075" lon="1.8811">
        <ele>114.6</ele>
        <time>2012-02-04T09:55:35Z</time>
      </trkpt>
      <trkpt lat="50.49075" lon="1.88118">
        <ele>114.8</ele>
        <time>2012-02-04T09:55:37Z</time>
      </trkpt>
      <trkpt lat="50.49074" lon="1.88126">
        <ele>115.4</ele>
        <time>2012-02-04T09:55:39Z</time>
      </trkpt>
      <trkpt lat="50.49072" lon="1.88134">
        <ele>115.6</ele>
        <time>2012-02-04T09:55:41Z</time>
      </trkpt>
      <trkpt lat="50.49071" lon="1.88144">
        <ele>117.2</ele>
        <time>2012-02-04T09:55:44Z</time>
      </trkpt>
      <trkpt lat="50.49069" lon="1.88152">
        <ele>117.8</ele>
        <time>2012-02-04T09:55:46Z</time>
      </trkpt>
      <trkpt lat="50.49068" lon="1.88159">
        <ele>118.1</ele>
        <time>2012-02-04T09:55:48Z</time>
      </trkpt>
      <trkpt lat="50.49067" lon="1.88166">
        <ele>117.8</ele>
        <time>2012-02-04T09:55:50Z</time>
      </trkpt>
      <trkpt lat="50.49065" lon="1.88173">
        <ele>118.9</ele>
        <time>2012-02-04T09:55:52Z</time>
      </trkpt>
      <trkpt lat="50.49062" lon="1.8818">
        <ele>120.2</ele>
        <time>2012-02-04T09:55:55Z</time>
      </trkpt>
      <trkpt lat="50.4906" lon="1.88189">
        <ele>120.4</ele>
        <time>2012-02-04T09:55:57Z</time>
      </trkpt>
      <trkpt lat="50.49058" lon="1.88197">
        <ele>121.7</ele>
        <time>2012-02-04T09:56:00Z</time>
      </trkpt>
      <trkpt lat="50.49056" lon="1.88204">
        <ele>121.5</ele>
        <time>2012-02-04T09:56:02Z</time>
      </trkpt>
      <trkpt lat="50.49053" lon="1.88209">
        <ele>121.2</ele>
        <time>2012-02-04T09:56:04Z</time>
      </trkpt>
      <trkpt lat="50.4905" lon="1.88218">
        <ele>121.3</ele>
        <time>2012-02-04T09:56:07Z</time>
      </trkpt>
      <trkpt lat="50.49046" lon="1.88224">
        <ele>122.3</ele>
        <time>2012-02-04T09:56:10Z</time>
      </trkpt>
      <trkpt lat="50.49043" lon="1.88232">
        <ele>121.8</ele>
        <time>2012-02-04T09:56:13Z</time>
      </trkpt>
      <trkpt lat="50.49039" lon="1.88239">
        <ele>121.8</ele>
        <time>2012-02-04T09:56:16Z</time>
      </trkpt>
      <trkpt lat="50.49036" lon="1.88248">
        <ele>122.1</ele>
        <time>2012-02-04T09:56:19Z</time>
      </trkpt>
      <trkpt lat="50.49032" lon="1.88256">
        <ele>121.7</ele>
        <time>2012-02-04T09:56:22Z</time>
      </trkpt>
      <trkpt lat="50.4903" lon="1.88264">
        <ele>122.1</ele>
        <time>2012-02-04T09:56:25Z</time>
      </trkpt>
      <trkpt lat="50.49028" lon="1.88271">
        <ele>122.3</ele>
        <time>2012-02-04T09:56:28Z</time>
      </trkpt>
      <trkpt lat="50.49027" lon="1.88279">
        <ele>122.7</ele>
        <time>2012-02-04T09:56:31Z</time>
      </trkpt>
      <trkpt lat="50.49025" lon="1.88286">
        <ele>123.3</ele>
        <time>2012-02-04T09:56:34Z</time>
      </trkpt>
      <trkpt lat="50.49024" lon="1.88293">
        <ele>123.5</ele>
        <time>2012-02-04T09:56:37Z</time>
      </trkpt>
      <trkpt lat="50.49022" lon="1.88301">
        <ele>124.8</ele>
        <time>2012-02-04T09:56:40Z</time>
      </trkpt>
      <trkpt lat="50.49021" lon="1.88309">
        <ele>125.5</ele>
        <time>2012-02-04T09:56:43Z</time>
      </trkpt>
      <trkpt lat="50.49019" lon="1.88316">
        <ele>125.9</ele>
        <time>2012-02-04T09:56:46Z</time>
      </trkpt>
      <trkpt lat="50.49017" lon="1.88323">
        <ele>127.8</ele>
        <time>2012-02-04T09:56:49Z</time>
      </trkpt>
      <trkpt lat="50.49014" lon="1.88331">
        <ele>127</ele>
        <time>2012-02-04T09:56:52Z</time>
      </trkpt>
      <trkpt lat="50.49012" lon="1.88338">
        <ele>125.8</ele>
        <time>2012-02-04T09:56:55Z</time>
      </trkpt>
      <trkpt lat="50.4901" lon="1.88345">
        <ele>128.7</ele>
        <time>2012-02-04T09:56:58Z</time>
      </trkpt>
      <trkpt lat="50.49008" lon="1.88354">
        <ele>130.1</ele>
        <time>2012-02-04T09:57:02Z</time>
      </trkpt>
      <trkpt lat="50.49005" lon="1.88362">
        <ele>129.9</ele>
        <time>2012-02-04T09:57:05Z</time>
      </trkpt>
      <trkpt lat="50.49003" lon="1.88369">
        <ele>129</ele>
        <time>2012-02-04T09:57:08Z</time>
      </trkpt>
      <trkpt lat="50.49002" lon="1.88377">
        <ele>131.5</ele>
        <time>2012-02-04T09:57:11Z</time>
      </trkpt>
      <trkpt lat="50.49" lon="1.88386">
        <ele>132.2</ele>
        <time>2012-02-04T09:57:15Z</time>
      </trkpt>
      <trkpt lat="50.48997" lon="1.88392">
        <ele>132.3</ele>
        <time>2012-02-04T09:57:18Z</time>
      </trkpt>
      <trkpt lat="50.48996" lon="1.88399">
        <ele>132.7</ele>
        <time>2012-02-04T09:57:21Z</time>
      </trkpt>
      <trkpt lat="50.48995" lon="1.88406">
        <ele>134.1</ele>
        <time>2012-02-04T09:57:24Z</time>
      </trkpt>
      <trkpt lat="50.48993" lon="1.88413">
        <ele>134.7</ele>
        <time>2012-02-04T09:57:27Z</time>
      </trkpt>
      <trkpt lat="50.48992" lon="1.8842">
        <ele>135.1</ele>
        <time>2012-02-04T09:57:30Z</time>
      </trkpt>
      <trkpt lat="50.4899" lon="1.88429">
        <ele>135.6</ele>
        <time>2012-02-04T09:57:34Z</time>
      </trkpt>
      <trkpt lat="50.4899" lon="1.88436">
        <ele>136.1</ele>
        <time>2012-02-04T09:57:37Z</time>
      </trkpt>
      <trkpt lat="50.48989" lon="1.88443">
        <ele>137.3</ele>
        <time>2012-02-04T09:57:40Z</time>
      </trkpt>
      <trkpt lat="50.48989" lon="1.88451">
        <ele>138.1</ele>
        <time>2012-02-04T09:57:43Z</time>
      </trkpt>
      <trkpt lat="50.48989" lon="1.88459">
        <ele>139.5</ele>
        <time>2012-02-04T09:57:47Z</time>
      </trkpt>
      <trkpt lat="50.48988" lon="1.88468">
        <ele>139.7</ele>
        <time>2012-02-04T09:57:50Z</time>
      </trkpt>
      <trkpt lat="50.48987" lon="1.88477">
        <ele>139.7</ele>
        <time>2012-02-04T09:57:54Z</time>
      </trkpt>
      <trkpt lat="50.48988" lon="1.88484">
        <ele>139.9</ele>
        <time>2012-02-04T09:57:57Z</time>
      </trkpt>
      <trkpt lat="50.48988" lon="1.88492">
        <ele>140.2</ele>
        <time>2012-02-04T09:58:01Z</time>
      </trkpt>
      <trkpt lat="50.48987" lon="1.88501">
        <ele>141.4</ele>
        <time>2012-02-04T09:58:04Z</time>
      </trkpt>
      <trkpt lat="50.48988" lon="1.88508">
        <ele>140.9</ele>
        <time>2012-02-04T09:58:07Z</time>
      </trkpt>
      <trkpt lat="50.48987" lon="1.88517">
        <ele>143.8</ele>
        <time>2012-02-04T09:58:11Z</time>
      </trkpt>
      <trkpt lat="50.48986" lon="1.88525">
        <ele>146.6</ele>
        <time>2012-02-04T09:58:14Z</time>
      </trkpt>
      <trkpt lat="50.48986" lon="1.88533">
        <ele>147.8</ele>
        <time>2012-02-04T09:58:17Z</time>
      </trkpt>
      <trkpt lat="50.48986" lon="1.8854">
        <ele>148.8</ele>
        <time>2012-02-04T09:58:20Z</time>
      </trkpt>
      <trkpt lat="50.48984" lon="1.88548">
        <ele>150.6</ele>
        <time>2012-02-04T09:58:23Z</time>
      </trkpt>
      <trkpt lat="50.48982" lon="1.88554">
        <ele>149.9</ele>
        <time>2012-02-04T09:58:26Z</time>
      </trkpt>
      <trkpt lat="50.48979" lon="1.8856">
        <ele>151</ele>
        <time>2012-02-04T09:58:29Z</time>
      </trkpt>
      <trkpt lat="50.48978" lon="1.88568">
        <ele>151.9</ele>
        <time>2012-02-04T09:58:32Z</time>
      </trkpt>
      <trkpt lat="50.48976" lon="1.88574">
        <ele>151.7</ele>
        <time>2012-02-04T09:58:35Z</time>
      </trkpt>
      <trkpt lat="50.48974" lon="1.88581">
        <ele>151.8</ele>
        <time>2012-02-04T09:58:38Z</time>
      </trkpt>
      <trkpt lat="50.48972" lon="1.88588">
        <ele>152.7</ele>
        <time>2012-02-04T09:58:41Z</time>
      </trkpt>
      <trkpt lat="50.4897" lon="1.88595">
        <ele>153.2</ele>
        <time>2012-02-04T09:58:44Z</time>
      </trkpt>
      <trkpt lat="50.48968" lon="1.88602">
        <ele>153.7</ele>
        <time>2012-02-04T09:58:47Z</time>
      </trkpt>
      <trkpt lat="50.48966" lon="1.88609">
        <ele>154.3</ele>
        <time>2012-02-04T09:58:50Z</time>
      </trkpt>
      <trkpt lat="50.48963" lon="1.88617">
        <ele>154.2</ele>
        <time>2012-02-04T09:58:53Z</time>
      </trkpt>
      <trkpt lat="50.48961" lon="1.88624">
        <ele>154.9</ele>
        <time>2012-02-04T09:58:56Z</time>
      </trkpt>
      <trkpt lat="50.48958" lon="1.88635">
        <ele>154.7</ele>
        <time>2012-02-04T09:59:00Z</time>
      </trkpt>
      <trkpt lat="50.48955" lon="1.88641">
        <ele>154.9</ele>
        <time>2012-02-04T09:59:02Z</time>
      </trkpt>
      <trkpt lat="50.48953" lon="1.88648">
        <ele>155.5</ele>
        <time>2012-02-04T09:59:05Z</time>
      </trkpt>
      <trkpt lat="50.48949" lon="1.88658">
        <ele>154.9</ele>
        <time>2012-02-04T09:59:08Z</time>
      </trkpt>
      <trkpt lat="50.48948" lon="1.88664">
        <ele>155.3</ele>
        <time>2012-02-04T09:59:10Z</time>
      </trkpt>
      <trkpt lat="50.48945" lon="1.8867">
        <ele>154.9</ele>
        <time>2012-02-04T09:59:12Z</time>
      </trkpt>
      <trkpt lat="50.48943" lon="1.88678">
        <ele>155.7</ele>
        <time>2012-02-04T09:59:15Z</time>
      </trkpt>
      <trkpt lat="50.4894" lon="1.88685">
        <ele>156.3</ele>
        <time>2012-02-04T09:59:17Z</time>
      </trkpt>
      <trkpt lat="50.48938" lon="1.88692">
        <ele>156.1</ele>
        <time>2012-02-04T09:59:19Z</time>
      </trkpt>
      <trkpt lat="50.48936" lon="1.88698">
        <ele>155.8</ele>
        <time>2012-02-04T09:59:21Z</time>
      </trkpt>
      <trkpt lat="50.48933" lon="1.88707">
        <ele>155.2</ele>
        <time>2012-02-04T09:59:24Z</time>
      </trkpt>
      <trkpt lat="50.48931" lon="1.88714">
        <ele>155.3</ele>
        <time>2012-02-04T09:59:26Z</time>
      </trkpt>
      <trkpt lat="50.48929" lon="1.8872">
        <ele>154.8</ele>
        <time>2012-02-04T09:59:28Z</time>
      </trkpt>
      <trkpt lat="50.48926" lon="1.88727">
        <ele>155</ele>
        <time>2012-02-04T09:59:30Z</time>
      </trkpt>
      <trkpt lat="50.48923" lon="1.88734">
        <ele>155.2</ele>
        <time>2012-02-04T09:59:32Z</time>
      </trkpt>
      <trkpt lat="50.48922" lon="1.88742">
        <ele>155.7</ele>
        <time>2012-02-04T09:59:34Z</time>
      </trkpt>
      <trkpt lat="50.48919" lon="1.8875">
        <ele>155.7</ele>
        <time>2012-02-04T09:59:36Z</time>
      </trkpt>
      <trkpt lat="50.48916" lon="1.88758">
        <ele>155.9</ele>
        <time>2012-02-04T09:59:38Z</time>
      </trkpt>
      <trkpt lat="50.48913" lon="1.88765">
        <ele>156.6</ele>
        <time>2012-02-04T09:59:40Z</time>
      </trkpt>
      <trkpt lat="50.4891" lon="1.88774">
        <ele>155.2</ele>
        <time>2012-02-04T09:59:42Z</time>
      </trkpt>
      <trkpt lat="50.48907" lon="1.88782">
        <ele>155.6</ele>
        <time>2012-02-04T09:59:44Z</time>
      </trkpt>
      <trkpt lat="50.48905" lon="1.88789">
        <ele>155.2</ele>
        <time>2012-02-04T09:59:46Z</time>
      </trkpt>
      <trkpt lat="50.48902" lon="1.88797">
        <ele>155.1</ele>
        <time>2012-02-04T09:59:48Z</time>
      </trkpt>
      <trkpt lat="50.48899" lon="1.88805">
        <ele>156.6</ele>
        <time>2012-02-04T09:59:50Z</time>
      </trkpt>
      <trkpt lat="50.48897" lon="1.88812">
        <ele>156.6</ele>
        <time>2012-02-04T09:59:52Z</time>
      </trkpt>
      <trkpt lat="50.48894" lon="1.88821">
        <ele>156.7</ele>
        <time>2012-02-04T09:59:54Z</time>
      </trkpt>
      <trkpt lat="50.4889" lon="1.8883">
        <ele>156.3</ele>
        <time>2012-02-04T09:59:56Z</time>
      </trkpt>
      <trkpt lat="50.48887" lon="1.88839">
        <ele>156.2</ele>
        <time>2012-02-04T09:59:58Z</time>
      </trkpt>
      <trkpt lat="50.48884" lon="1.88849">
        <ele>155.8</ele>
        <time>2012-02-04T10:00:00Z</time>
      </trkpt>
      <trkpt lat="50.48881" lon="1.88858">
        <ele>155.8</ele>
        <time>2012-02-04T10:00:02Z</time>
      </trkpt>
      <trkpt lat="50.48878" lon="1.88867">
        <ele>156</ele>
        <time>2012-02-04T10:00:04Z</time>
      </trkpt>
      <trkpt lat="50.48875" lon="1.88875">
        <ele>156.7</ele>
        <time>2012-02-04T10:00:06Z</time>
      </trkpt>
      <trkpt lat="50.48872" lon="1.88885">
        <ele>157.6</ele>
        <time>2012-02-04T10:00:08Z</time>
      </trkpt>
      <trkpt lat="50.48869" lon="1.88892">
        <ele>156.7</ele>
        <time>2012-02-04T10:00:10Z</time>
      </trkpt>
      <trkpt lat="50.48866" lon="1.88901">
        <ele>156.8</ele>
        <time>2012-02-04T10:00:12Z</time>
      </trkpt>
      <trkpt lat="50.48863" lon="1.88909">
        <ele>157.4</ele>
        <time>2012-02-04T10:00:14Z</time>
      </trkpt>
      <trkpt lat="50.4886" lon="1.88916">
        <ele>157.7</ele>
        <time>2012-02-04T10:00:16Z</time>
      </trkpt>
      <trkpt lat="50.48859" lon="1.88924">
        <ele>158.3</ele>
        <time>2012-02-04T10:00:18Z</time>
      </trkpt>
      <trkpt lat="50.48855" lon="1.88932">
        <ele>158.8</ele>
        <time>2012-02-04T10:00:20Z</time>
      </trkpt>
      <trkpt lat="50.48853" lon="1.88939">
        <ele>159.1</ele>
        <time>2012-02-04T10:00:22Z</time>
      </trkpt>
      <trkpt lat="50.4885" lon="1.88947">
        <ele>159.7</ele>
        <time>2012-02-04T10:00:24Z</time>
      </trkpt>
      <trkpt lat="50.48848" lon="1.88954">
        <ele>160.1</ele>
        <time>2012-02-04T10:00:26Z</time>
      </trkpt>
      <trkpt lat="50.48845" lon="1.88961">
        <ele>160.3</ele>
        <time>2012-02-04T10:00:28Z</time>
      </trkpt>
      <trkpt lat="50.48842" lon="1.88969">
        <ele>161</ele>
        <time>2012-02-04T10:00:30Z</time>
      </trkpt>
      <trkpt lat="50.48839" lon="1.88977">
        <ele>161.1</ele>
        <time>2012-02-04T10:00:32Z</time>
      </trkpt>
      <trkpt lat="50.48836" lon="1.88986">
        <ele>161.3</ele>
        <time>2012-02-04T10:00:34Z</time>
      </trkpt>
      <trkpt lat="50.48834" lon="1.88996">
        <ele>162.7</ele>
        <time>2012-02-04T10:00:37Z</time>
      </trkpt>
      <trkpt lat="50.4883" lon="1.89003">
        <ele>162.4</ele>
        <time>2012-02-04T10:00:39Z</time>
      </trkpt>
      <trkpt lat="50.48828" lon="1.89011">
        <ele>163.2</ele>
        <time>2012-02-04T10:00:41Z</time>
      </trkpt>
      <trkpt lat="50.48825" lon="1.89018">
        <ele>163.3</ele>
        <time>2012-02-04T10:00:43Z</time>
      </trkpt>
      <trkpt lat="50.48823" lon="1.89025">
        <ele>163.1</ele>
        <time>2012-02-04T10:00:45Z</time>
      </trkpt>
      <trkpt lat="50.4882" lon="1.89032">
        <ele>163.3</ele>
        <time>2012-02-04T10:00:47Z</time>
      </trkpt>
      <trkpt lat="50.48818" lon="1.8904">
        <ele>164</ele>
        <time>2012-02-04T10:00:49Z</time>
      </trkpt>
      <trkpt lat="50.48815" lon="1.89048">
        <ele>164.5</ele>
        <time>2012-02-04T10:00:51Z</time>
      </trkpt>
      <trkpt lat="50.48813" lon="1.89056">
        <ele>164.7</ele>
        <time>2012-02-04T10:00:53Z</time>
      </trkpt>
      <trkpt lat="50.4881" lon="1.89064">
        <ele>164.5</ele>
        <time>2012-02-04T10:00:55Z</time>
      </trkpt>
      <trkpt lat="50.48807" lon="1.89072">
        <ele>164.3</ele>
        <time>2012-02-04T10:00:57Z</time>
      </trkpt>
      <trkpt lat="50.48804" lon="1.89079">
        <ele>164.7</ele>
        <time>2012-02-04T10:00:59Z</time>
      </trkpt>
      <trkpt lat="50.48802" lon="1.89086">
        <ele>165.1</ele>
        <time>2012-02-04T10:01:01Z</time>
      </trkpt>
      <trkpt lat="50.488" lon="1.89093">
        <ele>165.6</ele>
        <time>2012-02-04T10:01:03Z</time>
      </trkpt>
      <trkpt lat="50.48797" lon="1.891">
        <ele>165.8</ele>
        <time>2012-02-04T10:01:05Z</time>
      </trkpt>
      <trkpt lat="50.48794" lon="1.89108">
        <ele>165.9</ele>
        <time>2012-02-04T10:01:07Z</time>
      </trkpt>
      <trkpt lat="50.48792" lon="1.89115">
        <ele>165.8</ele>
        <time>2012-02-04T10:01:09Z</time>
      </trkpt>
      <trkpt lat="50.48789" lon="1.89123">
        <ele>165.8</ele>
        <time>2012-02-04T10:01:11Z</time>
      </trkpt>
      <trkpt lat="50.48786" lon="1.89131">
        <ele>165.6</ele>
        <time>2012-02-04T10:01:13Z</time>
      </trkpt>
      <trkpt lat="50.48783" lon="1.89139">
        <ele>166</ele>
        <time>2012-02-04T10:01:15Z</time>
      </trkpt>
      <trkpt lat="50.4878" lon="1.89147">
        <ele>165.8</ele>
        <time>2012-02-04T10:01:17Z</time>
      </trkpt>
      <trkpt lat="50.48777" lon="1.89155">
        <ele>166.5</ele>
        <time>2012-02-04T10:01:19Z</time>
      </trkpt>
      <trkpt lat="50.48774" lon="1.89162">
        <ele>166.5</ele>
        <time>2012-02-04T10:01:21Z</time>
      </trkpt>
      <trkpt lat="50.48771" lon="1.89169">
        <ele>167</ele>
        <time>2012-02-04T10:01:23Z</time>
      </trkpt>
      <trkpt lat="50.48769" lon="1.89177">
        <ele>166.7</ele>
        <time>2012-02-04T10:01:25Z</time>
      </trkpt>
      <trkpt lat="50.48765" lon="1.89184">
        <ele>167</ele>
        <time>2012-02-04T10:01:27Z</time>
      </trkpt>
      <trkpt lat="50.48762" lon="1.89192">
        <ele>166.8</ele>
        <time>2012-02-04T10:01:29Z</time>
      </trkpt>
      <trkpt lat="50.48759" lon="1.892">
        <ele>167.2</ele>
        <time>2012-02-04T10:01:31Z</time>
      </trkpt>
      <trkpt lat="50.48756" lon="1.89208">
        <ele>166.7</ele>
        <time>2012-02-04T10:01:33Z</time>
      </trkpt>
      <trkpt lat="50.48751" lon="1.89218">
        <ele>165.9</ele>
        <time>2012-02-04T10:01:35Z</time>
      </trkpt>
      <trkpt lat="50.48747" lon="1.89228">
        <ele>165.4</ele>
        <time>2012-02-04T10:01:37Z</time>
      </trkpt>
      <trkpt lat="50.48743" lon="1.89237">
        <ele>165.8</ele>
        <time>2012-02-04T10:01:39Z</time>
      </trkpt>
      <trkpt lat="50.48737" lon="1.89245">
        <ele>165.6</ele>
        <time>2012-02-04T10:01:41Z</time>
      </trkpt>
      <trkpt lat="50.48731" lon="1.89252">
        <ele>165.1</ele>
        <time>2012-02-04T10:01:43Z</time>
      </trkpt>
      <trkpt lat="50.48726" lon="1.8926">
        <ele>165.1</ele>
        <time>2012-02-04T10:01:45Z</time>
      </trkpt>
      <trkpt lat="50.48719" lon="1.89266">
        <ele>165.2</ele>
        <time>2012-02-04T10:01:47Z</time>
      </trkpt>
      <trkpt lat="50.48715" lon="1.8927">
        <ele>165.1</ele>
        <time>2012-02-04T10:01:48Z</time>
      </trkpt>
      <trkpt lat="50.4871" lon="1.89275">
        <ele>165.4</ele>
        <time>2012-02-04T10:01:50Z</time>
      </trkpt>
      <trkpt lat="50.48703" lon="1.89282">
        <ele>164.8</ele>
        <time>2012-02-04T10:01:52Z</time>
      </trkpt>
      <trkpt lat="50.48699" lon="1.89286">
        <ele>164.9</ele>
        <time>2012-02-04T10:01:53Z</time>
      </trkpt>
      <trkpt lat="50.48694" lon="1.89295">
        <ele>165.8</ele>
        <time>2012-02-04T10:01:55Z</time>
      </trkpt>
      <trkpt lat="50.48691" lon="1.893">
        <ele>165.8</ele>
        <time>2012-02-04T10:01:56Z</time>
      </trkpt>
      <trkpt lat="50.48685" lon="1.89307">
        <ele>166.1</ele>
        <time>2012-02-04T10:01:58Z</time>
      </trkpt>
      <trkpt lat="50.4868" lon="1.89312">
        <ele>166.3</ele>
        <time>2012-02-04T10:02:00Z</time>
      </trkpt>
      <trkpt lat="50.48678" lon="1.89319">
        <ele>170.6</ele>
        <time>2012-02-04T10:02:01Z</time>
      </trkpt>
      <trkpt lat="50.48672" lon="1.89324">
        <ele>169.6</ele>
        <time>2012-02-04T10:02:03Z</time>
      </trkpt>
      <trkpt lat="50.48665" lon="1.89329">
        <ele>168.7</ele>
        <time>2012-02-04T10:02:05Z</time>
      </trkpt>
      <trkpt lat="50.4866" lon="1.89335">
        <ele>168.9</ele>
        <time>2012-02-04T10:02:07Z</time>
      </trkpt>
      <trkpt lat="50.48655" lon="1.89339">
        <ele>167.8</ele>
        <time>2012-02-04T10:02:09Z</time>
      </trkpt>
      <trkpt lat="50.4865" lon="1.89343">
        <ele>167.4</ele>
        <time>2012-02-04T10:02:11Z</time>
      </trkpt>
      <trkpt lat="50.48645" lon="1.89349">
        <ele>165.5</ele>
        <time>2012-02-04T10:02:13Z</time>
      </trkpt>
      <trkpt lat="50.48641" lon="1.89356">
        <ele>168.4</ele>
        <time>2012-02-04T10:02:15Z</time>
      </trkpt>
      <trkpt lat="50.48636" lon="1.89362">
        <ele>169.5</ele>
        <time>2012-02-04T10:02:17Z</time>
      </trkpt>
      <trkpt lat="50.48632" lon="1.89366">
        <ele>169.3</ele>
        <time>2012-02-04T10:02:19Z</time>
      </trkpt>
      <trkpt lat="50.48628" lon="1.89372">
        <ele>169.5</ele>
        <time>2012-02-04T10:02:21Z</time>
      </trkpt>
      <trkpt lat="50.48624" lon="1.89377">
        <ele>170</ele>
        <time>2012-02-04T10:02:23Z</time>
      </trkpt>
      <trkpt lat="50.48619" lon="1.89383">
        <ele>170.1</ele>
        <time>2012-02-04T10:02:25Z</time>
      </trkpt>
      <trkpt lat="50.48615" lon="1.89387">
        <ele>171.1</ele>
        <time>2012-02-04T10:02:27Z</time>
      </trkpt>
      <trkpt lat="50.48612" lon="1.89391">
        <ele>170.9</ele>
        <time>2012-02-04T10:02:29Z</time>
      </trkpt>
      <trkpt lat="50.48607" lon="1.89396">
        <ele>170.7</ele>
        <time>2012-02-04T10:02:31Z</time>
      </trkpt>
      <trkpt lat="50.48603" lon="1.89403">
        <ele>171.9</ele>
        <time>2012-02-04T10:02:33Z</time>
      </trkpt>
      <trkpt lat="50.48598" lon="1.8941">
        <ele>172.9</ele>
        <time>2012-02-04T10:02:35Z</time>
      </trkpt>
      <trkpt lat="50.48594" lon="1.89415">
        <ele>172.9</ele>
        <time>2012-02-04T10:02:37Z</time>
      </trkpt>
      <trkpt lat="50.4859" lon="1.89421">
        <ele>172.7</ele>
        <time>2012-02-04T10:02:39Z</time>
      </trkpt>
      <trkpt lat="50.48585" lon="1.89428">
        <ele>172.7</ele>
        <time>2012-02-04T10:02:41Z</time>
      </trkpt>
      <trkpt lat="50.48581" lon="1.89433">
        <ele>172.5</ele>
        <time>2012-02-04T10:02:43Z</time>
      </trkpt>
      <trkpt lat="50.48577" lon="1.8944">
        <ele>172.2</ele>
        <time>2012-02-04T10:02:45Z</time>
      </trkpt>
      <trkpt lat="50.48573" lon="1.89447">
        <ele>173.3</ele>
        <time>2012-02-04T10:02:47Z</time>
      </trkpt>
      <trkpt lat="50.48569" lon="1.89451">
        <ele>172</ele>
        <time>2012-02-04T10:02:49Z</time>
      </trkpt>
      <trkpt lat="50.48565" lon="1.89458">
        <ele>171.4</ele>
        <time>2012-02-04T10:02:51Z</time>
      </trkpt>
      <trkpt lat="50.48562" lon="1.89464">
        <ele>172.6</ele>
        <time>2012-02-04T10:02:53Z</time>
      </trkpt>
      <trkpt lat="50.48557" lon="1.8947">
        <ele>171.6</ele>
        <time>2012-02-04T10:02:55Z</time>
      </trkpt>
      <trkpt lat="50.48554" lon="1.89477">
        <ele>171.6</ele>
        <time>2012-02-04T10:02:57Z</time>
      </trkpt>
      <trkpt lat="50.4855" lon="1.89485">
        <ele>172.4</ele>
        <time>2012-02-04T10:02:59Z</time>
      </trkpt>
      <trkpt lat="50.48545" lon="1.89493">
        <ele>172.7</ele>
        <time>2012-02-04T10:03:03Z</time>
      </trkpt>
      <trkpt lat="50.48549" lon="1.89487">
        <ele>172</ele>
        <time>2012-02-04T10:03:04Z</time>
      </trkpt>
      <trkpt lat="50.48545" lon="1.89494">
        <ele>172.5</ele>
        <time>2012-02-04T10:06:18Z</time>
      </trkpt>
      <trkpt lat="50.48541" lon="1.89498">
        <ele>170.7</ele>
        <time>2012-02-04T10:06:23Z</time>
      </trkpt>
      <trkpt lat="50.48538" lon="1.89504">
        <ele>170.9</ele>
        <time>2012-02-04T10:06:26Z</time>
      </trkpt>
      <trkpt lat="50.48534" lon="1.8951">
        <ele>171.1</ele>
        <time>2012-02-04T10:06:29Z</time>
      </trkpt>
      <trkpt lat="50.4853" lon="1.89515">
        <ele>171.2</ele>
        <time>2012-02-04T10:06:31Z</time>
      </trkpt>
      <trkpt lat="50.48527" lon="1.89522">
        <ele>170.7</ele>
        <time>2012-02-04T10:06:33Z</time>
      </trkpt>
      <trkpt lat="50.48524" lon="1.89528">
        <ele>171.1</ele>
        <time>2012-02-04T10:06:35Z</time>
      </trkpt>
      <trkpt lat="50.48519" lon="1.89535">
        <ele>170.7</ele>
        <time>2012-02-04T10:06:37Z</time>
      </trkpt>
      <trkpt lat="50.48515" lon="1.89541">
        <ele>169.9</ele>
        <time>2012-02-04T10:06:39Z</time>
      </trkpt>
      <trkpt lat="50.48511" lon="1.89548">
        <ele>169.7</ele>
        <time>2012-02-04T10:06:41Z</time>
      </trkpt>
      <trkpt lat="50.48507" lon="1.89554">
        <ele>169.8</ele>
        <time>2012-02-04T10:06:43Z</time>
      </trkpt>
      <trkpt lat="50.48502" lon="1.8956">
        <ele>169.3</ele>
        <time>2012-02-04T10:06:45Z</time>
      </trkpt>
      <trkpt lat="50.48499" lon="1.89566">
        <ele>168.9</ele>
        <time>2012-02-04T10:06:47Z</time>
      </trkpt>
      <trkpt lat="50.48494" lon="1.89573">
        <ele>168.6</ele>
        <time>2012-02-04T10:06:49Z</time>
      </trkpt>
      <trkpt lat="50.48489" lon="1.89582">
        <ele>167.6</ele>
        <time>2012-02-04T10:06:51Z</time>
      </trkpt>
      <trkpt lat="50.48484" lon="1.89591">
        <ele>167.3</ele>
        <time>2012-02-04T10:06:53Z</time>
      </trkpt>
      <trkpt lat="50.4848" lon="1.89598">
        <ele>166.9</ele>
        <time>2012-02-04T10:06:55Z</time>
      </trkpt>
      <trkpt lat="50.48475" lon="1.89605">
        <ele>165.1</ele>
        <time>2012-02-04T10:06:57Z</time>
      </trkpt>
      <trkpt lat="50.48469" lon="1.89614">
        <ele>164.4</ele>
        <time>2012-02-04T10:06:59Z</time>
      </trkpt>
      <trkpt lat="50.48463" lon="1.89623">
        <ele>163.9</ele>
        <time>2012-02-04T10:07:01Z</time>
      </trkpt>
      <trkpt lat="50.4846" lon="1.89628">
        <ele>165.1</ele>
        <time>2012-02-04T10:07:02Z</time>
      </trkpt>
      <trkpt lat="50.48454" lon="1.89638">
        <ele>164.5</ele>
        <time>2012-02-04T10:07:04Z</time>
      </trkpt>
      <trkpt lat="50.48448" lon="1.89648">
        <ele>165.3</ele>
        <time>2012-02-04T10:07:06Z</time>
      </trkpt>
      <trkpt lat="50.48442" lon="1.89657">
        <ele>165</ele>
        <time>2012-02-04T10:07:08Z</time>
      </trkpt>
      <trkpt lat="50.48436" lon="1.89664">
        <ele>164.8</ele>
        <time>2012-02-04T10:07:10Z</time>
      </trkpt>
      <trkpt lat="50.48433" lon="1.89671">
        <ele>165.8</ele>
        <time>2012-02-04T10:07:12Z</time>
      </trkpt>
      <trkpt lat="50.48429" lon="1.8968">
        <ele>163.6</ele>
        <time>2012-02-04T10:07:15Z</time>
      </trkpt>
      <trkpt lat="50.48425" lon="1.89686">
        <ele>162.1</ele>
        <time>2012-02-04T10:07:17Z</time>
      </trkpt>
      <trkpt lat="50.48421" lon="1.89693">
        <ele>161.2</ele>
        <time>2012-02-04T10:07:19Z</time>
      </trkpt>
      <trkpt lat="50.48416" lon="1.89697">
        <ele>161.8</ele>
        <time>2012-02-04T10:07:21Z</time>
      </trkpt>
      <trkpt lat="50.48411" lon="1.89703">
        <ele>161.1</ele>
        <time>2012-02-04T10:07:23Z</time>
      </trkpt>
      <trkpt lat="50.48408" lon="1.8971">
        <ele>163.2</ele>
        <time>2012-02-04T10:07:25Z</time>
      </trkpt>
      <trkpt lat="50.48403" lon="1.89715">
        <ele>163.1</ele>
        <time>2012-02-04T10:07:27Z</time>
      </trkpt>
      <trkpt lat="50.48398" lon="1.89723">
        <ele>163.2</ele>
        <time>2012-02-04T10:07:29Z</time>
      </trkpt>
      <trkpt lat="50.48394" lon="1.89729">
        <ele>162.6</ele>
        <time>2012-02-04T10:07:31Z</time>
      </trkpt>
      <trkpt lat="50.4839" lon="1.89738">
        <ele>163.9</ele>
        <time>2012-02-04T10:07:33Z</time>
      </trkpt>
      <trkpt lat="50.48386" lon="1.89744">
        <ele>163.4</ele>
        <time>2012-02-04T10:07:35Z</time>
      </trkpt>
      <trkpt lat="50.48382" lon="1.89749">
        <ele>163.4</ele>
        <time>2012-02-04T10:07:37Z</time>
      </trkpt>
      <trkpt lat="50.48377" lon="1.89755">
        <ele>163.3</ele>
        <time>2012-02-04T10:07:39Z</time>
      </trkpt>
      <trkpt lat="50.48373" lon="1.89762">
        <ele>162.6</ele>
        <time>2012-02-04T10:07:41Z</time>
      </trkpt>
      <trkpt lat="50.48368" lon="1.89769">
        <ele>162.9</ele>
        <time>2012-02-04T10:07:43Z</time>
      </trkpt>
      <trkpt lat="50.48364" lon="1.89777">
        <ele>162.6</ele>
        <time>2012-02-04T10:07:45Z</time>
      </trkpt>
      <trkpt lat="50.48362" lon="1.89783">
        <ele>162.4</ele>
        <time>2012-02-04T10:07:47Z</time>
      </trkpt>
      <trkpt lat="50.48357" lon="1.8979">
        <ele>162.2</ele>
        <time>2012-02-04T10:07:50Z</time>
      </trkpt>
      <trkpt lat="50.48353" lon="1.89793">
        <ele>162.3</ele>
        <time>2012-02-04T10:07:52Z</time>
      </trkpt>
      <trkpt lat="50.4835" lon="1.89799">
        <ele>163</ele>
        <time>2012-02-04T10:07:54Z</time>
      </trkpt>
      <trkpt lat="50.48354" lon="1.89788">
        <ele>160.9</ele>
        <time>2012-02-04T10:07:55Z</time>
      </trkpt>
      <trkpt lat="50.48349" lon="1.8979">
        <ele>163</ele>
        <time>2012-02-04T10:08:03Z</time>
      </trkpt>
      <trkpt lat="50.48346" lon="1.89784">
        <ele>163.6</ele>
        <time>2012-02-04T10:08:14Z</time>
      </trkpt>
      <trkpt lat="50.48342" lon="1.89777">
        <ele>164.4</ele>
        <time>2012-02-04T10:08:17Z</time>
      </trkpt>
      <trkpt lat="50.4834" lon="1.8977">
        <ele>164.6</ele>
        <time>2012-02-04T10:08:19Z</time>
      </trkpt>
      <trkpt lat="50.48335" lon="1.89765">
        <ele>164.9</ele>
        <time>2012-02-04T10:08:21Z</time>
      </trkpt>
      <trkpt lat="50.48333" lon="1.89759">
        <ele>165.2</ele>
        <time>2012-02-04T10:08:24Z</time>
      </trkpt>
      <trkpt lat="50.48328" lon="1.8975">
        <ele>165.1</ele>
        <time>2012-02-04T10:08:27Z</time>
      </trkpt>
      <trkpt lat="50.48325" lon="1.89744">
        <ele>165.4</ele>
        <time>2012-02-04T10:08:29Z</time>
      </trkpt>
      <trkpt lat="50.48321" lon="1.89738">
        <ele>165.7</ele>
        <time>2012-02-04T10:08:31Z</time>
      </trkpt>
      <trkpt lat="50.48317" lon="1.89732">
        <ele>165.7</ele>
        <time>2012-02-04T10:08:33Z</time>
      </trkpt>
      <trkpt lat="50.48314" lon="1.89725">
        <ele>166</ele>
        <time>2012-02-04T10:08:35Z</time>
      </trkpt>
      <trkpt lat="50.48311" lon="1.89717">
        <ele>165.3</ele>
        <time>2012-02-04T10:08:37Z</time>
      </trkpt>
      <trkpt lat="50.48308" lon="1.89711">
        <ele>165.6</ele>
        <time>2012-02-04T10:08:39Z</time>
      </trkpt>
      <trkpt lat="50.48303" lon="1.89704">
        <ele>165.7</ele>
        <time>2012-02-04T10:08:41Z</time>
      </trkpt>
      <trkpt lat="50.48299" lon="1.89696">
        <ele>166.4</ele>
        <time>2012-02-04T10:08:43Z</time>
      </trkpt>
      <trkpt lat="50.48295" lon="1.89688">
        <ele>166.7</ele>
        <time>2012-02-04T10:08:45Z</time>
      </trkpt>
      <trkpt lat="50.48289" lon="1.89679">
        <ele>165.7</ele>
        <time>2012-02-04T10:08:47Z</time>
      </trkpt>
      <trkpt lat="50.48285" lon="1.89671">
        <ele>165.6</ele>
        <time>2012-02-04T10:08:49Z</time>
      </trkpt>
      <trkpt lat="50.4828" lon="1.89662">
        <ele>165.2</ele>
        <time>2012-02-04T10:08:51Z</time>
      </trkpt>
      <trkpt lat="50.48273" lon="1.89655">
        <ele>165.1</ele>
        <time>2012-02-04T10:08:53Z</time>
      </trkpt>
      <trkpt lat="50.48269" lon="1.89645">
        <ele>164.8</ele>
        <time>2012-02-04T10:08:55Z</time>
      </trkpt>
      <trkpt lat="50.48265" lon="1.89636">
        <ele>165.5</ele>
        <time>2012-02-04T10:08:57Z</time>
      </trkpt>
      <trkpt lat="50.4826" lon="1.89629">
        <ele>165.8</ele>
        <time>2012-02-04T10:08:59Z</time>
      </trkpt>
      <trkpt lat="50.48256" lon="1.8962">
        <ele>165.8</ele>
        <time>2012-02-04T10:09:01Z</time>
      </trkpt>
      <trkpt lat="50.48251" lon="1.89611">
        <ele>165.2</ele>
        <time>2012-02-04T10:09:03Z</time>
      </trkpt>
      <trkpt lat="50.48245" lon="1.89602">
        <ele>164.9</ele>
        <time>2012-02-04T10:09:05Z</time>
      </trkpt>
      <trkpt lat="50.4824" lon="1.89595">
        <ele>164.4</ele>
        <time>2012-02-04T10:09:07Z</time>
      </trkpt>
      <trkpt lat="50.48236" lon="1.89587">
        <ele>164.2</ele>
        <time>2012-02-04T10:09:09Z</time>
      </trkpt>
      <trkpt lat="50.48231" lon="1.89577">
        <ele>164.3</ele>
        <time>2012-02-04T10:09:11Z</time>
      </trkpt>
      <trkpt lat="50.48227" lon="1.89567">
        <ele>165.1</ele>
        <time>2012-02-04T10:09:13Z</time>
      </trkpt>
      <trkpt lat="50.48222" lon="1.89557">
        <ele>164.8</ele>
        <time>2012-02-04T10:09:15Z</time>
      </trkpt>
      <trkpt lat="50.48217" lon="1.89548">
        <ele>165</ele>
        <time>2012-02-04T10:09:17Z</time>
      </trkpt>
      <trkpt lat="50.48212" lon="1.89539">
        <ele>165.1</ele>
        <time>2012-02-04T10:09:19Z</time>
      </trkpt>
      <trkpt lat="50.48207" lon="1.8953">
        <ele>165</ele>
        <time>2012-02-04T10:09:21Z</time>
      </trkpt>
      <trkpt lat="50.48202" lon="1.89519">
        <ele>164.5</ele>
        <time>2012-02-04T10:09:23Z</time>
      </trkpt>
      <trkpt lat="50.48199" lon="1.89512">
        <ele>164.3</ele>
        <time>2012-02-04T10:09:25Z</time>
      </trkpt>
      <trkpt lat="50.48194" lon="1.89504">
        <ele>163.8</ele>
        <time>2012-02-04T10:09:27Z</time>
      </trkpt>
      <trkpt lat="50.48188" lon="1.89497">
        <ele>163.4</ele>
        <time>2012-02-04T10:09:29Z</time>
      </trkpt>
      <trkpt lat="50.48184" lon="1.89486">
        <ele>163.9</ele>
        <time>2012-02-04T10:09:31Z</time>
      </trkpt>
      <trkpt lat="50.4818" lon="1.89479">
        <ele>163.9</ele>
        <time>2012-02-04T10:09:33Z</time>
      </trkpt>
      <trkpt lat="50.48176" lon="1.8947">
        <ele>163.9</ele>
        <time>2012-02-04T10:09:35Z</time>
      </trkpt>
      <trkpt lat="50.48172" lon="1.8946">
        <ele>164</ele>
        <time>2012-02-04T10:09:37Z</time>
      </trkpt>
      <trkpt lat="50.48166" lon="1.8945">
        <ele>163.8</ele>
        <time>2012-02-04T10:09:39Z</time>
      </trkpt>
      <trkpt lat="50.48162" lon="1.89442">
        <ele>163.8</ele>
        <time>2012-02-04T10:09:41Z</time>
      </trkpt>
      <trkpt lat="50.48158" lon="1.89434">
        <ele>163.9</ele>
        <time>2012-02-04T10:09:43Z</time>
      </trkpt>
      <trkpt lat="50.48152" lon="1.89426">
        <ele>163.6</ele>
        <time>2012-02-04T10:09:45Z</time>
      </trkpt>
      <trkpt lat="50.48148" lon="1.89417">
        <ele>164.2</ele>
        <time>2012-02-04T10:09:47Z</time>
      </trkpt>
      <trkpt lat="50.48143" lon="1.89408">
        <ele>164.2</ele>
        <time>2012-02-04T10:09:49Z</time>
      </trkpt>
      <trkpt lat="50.48137" lon="1.894">
        <ele>164.5</ele>
        <time>2012-02-04T10:09:51Z</time>
      </trkpt>
      <trkpt lat="50.48133" lon="1.89393">
        <ele>164.7</ele>
        <time>2012-02-04T10:09:52Z</time>
      </trkpt>
      <trkpt lat="50.4813" lon="1.89386">
        <ele>164.5</ele>
        <time>2012-02-04T10:09:53Z</time>
      </trkpt>
      <trkpt lat="50.48128" lon="1.89377">
        <ele>164.6</ele>
        <time>2012-02-04T10:09:56Z</time>
      </trkpt>
      <trkpt lat="50.48123" lon="1.8937">
        <ele>163.9</ele>
        <time>2012-02-04T10:09:58Z</time>
      </trkpt>
      <trkpt lat="50.48126" lon="1.89362">
        <ele>162</ele>
        <time>2012-02-04T10:10:02Z</time>
      </trkpt>
      <trkpt lat="50.48126" lon="1.89351">
        <ele>162.1</ele>
        <time>2012-02-04T10:10:04Z</time>
      </trkpt>
      <trkpt lat="50.4813" lon="1.89346">
        <ele>165.4</ele>
        <time>2012-02-04T10:10:05Z</time>
      </trkpt>
      <trkpt lat="50.48134" lon="1.8934">
        <ele>164.9</ele>
        <time>2012-02-04T10:10:07Z</time>
      </trkpt>
      <trkpt lat="50.48137" lon="1.89333">
        <ele>164.7</ele>
        <time>2012-02-04T10:10:09Z</time>
      </trkpt>
      <trkpt lat="50.48142" lon="1.89326">
        <ele>165.1</ele>
        <time>2012-02-04T10:10:11Z</time>
      </trkpt>
      <trkpt lat="50.48146" lon="1.89318">
        <ele>165.3</ele>
        <time>2012-02-04T10:10:13Z</time>
      </trkpt>
      <trkpt lat="50.4815" lon="1.89312">
        <ele>165.1</ele>
        <time>2012-02-04T10:10:15Z</time>
      </trkpt>
      <trkpt lat="50.48155" lon="1.89304">
        <ele>166.2</ele>
        <time>2012-02-04T10:10:17Z</time>
      </trkpt>
      <trkpt lat="50.4816" lon="1.89295">
        <ele>165.8</ele>
        <time>2012-02-04T10:10:19Z</time>
      </trkpt>
      <trkpt lat="50.48164" lon="1.89287">
        <ele>166.9</ele>
        <time>2012-02-04T10:10:21Z</time>
      </trkpt>
      <trkpt lat="50.4817" lon="1.89279">
        <ele>167</ele>
        <time>2012-02-04T10:10:23Z</time>
      </trkpt>
      <trkpt lat="50.48176" lon="1.89272">
        <ele>166.9</ele>
        <time>2012-02-04T10:10:25Z</time>
      </trkpt>
      <trkpt lat="50.48181" lon="1.89262">
        <ele>167</ele>
        <time>2012-02-04T10:10:27Z</time>
      </trkpt>
      <trkpt lat="50.48186" lon="1.89252">
        <ele>167.2</ele>
        <time>2012-02-04T10:10:29Z</time>
      </trkpt>
      <trkpt lat="50.48192" lon="1.89244">
        <ele>167.3</ele>
        <time>2012-02-04T10:10:31Z</time>
      </trkpt>
      <trkpt lat="50.48198" lon="1.89234">
        <ele>168.3</ele>
        <time>2012-02-04T10:10:33Z</time>
      </trkpt>
      <trkpt lat="50.48204" lon="1.89224">
        <ele>169</ele>
        <time>2012-02-04T10:10:35Z</time>
      </trkpt>
      <trkpt lat="50.4821" lon="1.89215">
        <ele>168.1</ele>
        <time>2012-02-04T10:10:37Z</time>
      </trkpt>
      <trkpt lat="50.48216" lon="1.89205">
        <ele>168.3</ele>
        <time>2012-02-04T10:10:39Z</time>
      </trkpt>
      <trkpt lat="50.48222" lon="1.89195">
        <ele>168.8</ele>
        <time>2012-02-04T10:10:41Z</time>
      </trkpt>
      <trkpt lat="50.48225" lon="1.8919">
        <ele>169</ele>
        <time>2012-02-04T10:10:42Z</time>
      </trkpt>
      <trkpt lat="50.48228" lon="1.89185">
        <ele>169.3</ele>
        <time>2012-02-04T10:10:43Z</time>
      </trkpt>
      <trkpt lat="50.48232" lon="1.8918">
        <ele>169.2</ele>
        <time>2012-02-04T10:10:44Z</time>
      </trkpt>
      <trkpt lat="50.48235" lon="1.89175">
        <ele>168.8</ele>
        <time>2012-02-04T10:10:45Z</time>
      </trkpt>
      <trkpt lat="50.48239" lon="1.8917">
        <ele>168.8</ele>
        <time>2012-02-04T10:10:46Z</time>
      </trkpt>
      <trkpt lat="50.48246" lon="1.8916">
        <ele>168.3</ele>
        <time>2012-02-04T10:10:48Z</time>
      </trkpt>
      <trkpt lat="50.48248" lon="1.89154">
        <ele>168.3</ele>
        <time>2012-02-04T10:10:49Z</time>
      </trkpt>
      <trkpt lat="50.48252" lon="1.89148">
        <ele>168.2</ele>
        <time>2012-02-04T10:10:50Z</time>
      </trkpt>
      <trkpt lat="50.48255" lon="1.89142">
        <ele>167.7</ele>
        <time>2012-02-04T10:10:51Z</time>
      </trkpt>
      <trkpt lat="50.48259" lon="1.89137">
        <ele>167.9</ele>
        <time>2012-02-04T10:10:52Z</time>
      </trkpt>
      <trkpt lat="50.48262" lon="1.89131">
        <ele>167.5</ele>
        <time>2012-02-04T10:10:53Z</time>
      </trkpt>
      <trkpt lat="50.48266" lon="1.89124">
        <ele>167.3</ele>
        <time>2012-02-04T10:10:54Z</time>
      </trkpt>
      <trkpt lat="50.48269" lon="1.89118">
        <ele>166.7</ele>
        <time>2012-02-04T10:10:55Z</time>
      </trkpt>
      <trkpt lat="50.48273" lon="1.89112">
        <ele>166.3</ele>
        <time>2012-02-04T10:10:56Z</time>
      </trkpt>
      <trkpt lat="50.48276" lon="1.89106">
        <ele>166.4</ele>
        <time>2012-02-04T10:10:57Z</time>
      </trkpt>
      <trkpt lat="50.4828" lon="1.891">
        <ele>166.3</ele>
        <time>2012-02-04T10:10:58Z</time>
      </trkpt>
      <trkpt lat="50.48284" lon="1.89093">
        <ele>166.7</ele>
        <time>2012-02-04T10:10:59Z</time>
      </trkpt>
      <trkpt lat="50.48289" lon="1.89088">
        <ele>166.5</ele>
        <time>2012-02-04T10:11:00Z</time>
      </trkpt>
      <trkpt lat="50.48293" lon="1.89082">
        <ele>166.5</ele>
        <time>2012-02-04T10:11:01Z</time>
      </trkpt>
      <trkpt lat="50.48296" lon="1.89076">
        <ele>166.4</ele>
        <time>2012-02-04T10:11:02Z</time>
      </trkpt>
      <trkpt lat="50.483" lon="1.8907">
        <ele>166.5</ele>
        <time>2012-02-04T10:11:03Z</time>
      </trkpt>
      <trkpt lat="50.48304" lon="1.89065">
        <ele>166.7</ele>
        <time>2012-02-04T10:11:04Z</time>
      </trkpt>
      <trkpt lat="50.48308" lon="1.89059">
        <ele>166.9</ele>
        <time>2012-02-04T10:11:05Z</time>
      </trkpt>
      <trkpt lat="50.48312" lon="1.89054">
        <ele>166.8</ele>
        <time>2012-02-04T10:11:06Z</time>
      </trkpt>
      <trkpt lat="50.48316" lon="1.89046">
        <ele>167</ele>
        <time>2012-02-04T10:11:07Z</time>
      </trkpt>
      <trkpt lat="50.4832" lon="1.8904">
        <ele>166.8</ele>
        <time>2012-02-04T10:11:08Z</time>
      </trkpt>
      <trkpt lat="50.4832" lon="1.89026">
        <ele>167.6</ele>
        <time>2012-02-04T10:11:09Z</time>
      </trkpt>
      <trkpt lat="50.48324" lon="1.8902">
        <ele>167.4</ele>
        <time>2012-02-04T10:11:10Z</time>
      </trkpt>
      <trkpt lat="50.48329" lon="1.89014">
        <ele>167.8</ele>
        <time>2012-02-04T10:11:11Z</time>
      </trkpt>
      <trkpt lat="50.48334" lon="1.89009">
        <ele>167</ele>
        <time>2012-02-04T10:11:12Z</time>
      </trkpt>
      <trkpt lat="50.48338" lon="1.89002">
        <ele>166.6</ele>
        <time>2012-02-04T10:11:13Z</time>
      </trkpt>
      <trkpt lat="50.48343" lon="1.88996">
        <ele>166.4</ele>
        <time>2012-02-04T10:11:14Z</time>
      </trkpt>
      <trkpt lat="50.48347" lon="1.8899">
        <ele>166.6</ele>
        <time>2012-02-04T10:11:15Z</time>
      </trkpt>
      <trkpt lat="50.48351" lon="1.88983">
        <ele>166.4</ele>
        <time>2012-02-04T10:11:16Z</time>
      </trkpt>
      <trkpt lat="50.48354" lon="1.88976">
        <ele>165.8</ele>
        <time>2012-02-04T10:11:17Z</time>
      </trkpt>
      <trkpt lat="50.48358" lon="1.88968">
        <ele>165.5</ele>
        <time>2012-02-04T10:11:18Z</time>
      </trkpt>
      <trkpt lat="50.4836" lon="1.8896">
        <ele>165.5</ele>
        <time>2012-02-04T10:11:19Z</time>
      </trkpt>
      <trkpt lat="50.48363" lon="1.88952">
        <ele>165.5</ele>
        <time>2012-02-04T10:11:20Z</time>
      </trkpt>
      <trkpt lat="50.48367" lon="1.88948">
        <ele>165.1</ele>
        <time>2012-02-04T10:11:21Z</time>
      </trkpt>
      <trkpt lat="50.48371" lon="1.88941">
        <ele>165.1</ele>
        <time>2012-02-04T10:11:22Z</time>
      </trkpt>
      <trkpt lat="50.48374" lon="1.88934">
        <ele>165.3</ele>
        <time>2012-02-04T10:11:23Z</time>
      </trkpt>
      <trkpt lat="50.48377" lon="1.88926">
        <ele>165.6</ele>
        <time>2012-02-04T10:11:24Z</time>
      </trkpt>
      <trkpt lat="50.48379" lon="1.88917">
        <ele>165.3</ele>
        <time>2012-02-04T10:11:25Z</time>
      </trkpt>
      <trkpt lat="50.48382" lon="1.88909">
        <ele>165.1</ele>
        <time>2012-02-04T10:11:26Z</time>
      </trkpt>
      <trkpt lat="50.48385" lon="1.88901">
        <ele>165.7</ele>
        <time>2012-02-04T10:11:27Z</time>
      </trkpt>
      <trkpt lat="50.48387" lon="1.88894">
        <ele>165.6</ele>
        <time>2012-02-04T10:11:28Z</time>
      </trkpt>
      <trkpt lat="50.48391" lon="1.88889">
        <ele>165.6</ele>
        <time>2012-02-04T10:11:29Z</time>
      </trkpt>
      <trkpt lat="50.48395" lon="1.88882">
        <ele>165.4</ele>
        <time>2012-02-04T10:11:30Z</time>
      </trkpt>
      <trkpt lat="50.484" lon="1.88879">
        <ele>165</ele>
        <time>2012-02-04T10:11:31Z</time>
      </trkpt>
      <trkpt lat="50.48402" lon="1.88872">
        <ele>164.6</ele>
        <time>2012-02-04T10:11:32Z</time>
      </trkpt>
      <trkpt lat="50.48406" lon="1.88866">
        <ele>164.5</ele>
        <time>2012-02-04T10:11:33Z</time>
      </trkpt>
      <trkpt lat="50.48409" lon="1.88858">
        <ele>163.9</ele>
        <time>2012-02-04T10:11:34Z</time>
      </trkpt>
      <trkpt lat="50.48412" lon="1.88851">
        <ele>163.6</ele>
        <time>2012-02-04T10:11:35Z</time>
      </trkpt>
      <trkpt lat="50.48415" lon="1.88845">
        <ele>163.5</ele>
        <time>2012-02-04T10:11:36Z</time>
      </trkpt>
      <trkpt lat="50.48418" lon="1.88839">
        <ele>163.3</ele>
        <time>2012-02-04T10:11:37Z</time>
      </trkpt>
      <trkpt lat="50.48421" lon="1.88832">
        <ele>163.6</ele>
        <time>2012-02-04T10:11:38Z</time>
      </trkpt>
      <trkpt lat="50.48424" lon="1.88824">
        <ele>163.5</ele>
        <time>2012-02-04T10:11:39Z</time>
      </trkpt>
      <trkpt lat="50.48427" lon="1.88817">
        <ele>163.5</ele>
        <time>2012-02-04T10:11:40Z</time>
      </trkpt>
      <trkpt lat="50.4843" lon="1.88809">
        <ele>163.3</ele>
        <time>2012-02-04T10:11:41Z</time>
      </trkpt>
      <trkpt lat="50.48434" lon="1.88801">
        <ele>163.4</ele>
        <time>2012-02-04T10:11:42Z</time>
      </trkpt>
      <trkpt lat="50.48436" lon="1.88794">
        <ele>163.5</ele>
        <time>2012-02-04T10:11:43Z</time>
      </trkpt>
      <trkpt lat="50.4844" lon="1.88787">
        <ele>163.3</ele>
        <time>2012-02-04T10:11:44Z</time>
      </trkpt>
      <trkpt lat="50.48444" lon="1.8878">
        <ele>163.6</ele>
        <time>2012-02-04T10:11:45Z</time>
      </trkpt>
      <trkpt lat="50.48447" lon="1.88773">
        <ele>163.3</ele>
        <time>2012-02-04T10:11:46Z</time>
      </trkpt>
      <trkpt lat="50.4845" lon="1.88763">
        <ele>162.1</ele>
        <time>2012-02-04T10:11:47Z</time>
      </trkpt>
      <trkpt lat="50.48454" lon="1.88756">
        <ele>161.9</ele>
        <time>2012-02-04T10:11:48Z</time>
      </trkpt>
      <trkpt lat="50.48457" lon="1.88748">
        <ele>161.9</ele>
        <time>2012-02-04T10:11:49Z</time>
      </trkpt>
      <trkpt lat="50.48461" lon="1.88741">
        <ele>161.9</ele>
        <time>2012-02-04T10:11:50Z</time>
      </trkpt>
      <trkpt lat="50.48465" lon="1.88733">
        <ele>162</ele>
        <time>2012-02-04T10:11:51Z</time>
      </trkpt>
      <trkpt lat="50.48469" lon="1.88724">
        <ele>161</ele>
        <time>2012-02-04T10:11:52Z</time>
      </trkpt>
      <trkpt lat="50.48473" lon="1.88714">
        <ele>160.9</ele>
        <time>2012-02-04T10:11:53Z</time>
      </trkpt>
      <trkpt lat="50.48477" lon="1.88706">
        <ele>160.8</ele>
        <time>2012-02-04T10:11:54Z</time>
      </trkpt>
      <trkpt lat="50.4848" lon="1.88697">
        <ele>160.8</ele>
        <time>2012-02-04T10:11:55Z</time>
      </trkpt>
      <trkpt lat="50.48484" lon="1.88688">
        <ele>160.9</ele>
        <time>2012-02-04T10:11:56Z</time>
      </trkpt>
      <trkpt lat="50.48488" lon="1.88679">
        <ele>160.8</ele>
        <time>2012-02-04T10:11:57Z</time>
      </trkpt>
      <trkpt lat="50.48491" lon="1.88672">
        <ele>160.5</ele>
        <time>2012-02-04T10:11:58Z</time>
      </trkpt>
      <trkpt lat="50.48495" lon="1.88663">
        <ele>160.4</ele>
        <time>2012-02-04T10:11:59Z</time>
      </trkpt>
      <trkpt lat="50.48499" lon="1.88656">
        <ele>159.9</ele>
        <time>2012-02-04T10:12:00Z</time>
      </trkpt>
      <trkpt lat="50.48503" lon="1.88649">
        <ele>159.7</ele>
        <time>2012-02-04T10:12:01Z</time>
      </trkpt>
      <trkpt lat="50.48506" lon="1.8864">
        <ele>159.6</ele>
        <time>2012-02-04T10:12:02Z</time>
      </trkpt>
      <trkpt lat="50.4851" lon="1.88631">
        <ele>159.4</ele>
        <time>2012-02-04T10:12:03Z</time>
      </trkpt>
      <trkpt lat="50.48513" lon="1.88623">
        <ele>159.5</ele>
        <time>2012-02-04T10:12:04Z</time>
      </trkpt>
      <trkpt lat="50.48516" lon="1.88615">
        <ele>159.4</ele>
        <time>2012-02-04T10:12:05Z</time>
      </trkpt>
      <trkpt lat="50.48521" lon="1.88608">
        <ele>159.4</ele>
        <time>2012-02-04T10:12:06Z</time>
      </trkpt>
      <trkpt lat="50.48524" lon="1.88602">
        <ele>160.1</ele>
        <time>2012-02-04T10:12:07Z</time>
      </trkpt>
      <trkpt lat="50.48528" lon="1.88594">
        <ele>160.3</ele>
        <time>2012-02-04T10:12:08Z</time>
      </trkpt>
      <trkpt lat="50.48531" lon="1.88586">
        <ele>160.5</ele>
        <time>2012-02-04T10:12:09Z</time>
      </trkpt>
      <trkpt lat="50.48534" lon="1.8858">
        <ele>160.4</ele>
        <time>2012-02-04T10:12:10Z</time>
      </trkpt>
      <trkpt lat="50.48538" lon="1.88572">
        <ele>159.8</ele>
        <time>2012-02-04T10:12:11Z</time>
      </trkpt>
      <trkpt lat="50.4854" lon="1.88565">
        <ele>159.6</ele>
        <time>2012-02-04T10:12:12Z</time>
      </trkpt>
      <trkpt lat="50.48543" lon="1.88557">
        <ele>159.3</ele>
        <time>2012-02-04T10:12:13Z</time>
      </trkpt>
      <trkpt lat="50.48546" lon="1.88549">
        <ele>159</ele>
        <time>2012-02-04T10:12:14Z</time>
      </trkpt>
      <trkpt lat="50.4855" lon="1.88542">
        <ele>159</ele>
        <time>2012-02-04T10:12:15Z</time>
      </trkpt>
      <trkpt lat="50.48553" lon="1.88535">
        <ele>158.6</ele>
        <time>2012-02-04T10:12:16Z</time>
      </trkpt>
      <trkpt lat="50.48556" lon="1.88527">
        <ele>158.5</ele>
        <time>2012-02-04T10:12:17Z</time>
      </trkpt>
      <trkpt lat="50.48559" lon="1.88518">
        <ele>157.8</ele>
        <time>2012-02-04T10:12:18Z</time>
      </trkpt>
      <trkpt lat="50.48562" lon="1.8851">
        <ele>157.1</ele>
        <time>2012-02-04T10:12:19Z</time>
      </trkpt>
      <trkpt lat="50.48565" lon="1.88502">
        <ele>156.8</ele>
        <time>2012-02-04T10:12:20Z</time>
      </trkpt>
      <trkpt lat="50.48568" lon="1.88495">
        <ele>157.9</ele>
        <time>2012-02-04T10:12:21Z</time>
      </trkpt>
      <trkpt lat="50.48571" lon="1.88489">
        <ele>158</ele>
        <time>2012-02-04T10:12:22Z</time>
      </trkpt>
      <trkpt lat="50.48575" lon="1.88481">
        <ele>157.3</ele>
        <time>2012-02-04T10:12:23Z</time>
      </trkpt>
      <trkpt lat="50.48578" lon="1.88474">
        <ele>156.4</ele>
        <time>2012-02-04T10:12:24Z</time>
      </trkpt>
      <trkpt lat="50.48581" lon="1.88467">
        <ele>155.8</ele>
        <time>2012-02-04T10:12:25Z</time>
      </trkpt>
      <trkpt lat="50.48584" lon="1.88459">
        <ele>155.5</ele>
        <time>2012-02-04T10:12:26Z</time>
      </trkpt>
      <trkpt lat="50.48587" lon="1.88451">
        <ele>155.2</ele>
        <time>2012-02-04T10:12:27Z</time>
      </trkpt>
      <trkpt lat="50.4859" lon="1.88443">
        <ele>155.1</ele>
        <time>2012-02-04T10:12:28Z</time>
      </trkpt>
      <trkpt lat="50.48594" lon="1.88435">
        <ele>154.3</ele>
        <time>2012-02-04T10:12:29Z</time>
      </trkpt>
      <trkpt lat="50.48597" lon="1.88427">
        <ele>153.6</ele>
        <time>2012-02-04T10:12:30Z</time>
      </trkpt>
      <trkpt lat="50.48601" lon="1.8842">
        <ele>153.3</ele>
        <time>2012-02-04T10:12:31Z</time>
      </trkpt>
      <trkpt lat="50.48605" lon="1.88411">
        <ele>153.1</ele>
        <time>2012-02-04T10:12:32Z</time>
      </trkpt>
      <trkpt lat="50.4861" lon="1.88402">
        <ele>153</ele>
        <time>2012-02-04T10:12:33Z</time>
      </trkpt>
      <trkpt lat="50.48613" lon="1.88392">
        <ele>152.6</ele>
        <time>2012-02-04T10:12:34Z</time>
      </trkpt>
      <trkpt lat="50.48616" lon="1.88383">
        <ele>152.6</ele>
        <time>2012-02-04T10:12:35Z</time>
      </trkpt>
      <trkpt lat="50.48618" lon="1.88374">
        <ele>152.6</ele>
        <time>2012-02-04T10:12:36Z</time>
      </trkpt>
      <trkpt lat="50.48621" lon="1.88366">
        <ele>152.7</ele>
        <time>2012-02-04T10:12:37Z</time>
      </trkpt>
      <trkpt lat="50.48623" lon="1.88358">
        <ele>152.4</ele>
        <time>2012-02-04T10:12:38Z</time>
      </trkpt>
      <trkpt lat="50.48626" lon="1.88348">
        <ele>152</ele>
        <time>2012-02-04T10:12:39Z</time>
      </trkpt>
      <trkpt lat="50.48628" lon="1.88339">
        <ele>151.5</ele>
        <time>2012-02-04T10:12:40Z</time>
      </trkpt>
      <trkpt lat="50.48632" lon="1.88329">
        <ele>149.7</ele>
        <time>2012-02-04T10:12:41Z</time>
      </trkpt>
      <trkpt lat="50.48635" lon="1.8832">
        <ele>149.2</ele>
        <time>2012-02-04T10:12:42Z</time>
      </trkpt>
      <trkpt lat="50.48638" lon="1.88311">
        <ele>149</ele>
        <time>2012-02-04T10:12:43Z</time>
      </trkpt>
      <trkpt lat="50.4864" lon="1.88301">
        <ele>149.1</ele>
        <time>2012-02-04T10:12:44Z</time>
      </trkpt>
      <trkpt lat="50.48642" lon="1.88291">
        <ele>148.5</ele>
        <time>2012-02-04T10:12:45Z</time>
      </trkpt>
      <trkpt lat="50.48644" lon="1.88281">
        <ele>145.3</ele>
        <time>2012-02-04T10:12:46Z</time>
      </trkpt>
      <trkpt lat="50.48647" lon="1.88272">
        <ele>144.1</ele>
        <time>2012-02-04T10:12:47Z</time>
      </trkpt>
      <trkpt lat="50.4865" lon="1.88263">
        <ele>143.7</ele>
        <time>2012-02-04T10:12:48Z</time>
      </trkpt>
      <trkpt lat="50.48654" lon="1.88254">
        <ele>143.8</ele>
        <time>2012-02-04T10:12:49Z</time>
      </trkpt>
      <trkpt lat="50.48657" lon="1.88243">
        <ele>141.8</ele>
        <time>2012-02-04T10:12:50Z</time>
      </trkpt>
      <trkpt lat="50.4866" lon="1.88233">
        <ele>141.8</ele>
        <time>2012-02-04T10:12:51Z</time>
      </trkpt>
      <trkpt lat="50.48665" lon="1.88225">
        <ele>139.9</ele>
        <time>2012-02-04T10:12:52Z</time>
      </trkpt>
      <trkpt lat="50.48668" lon="1.88215">
        <ele>138.4</ele>
        <time>2012-02-04T10:12:53Z</time>
      </trkpt>
      <trkpt lat="50.48672" lon="1.88206">
        <ele>137.6</ele>
        <time>2012-02-04T10:12:54Z</time>
      </trkpt>
      <trkpt lat="50.48677" lon="1.88196">
        <ele>137</ele>
        <time>2012-02-04T10:12:55Z</time>
      </trkpt>
      <trkpt lat="50.48682" lon="1.88188">
        <ele>136.5</ele>
        <time>2012-02-04T10:12:56Z</time>
      </trkpt>
      <trkpt lat="50.48687" lon="1.88178">
        <ele>135.8</ele>
        <time>2012-02-04T10:12:57Z</time>
      </trkpt>
      <trkpt lat="50.48692" lon="1.8817">
        <ele>134.8</ele>
        <time>2012-02-04T10:12:58Z</time>
      </trkpt>
      <trkpt lat="50.48697" lon="1.88161">
        <ele>134.8</ele>
        <time>2012-02-04T10:12:59Z</time>
      </trkpt>
      <trkpt lat="50.48701" lon="1.88151">
        <ele>134</ele>
        <time>2012-02-04T10:13:00Z</time>
      </trkpt>
      <trkpt lat="50.48706" lon="1.88141">
        <ele>133.8</ele>
        <time>2012-02-04T10:13:01Z</time>
      </trkpt>
      <trkpt lat="50.4871" lon="1.88132">
        <ele>133.6</ele>
        <time>2012-02-04T10:13:02Z</time>
      </trkpt>
      <trkpt lat="50.48716" lon="1.88126">
        <ele>133.3</ele>
        <time>2012-02-04T10:13:03Z</time>
      </trkpt>
      <trkpt lat="50.48722" lon="1.88117">
        <ele>130.4</ele>
        <time>2012-02-04T10:13:04Z</time>
      </trkpt>
      <trkpt lat="50.48727" lon="1.88106">
        <ele>129.2</ele>
        <time>2012-02-04T10:13:05Z</time>
      </trkpt>
      <trkpt lat="50.48732" lon="1.88098">
        <ele>129.2</ele>
        <time>2012-02-04T10:13:06Z</time>
      </trkpt>
      <trkpt lat="50.48738" lon="1.88088">
        <ele>129</ele>
        <time>2012-02-04T10:13:07Z</time>
      </trkpt>
      <trkpt lat="50.48742" lon="1.88078">
        <ele>128.7</ele>
        <time>2012-02-04T10:13:08Z</time>
      </trkpt>
      <trkpt lat="50.48747" lon="1.8807">
        <ele>128.2</ele>
        <time>2012-02-04T10:13:09Z</time>
      </trkpt>
      <trkpt lat="50.48752" lon="1.88063">
        <ele>125.2</ele>
        <time>2012-02-04T10:13:10Z</time>
      </trkpt>
      <trkpt lat="50.48757" lon="1.88053">
        <ele>123.5</ele>
        <time>2012-02-04T10:13:11Z</time>
      </trkpt>
      <trkpt lat="50.48762" lon="1.88045">
        <ele>122.9</ele>
        <time>2012-02-04T10:13:12Z</time>
      </trkpt>
      <trkpt lat="50.48768" lon="1.88036">
        <ele>121.4</ele>
        <time>2012-02-04T10:13:13Z</time>
      </trkpt>
      <trkpt lat="50.48774" lon="1.88025">
        <ele>120.9</ele>
        <time>2012-02-04T10:13:14Z</time>
      </trkpt>
      <trkpt lat="50.48779" lon="1.88017">
        <ele>120</ele>
        <time>2012-02-04T10:13:15Z</time>
      </trkpt>
      <trkpt lat="50.48784" lon="1.88008">
        <ele>119.3</ele>
        <time>2012-02-04T10:13:16Z</time>
      </trkpt>
      <trkpt lat="50.48789" lon="1.87999">
        <ele>116.6</ele>
        <time>2012-02-04T10:13:17Z</time>
      </trkpt>
      <trkpt lat="50.48794" lon="1.87992">
        <ele>115.6</ele>
        <time>2012-02-04T10:13:18Z</time>
      </trkpt>
      <trkpt lat="50.488" lon="1.87983">
        <ele>114.8</ele>
        <time>2012-02-04T10:13:19Z</time>
      </trkpt>
      <trkpt lat="50.48806" lon="1.87974">
        <ele>114.5</ele>
        <time>2012-02-04T10:13:20Z</time>
      </trkpt>
      <trkpt lat="50.48811" lon="1.87966">
        <ele>113.4</ele>
        <time>2012-02-04T10:13:21Z</time>
      </trkpt>
      <trkpt lat="50.48817" lon="1.87955">
        <ele>112</ele>
        <time>2012-02-04T10:13:22Z</time>
      </trkpt>
      <trkpt lat="50.48822" lon="1.87945">
        <ele>110.7</ele>
        <time>2012-02-04T10:13:23Z</time>
      </trkpt>
      <trkpt lat="50.48827" lon="1.87937">
        <ele>110</ele>
        <time>2012-02-04T10:13:24Z</time>
      </trkpt>
      <trkpt lat="50.48833" lon="1.87927">
        <ele>109.6</ele>
        <time>2012-02-04T10:13:25Z</time>
      </trkpt>
      <trkpt lat="50.48839" lon="1.87919">
        <ele>109</ele>
        <time>2012-02-04T10:13:26Z</time>
      </trkpt>
      <trkpt lat="50.48845" lon="1.8791">
        <ele>108.2</ele>
        <time>2012-02-04T10:13:27Z</time>
      </trkpt>
      <trkpt lat="50.48852" lon="1.87899">
        <ele>107.3</ele>
        <time>2012-02-04T10:13:28Z</time>
      </trkpt>
      <trkpt lat="50.48857" lon="1.87889">
        <ele>107</ele>
        <time>2012-02-04T10:13:29Z</time>
      </trkpt>
      <trkpt lat="50.48863" lon="1.87879">
        <ele>106.6</ele>
        <time>2012-02-04T10:13:30Z</time>
      </trkpt>
      <trkpt lat="50.48868" lon="1.8787">
        <ele>105.1</ele>
        <time>2012-02-04T10:13:31Z</time>
      </trkpt>
      <trkpt lat="50.48873" lon="1.8786">
        <ele>106</ele>
        <time>2012-02-04T10:13:32Z</time>
      </trkpt>
      <trkpt lat="50.48878" lon="1.87851">
        <ele>105.3</ele>
        <time>2012-02-04T10:13:33Z</time>
      </trkpt>
      <trkpt lat="50.48884" lon="1.87843">
        <ele>105.2</ele>
        <time>2012-02-04T10:13:34Z</time>
      </trkpt>
      <trkpt lat="50.48889" lon="1.87835">
        <ele>104.5</ele>
        <time>2012-02-04T10:13:35Z</time>
      </trkpt>
      <trkpt lat="50.48895" lon="1.8783">
        <ele>102.5</ele>
        <time>2012-02-04T10:13:36Z</time>
      </trkpt>
      <trkpt lat="50.48901" lon="1.87823">
        <ele>101.7</ele>
        <time>2012-02-04T10:13:37Z</time>
      </trkpt>
      <trkpt lat="50.48908" lon="1.87818">
        <ele>101.4</ele>
        <time>2012-02-04T10:13:38Z</time>
      </trkpt>
      <trkpt lat="50.48914" lon="1.87812">
        <ele>100.6</ele>
        <time>2012-02-04T10:13:39Z</time>
      </trkpt>
      <trkpt lat="50.48922" lon="1.87806">
        <ele>100.7</ele>
        <time>2012-02-04T10:13:40Z</time>
      </trkpt>
      <trkpt lat="50.48929" lon="1.878">
        <ele>100.7</ele>
        <time>2012-02-04T10:13:41Z</time>
      </trkpt>
      <trkpt lat="50.48935" lon="1.87794">
        <ele>100.5</ele>
        <time>2012-02-04T10:13:42Z</time>
      </trkpt>
      <trkpt lat="50.48942" lon="1.87788">
        <ele>99.8</ele>
        <time>2012-02-04T10:13:43Z</time>
      </trkpt>
      <trkpt lat="50.48948" lon="1.87782">
        <ele>99.1</ele>
        <time>2012-02-04T10:13:44Z</time>
      </trkpt>
      <trkpt lat="50.48955" lon="1.87776">
        <ele>99.1</ele>
        <time>2012-02-04T10:13:45Z</time>
      </trkpt>
      <trkpt lat="50.48961" lon="1.87769">
        <ele>98.7</ele>
        <time>2012-02-04T10:13:46Z</time>
      </trkpt>
      <trkpt lat="50.48968" lon="1.87762">
        <ele>98.1</ele>
        <time>2012-02-04T10:13:47Z</time>
      </trkpt>
      <trkpt lat="50.48974" lon="1.87758">
        <ele>97.5</ele>
        <time>2012-02-04T10:13:48Z</time>
      </trkpt>
      <trkpt lat="50.48982" lon="1.87752">
        <ele>95.8</ele>
        <time>2012-02-04T10:13:49Z</time>
      </trkpt>
      <trkpt lat="50.48989" lon="1.87746">
        <ele>95.2</ele>
        <time>2012-02-04T10:13:50Z</time>
      </trkpt>
      <trkpt lat="50.48996" lon="1.87741">
        <ele>94.9</ele>
        <time>2012-02-04T10:13:51Z</time>
      </trkpt>
      <trkpt lat="50.49003" lon="1.87736">
        <ele>94.5</ele>
        <time>2012-02-04T10:13:52Z</time>
      </trkpt>
      <trkpt lat="50.49009" lon="1.87731">
        <ele>94.2</ele>
        <time>2012-02-04T10:13:53Z</time>
      </trkpt>
      <trkpt lat="50.49016" lon="1.87726">
        <ele>94.1</ele>
        <time>2012-02-04T10:13:54Z</time>
      </trkpt>
      <trkpt lat="50.49022" lon="1.87721">
        <ele>93.9</ele>
        <time>2012-02-04T10:13:55Z</time>
      </trkpt>
      <trkpt lat="50.49029" lon="1.8772">
        <ele>89.1</ele>
        <time>2012-02-04T10:13:56Z</time>
      </trkpt>
      <trkpt lat="50.49035" lon="1.87716">
        <ele>88.6</ele>
        <time>2012-02-04T10:13:57Z</time>
      </trkpt>
      <trkpt lat="50.4904" lon="1.87713">
        <ele>88.3</ele>
        <time>2012-02-04T10:13:58Z</time>
      </trkpt>
      <trkpt lat="50.49045" lon="1.87708">
        <ele>87.6</ele>
        <time>2012-02-04T10:13:59Z</time>
      </trkpt>
      <trkpt lat="50.4905" lon="1.87704">
        <ele>86.7</ele>
        <time>2012-02-04T10:14:00Z</time>
      </trkpt>
      <trkpt lat="50.49055" lon="1.87694">
        <ele>85.9</ele>
        <time>2012-02-04T10:14:02Z</time>
      </trkpt>
      <trkpt lat="50.4906" lon="1.87698">
        <ele>83.9</ele>
        <time>2012-02-04T10:14:05Z</time>
      </trkpt>
      <trkpt lat="50.49057" lon="1.87693">
        <ele>86.3</ele>
        <time>2012-02-04T10:14:08Z</time>
      </trkpt>
      <trkpt lat="50.49054" lon="1.87686">
        <ele>85.2</ele>
        <time>2012-02-04T10:14:28Z</time>
      </trkpt>
      <trkpt lat="50.49057" lon="1.8768">
        <ele>83.1</ele>
        <time>2012-02-04T10:14:42Z</time>
      </trkpt>
      <trkpt lat="50.49053" lon="1.87671">
        <ele>82.3</ele>
        <time>2012-02-04T10:14:45Z</time>
      </trkpt>
      <trkpt lat="50.49046" lon="1.87668">
        <ele>83.5</ele>
        <time>2012-02-04T10:14:47Z</time>
      </trkpt>
      <trkpt lat="50.49041" lon="1.87663">
        <ele>83.8</ele>
        <time>2012-02-04T10:14:49Z</time>
      </trkpt>
      <trkpt lat="50.49037" lon="1.8766">
        <ele>82.5</ele>
        <time>2012-02-04T10:14:51Z</time>
      </trkpt>
      <trkpt lat="50.49031" lon="1.87652">
        <ele>83.5</ele>
        <time>2012-02-04T10:14:53Z</time>
      </trkpt>
      <trkpt lat="50.49025" lon="1.87646">
        <ele>83.7</ele>
        <time>2012-02-04T10:14:55Z</time>
      </trkpt>
      <trkpt lat="50.49018" lon="1.8764">
        <ele>84.6</ele>
        <time>2012-02-04T10:14:57Z</time>
      </trkpt>
      <trkpt lat="50.49013" lon="1.87634">
        <ele>85.7</ele>
        <time>2012-02-04T10:14:59Z</time>
      </trkpt>
      <trkpt lat="50.49006" lon="1.87628">
        <ele>86.1</ele>
        <time>2012-02-04T10:15:01Z</time>
      </trkpt>
      <trkpt lat="50.49" lon="1.8762">
        <ele>86.6</ele>
        <time>2012-02-04T10:15:03Z</time>
      </trkpt>
      <trkpt lat="50.48993" lon="1.87614">
        <ele>87.2</ele>
        <time>2012-02-04T10:15:05Z</time>
      </trkpt>
      <trkpt lat="50.48986" lon="1.87605">
        <ele>87.9</ele>
        <time>2012-02-04T10:15:07Z</time>
      </trkpt>
      <trkpt lat="50.4898" lon="1.87598">
        <ele>89.1</ele>
        <time>2012-02-04T10:15:09Z</time>
      </trkpt>
      <trkpt lat="50.48976" lon="1.87593">
        <ele>89.1</ele>
        <time>2012-02-04T10:15:10Z</time>
      </trkpt>
      <trkpt lat="50.48969" lon="1.87587">
        <ele>89</ele>
        <time>2012-02-04T10:15:12Z</time>
      </trkpt>
      <trkpt lat="50.48966" lon="1.87582">
        <ele>89.3</ele>
        <time>2012-02-04T10:15:13Z</time>
      </trkpt>
      <trkpt lat="50.48959" lon="1.87575">
        <ele>88.4</ele>
        <time>2012-02-04T10:15:15Z</time>
      </trkpt>
      <trkpt lat="50.48952" lon="1.87566">
        <ele>89</ele>
        <time>2012-02-04T10:15:17Z</time>
      </trkpt>
      <trkpt lat="50.48948" lon="1.87561">
        <ele>89.4</ele>
        <time>2012-02-04T10:15:18Z</time>
      </trkpt>
      <trkpt lat="50.48944" lon="1.87557">
        <ele>89.3</ele>
        <time>2012-02-04T10:15:19Z</time>
      </trkpt>
      <trkpt lat="50.48938" lon="1.87548">
        <ele>88.3</ele>
        <time>2012-02-04T10:15:21Z</time>
      </trkpt>
      <trkpt lat="50.48931" lon="1.8754">
        <ele>88.7</ele>
        <time>2012-02-04T10:15:23Z</time>
      </trkpt>
      <trkpt lat="50.48927" lon="1.87535">
        <ele>88.5</ele>
        <time>2012-02-04T10:15:24Z</time>
      </trkpt>
      <trkpt lat="50.48924" lon="1.87531">
        <ele>88.3</ele>
        <time>2012-02-04T10:15:25Z</time>
      </trkpt>
      <trkpt lat="50.4892" lon="1.87526">
        <ele>88.3</ele>
        <time>2012-02-04T10:15:26Z</time>
      </trkpt>
      <trkpt lat="50.48916" lon="1.87521">
        <ele>88.2</ele>
        <time>2012-02-04T10:15:27Z</time>
      </trkpt>
      <trkpt lat="50.48912" lon="1.87516">
        <ele>88.4</ele>
        <time>2012-02-04T10:15:28Z</time>
      </trkpt>
      <trkpt lat="50.48907" lon="1.87508">
        <ele>88.6</ele>
        <time>2012-02-04T10:15:30Z</time>
      </trkpt>
      <trkpt lat="50.48899" lon="1.87499">
        <ele>88.3</ele>
        <time>2012-02-04T10:15:32Z</time>
      </trkpt>
      <trkpt lat="50.48896" lon="1.87494">
        <ele>88.4</ele>
        <time>2012-02-04T10:15:33Z</time>
      </trkpt>
      <trkpt lat="50.48889" lon="1.87485">
        <ele>88</ele>
        <time>2012-02-04T10:15:35Z</time>
      </trkpt>
      <trkpt lat="50.48885" lon="1.87481">
        <ele>87.8</ele>
        <time>2012-02-04T10:15:36Z</time>
      </trkpt>
      <trkpt lat="50.48881" lon="1.87476">
        <ele>87.7</ele>
        <time>2012-02-04T10:15:37Z</time>
      </trkpt>
      <trkpt lat="50.48874" lon="1.87468">
        <ele>87.4</ele>
        <time>2012-02-04T10:15:39Z</time>
      </trkpt>
      <trkpt lat="50.48866" lon="1.87461">
        <ele>87.8</ele>
        <time>2012-02-04T10:15:41Z</time>
      </trkpt>
      <trkpt lat="50.48861" lon="1.87457">
        <ele>87.7</ele>
        <time>2012-02-04T10:15:42Z</time>
      </trkpt>
      <trkpt lat="50.48857" lon="1.87453">
        <ele>87.6</ele>
        <time>2012-02-04T10:15:43Z</time>
      </trkpt>
      <trkpt lat="50.48852" lon="1.87449">
        <ele>87.1</ele>
        <time>2012-02-04T10:15:44Z</time>
      </trkpt>
      <trkpt lat="50.48847" lon="1.87445">
        <ele>87.3</ele>
        <time>2012-02-04T10:15:45Z</time>
      </trkpt>
      <trkpt lat="50.48842" lon="1.8744">
        <ele>87.3</ele>
        <time>2012-02-04T10:15:46Z</time>
      </trkpt>
      <trkpt lat="50.48838" lon="1.87436">
        <ele>87.4</ele>
        <time>2012-02-04T10:15:47Z</time>
      </trkpt>
      <trkpt lat="50.48834" lon="1.87432">
        <ele>87.1</ele>
        <time>2012-02-04T10:15:48Z</time>
      </trkpt>
      <trkpt lat="50.48829" lon="1.87427">
        <ele>86.8</ele>
        <time>2012-02-04T10:15:49Z</time>
      </trkpt>
      <trkpt lat="50.48825" lon="1.87423">
        <ele>86.6</ele>
        <time>2012-02-04T10:15:50Z</time>
      </trkpt>
      <trkpt lat="50.48821" lon="1.87419">
        <ele>86.8</ele>
        <time>2012-02-04T10:15:51Z</time>
      </trkpt>
      <trkpt lat="50.48816" lon="1.87416">
        <ele>87.3</ele>
        <time>2012-02-04T10:15:52Z</time>
      </trkpt>
      <trkpt lat="50.48811" lon="1.87412">
        <ele>87.1</ele>
        <time>2012-02-04T10:15:53Z</time>
      </trkpt>
      <trkpt lat="50.48806" lon="1.87407">
        <ele>87</ele>
        <time>2012-02-04T10:15:54Z</time>
      </trkpt>
      <trkpt lat="50.48802" lon="1.87404">
        <ele>86.9</ele>
        <time>2012-02-04T10:15:55Z</time>
      </trkpt>
      <trkpt lat="50.48797" lon="1.874">
        <ele>86.8</ele>
        <time>2012-02-04T10:15:56Z</time>
      </trkpt>
      <trkpt lat="50.48792" lon="1.87395">
        <ele>86.8</ele>
        <time>2012-02-04T10:15:57Z</time>
      </trkpt>
      <trkpt lat="50.48787" lon="1.87391">
        <ele>86.4</ele>
        <time>2012-02-04T10:15:58Z</time>
      </trkpt>
      <trkpt lat="50.48782" lon="1.87386">
        <ele>86.2</ele>
        <time>2012-02-04T10:15:59Z</time>
      </trkpt>
      <trkpt lat="50.48777" lon="1.87382">
        <ele>86.5</ele>
        <time>2012-02-04T10:16:00Z</time>
      </trkpt>
      <trkpt lat="50.48772" lon="1.87377">
        <ele>86.8</ele>
        <time>2012-02-04T10:16:01Z</time>
      </trkpt>
      <trkpt lat="50.48767" lon="1.87373">
        <ele>86.9</ele>
        <time>2012-02-04T10:16:02Z</time>
      </trkpt>
      <trkpt lat="50.48762" lon="1.87369">
        <ele>86.8</ele>
        <time>2012-02-04T10:16:03Z</time>
      </trkpt>
      <trkpt lat="50.48758" lon="1.87364">
        <ele>87.1</ele>
        <time>2012-02-04T10:16:04Z</time>
      </trkpt>
      <trkpt lat="50.48752" lon="1.87359">
        <ele>87</ele>
        <time>2012-02-04T10:16:05Z</time>
      </trkpt>
      <trkpt lat="50.48748" lon="1.87354">
        <ele>86.7</ele>
        <time>2012-02-04T10:16:06Z</time>
      </trkpt>
      <trkpt lat="50.48743" lon="1.8735">
        <ele>86.2</ele>
        <time>2012-02-04T10:16:07Z</time>
      </trkpt>
      <trkpt lat="50.48738" lon="1.87345">
        <ele>86.1</ele>
        <time>2012-02-04T10:16:08Z</time>
      </trkpt>
      <trkpt lat="50.48733" lon="1.8734">
        <ele>85.7</ele>
        <time>2012-02-04T10:16:09Z</time>
      </trkpt>
      <trkpt lat="50.48728" lon="1.87336">
        <ele>85.8</ele>
        <time>2012-02-04T10:16:10Z</time>
      </trkpt>
      <trkpt lat="50.48724" lon="1.87331">
        <ele>85.7</ele>
        <time>2012-02-04T10:16:11Z</time>
      </trkpt>
      <trkpt lat="50.48719" lon="1.87326">
        <ele>85.3</ele>
        <time>2012-02-04T10:16:12Z</time>
      </trkpt>
      <trkpt lat="50.48714" lon="1.87322">
        <ele>85.1</ele>
        <time>2012-02-04T10:16:13Z</time>
      </trkpt>
      <trkpt lat="50.4871" lon="1.87317">
        <ele>85.1</ele>
        <time>2012-02-04T10:16:14Z</time>
      </trkpt>
      <trkpt lat="50.48705" lon="1.87313">
        <ele>84.9</ele>
        <time>2012-02-04T10:16:15Z</time>
      </trkpt>
      <trkpt lat="50.48701" lon="1.87309">
        <ele>85.1</ele>
        <time>2012-02-04T10:16:16Z</time>
      </trkpt>
      <trkpt lat="50.48696" lon="1.87304">
        <ele>85.2</ele>
        <time>2012-02-04T10:16:17Z</time>
      </trkpt>
      <trkpt lat="50.48692" lon="1.873">
        <ele>85.2</ele>
        <time>2012-02-04T10:16:18Z</time>
      </trkpt>
      <trkpt lat="50.48687" lon="1.87295">
        <ele>85.3</ele>
        <time>2012-02-04T10:16:19Z</time>
      </trkpt>
      <trkpt lat="50.48683" lon="1.87291">
        <ele>84.8</ele>
        <time>2012-02-04T10:16:20Z</time>
      </trkpt>
      <trkpt lat="50.48678" lon="1.87286">
        <ele>84.4</ele>
        <time>2012-02-04T10:16:21Z</time>
      </trkpt>
      <trkpt lat="50.48674" lon="1.87281">
        <ele>84.3</ele>
        <time>2012-02-04T10:16:22Z</time>
      </trkpt>
      <trkpt lat="50.4867" lon="1.87277">
        <ele>84.3</ele>
        <time>2012-02-04T10:16:23Z</time>
      </trkpt>
      <trkpt lat="50.48665" lon="1.87272">
        <ele>84.1</ele>
        <time>2012-02-04T10:16:24Z</time>
      </trkpt>
      <trkpt lat="50.48661" lon="1.87267">
        <ele>84.2</ele>
        <time>2012-02-04T10:16:25Z</time>
      </trkpt>
      <trkpt lat="50.48656" lon="1.87262">
        <ele>83.9</ele>
        <time>2012-02-04T10:16:26Z</time>
      </trkpt>
      <trkpt lat="50.48652" lon="1.87258">
        <ele>83.4</ele>
        <time>2012-02-04T10:16:27Z</time>
      </trkpt>
      <trkpt lat="50.48647" lon="1.87253">
        <ele>83.5</ele>
        <time>2012-02-04T10:16:28Z</time>
      </trkpt>
      <trkpt lat="50.48642" lon="1.87249">
        <ele>83.6</ele>
        <time>2012-02-04T10:16:29Z</time>
      </trkpt>
      <trkpt lat="50.48638" lon="1.87244">
        <ele>83.5</ele>
        <time>2012-02-04T10:16:30Z</time>
      </trkpt>
      <trkpt lat="50.48634" lon="1.87239">
        <ele>83.6</ele>
        <time>2012-02-04T10:16:31Z</time>
      </trkpt>
      <trkpt lat="50.48629" lon="1.87235">
        <ele>83.9</ele>
        <time>2012-02-04T10:16:32Z</time>
      </trkpt>
      <trkpt lat="50.48625" lon="1.87231">
        <ele>84.1</ele>
        <time>2012-02-04T10:16:33Z</time>
      </trkpt>
      <trkpt lat="50.4862" lon="1.87227">
        <ele>84</ele>
        <time>2012-02-04T10:16:34Z</time>
      </trkpt>
      <trkpt lat="50.48615" lon="1.87222">
        <ele>83.9</ele>
        <time>2012-02-04T10:16:35Z</time>
      </trkpt>
      <trkpt lat="50.48611" lon="1.87217">
        <ele>83.8</ele>
        <time>2012-02-04T10:16:36Z</time>
      </trkpt>
      <trkpt lat="50.48607" lon="1.87213">
        <ele>83.8</ele>
        <time>2012-02-04T10:16:37Z</time>
      </trkpt>
      <trkpt lat="50.48602" lon="1.87208">
        <ele>83.8</ele>
        <time>2012-02-04T10:16:38Z</time>
      </trkpt>
      <trkpt lat="50.48598" lon="1.87203">
        <ele>83.6</ele>
        <time>2012-02-04T10:16:39Z</time>
      </trkpt>
      <trkpt lat="50.48594" lon="1.87198">
        <ele>83.5</ele>
        <time>2012-02-04T10:16:40Z</time>
      </trkpt>
      <trkpt lat="50.48589" lon="1.87193">
        <ele>83.5</ele>
        <time>2012-02-04T10:16:41Z</time>
      </trkpt>
      <trkpt lat="50.48585" lon="1.87189">
        <ele>83.1</ele>
        <time>2012-02-04T10:16:42Z</time>
      </trkpt>
      <trkpt lat="50.4858" lon="1.87185">
        <ele>82.8</ele>
        <time>2012-02-04T10:16:43Z</time>
      </trkpt>
      <trkpt lat="50.48576" lon="1.8718">
        <ele>82.7</ele>
        <time>2012-02-04T10:16:44Z</time>
      </trkpt>
      <trkpt lat="50.48571" lon="1.87175">
        <ele>82.5</ele>
        <time>2012-02-04T10:16:45Z</time>
      </trkpt>
      <trkpt lat="50.48567" lon="1.87171">
        <ele>82.1</ele>
        <time>2012-02-04T10:16:46Z</time>
      </trkpt>
      <trkpt lat="50.48562" lon="1.87166">
        <ele>81.8</ele>
        <time>2012-02-04T10:16:47Z</time>
      </trkpt>
      <trkpt lat="50.48558" lon="1.87162">
        <ele>81.7</ele>
        <time>2012-02-04T10:16:48Z</time>
      </trkpt>
      <trkpt lat="50.48553" lon="1.87158">
        <ele>81.6</ele>
        <time>2012-02-04T10:16:49Z</time>
      </trkpt>
      <trkpt lat="50.48548" lon="1.87153">
        <ele>81.5</ele>
        <time>2012-02-04T10:16:50Z</time>
      </trkpt>
      <trkpt lat="50.48544" lon="1.87149">
        <ele>81.2</ele>
        <time>2012-02-04T10:16:51Z</time>
      </trkpt>
      <trkpt lat="50.48538" lon="1.87145">
        <ele>80.9</ele>
        <time>2012-02-04T10:16:52Z</time>
      </trkpt>
      <trkpt lat="50.48534" lon="1.87141">
        <ele>80.9</ele>
        <time>2012-02-04T10:16:53Z</time>
      </trkpt>
      <trkpt lat="50.48529" lon="1.87137">
        <ele>80.6</ele>
        <time>2012-02-04T10:16:54Z</time>
      </trkpt>
      <trkpt lat="50.48524" lon="1.87133">
        <ele>80.2</ele>
        <time>2012-02-04T10:16:55Z</time>
      </trkpt>
      <trkpt lat="50.48518" lon="1.87128">
        <ele>79.8</ele>
        <time>2012-02-04T10:16:56Z</time>
      </trkpt>
      <trkpt lat="50.48512" lon="1.87124">
        <ele>79.5</ele>
        <time>2012-02-04T10:16:57Z</time>
      </trkpt>
      <trkpt lat="50.48506" lon="1.8712">
        <ele>79.5</ele>
        <time>2012-02-04T10:16:58Z</time>
      </trkpt>
      <trkpt lat="50.48501" lon="1.87115">
        <ele>79.2</ele>
        <time>2012-02-04T10:16:59Z</time>
      </trkpt>
      <trkpt lat="50.48496" lon="1.87112">
        <ele>79</ele>
        <time>2012-02-04T10:17:00Z</time>
      </trkpt>
      <trkpt lat="50.48491" lon="1.87107">
        <ele>78.7</ele>
        <time>2012-02-04T10:17:01Z</time>
      </trkpt>
      <trkpt lat="50.48486" lon="1.87102">
        <ele>78.8</ele>
        <time>2012-02-04T10:17:02Z</time>
      </trkpt>
      <trkpt lat="50.48481" lon="1.87098">
        <ele>78.5</ele>
        <time>2012-02-04T10:17:03Z</time>
      </trkpt>
      <trkpt lat="50.48476" lon="1.87094">
        <ele>78.5</ele>
        <time>2012-02-04T10:17:04Z</time>
      </trkpt>
      <trkpt lat="50.48471" lon="1.87089">
        <ele>78.2</ele>
        <time>2012-02-04T10:17:05Z</time>
      </trkpt>
      <trkpt lat="50.48467" lon="1.87085">
        <ele>77.9</ele>
        <time>2012-02-04T10:17:06Z</time>
      </trkpt>
      <trkpt lat="50.48462" lon="1.87081">
        <ele>77.8</ele>
        <time>2012-02-04T10:17:07Z</time>
      </trkpt>
      <trkpt lat="50.48458" lon="1.87078">
        <ele>77.2</ele>
        <time>2012-02-04T10:17:08Z</time>
      </trkpt>
      <trkpt lat="50.48453" lon="1.87074">
        <ele>76.9</ele>
        <time>2012-02-04T10:17:09Z</time>
      </trkpt>
      <trkpt lat="50.48449" lon="1.8707">
        <ele>76.6</ele>
        <time>2012-02-04T10:17:10Z</time>
      </trkpt>
      <trkpt lat="50.48444" lon="1.87066">
        <ele>76.6</ele>
        <time>2012-02-04T10:17:11Z</time>
      </trkpt>
      <trkpt lat="50.4844" lon="1.87062">
        <ele>76.7</ele>
        <time>2012-02-04T10:17:12Z</time>
      </trkpt>
      <trkpt lat="50.48436" lon="1.87058">
        <ele>77.5</ele>
        <time>2012-02-04T10:17:13Z</time>
      </trkpt>
      <trkpt lat="50.48431" lon="1.87054">
        <ele>77.4</ele>
        <time>2012-02-04T10:17:14Z</time>
      </trkpt>
      <trkpt lat="50.48427" lon="1.8705">
        <ele>77.1</ele>
        <time>2012-02-04T10:17:15Z</time>
      </trkpt>
      <trkpt lat="50.48422" lon="1.87047">
        <ele>77.1</ele>
        <time>2012-02-04T10:17:16Z</time>
      </trkpt>
      <trkpt lat="50.48418" lon="1.87044">
        <ele>76.8</ele>
        <time>2012-02-04T10:17:17Z</time>
      </trkpt>
      <trkpt lat="50.48413" lon="1.8704">
        <ele>76.5</ele>
        <time>2012-02-04T10:17:18Z</time>
      </trkpt>
      <trkpt lat="50.48409" lon="1.87036">
        <ele>76.4</ele>
        <time>2012-02-04T10:17:19Z</time>
      </trkpt>
      <trkpt lat="50.48404" lon="1.87032">
        <ele>75.9</ele>
        <time>2012-02-04T10:17:20Z</time>
      </trkpt>
      <trkpt lat="50.484" lon="1.87028">
        <ele>75.8</ele>
        <time>2012-02-04T10:17:21Z</time>
      </trkpt>
      <trkpt lat="50.48395" lon="1.87024">
        <ele>75.6</ele>
        <time>2012-02-04T10:17:22Z</time>
      </trkpt>
      <trkpt lat="50.4839" lon="1.8702">
        <ele>75.4</ele>
        <time>2012-02-04T10:17:23Z</time>
      </trkpt>
      <trkpt lat="50.48385" lon="1.87016">
        <ele>75.2</ele>
        <time>2012-02-04T10:17:24Z</time>
      </trkpt>
      <trkpt lat="50.4838" lon="1.87013">
        <ele>75</ele>
        <time>2012-02-04T10:17:25Z</time>
      </trkpt>
      <trkpt lat="50.48376" lon="1.87009">
        <ele>75.2</ele>
        <time>2012-02-04T10:17:26Z</time>
      </trkpt>
      <trkpt lat="50.48372" lon="1.87007">
        <ele>75.4</ele>
        <time>2012-02-04T10:17:27Z</time>
      </trkpt>
      <trkpt lat="50.48368" lon="1.87002">
        <ele>74.8</ele>
        <time>2012-02-04T10:17:28Z</time>
      </trkpt>
      <trkpt lat="50.48363" lon="1.86999">
        <ele>75.3</ele>
        <time>2012-02-04T10:17:29Z</time>
      </trkpt>
      <trkpt lat="50.48359" lon="1.86995">
        <ele>74.8</ele>
        <time>2012-02-04T10:17:30Z</time>
      </trkpt>
      <trkpt lat="50.48355" lon="1.8699">
        <ele>74.5</ele>
        <time>2012-02-04T10:17:31Z</time>
      </trkpt>
      <trkpt lat="50.4835" lon="1.86987">
        <ele>74.7</ele>
        <time>2012-02-04T10:17:32Z</time>
      </trkpt>
      <trkpt lat="50.48346" lon="1.86983">
        <ele>74.5</ele>
        <time>2012-02-04T10:17:33Z</time>
      </trkpt>
      <trkpt lat="50.48342" lon="1.8698">
        <ele>73.9</ele>
        <time>2012-02-04T10:17:34Z</time>
      </trkpt>
      <trkpt lat="50.48335" lon="1.86974">
        <ele>71.9</ele>
        <time>2012-02-04T10:17:36Z</time>
      </trkpt>
      <trkpt lat="50.48329" lon="1.86968">
        <ele>73.6</ele>
        <time>2012-02-04T10:17:37Z</time>
      </trkpt>
      <trkpt lat="50.48325" lon="1.86964">
        <ele>73.9</ele>
        <time>2012-02-04T10:17:38Z</time>
      </trkpt>
      <trkpt lat="50.48317" lon="1.86957">
        <ele>73.8</ele>
        <time>2012-02-04T10:17:40Z</time>
      </trkpt>
      <trkpt lat="50.48313" lon="1.86954">
        <ele>73.6</ele>
        <time>2012-02-04T10:17:41Z</time>
      </trkpt>
      <trkpt lat="50.48306" lon="1.86947">
        <ele>73.4</ele>
        <time>2012-02-04T10:17:43Z</time>
      </trkpt>
      <trkpt lat="50.48299" lon="1.86943">
        <ele>72.1</ele>
        <time>2012-02-04T10:17:45Z</time>
      </trkpt>
      <trkpt lat="50.48294" lon="1.86937">
        <ele>73.3</ele>
        <time>2012-02-04T10:17:46Z</time>
      </trkpt>
      <trkpt lat="50.4829" lon="1.86933">
        <ele>73.2</ele>
        <time>2012-02-04T10:17:47Z</time>
      </trkpt>
      <trkpt lat="50.48282" lon="1.86926">
        <ele>73</ele>
        <time>2012-02-04T10:17:49Z</time>
      </trkpt>
      <trkpt lat="50.48273" lon="1.86919">
        <ele>72.9</ele>
        <time>2012-02-04T10:17:51Z</time>
      </trkpt>
      <trkpt lat="50.48269" lon="1.86915">
        <ele>73.2</ele>
        <time>2012-02-04T10:17:52Z</time>
      </trkpt>
      <trkpt lat="50.48264" lon="1.86911">
        <ele>73.1</ele>
        <time>2012-02-04T10:17:53Z</time>
      </trkpt>
      <trkpt lat="50.4826" lon="1.86908">
        <ele>72.7</ele>
        <time>2012-02-04T10:17:54Z</time>
      </trkpt>
      <trkpt lat="50.48256" lon="1.86905">
        <ele>73.1</ele>
        <time>2012-02-04T10:17:55Z</time>
      </trkpt>
      <trkpt lat="50.48251" lon="1.86901">
        <ele>73.1</ele>
        <time>2012-02-04T10:17:56Z</time>
      </trkpt>
      <trkpt lat="50.48242" lon="1.86894">
        <ele>71.8</ele>
        <time>2012-02-04T10:17:58Z</time>
      </trkpt>
      <trkpt lat="50.48238" lon="1.8689">
        <ele>72.1</ele>
        <time>2012-02-04T10:17:59Z</time>
      </trkpt>
      <trkpt lat="50.48233" lon="1.86887">
        <ele>72</ele>
        <time>2012-02-04T10:18:00Z</time>
      </trkpt>
      <trkpt lat="50.48228" lon="1.86882">
        <ele>72.2</ele>
        <time>2012-02-04T10:18:01Z</time>
      </trkpt>
      <trkpt lat="50.48223" lon="1.86877">
        <ele>72.4</ele>
        <time>2012-02-04T10:18:02Z</time>
      </trkpt>
      <trkpt lat="50.48218" lon="1.86873">
        <ele>71.9</ele>
        <time>2012-02-04T10:18:03Z</time>
      </trkpt>
      <trkpt lat="50.48214" lon="1.8687">
        <ele>72</ele>
        <time>2012-02-04T10:18:04Z</time>
      </trkpt>
      <trkpt lat="50.48209" lon="1.86867">
        <ele>72.1</ele>
        <time>2012-02-04T10:18:05Z</time>
      </trkpt>
      <trkpt lat="50.48204" lon="1.86864">
        <ele>72.2</ele>
        <time>2012-02-04T10:18:06Z</time>
      </trkpt>
      <trkpt lat="50.482" lon="1.8686">
        <ele>72.4</ele>
        <time>2012-02-04T10:18:07Z</time>
      </trkpt>
      <trkpt lat="50.48195" lon="1.86856">
        <ele>72.2</ele>
        <time>2012-02-04T10:18:08Z</time>
      </trkpt>
      <trkpt lat="50.4819" lon="1.86852">
        <ele>73</ele>
        <time>2012-02-04T10:18:09Z</time>
      </trkpt>
      <trkpt lat="50.48185" lon="1.86848">
        <ele>73</ele>
        <time>2012-02-04T10:18:10Z</time>
      </trkpt>
      <trkpt lat="50.4818" lon="1.86845">
        <ele>72.7</ele>
        <time>2012-02-04T10:18:11Z</time>
      </trkpt>
      <trkpt lat="50.48176" lon="1.86841">
        <ele>73</ele>
        <time>2012-02-04T10:18:12Z</time>
      </trkpt>
      <trkpt lat="50.48171" lon="1.86838">
        <ele>73.3</ele>
        <time>2012-02-04T10:18:13Z</time>
      </trkpt>
      <trkpt lat="50.48167" lon="1.86834">
        <ele>73.4</ele>
        <time>2012-02-04T10:18:14Z</time>
      </trkpt>
      <trkpt lat="50.48162" lon="1.8683">
        <ele>73.2</ele>
        <time>2012-02-04T10:18:15Z</time>
      </trkpt>
      <trkpt lat="50.48158" lon="1.86826">
        <ele>73.2</ele>
        <time>2012-02-04T10:18:16Z</time>
      </trkpt>
      <trkpt lat="50.48153" lon="1.86822">
        <ele>73</ele>
        <time>2012-02-04T10:18:17Z</time>
      </trkpt>
      <trkpt lat="50.48149" lon="1.86818">
        <ele>72.6</ele>
        <time>2012-02-04T10:18:18Z</time>
      </trkpt>
      <trkpt lat="50.48145" lon="1.86814">
        <ele>72.9</ele>
        <time>2012-02-04T10:18:19Z</time>
      </trkpt>
      <trkpt lat="50.4814" lon="1.86811">
        <ele>72.9</ele>
        <time>2012-02-04T10:18:20Z</time>
      </trkpt>
      <trkpt lat="50.48135" lon="1.86807">
        <ele>72.4</ele>
        <time>2012-02-04T10:18:21Z</time>
      </trkpt>
      <trkpt lat="50.4813" lon="1.86803">
        <ele>72.5</ele>
        <time>2012-02-04T10:18:22Z</time>
      </trkpt>
      <trkpt lat="50.48126" lon="1.86799">
        <ele>72.9</ele>
        <time>2012-02-04T10:18:23Z</time>
      </trkpt>
      <trkpt lat="50.48121" lon="1.86795">
        <ele>72.8</ele>
        <time>2012-02-04T10:18:24Z</time>
      </trkpt>
      <trkpt lat="50.48116" lon="1.86791">
        <ele>73.1</ele>
        <time>2012-02-04T10:18:25Z</time>
      </trkpt>
      <trkpt lat="50.48112" lon="1.86787">
        <ele>72.6</ele>
        <time>2012-02-04T10:18:26Z</time>
      </trkpt>
      <trkpt lat="50.48107" lon="1.86783">
        <ele>72.2</ele>
        <time>2012-02-04T10:18:27Z</time>
      </trkpt>
      <trkpt lat="50.48103" lon="1.8678">
        <ele>72</ele>
        <time>2012-02-04T10:18:28Z</time>
      </trkpt>
      <trkpt lat="50.48098" lon="1.86776">
        <ele>71.3</ele>
        <time>2012-02-04T10:18:29Z</time>
      </trkpt>
      <trkpt lat="50.48094" lon="1.86772">
        <ele>71</ele>
        <time>2012-02-04T10:18:30Z</time>
      </trkpt>
      <trkpt lat="50.4809" lon="1.86768">
        <ele>71.2</ele>
        <time>2012-02-04T10:18:31Z</time>
      </trkpt>
      <trkpt lat="50.48085" lon="1.86764">
        <ele>71.4</ele>
        <time>2012-02-04T10:18:32Z</time>
      </trkpt>
      <trkpt lat="50.4808" lon="1.8676">
        <ele>71.4</ele>
        <time>2012-02-04T10:18:33Z</time>
      </trkpt>
      <trkpt lat="50.48075" lon="1.86756">
        <ele>71.3</ele>
        <time>2012-02-04T10:18:34Z</time>
      </trkpt>
      <trkpt lat="50.48071" lon="1.86752">
        <ele>71.2</ele>
        <time>2012-02-04T10:18:35Z</time>
      </trkpt>
      <trkpt lat="50.48066" lon="1.86748">
        <ele>71.1</ele>
        <time>2012-02-04T10:18:36Z</time>
      </trkpt>
      <trkpt lat="50.48062" lon="1.86745">
        <ele>70.8</ele>
        <time>2012-02-04T10:18:37Z</time>
      </trkpt>
      <trkpt lat="50.48058" lon="1.8674">
        <ele>70.5</ele>
        <time>2012-02-04T10:18:38Z</time>
      </trkpt>
      <trkpt lat="50.48053" lon="1.86736">
        <ele>70</ele>
        <time>2012-02-04T10:18:39Z</time>
      </trkpt>
      <trkpt lat="50.48049" lon="1.86732">
        <ele>70.2</ele>
        <time>2012-02-04T10:18:40Z</time>
      </trkpt>
      <trkpt lat="50.48044" lon="1.86725">
        <ele>71</ele>
        <time>2012-02-04T10:18:41Z</time>
      </trkpt>
      <trkpt lat="50.4804" lon="1.86721">
        <ele>70.4</ele>
        <time>2012-02-04T10:18:42Z</time>
      </trkpt>
      <trkpt lat="50.48036" lon="1.86715">
        <ele>70.4</ele>
        <time>2012-02-04T10:18:43Z</time>
      </trkpt>
      <trkpt lat="50.48033" lon="1.8671">
        <ele>70.6</ele>
        <time>2012-02-04T10:18:44Z</time>
      </trkpt>
      <trkpt lat="50.48029" lon="1.86704">
        <ele>70.2</ele>
        <time>2012-02-04T10:18:45Z</time>
      </trkpt>
      <trkpt lat="50.48025" lon="1.86699">
        <ele>70.3</ele>
        <time>2012-02-04T10:18:46Z</time>
      </trkpt>
      <trkpt lat="50.48021" lon="1.86693">
        <ele>70.4</ele>
        <time>2012-02-04T10:18:47Z</time>
      </trkpt>
      <trkpt lat="50.48018" lon="1.86688">
        <ele>70.1</ele>
        <time>2012-02-04T10:18:48Z</time>
      </trkpt>
      <trkpt lat="50.48014" lon="1.86681">
        <ele>70</ele>
        <time>2012-02-04T10:18:49Z</time>
      </trkpt>
      <trkpt lat="50.4801" lon="1.86676">
        <ele>69.7</ele>
        <time>2012-02-04T10:18:50Z</time>
      </trkpt>
      <trkpt lat="50.48006" lon="1.86671">
        <ele>68.9</ele>
        <time>2012-02-04T10:18:51Z</time>
      </trkpt>
      <trkpt lat="50.48002" lon="1.86668">
        <ele>68.3</ele>
        <time>2012-02-04T10:18:52Z</time>
      </trkpt>
      <trkpt lat="50.47999" lon="1.8666">
        <ele>68.6</ele>
        <time>2012-02-04T10:18:53Z</time>
      </trkpt>
      <trkpt lat="50.47996" lon="1.86654">
        <ele>68.1</ele>
        <time>2012-02-04T10:18:54Z</time>
      </trkpt>
      <trkpt lat="50.47993" lon="1.86649">
        <ele>68.2</ele>
        <time>2012-02-04T10:18:55Z</time>
      </trkpt>
      <trkpt lat="50.47989" lon="1.86643">
        <ele>68.3</ele>
        <time>2012-02-04T10:18:56Z</time>
      </trkpt>
      <trkpt lat="50.47986" lon="1.86637">
        <ele>68.8</ele>
        <time>2012-02-04T10:18:57Z</time>
      </trkpt>
      <trkpt lat="50.47979" lon="1.86628">
        <ele>69.1</ele>
        <time>2012-02-04T10:18:59Z</time>
      </trkpt>
      <trkpt lat="50.47975" lon="1.86623">
        <ele>69</ele>
        <time>2012-02-04T10:19:00Z</time>
      </trkpt>
      <trkpt lat="50.47968" lon="1.86614">
        <ele>69.2</ele>
        <time>2012-02-04T10:19:02Z</time>
      </trkpt>
      <trkpt lat="50.47964" lon="1.8661">
        <ele>69.1</ele>
        <time>2012-02-04T10:19:03Z</time>
      </trkpt>
      <trkpt lat="50.4796" lon="1.86607">
        <ele>68.9</ele>
        <time>2012-02-04T10:19:04Z</time>
      </trkpt>
      <trkpt lat="50.47956" lon="1.86603">
        <ele>69</ele>
        <time>2012-02-04T10:19:05Z</time>
      </trkpt>
      <trkpt lat="50.47951" lon="1.866">
        <ele>68.4</ele>
        <time>2012-02-04T10:19:06Z</time>
      </trkpt>
      <trkpt lat="50.47946" lon="1.86598">
        <ele>67.9</ele>
        <time>2012-02-04T10:19:07Z</time>
      </trkpt>
      <trkpt lat="50.47941" lon="1.86595">
        <ele>67.6</ele>
        <time>2012-02-04T10:19:08Z</time>
      </trkpt>
      <trkpt lat="50.47936" lon="1.86593">
        <ele>67.3</ele>
        <time>2012-02-04T10:19:09Z</time>
      </trkpt>
      <trkpt lat="50.47931" lon="1.8659">
        <ele>67.5</ele>
        <time>2012-02-04T10:19:10Z</time>
      </trkpt>
      <trkpt lat="50.47926" lon="1.86588">
        <ele>67.6</ele>
        <time>2012-02-04T10:19:11Z</time>
      </trkpt>
      <trkpt lat="50.47917" lon="1.86582">
        <ele>66.4</ele>
        <time>2012-02-04T10:19:13Z</time>
      </trkpt>
      <trkpt lat="50.47913" lon="1.8658">
        <ele>67.1</ele>
        <time>2012-02-04T10:19:14Z</time>
      </trkpt>
      <trkpt lat="50.47908" lon="1.86577">
        <ele>67.1</ele>
        <time>2012-02-04T10:19:15Z</time>
      </trkpt>
      <trkpt lat="50.479" lon="1.8657">
        <ele>66.5</ele>
        <time>2012-02-04T10:19:17Z</time>
      </trkpt>
      <trkpt lat="50.47895" lon="1.86565">
        <ele>66.7</ele>
        <time>2012-02-04T10:19:18Z</time>
      </trkpt>
      <trkpt lat="50.47891" lon="1.8656">
        <ele>66.5</ele>
        <time>2012-02-04T10:19:19Z</time>
      </trkpt>
      <trkpt lat="50.47887" lon="1.86555">
        <ele>66.7</ele>
        <time>2012-02-04T10:19:20Z</time>
      </trkpt>
      <trkpt lat="50.47884" lon="1.8655">
        <ele>67</ele>
        <time>2012-02-04T10:19:21Z</time>
      </trkpt>
      <trkpt lat="50.4788" lon="1.86544">
        <ele>66.2</ele>
        <time>2012-02-04T10:19:22Z</time>
      </trkpt>
      <trkpt lat="50.47877" lon="1.86539">
        <ele>66</ele>
        <time>2012-02-04T10:19:23Z</time>
      </trkpt>
      <trkpt lat="50.47872" lon="1.86533">
        <ele>65.2</ele>
        <time>2012-02-04T10:19:24Z</time>
      </trkpt>
      <trkpt lat="50.47869" lon="1.86527">
        <ele>65.2</ele>
        <time>2012-02-04T10:19:25Z</time>
      </trkpt>
      <trkpt lat="50.47866" lon="1.86521">
        <ele>65.2</ele>
        <time>2012-02-04T10:19:26Z</time>
      </trkpt>
      <trkpt lat="50.47862" lon="1.86508">
        <ele>64.9</ele>
        <time>2012-02-04T10:19:28Z</time>
      </trkpt>
      <trkpt lat="50.47859" lon="1.86503">
        <ele>64.9</ele>
        <time>2012-02-04T10:19:29Z</time>
      </trkpt>
      <trkpt lat="50.47856" lon="1.86497">
        <ele>64.7</ele>
        <time>2012-02-04T10:19:30Z</time>
      </trkpt>
      <trkpt lat="50.4785" lon="1.86482">
        <ele>65.9</ele>
        <time>2012-02-04T10:19:32Z</time>
      </trkpt>
      <trkpt lat="50.47846" lon="1.86475">
        <ele>66.5</ele>
        <time>2012-02-04T10:19:33Z</time>
      </trkpt>
      <trkpt lat="50.47842" lon="1.86469">
        <ele>65.8</ele>
        <time>2012-02-04T10:19:34Z</time>
      </trkpt>
      <trkpt lat="50.47838" lon="1.86463">
        <ele>66.3</ele>
        <time>2012-02-04T10:19:35Z</time>
      </trkpt>
      <trkpt lat="50.47835" lon="1.86456">
        <ele>66.8</ele>
        <time>2012-02-04T10:19:36Z</time>
      </trkpt>
      <trkpt lat="50.47831" lon="1.8645">
        <ele>66.9</ele>
        <time>2012-02-04T10:19:37Z</time>
      </trkpt>
      <trkpt lat="50.47828" lon="1.86443">
        <ele>67.2</ele>
        <time>2012-02-04T10:19:38Z</time>
      </trkpt>
      <trkpt lat="50.47825" lon="1.86437">
        <ele>67.5</ele>
        <time>2012-02-04T10:19:39Z</time>
      </trkpt>
      <trkpt lat="50.47822" lon="1.86431">
        <ele>67.6</ele>
        <time>2012-02-04T10:19:40Z</time>
      </trkpt>
      <trkpt lat="50.47817" lon="1.8642">
        <ele>68.6</ele>
        <time>2012-02-04T10:19:42Z</time>
      </trkpt>
      <trkpt lat="50.4781" lon="1.86412">
        <ele>69.3</ele>
        <time>2012-02-04T10:19:44Z</time>
      </trkpt>
      <trkpt lat="50.47802" lon="1.86402">
        <ele>69.3</ele>
        <time>2012-02-04T10:19:46Z</time>
      </trkpt>
      <trkpt lat="50.478" lon="1.86396">
        <ele>68.6</ele>
        <time>2012-02-04T10:19:47Z</time>
      </trkpt>
      <trkpt lat="50.47798" lon="1.86389">
        <ele>68.9</ele>
        <time>2012-02-04T10:19:48Z</time>
      </trkpt>
      <trkpt lat="50.47796" lon="1.8638">
        <ele>69.1</ele>
        <time>2012-02-04T10:19:49Z</time>
      </trkpt>
      <trkpt lat="50.47795" lon="1.86371">
        <ele>69.8</ele>
        <time>2012-02-04T10:19:50Z</time>
      </trkpt>
      <trkpt lat="50.47793" lon="1.86362">
        <ele>70</ele>
        <time>2012-02-04T10:19:51Z</time>
      </trkpt>
      <trkpt lat="50.47793" lon="1.86354">
        <ele>69.4</ele>
        <time>2012-02-04T10:19:52Z</time>
      </trkpt>
      <trkpt lat="50.47791" lon="1.86346">
        <ele>68.4</ele>
        <time>2012-02-04T10:19:53Z</time>
      </trkpt>
      <trkpt lat="50.47788" lon="1.86337">
        <ele>69.2</ele>
        <time>2012-02-04T10:19:54Z</time>
      </trkpt>
      <trkpt lat="50.47786" lon="1.86328">
        <ele>69.8</ele>
        <time>2012-02-04T10:19:55Z</time>
      </trkpt>
      <trkpt lat="50.47786" lon="1.8632">
        <ele>69.5</ele>
        <time>2012-02-04T10:19:56Z</time>
      </trkpt>
      <trkpt lat="50.47785" lon="1.86312">
        <ele>69.4</ele>
        <time>2012-02-04T10:19:57Z</time>
      </trkpt>
      <trkpt lat="50.47784" lon="1.86304">
        <ele>69.6</ele>
        <time>2012-02-04T10:19:58Z</time>
      </trkpt>
      <trkpt lat="50.47784" lon="1.86297">
        <ele>68.7</ele>
        <time>2012-02-04T10:19:59Z</time>
      </trkpt>
      <trkpt lat="50.47783" lon="1.86282">
        <ele>68.4</ele>
        <time>2012-02-04T10:20:01Z</time>
      </trkpt>
      <trkpt lat="50.47782" lon="1.86274">
        <ele>68.1</ele>
        <time>2012-02-04T10:20:02Z</time>
      </trkpt>
      <trkpt lat="50.4778" lon="1.86267">
        <ele>68.1</ele>
        <time>2012-02-04T10:20:03Z</time>
      </trkpt>
      <trkpt lat="50.47778" lon="1.86259">
        <ele>67.9</ele>
        <time>2012-02-04T10:20:04Z</time>
      </trkpt>
      <trkpt lat="50.47775" lon="1.86244">
        <ele>67.8</ele>
        <time>2012-02-04T10:20:06Z</time>
      </trkpt>
      <trkpt lat="50.47773" lon="1.86237">
        <ele>67.8</ele>
        <time>2012-02-04T10:20:07Z</time>
      </trkpt>
      <trkpt lat="50.47771" lon="1.8623">
        <ele>67.9</ele>
        <time>2012-02-04T10:20:08Z</time>
      </trkpt>
      <trkpt lat="50.47769" lon="1.86223">
        <ele>68</ele>
        <time>2012-02-04T10:20:09Z</time>
      </trkpt>
      <trkpt lat="50.47765" lon="1.86209">
        <ele>68.2</ele>
        <time>2012-02-04T10:20:11Z</time>
      </trkpt>
      <trkpt lat="50.47761" lon="1.86202">
        <ele>68.4</ele>
        <time>2012-02-04T10:20:12Z</time>
      </trkpt>
      <trkpt lat="50.47759" lon="1.8619">
        <ele>68.5</ele>
        <time>2012-02-04T10:20:14Z</time>
      </trkpt>
      <trkpt lat="50.47756" lon="1.86178">
        <ele>68.9</ele>
        <time>2012-02-04T10:20:16Z</time>
      </trkpt>
      <trkpt lat="50.47754" lon="1.8617">
        <ele>68.8</ele>
        <time>2012-02-04T10:20:17Z</time>
      </trkpt>
      <trkpt lat="50.47751" lon="1.86162">
        <ele>68.7</ele>
        <time>2012-02-04T10:20:18Z</time>
      </trkpt>
      <trkpt lat="50.47749" lon="1.86155">
        <ele>68.7</ele>
        <time>2012-02-04T10:20:19Z</time>
      </trkpt>
      <trkpt lat="50.47745" lon="1.8614">
        <ele>69.2</ele>
        <time>2012-02-04T10:20:21Z</time>
      </trkpt>
      <trkpt lat="50.47745" lon="1.86132">
        <ele>69.3</ele>
        <time>2012-02-04T10:20:22Z</time>
      </trkpt>
      <trkpt lat="50.47743" lon="1.86124">
        <ele>68.7</ele>
        <time>2012-02-04T10:20:23Z</time>
      </trkpt>
      <trkpt lat="50.4774" lon="1.86113">
        <ele>68.9</ele>
        <time>2012-02-04T10:20:24Z</time>
      </trkpt>
      <trkpt lat="50.4774" lon="1.86106">
        <ele>68.9</ele>
        <time>2012-02-04T10:20:25Z</time>
      </trkpt>
      <trkpt lat="50.47743" lon="1.86093">
        <ele>67.7</ele>
        <time>2012-02-04T10:20:27Z</time>
      </trkpt>
      <trkpt lat="50.47745" lon="1.86086">
        <ele>68.3</ele>
        <time>2012-02-04T10:20:28Z</time>
      </trkpt>
      <trkpt lat="50.47747" lon="1.86078">
        <ele>67.9</ele>
        <time>2012-02-04T10:20:29Z</time>
      </trkpt>
      <trkpt lat="50.47748" lon="1.86071">
        <ele>67.9</ele>
        <time>2012-02-04T10:20:30Z</time>
      </trkpt>
      <trkpt lat="50.4775" lon="1.86063">
        <ele>68</ele>
        <time>2012-02-04T10:20:31Z</time>
      </trkpt>
      <trkpt lat="50.4775" lon="1.86055">
        <ele>68.3</ele>
        <time>2012-02-04T10:20:32Z</time>
      </trkpt>
      <trkpt lat="50.4775" lon="1.86048">
        <ele>67.2</ele>
        <time>2012-02-04T10:20:33Z</time>
      </trkpt>
      <trkpt lat="50.4775" lon="1.86041">
        <ele>66.8</ele>
        <time>2012-02-04T10:20:34Z</time>
      </trkpt>
      <trkpt lat="50.47751" lon="1.86032">
        <ele>66.4</ele>
        <time>2012-02-04T10:20:35Z</time>
      </trkpt>
      <trkpt lat="50.47755" lon="1.86027">
        <ele>67.1</ele>
        <time>2012-02-04T10:20:36Z</time>
      </trkpt>
      <trkpt lat="50.47759" lon="1.86015">
        <ele>65.9</ele>
        <time>2012-02-04T10:20:38Z</time>
      </trkpt>
      <trkpt lat="50.4776" lon="1.86008">
        <ele>67.2</ele>
        <time>2012-02-04T10:20:39Z</time>
      </trkpt>
      <trkpt lat="50.47761" lon="1.85994">
        <ele>66.5</ele>
        <time>2012-02-04T10:20:41Z</time>
      </trkpt>
      <trkpt lat="50.47759" lon="1.85982">
        <ele>66.7</ele>
        <time>2012-02-04T10:20:43Z</time>
      </trkpt>
      <trkpt lat="50.47757" lon="1.85976">
        <ele>67.5</ele>
        <time>2012-02-04T10:20:44Z</time>
      </trkpt>
      <trkpt lat="50.47755" lon="1.85969">
        <ele>67.6</ele>
        <time>2012-02-04T10:20:45Z</time>
      </trkpt>
      <trkpt lat="50.47752" lon="1.85961">
        <ele>68</ele>
        <time>2012-02-04T10:20:46Z</time>
      </trkpt>
      <trkpt lat="50.4775" lon="1.85954">
        <ele>67.9</ele>
        <time>2012-02-04T10:20:47Z</time>
      </trkpt>
      <trkpt lat="50.47745" lon="1.85943">
        <ele>68.4</ele>
        <time>2012-02-04T10:20:49Z</time>
      </trkpt>
      <trkpt lat="50.4774" lon="1.85932">
        <ele>69.8</ele>
        <time>2012-02-04T10:20:51Z</time>
      </trkpt>
      <trkpt lat="50.47737" lon="1.85926">
        <ele>69.9</ele>
        <time>2012-02-04T10:20:52Z</time>
      </trkpt>
      <trkpt lat="50.47733" lon="1.85921">
        <ele>69.4</ele>
        <time>2012-02-04T10:20:53Z</time>
      </trkpt>
      <trkpt lat="50.47728" lon="1.8591">
        <ele>69.2</ele>
        <time>2012-02-04T10:20:55Z</time>
      </trkpt>
      <trkpt lat="50.47725" lon="1.85905">
        <ele>69.4</ele>
        <time>2012-02-04T10:20:56Z</time>
      </trkpt>
      <trkpt lat="50.47722" lon="1.85899">
        <ele>69.4</ele>
        <time>2012-02-04T10:20:57Z</time>
      </trkpt>
      <trkpt lat="50.47719" lon="1.85893">
        <ele>70.2</ele>
        <time>2012-02-04T10:20:58Z</time>
      </trkpt>
      <trkpt lat="50.47715" lon="1.85888">
        <ele>69.3</ele>
        <time>2012-02-04T10:20:59Z</time>
      </trkpt>
      <trkpt lat="50.47711" lon="1.85883">
        <ele>69.1</ele>
        <time>2012-02-04T10:21:00Z</time>
      </trkpt>
      <trkpt lat="50.47708" lon="1.85876">
        <ele>69.4</ele>
        <time>2012-02-04T10:21:01Z</time>
      </trkpt>
      <trkpt lat="50.47705" lon="1.8587">
        <ele>69.9</ele>
        <time>2012-02-04T10:21:02Z</time>
      </trkpt>
      <trkpt lat="50.47699" lon="1.8586">
        <ele>70.2</ele>
        <time>2012-02-04T10:21:04Z</time>
      </trkpt>
      <trkpt lat="50.47695" lon="1.85854">
        <ele>70</ele>
        <time>2012-02-04T10:21:05Z</time>
      </trkpt>
      <trkpt lat="50.47689" lon="1.85844">
        <ele>70.6</ele>
        <time>2012-02-04T10:21:07Z</time>
      </trkpt>
      <trkpt lat="50.47686" lon="1.85838">
        <ele>70.5</ele>
        <time>2012-02-04T10:21:08Z</time>
      </trkpt>
      <trkpt lat="50.47682" lon="1.85833">
        <ele>70.5</ele>
        <time>2012-02-04T10:21:09Z</time>
      </trkpt>
      <trkpt lat="50.47676" lon="1.85828">
        <ele>70.5</ele>
        <time>2012-02-04T10:21:11Z</time>
      </trkpt>
      <trkpt lat="50.47669" lon="1.8582">
        <ele>70.2</ele>
        <time>2012-02-04T10:21:13Z</time>
      </trkpt>
      <trkpt lat="50.47665" lon="1.85816">
        <ele>69.1</ele>
        <time>2012-02-04T10:21:14Z</time>
      </trkpt>
      <trkpt lat="50.47655" lon="1.8581">
        <ele>68</ele>
        <time>2012-02-04T10:21:16Z</time>
      </trkpt>
      <trkpt lat="50.4765" lon="1.85808">
        <ele>69.4</ele>
        <time>2012-02-04T10:21:17Z</time>
      </trkpt>
      <trkpt lat="50.47646" lon="1.85806">
        <ele>69.4</ele>
        <time>2012-02-04T10:21:18Z</time>
      </trkpt>
      <trkpt lat="50.47637" lon="1.85802">
        <ele>71.4</ele>
        <time>2012-02-04T10:21:20Z</time>
      </trkpt>
      <trkpt lat="50.47632" lon="1.85801">
        <ele>72.8</ele>
        <time>2012-02-04T10:21:21Z</time>
      </trkpt>
      <trkpt lat="50.47623" lon="1.85796">
        <ele>72.9</ele>
        <time>2012-02-04T10:21:23Z</time>
      </trkpt>
      <trkpt lat="50.47616" lon="1.85791">
        <ele>71.8</ele>
        <time>2012-02-04T10:21:25Z</time>
      </trkpt>
      <trkpt lat="50.47611" lon="1.85789">
        <ele>72.6</ele>
        <time>2012-02-04T10:21:26Z</time>
      </trkpt>
      <trkpt lat="50.47603" lon="1.85784">
        <ele>72.4</ele>
        <time>2012-02-04T10:21:28Z</time>
      </trkpt>
      <trkpt lat="50.47595" lon="1.85778">
        <ele>71.7</ele>
        <time>2012-02-04T10:21:30Z</time>
      </trkpt>
      <trkpt lat="50.4759" lon="1.85775">
        <ele>70.7</ele>
        <time>2012-02-04T10:21:31Z</time>
      </trkpt>
      <trkpt lat="50.47585" lon="1.85772">
        <ele>70.5</ele>
        <time>2012-02-04T10:21:32Z</time>
      </trkpt>
      <trkpt lat="50.4758" lon="1.8577">
        <ele>70.1</ele>
        <time>2012-02-04T10:21:33Z</time>
      </trkpt>
      <trkpt lat="50.47572" lon="1.85764">
        <ele>69.1</ele>
        <time>2012-02-04T10:21:35Z</time>
      </trkpt>
      <trkpt lat="50.47568" lon="1.85761">
        <ele>68.8</ele>
        <time>2012-02-04T10:21:36Z</time>
      </trkpt>
      <trkpt lat="50.47559" lon="1.85757">
        <ele>68.6</ele>
        <time>2012-02-04T10:21:38Z</time>
      </trkpt>
      <trkpt lat="50.47554" lon="1.85754">
        <ele>68.8</ele>
        <time>2012-02-04T10:21:39Z</time>
      </trkpt>
      <trkpt lat="50.47549" lon="1.85752">
        <ele>67.9</ele>
        <time>2012-02-04T10:21:40Z</time>
      </trkpt>
      <trkpt lat="50.47544" lon="1.8575">
        <ele>67.8</ele>
        <time>2012-02-04T10:21:41Z</time>
      </trkpt>
      <trkpt lat="50.47539" lon="1.85747">
        <ele>68.8</ele>
        <time>2012-02-04T10:21:42Z</time>
      </trkpt>
      <trkpt lat="50.47534" lon="1.85745">
        <ele>68.3</ele>
        <time>2012-02-04T10:21:43Z</time>
      </trkpt>
      <trkpt lat="50.47529" lon="1.85743">
        <ele>68</ele>
        <time>2012-02-04T10:21:44Z</time>
      </trkpt>
      <trkpt lat="50.47524" lon="1.8574">
        <ele>68.1</ele>
        <time>2012-02-04T10:21:45Z</time>
      </trkpt>
      <trkpt lat="50.4752" lon="1.85737">
        <ele>68.1</ele>
        <time>2012-02-04T10:21:46Z</time>
      </trkpt>
      <trkpt lat="50.47515" lon="1.85735">
        <ele>68.1</ele>
        <time>2012-02-04T10:21:47Z</time>
      </trkpt>
      <trkpt lat="50.47511" lon="1.85732">
        <ele>68</ele>
        <time>2012-02-04T10:21:48Z</time>
      </trkpt>
      <trkpt lat="50.47506" lon="1.85729">
        <ele>67.8</ele>
        <time>2012-02-04T10:21:49Z</time>
      </trkpt>
      <trkpt lat="50.47502" lon="1.85726">
        <ele>67.3</ele>
        <time>2012-02-04T10:21:50Z</time>
      </trkpt>
      <trkpt lat="50.47498" lon="1.85723">
        <ele>66.7</ele>
        <time>2012-02-04T10:21:51Z</time>
      </trkpt>
      <trkpt lat="50.47494" lon="1.8572">
        <ele>66.9</ele>
        <time>2012-02-04T10:21:52Z</time>
      </trkpt>
      <trkpt lat="50.47489" lon="1.85717">
        <ele>66.8</ele>
        <time>2012-02-04T10:21:53Z</time>
      </trkpt>
      <trkpt lat="50.47485" lon="1.85713">
        <ele>66.6</ele>
        <time>2012-02-04T10:21:54Z</time>
      </trkpt>
      <trkpt lat="50.47476" lon="1.8571">
        <ele>65.9</ele>
        <time>2012-02-04T10:21:56Z</time>
      </trkpt>
      <trkpt lat="50.47467" lon="1.85708">
        <ele>65</ele>
        <time>2012-02-04T10:21:58Z</time>
      </trkpt>
      <trkpt lat="50.47462" lon="1.85709">
        <ele>64.9</ele>
        <time>2012-02-04T10:21:59Z</time>
      </trkpt>
      <trkpt lat="50.47454" lon="1.85708">
        <ele>64.1</ele>
        <time>2012-02-04T10:22:01Z</time>
      </trkpt>
      <trkpt lat="50.47447" lon="1.85712">
        <ele>63.2</ele>
        <time>2012-02-04T10:22:03Z</time>
      </trkpt>
      <trkpt lat="50.4744" lon="1.85714">
        <ele>63.1</ele>
        <time>2012-02-04T10:22:05Z</time>
      </trkpt>
      <trkpt lat="50.47434" lon="1.85719">
        <ele>61.8</ele>
        <time>2012-02-04T10:22:07Z</time>
      </trkpt>
      <trkpt lat="50.47427" lon="1.8572">
        <ele>62.7</ele>
        <time>2012-02-04T10:22:09Z</time>
      </trkpt>
      <trkpt lat="50.4742" lon="1.85719">
        <ele>63.6</ele>
        <time>2012-02-04T10:22:11Z</time>
      </trkpt>
      <trkpt lat="50.47414" lon="1.85719">
        <ele>63.6</ele>
        <time>2012-02-04T10:22:13Z</time>
      </trkpt>
      <trkpt lat="50.47407" lon="1.85721">
        <ele>64.2</ele>
        <time>2012-02-04T10:22:15Z</time>
      </trkpt>
      <trkpt lat="50.47402" lon="1.85727">
        <ele>66.3</ele>
        <time>2012-02-04T10:22:17Z</time>
      </trkpt>
      <trkpt lat="50.47397" lon="1.85734">
        <ele>67.4</ele>
        <time>2012-02-04T10:22:19Z</time>
      </trkpt>
      <trkpt lat="50.47393" lon="1.85745">
        <ele>66.4</ele>
        <time>2012-02-04T10:22:21Z</time>
      </trkpt>
      <trkpt lat="50.47387" lon="1.85753">
        <ele>67.5</ele>
        <time>2012-02-04T10:22:23Z</time>
      </trkpt>
      <trkpt lat="50.47382" lon="1.85759">
        <ele>68.1</ele>
        <time>2012-02-04T10:22:25Z</time>
      </trkpt>
      <trkpt lat="50.47376" lon="1.85753">
        <ele>66.5</ele>
        <time>2012-02-04T10:22:27Z</time>
      </trkpt>
      <trkpt lat="50.47371" lon="1.85748">
        <ele>65.5</ele>
        <time>2012-02-04T10:22:29Z</time>
      </trkpt>
      <trkpt lat="50.47364" lon="1.85741">
        <ele>65</ele>
        <time>2012-02-04T10:22:31Z</time>
      </trkpt>
      <trkpt lat="50.47357" lon="1.85732">
        <ele>65.4</ele>
        <time>2012-02-04T10:22:33Z</time>
      </trkpt>
      <trkpt lat="50.47351" lon="1.85724">
        <ele>65.4</ele>
        <time>2012-02-04T10:22:35Z</time>
      </trkpt>
      <trkpt lat="50.47346" lon="1.85722">
        <ele>65.1</ele>
        <time>2012-02-04T10:22:36Z</time>
      </trkpt>
      <trkpt lat="50.47341" lon="1.85718">
        <ele>66.1</ele>
        <time>2012-02-04T10:22:37Z</time>
      </trkpt>
      <trkpt lat="50.47337" lon="1.85713">
        <ele>66.1</ele>
        <time>2012-02-04T10:22:38Z</time>
      </trkpt>
      <trkpt lat="50.47332" lon="1.85711">
        <ele>65.9</ele>
        <time>2012-02-04T10:22:39Z</time>
      </trkpt>
      <trkpt lat="50.47327" lon="1.85708">
        <ele>67.1</ele>
        <time>2012-02-04T10:22:40Z</time>
      </trkpt>
      <trkpt lat="50.4732" lon="1.85702">
        <ele>66.5</ele>
        <time>2012-02-04T10:22:42Z</time>
      </trkpt>
      <trkpt lat="50.47313" lon="1.85698">
        <ele>66.6</ele>
        <time>2012-02-04T10:22:44Z</time>
      </trkpt>
      <trkpt lat="50.47306" lon="1.85693">
        <ele>67.2</ele>
        <time>2012-02-04T10:22:46Z</time>
      </trkpt>
      <trkpt lat="50.47298" lon="1.85689">
        <ele>68.7</ele>
        <time>2012-02-04T10:22:48Z</time>
      </trkpt>
      <trkpt lat="50.4729" lon="1.85685">
        <ele>69</ele>
        <time>2012-02-04T10:22:50Z</time>
      </trkpt>
      <trkpt lat="50.47284" lon="1.8568">
        <ele>69.4</ele>
        <time>2012-02-04T10:22:52Z</time>
      </trkpt>
      <trkpt lat="50.47276" lon="1.85676">
        <ele>71.2</ele>
        <time>2012-02-04T10:22:54Z</time>
      </trkpt>
      <trkpt lat="50.47271" lon="1.8567">
        <ele>68.4</ele>
        <time>2012-02-04T10:22:56Z</time>
      </trkpt>
      <trkpt lat="50.47265" lon="1.85665">
        <ele>68.9</ele>
        <time>2012-02-04T10:22:58Z</time>
      </trkpt>
      <trkpt lat="50.4726" lon="1.85662">
        <ele>69</ele>
        <time>2012-02-04T10:22:59Z</time>
      </trkpt>
      <trkpt lat="50.47253" lon="1.85654">
        <ele>69</ele>
        <time>2012-02-04T10:23:01Z</time>
      </trkpt>
      <trkpt lat="50.47246" lon="1.85646">
        <ele>69.4</ele>
        <time>2012-02-04T10:23:03Z</time>
      </trkpt>
      <trkpt lat="50.4724" lon="1.85636">
        <ele>69.2</ele>
        <time>2012-02-04T10:23:05Z</time>
      </trkpt>
      <trkpt lat="50.47235" lon="1.85627">
        <ele>69.3</ele>
        <time>2012-02-04T10:23:07Z</time>
      </trkpt>
      <trkpt lat="50.47228" lon="1.85617">
        <ele>71.1</ele>
        <time>2012-02-04T10:23:09Z</time>
      </trkpt>
      <trkpt lat="50.47224" lon="1.85613">
        <ele>70.3</ele>
        <time>2012-02-04T10:23:10Z</time>
      </trkpt>
      <trkpt lat="50.4722" lon="1.85608">
        <ele>70.1</ele>
        <time>2012-02-04T10:23:11Z</time>
      </trkpt>
      <trkpt lat="50.47217" lon="1.85603">
        <ele>70.4</ele>
        <time>2012-02-04T10:23:12Z</time>
      </trkpt>
      <trkpt lat="50.4721" lon="1.85595">
        <ele>71.4</ele>
        <time>2012-02-04T10:23:14Z</time>
      </trkpt>
      <trkpt lat="50.47207" lon="1.8559">
        <ele>71.7</ele>
        <time>2012-02-04T10:23:15Z</time>
      </trkpt>
      <trkpt lat="50.47202" lon="1.85587">
        <ele>72.4</ele>
        <time>2012-02-04T10:23:16Z</time>
      </trkpt>
      <trkpt lat="50.47198" lon="1.85582">
        <ele>71.9</ele>
        <time>2012-02-04T10:23:17Z</time>
      </trkpt>
      <trkpt lat="50.47194" lon="1.85578">
        <ele>71</ele>
        <time>2012-02-04T10:23:18Z</time>
      </trkpt>
      <trkpt lat="50.47189" lon="1.85574">
        <ele>70.9</ele>
        <time>2012-02-04T10:23:19Z</time>
      </trkpt>
      <trkpt lat="50.47185" lon="1.8557">
        <ele>69.5</ele>
        <time>2012-02-04T10:23:20Z</time>
      </trkpt>
      <trkpt lat="50.4718" lon="1.85566">
        <ele>68.6</ele>
        <time>2012-02-04T10:23:21Z</time>
      </trkpt>
      <trkpt lat="50.47173" lon="1.85558">
        <ele>68.6</ele>
        <time>2012-02-04T10:23:23Z</time>
      </trkpt>
      <trkpt lat="50.47168" lon="1.85554">
        <ele>68.3</ele>
        <time>2012-02-04T10:23:24Z</time>
      </trkpt>
      <trkpt lat="50.47161" lon="1.85545">
        <ele>69.2</ele>
        <time>2012-02-04T10:23:26Z</time>
      </trkpt>
      <trkpt lat="50.47157" lon="1.85541">
        <ele>69.4</ele>
        <time>2012-02-04T10:23:27Z</time>
      </trkpt>
      <trkpt lat="50.47149" lon="1.85532">
        <ele>69</ele>
        <time>2012-02-04T10:23:29Z</time>
      </trkpt>
      <trkpt lat="50.47145" lon="1.85529">
        <ele>69.3</ele>
        <time>2012-02-04T10:23:30Z</time>
      </trkpt>
      <trkpt lat="50.47141" lon="1.85525">
        <ele>69.4</ele>
        <time>2012-02-04T10:23:31Z</time>
      </trkpt>
      <trkpt lat="50.47136" lon="1.85522">
        <ele>69.2</ele>
        <time>2012-02-04T10:23:32Z</time>
      </trkpt>
      <trkpt lat="50.47132" lon="1.85518">
        <ele>69.1</ele>
        <time>2012-02-04T10:23:33Z</time>
      </trkpt>
      <trkpt lat="50.47128" lon="1.85514">
        <ele>67.9</ele>
        <time>2012-02-04T10:23:34Z</time>
      </trkpt>
      <trkpt lat="50.47123" lon="1.85512">
        <ele>67.5</ele>
        <time>2012-02-04T10:23:35Z</time>
      </trkpt>
      <trkpt lat="50.47119" lon="1.85508">
        <ele>67.6</ele>
        <time>2012-02-04T10:23:36Z</time>
      </trkpt>
      <trkpt lat="50.47114" lon="1.85505">
        <ele>67.9</ele>
        <time>2012-02-04T10:23:37Z</time>
      </trkpt>
      <trkpt lat="50.47106" lon="1.85497">
        <ele>68.2</ele>
        <time>2012-02-04T10:23:39Z</time>
      </trkpt>
      <trkpt lat="50.47101" lon="1.85494">
        <ele>68.1</ele>
        <time>2012-02-04T10:23:40Z</time>
      </trkpt>
      <trkpt lat="50.47093" lon="1.85489">
        <ele>68.1</ele>
        <time>2012-02-04T10:23:42Z</time>
      </trkpt>
      <trkpt lat="50.47088" lon="1.85486">
        <ele>67.6</ele>
        <time>2012-02-04T10:23:43Z</time>
      </trkpt>
      <trkpt lat="50.47084" lon="1.85483">
        <ele>68</ele>
        <time>2012-02-04T10:23:44Z</time>
      </trkpt>
      <trkpt lat="50.47079" lon="1.85481">
        <ele>68.2</ele>
        <time>2012-02-04T10:23:45Z</time>
      </trkpt>
      <trkpt lat="50.4707" lon="1.85475">
        <ele>67.7</ele>
        <time>2012-02-04T10:23:47Z</time>
      </trkpt>
      <trkpt lat="50.47066" lon="1.85472">
        <ele>67.5</ele>
        <time>2012-02-04T10:23:48Z</time>
      </trkpt>
      <trkpt lat="50.47061" lon="1.8547">
        <ele>67.6</ele>
        <time>2012-02-04T10:23:49Z</time>
      </trkpt>
      <trkpt lat="50.47055" lon="1.85464">
        <ele>67.5</ele>
        <time>2012-02-04T10:23:51Z</time>
      </trkpt>
      <trkpt lat="50.4705" lon="1.85461">
        <ele>67.3</ele>
        <time>2012-02-04T10:23:52Z</time>
      </trkpt>
      <trkpt lat="50.47045" lon="1.85457">
        <ele>67.8</ele>
        <time>2012-02-04T10:23:53Z</time>
      </trkpt>
      <trkpt lat="50.47041" lon="1.85454">
        <ele>68.5</ele>
        <time>2012-02-04T10:23:54Z</time>
      </trkpt>
      <trkpt lat="50.47036" lon="1.85452">
        <ele>68.5</ele>
        <time>2012-02-04T10:23:55Z</time>
      </trkpt>
      <trkpt lat="50.47032" lon="1.85448">
        <ele>68.5</ele>
        <time>2012-02-04T10:23:56Z</time>
      </trkpt>
      <trkpt lat="50.47027" lon="1.85445">
        <ele>69.1</ele>
        <time>2012-02-04T10:23:57Z</time>
      </trkpt>
      <trkpt lat="50.47023" lon="1.85441">
        <ele>69.5</ele>
        <time>2012-02-04T10:23:58Z</time>
      </trkpt>
      <trkpt lat="50.47017" lon="1.85437">
        <ele>69.3</ele>
        <time>2012-02-04T10:23:59Z</time>
      </trkpt>
      <trkpt lat="50.47013" lon="1.85433">
        <ele>69.3</ele>
        <time>2012-02-04T10:24:00Z</time>
      </trkpt>
      <trkpt lat="50.47008" lon="1.85429">
        <ele>69.4</ele>
        <time>2012-02-04T10:24:01Z</time>
      </trkpt>
      <trkpt lat="50.47003" lon="1.85424">
        <ele>69.5</ele>
        <time>2012-02-04T10:24:02Z</time>
      </trkpt>
      <trkpt lat="50.46999" lon="1.85422">
        <ele>70.1</ele>
        <time>2012-02-04T10:24:03Z</time>
      </trkpt>
      <trkpt lat="50.46993" lon="1.85417">
        <ele>69.9</ele>
        <time>2012-02-04T10:24:04Z</time>
      </trkpt>
      <trkpt lat="50.46989" lon="1.85412">
        <ele>69.8</ele>
        <time>2012-02-04T10:24:05Z</time>
      </trkpt>
      <trkpt lat="50.46984" lon="1.85406">
        <ele>69.7</ele>
        <time>2012-02-04T10:24:06Z</time>
      </trkpt>
      <trkpt lat="50.4698" lon="1.85402">
        <ele>69.7</ele>
        <time>2012-02-04T10:24:07Z</time>
      </trkpt>
      <trkpt lat="50.46973" lon="1.85394">
        <ele>69.8</ele>
        <time>2012-02-04T10:24:09Z</time>
      </trkpt>
      <trkpt lat="50.46968" lon="1.85389">
        <ele>69.6</ele>
        <time>2012-02-04T10:24:10Z</time>
      </trkpt>
      <trkpt lat="50.46964" lon="1.85385">
        <ele>69.8</ele>
        <time>2012-02-04T10:24:11Z</time>
      </trkpt>
      <trkpt lat="50.4696" lon="1.8538">
        <ele>70.3</ele>
        <time>2012-02-04T10:24:12Z</time>
      </trkpt>
      <trkpt lat="50.46955" lon="1.85376">
        <ele>69.9</ele>
        <time>2012-02-04T10:24:13Z</time>
      </trkpt>
      <trkpt lat="50.46951" lon="1.85371">
        <ele>70.1</ele>
        <time>2012-02-04T10:24:14Z</time>
      </trkpt>
      <trkpt lat="50.46944" lon="1.85364">
        <ele>69</ele>
        <time>2012-02-04T10:24:16Z</time>
      </trkpt>
      <trkpt lat="50.46939" lon="1.8536">
        <ele>69</ele>
        <time>2012-02-04T10:24:17Z</time>
      </trkpt>
      <trkpt lat="50.46935" lon="1.85356">
        <ele>68.6</ele>
        <time>2012-02-04T10:24:18Z</time>
      </trkpt>
      <trkpt lat="50.4693" lon="1.85352">
        <ele>68.1</ele>
        <time>2012-02-04T10:24:19Z</time>
      </trkpt>
      <trkpt lat="50.46922" lon="1.85344">
        <ele>68.4</ele>
        <time>2012-02-04T10:24:21Z</time>
      </trkpt>
      <trkpt lat="50.46917" lon="1.85341">
        <ele>68.2</ele>
        <time>2012-02-04T10:24:22Z</time>
      </trkpt>
      <trkpt lat="50.46911" lon="1.85335">
        <ele>65.6</ele>
        <time>2012-02-04T10:24:24Z</time>
      </trkpt>
      <trkpt lat="50.46907" lon="1.8533">
        <ele>65.1</ele>
        <time>2012-02-04T10:24:25Z</time>
      </trkpt>
      <trkpt lat="50.46903" lon="1.85325">
        <ele>64.8</ele>
        <time>2012-02-04T10:24:26Z</time>
      </trkpt>
      <trkpt lat="50.46899" lon="1.85321">
        <ele>65.1</ele>
        <time>2012-02-04T10:24:27Z</time>
      </trkpt>
      <trkpt lat="50.46896" lon="1.85315">
        <ele>64</ele>
        <time>2012-02-04T10:24:28Z</time>
      </trkpt>
      <trkpt lat="50.46891" lon="1.85309">
        <ele>64.8</ele>
        <time>2012-02-04T10:24:29Z</time>
      </trkpt>
      <trkpt lat="50.46887" lon="1.85303">
        <ele>64.5</ele>
        <time>2012-02-04T10:24:30Z</time>
      </trkpt>
      <trkpt lat="50.46884" lon="1.85297">
        <ele>64.5</ele>
        <time>2012-02-04T10:24:31Z</time>
      </trkpt>
      <trkpt lat="50.4688" lon="1.85293">
        <ele>64.5</ele>
        <time>2012-02-04T10:24:32Z</time>
      </trkpt>
      <trkpt lat="50.46876" lon="1.85287">
        <ele>64.6</ele>
        <time>2012-02-04T10:24:33Z</time>
      </trkpt>
      <trkpt lat="50.46872" lon="1.85281">
        <ele>64.4</ele>
        <time>2012-02-04T10:24:34Z</time>
      </trkpt>
      <trkpt lat="50.46869" lon="1.85276">
        <ele>64.5</ele>
        <time>2012-02-04T10:24:35Z</time>
      </trkpt>
      <trkpt lat="50.46864" lon="1.85268">
        <ele>64.3</ele>
        <time>2012-02-04T10:24:36Z</time>
      </trkpt>
      <trkpt lat="50.46861" lon="1.85263">
        <ele>64.4</ele>
        <time>2012-02-04T10:24:37Z</time>
      </trkpt>
      <trkpt lat="50.46858" lon="1.85257">
        <ele>64.3</ele>
        <time>2012-02-04T10:24:38Z</time>
      </trkpt>
      <trkpt lat="50.46854" lon="1.85252">
        <ele>64.5</ele>
        <time>2012-02-04T10:24:39Z</time>
      </trkpt>
      <trkpt lat="50.4685" lon="1.85246">
        <ele>64.4</ele>
        <time>2012-02-04T10:24:40Z</time>
      </trkpt>
      <trkpt lat="50.46846" lon="1.85242">
        <ele>64.2</ele>
        <time>2012-02-04T10:24:41Z</time>
      </trkpt>
      <trkpt lat="50.46841" lon="1.85236">
        <ele>64.6</ele>
        <time>2012-02-04T10:24:42Z</time>
      </trkpt>
      <trkpt lat="50.46837" lon="1.8523">
        <ele>64.9</ele>
        <time>2012-02-04T10:24:43Z</time>
      </trkpt>
      <trkpt lat="50.46834" lon="1.85224">
        <ele>65.6</ele>
        <time>2012-02-04T10:24:44Z</time>
      </trkpt>
      <trkpt lat="50.4683" lon="1.85218">
        <ele>65.9</ele>
        <time>2012-02-04T10:24:45Z</time>
      </trkpt>
      <trkpt lat="50.46825" lon="1.85214">
        <ele>65.9</ele>
        <time>2012-02-04T10:24:46Z</time>
      </trkpt>
      <trkpt lat="50.46822" lon="1.85208">
        <ele>66</ele>
        <time>2012-02-04T10:24:47Z</time>
      </trkpt>
      <trkpt lat="50.46817" lon="1.85202">
        <ele>66.2</ele>
        <time>2012-02-04T10:24:48Z</time>
      </trkpt>
      <trkpt lat="50.46813" lon="1.85197">
        <ele>66.6</ele>
        <time>2012-02-04T10:24:49Z</time>
      </trkpt>
      <trkpt lat="50.46808" lon="1.85188">
        <ele>66.2</ele>
        <time>2012-02-04T10:24:51Z</time>
      </trkpt>
      <trkpt lat="50.46804" lon="1.85183">
        <ele>66.5</ele>
        <time>2012-02-04T10:24:52Z</time>
      </trkpt>
      <trkpt lat="50.46798" lon="1.85178">
        <ele>66.2</ele>
        <time>2012-02-04T10:24:53Z</time>
      </trkpt>
      <trkpt lat="50.46793" lon="1.85174">
        <ele>66.8</ele>
        <time>2012-02-04T10:24:54Z</time>
      </trkpt>
      <trkpt lat="50.4679" lon="1.85167">
        <ele>66.9</ele>
        <time>2012-02-04T10:24:55Z</time>
      </trkpt>
      <trkpt lat="50.46787" lon="1.85161">
        <ele>67.2</ele>
        <time>2012-02-04T10:24:56Z</time>
      </trkpt>
      <trkpt lat="50.46783" lon="1.85155">
        <ele>67.1</ele>
        <time>2012-02-04T10:24:57Z</time>
      </trkpt>
      <trkpt lat="50.46779" lon="1.85148">
        <ele>67.3</ele>
        <time>2012-02-04T10:24:58Z</time>
      </trkpt>
      <trkpt lat="50.46771" lon="1.8514">
        <ele>67.9</ele>
        <time>2012-02-04T10:25:00Z</time>
      </trkpt>
      <trkpt lat="50.46768" lon="1.85134">
        <ele>68.2</ele>
        <time>2012-02-04T10:25:01Z</time>
      </trkpt>
      <trkpt lat="50.46764" lon="1.85129">
        <ele>67.8</ele>
        <time>2012-02-04T10:25:02Z</time>
      </trkpt>
      <trkpt lat="50.46757" lon="1.85119">
        <ele>66.9</ele>
        <time>2012-02-04T10:25:04Z</time>
      </trkpt>
      <trkpt lat="50.46754" lon="1.85113">
        <ele>67</ele>
        <time>2012-02-04T10:25:05Z</time>
      </trkpt>
      <trkpt lat="50.46748" lon="1.85103">
        <ele>67.2</ele>
        <time>2012-02-04T10:25:07Z</time>
      </trkpt>
      <trkpt lat="50.46744" lon="1.85097">
        <ele>67.3</ele>
        <time>2012-02-04T10:25:08Z</time>
      </trkpt>
      <trkpt lat="50.46736" lon="1.85089">
        <ele>67.2</ele>
        <time>2012-02-04T10:25:10Z</time>
      </trkpt>
      <trkpt lat="50.46732" lon="1.85084">
        <ele>66.5</ele>
        <time>2012-02-04T10:25:11Z</time>
      </trkpt>
      <trkpt lat="50.46728" lon="1.85078">
        <ele>66.6</ele>
        <time>2012-02-04T10:25:12Z</time>
      </trkpt>
      <trkpt lat="50.46723" lon="1.85074">
        <ele>66.6</ele>
        <time>2012-02-04T10:25:13Z</time>
      </trkpt>
      <trkpt lat="50.46717" lon="1.85065">
        <ele>67.1</ele>
        <time>2012-02-04T10:25:15Z</time>
      </trkpt>
      <trkpt lat="50.46712" lon="1.85062">
        <ele>66.7</ele>
        <time>2012-02-04T10:25:16Z</time>
      </trkpt>
      <trkpt lat="50.46708" lon="1.85059">
        <ele>65.7</ele>
        <time>2012-02-04T10:25:17Z</time>
      </trkpt>
      <trkpt lat="50.46704" lon="1.85055">
        <ele>65.4</ele>
        <time>2012-02-04T10:25:18Z</time>
      </trkpt>
      <trkpt lat="50.46699" lon="1.85051">
        <ele>65.5</ele>
        <time>2012-02-04T10:25:19Z</time>
      </trkpt>
      <trkpt lat="50.46694" lon="1.85048">
        <ele>65.4</ele>
        <time>2012-02-04T10:25:20Z</time>
      </trkpt>
      <trkpt lat="50.46689" lon="1.85044">
        <ele>65.5</ele>
        <time>2012-02-04T10:25:21Z</time>
      </trkpt>
      <trkpt lat="50.46685" lon="1.85041">
        <ele>65.9</ele>
        <time>2012-02-04T10:25:22Z</time>
      </trkpt>
      <trkpt lat="50.46681" lon="1.85037">
        <ele>66.2</ele>
        <time>2012-02-04T10:25:23Z</time>
      </trkpt>
      <trkpt lat="50.46676" lon="1.85035">
        <ele>66.1</ele>
        <time>2012-02-04T10:25:24Z</time>
      </trkpt>
      <trkpt lat="50.46668" lon="1.8503">
        <ele>65.9</ele>
        <time>2012-02-04T10:25:26Z</time>
      </trkpt>
      <trkpt lat="50.4666" lon="1.85022">
        <ele>65.9</ele>
        <time>2012-02-04T10:25:28Z</time>
      </trkpt>
      <trkpt lat="50.46654" lon="1.85019">
        <ele>65.2</ele>
        <time>2012-02-04T10:25:29Z</time>
      </trkpt>
      <trkpt lat="50.46646" lon="1.85011">
        <ele>65</ele>
        <time>2012-02-04T10:25:31Z</time>
      </trkpt>
      <trkpt lat="50.46642" lon="1.85008">
        <ele>65.6</ele>
        <time>2012-02-04T10:25:32Z</time>
      </trkpt>
      <trkpt lat="50.46637" lon="1.85003">
        <ele>65.8</ele>
        <time>2012-02-04T10:25:33Z</time>
      </trkpt>
      <trkpt lat="50.46633" lon="1.85">
        <ele>66.3</ele>
        <time>2012-02-04T10:25:34Z</time>
      </trkpt>
      <trkpt lat="50.46628" lon="1.84997">
        <ele>66.2</ele>
        <time>2012-02-04T10:25:35Z</time>
      </trkpt>
      <trkpt lat="50.46624" lon="1.84993">
        <ele>65.6</ele>
        <time>2012-02-04T10:25:36Z</time>
      </trkpt>
      <trkpt lat="50.46619" lon="1.84989">
        <ele>65.3</ele>
        <time>2012-02-04T10:25:37Z</time>
      </trkpt>
      <trkpt lat="50.46615" lon="1.84985">
        <ele>65</ele>
        <time>2012-02-04T10:25:38Z</time>
      </trkpt>
      <trkpt lat="50.4661" lon="1.84981">
        <ele>65.1</ele>
        <time>2012-02-04T10:25:39Z</time>
      </trkpt>
      <trkpt lat="50.46606" lon="1.84976">
        <ele>64.9</ele>
        <time>2012-02-04T10:25:40Z</time>
      </trkpt>
      <trkpt lat="50.46602" lon="1.84971">
        <ele>65</ele>
        <time>2012-02-04T10:25:41Z</time>
      </trkpt>
      <trkpt lat="50.46598" lon="1.84967">
        <ele>65.1</ele>
        <time>2012-02-04T10:25:42Z</time>
      </trkpt>
      <trkpt lat="50.46591" lon="1.84958">
        <ele>66</ele>
        <time>2012-02-04T10:25:44Z</time>
      </trkpt>
      <trkpt lat="50.46587" lon="1.84955">
        <ele>65.9</ele>
        <time>2012-02-04T10:25:45Z</time>
      </trkpt>
      <trkpt lat="50.46579" lon="1.84948">
        <ele>65.9</ele>
        <time>2012-02-04T10:25:47Z</time>
      </trkpt>
      <trkpt lat="50.46571" lon="1.84943">
        <ele>64.8</ele>
        <time>2012-02-04T10:25:49Z</time>
      </trkpt>
      <trkpt lat="50.46563" lon="1.84935">
        <ele>63.8</ele>
        <time>2012-02-04T10:25:51Z</time>
      </trkpt>
      <trkpt lat="50.46556" lon="1.84928">
        <ele>63.8</ele>
        <time>2012-02-04T10:25:53Z</time>
      </trkpt>
      <trkpt lat="50.46551" lon="1.84924">
        <ele>63.6</ele>
        <time>2012-02-04T10:25:54Z</time>
      </trkpt>
      <trkpt lat="50.46547" lon="1.8492">
        <ele>63.2</ele>
        <time>2012-02-04T10:25:55Z</time>
      </trkpt>
      <trkpt lat="50.46538" lon="1.84912">
        <ele>62.3</ele>
        <time>2012-02-04T10:25:57Z</time>
      </trkpt>
      <trkpt lat="50.46533" lon="1.84909">
        <ele>62.6</ele>
        <time>2012-02-04T10:25:58Z</time>
      </trkpt>
      <trkpt lat="50.46529" lon="1.84905">
        <ele>62.5</ele>
        <time>2012-02-04T10:25:59Z</time>
      </trkpt>
      <trkpt lat="50.46525" lon="1.84901">
        <ele>62.5</ele>
        <time>2012-02-04T10:26:00Z</time>
      </trkpt>
      <trkpt lat="50.46519" lon="1.84893">
        <ele>63</ele>
        <time>2012-02-04T10:26:02Z</time>
      </trkpt>
      <trkpt lat="50.46513" lon="1.8489">
        <ele>61.7</ele>
        <time>2012-02-04T10:26:03Z</time>
      </trkpt>
      <trkpt lat="50.46506" lon="1.84883">
        <ele>62</ele>
        <time>2012-02-04T10:26:05Z</time>
      </trkpt>
      <trkpt lat="50.46502" lon="1.84879">
        <ele>62.2</ele>
        <time>2012-02-04T10:26:06Z</time>
      </trkpt>
      <trkpt lat="50.46498" lon="1.84874">
        <ele>61.9</ele>
        <time>2012-02-04T10:26:07Z</time>
      </trkpt>
      <trkpt lat="50.46491" lon="1.84867">
        <ele>61.8</ele>
        <time>2012-02-04T10:26:09Z</time>
      </trkpt>
      <trkpt lat="50.46487" lon="1.84864">
        <ele>61.7</ele>
        <time>2012-02-04T10:26:10Z</time>
      </trkpt>
      <trkpt lat="50.4648" lon="1.84855">
        <ele>63.7</ele>
        <time>2012-02-04T10:26:12Z</time>
      </trkpt>
      <trkpt lat="50.46473" lon="1.84849">
        <ele>64</ele>
        <time>2012-02-04T10:26:14Z</time>
      </trkpt>
      <trkpt lat="50.46466" lon="1.84842">
        <ele>64.7</ele>
        <time>2012-02-04T10:26:16Z</time>
      </trkpt>
      <trkpt lat="50.46458" lon="1.84835">
        <ele>64.4</ele>
        <time>2012-02-04T10:26:18Z</time>
      </trkpt>
      <trkpt lat="50.46452" lon="1.84828">
        <ele>66.6</ele>
        <time>2012-02-04T10:26:20Z</time>
      </trkpt>
      <trkpt lat="50.46447" lon="1.84822">
        <ele>66.9</ele>
        <time>2012-02-04T10:26:22Z</time>
      </trkpt>
      <trkpt lat="50.46442" lon="1.8482">
        <ele>67.7</ele>
        <time>2012-02-04T10:26:23Z</time>
      </trkpt>
      <trkpt lat="50.46437" lon="1.84813">
        <ele>69.8</ele>
        <time>2012-02-04T10:26:25Z</time>
      </trkpt>
      <trkpt lat="50.46432" lon="1.84808">
        <ele>68</ele>
        <time>2012-02-04T10:26:27Z</time>
      </trkpt>
      <trkpt lat="50.46425" lon="1.84801">
        <ele>68.9</ele>
        <time>2012-02-04T10:26:29Z</time>
      </trkpt>
      <trkpt lat="50.46418" lon="1.84795">
        <ele>68.4</ele>
        <time>2012-02-04T10:26:31Z</time>
      </trkpt>
      <trkpt lat="50.46413" lon="1.84788">
        <ele>68.7</ele>
        <time>2012-02-04T10:26:33Z</time>
      </trkpt>
      <trkpt lat="50.46405" lon="1.84784">
        <ele>68.2</ele>
        <time>2012-02-04T10:26:35Z</time>
      </trkpt>
      <trkpt lat="50.46398" lon="1.84779">
        <ele>67</ele>
        <time>2012-02-04T10:26:37Z</time>
      </trkpt>
      <trkpt lat="50.46389" lon="1.84775">
        <ele>65</ele>
        <time>2012-02-04T10:26:39Z</time>
      </trkpt>
      <trkpt lat="50.46383" lon="1.84772">
        <ele>64.3</ele>
        <time>2012-02-04T10:26:41Z</time>
      </trkpt>
      <trkpt lat="50.46378" lon="1.84768">
        <ele>63.8</ele>
        <time>2012-02-04T10:26:43Z</time>
      </trkpt>
      <trkpt lat="50.46372" lon="1.8476">
        <ele>63.2</ele>
        <time>2012-02-04T10:26:45Z</time>
      </trkpt>
      <trkpt lat="50.46362" lon="1.84753">
        <ele>63.9</ele>
        <time>2012-02-04T10:26:47Z</time>
      </trkpt>
      <trkpt lat="50.46354" lon="1.84745">
        <ele>65.6</ele>
        <time>2012-02-04T10:26:49Z</time>
      </trkpt>
      <trkpt lat="50.46348" lon="1.84737">
        <ele>68</ele>
        <time>2012-02-04T10:26:51Z</time>
      </trkpt>
      <trkpt lat="50.4634" lon="1.8473">
        <ele>67.7</ele>
        <time>2012-02-04T10:26:53Z</time>
      </trkpt>
      <trkpt lat="50.46335" lon="1.84721">
        <ele>69.4</ele>
        <time>2012-02-04T10:26:55Z</time>
      </trkpt>
      <trkpt lat="50.4633" lon="1.84715">
        <ele>71.9</ele>
        <time>2012-02-04T10:26:57Z</time>
      </trkpt>
      <trkpt lat="50.46324" lon="1.84706">
        <ele>73.8</ele>
        <time>2012-02-04T10:26:59Z</time>
      </trkpt>
      <trkpt lat="50.4632" lon="1.84702">
        <ele>74.2</ele>
        <time>2012-02-04T10:27:00Z</time>
      </trkpt>
      <trkpt lat="50.46313" lon="1.84696">
        <ele>73.9</ele>
        <time>2012-02-04T10:27:02Z</time>
      </trkpt>
      <trkpt lat="50.46304" lon="1.8469">
        <ele>73.8</ele>
        <time>2012-02-04T10:27:04Z</time>
      </trkpt>
      <trkpt lat="50.46298" lon="1.84685">
        <ele>73.9</ele>
        <time>2012-02-04T10:27:06Z</time>
      </trkpt>
      <trkpt lat="50.46294" lon="1.84677">
        <ele>73.3</ele>
        <time>2012-02-04T10:27:08Z</time>
      </trkpt>
      <trkpt lat="50.46289" lon="1.8467">
        <ele>74</ele>
        <time>2012-02-04T10:27:10Z</time>
      </trkpt>
      <trkpt lat="50.46282" lon="1.84665">
        <ele>74.2</ele>
        <time>2012-02-04T10:27:12Z</time>
      </trkpt>
      <trkpt lat="50.46275" lon="1.84656">
        <ele>76.9</ele>
        <time>2012-02-04T10:27:14Z</time>
      </trkpt>
      <trkpt lat="50.46268" lon="1.84649">
        <ele>77.8</ele>
        <time>2012-02-04T10:27:16Z</time>
      </trkpt>
      <trkpt lat="50.46262" lon="1.84641">
        <ele>79.4</ele>
        <time>2012-02-04T10:27:18Z</time>
      </trkpt>
      <trkpt lat="50.46254" lon="1.84634">
        <ele>78.7</ele>
        <time>2012-02-04T10:27:20Z</time>
      </trkpt>
      <trkpt lat="50.46249" lon="1.84626">
        <ele>78.7</ele>
        <time>2012-02-04T10:27:22Z</time>
      </trkpt>
      <trkpt lat="50.46241" lon="1.84621">
        <ele>78.3</ele>
        <time>2012-02-04T10:27:24Z</time>
      </trkpt>
      <trkpt lat="50.46234" lon="1.84615">
        <ele>77.8</ele>
        <time>2012-02-04T10:27:26Z</time>
      </trkpt>
      <trkpt lat="50.4623" lon="1.8461">
        <ele>77.7</ele>
        <time>2012-02-04T10:27:27Z</time>
      </trkpt>
      <trkpt lat="50.46223" lon="1.84602">
        <ele>78.2</ele>
        <time>2012-02-04T10:27:29Z</time>
      </trkpt>
      <trkpt lat="50.46219" lon="1.84597">
        <ele>78</ele>
        <time>2012-02-04T10:27:30Z</time>
      </trkpt>
      <trkpt lat="50.46212" lon="1.84588">
        <ele>78</ele>
        <time>2012-02-04T10:27:32Z</time>
      </trkpt>
      <trkpt lat="50.46207" lon="1.8458">
        <ele>77.9</ele>
        <time>2012-02-04T10:27:34Z</time>
      </trkpt>
      <trkpt lat="50.46204" lon="1.84574">
        <ele>78.2</ele>
        <time>2012-02-04T10:27:35Z</time>
      </trkpt>
      <trkpt lat="50.46194" lon="1.84565">
        <ele>77.4</ele>
        <time>2012-02-04T10:27:37Z</time>
      </trkpt>
      <trkpt lat="50.4619" lon="1.84559">
        <ele>77.2</ele>
        <time>2012-02-04T10:27:38Z</time>
      </trkpt>
      <trkpt lat="50.46184" lon="1.84547">
        <ele>77.4</ele>
        <time>2012-02-04T10:27:40Z</time>
      </trkpt>
      <trkpt lat="50.4618" lon="1.8454">
        <ele>77.3</ele>
        <time>2012-02-04T10:27:41Z</time>
      </trkpt>
      <trkpt lat="50.46176" lon="1.84534">
        <ele>77.5</ele>
        <time>2012-02-04T10:27:42Z</time>
      </trkpt>
      <trkpt lat="50.46173" lon="1.84526">
        <ele>77.1</ele>
        <time>2012-02-04T10:27:43Z</time>
      </trkpt>
      <trkpt lat="50.46167" lon="1.84514">
        <ele>76.6</ele>
        <time>2012-02-04T10:27:45Z</time>
      </trkpt>
      <trkpt lat="50.46163" lon="1.84508">
        <ele>76.3</ele>
        <time>2012-02-04T10:27:46Z</time>
      </trkpt>
      <trkpt lat="50.46156" lon="1.84502">
        <ele>76.4</ele>
        <time>2012-02-04T10:27:47Z</time>
      </trkpt>
      <trkpt lat="50.46152" lon="1.84498">
        <ele>76.6</ele>
        <time>2012-02-04T10:27:48Z</time>
      </trkpt>
      <trkpt lat="50.46148" lon="1.84491">
        <ele>77</ele>
        <time>2012-02-04T10:27:49Z</time>
      </trkpt>
      <trkpt lat="50.46145" lon="1.84486">
        <ele>77.1</ele>
        <time>2012-02-04T10:27:50Z</time>
      </trkpt>
      <trkpt lat="50.46138" lon="1.84476">
        <ele>76</ele>
        <time>2012-02-04T10:27:52Z</time>
      </trkpt>
      <trkpt lat="50.46135" lon="1.8447">
        <ele>76</ele>
        <time>2012-02-04T10:27:53Z</time>
      </trkpt>
      <trkpt lat="50.46132" lon="1.84464">
        <ele>76.1</ele>
        <time>2012-02-04T10:27:54Z</time>
      </trkpt>
      <trkpt lat="50.46127" lon="1.84455">
        <ele>76.1</ele>
        <time>2012-02-04T10:27:55Z</time>
      </trkpt>
      <trkpt lat="50.46123" lon="1.84449">
        <ele>76.3</ele>
        <time>2012-02-04T10:27:56Z</time>
      </trkpt>
      <trkpt lat="50.46116" lon="1.84437">
        <ele>77.1</ele>
        <time>2012-02-04T10:27:58Z</time>
      </trkpt>
      <trkpt lat="50.46109" lon="1.84426">
        <ele>75.8</ele>
        <time>2012-02-04T10:28:00Z</time>
      </trkpt>
      <trkpt lat="50.46106" lon="1.84419">
        <ele>77.1</ele>
        <time>2012-02-04T10:28:01Z</time>
      </trkpt>
      <trkpt lat="50.46102" lon="1.84412">
        <ele>78.3</ele>
        <time>2012-02-04T10:28:02Z</time>
      </trkpt>
      <trkpt lat="50.46099" lon="1.84406">
        <ele>78.9</ele>
        <time>2012-02-04T10:28:03Z</time>
      </trkpt>
      <trkpt lat="50.46095" lon="1.844">
        <ele>78.9</ele>
        <time>2012-02-04T10:28:04Z</time>
      </trkpt>
      <trkpt lat="50.46092" lon="1.84392">
        <ele>79.2</ele>
        <time>2012-02-04T10:28:05Z</time>
      </trkpt>
      <trkpt lat="50.4609" lon="1.84385">
        <ele>79.3</ele>
        <time>2012-02-04T10:28:06Z</time>
      </trkpt>
      <trkpt lat="50.46086" lon="1.84378">
        <ele>79.4</ele>
        <time>2012-02-04T10:28:07Z</time>
      </trkpt>
      <trkpt lat="50.46081" lon="1.84371">
        <ele>78.1</ele>
        <time>2012-02-04T10:28:09Z</time>
      </trkpt>
      <trkpt lat="50.46077" lon="1.84366">
        <ele>77.9</ele>
        <time>2012-02-04T10:28:10Z</time>
      </trkpt>
      <trkpt lat="50.46072" lon="1.84355">
        <ele>77.4</ele>
        <time>2012-02-04T10:28:12Z</time>
      </trkpt>
      <trkpt lat="50.46069" lon="1.8435">
        <ele>77.7</ele>
        <time>2012-02-04T10:28:13Z</time>
      </trkpt>
      <trkpt lat="50.46065" lon="1.84344">
        <ele>77.3</ele>
        <time>2012-02-04T10:28:14Z</time>
      </trkpt>
      <trkpt lat="50.46062" lon="1.84338">
        <ele>77.8</ele>
        <time>2012-02-04T10:28:15Z</time>
      </trkpt>
      <trkpt lat="50.4606" lon="1.84331">
        <ele>78.4</ele>
        <time>2012-02-04T10:28:16Z</time>
      </trkpt>
      <trkpt lat="50.46056" lon="1.84325">
        <ele>79.4</ele>
        <time>2012-02-04T10:28:17Z</time>
      </trkpt>
      <trkpt lat="50.46053" lon="1.84319">
        <ele>78.4</ele>
        <time>2012-02-04T10:28:18Z</time>
      </trkpt>
      <trkpt lat="50.46049" lon="1.84314">
        <ele>78.4</ele>
        <time>2012-02-04T10:28:19Z</time>
      </trkpt>
      <trkpt lat="50.46046" lon="1.84308">
        <ele>78.6</ele>
        <time>2012-02-04T10:28:20Z</time>
      </trkpt>
      <trkpt lat="50.46043" lon="1.84302">
        <ele>78.6</ele>
        <time>2012-02-04T10:28:21Z</time>
      </trkpt>
      <trkpt lat="50.46037" lon="1.84291">
        <ele>77.5</ele>
        <time>2012-02-04T10:28:23Z</time>
      </trkpt>
      <trkpt lat="50.46032" lon="1.84279">
        <ele>78</ele>
        <time>2012-02-04T10:28:25Z</time>
      </trkpt>
      <trkpt lat="50.46026" lon="1.84268">
        <ele>79.1</ele>
        <time>2012-02-04T10:28:27Z</time>
      </trkpt>
      <trkpt lat="50.46024" lon="1.84261">
        <ele>79.7</ele>
        <time>2012-02-04T10:28:28Z</time>
      </trkpt>
      <trkpt lat="50.4602" lon="1.84254">
        <ele>80.3</ele>
        <time>2012-02-04T10:28:29Z</time>
      </trkpt>
      <trkpt lat="50.46017" lon="1.84249">
        <ele>80.3</ele>
        <time>2012-02-04T10:28:30Z</time>
      </trkpt>
      <trkpt lat="50.46013" lon="1.84237">
        <ele>81</ele>
        <time>2012-02-04T10:28:32Z</time>
      </trkpt>
      <trkpt lat="50.46009" lon="1.84231">
        <ele>81.2</ele>
        <time>2012-02-04T10:28:33Z</time>
      </trkpt>
      <trkpt lat="50.46005" lon="1.84223">
        <ele>81</ele>
        <time>2012-02-04T10:28:34Z</time>
      </trkpt>
      <trkpt lat="50.45999" lon="1.84216">
        <ele>80.6</ele>
        <time>2012-02-04T10:28:35Z</time>
      </trkpt>
      <trkpt lat="50.45992" lon="1.84206">
        <ele>77.9</ele>
        <time>2012-02-04T10:28:37Z</time>
      </trkpt>
      <trkpt lat="50.45988" lon="1.842">
        <ele>77.6</ele>
        <time>2012-02-04T10:28:38Z</time>
      </trkpt>
      <trkpt lat="50.45985" lon="1.84193">
        <ele>77.3</ele>
        <time>2012-02-04T10:28:39Z</time>
      </trkpt>
      <trkpt lat="50.45978" lon="1.84181">
        <ele>77.1</ele>
        <time>2012-02-04T10:28:41Z</time>
      </trkpt>
      <trkpt lat="50.45973" lon="1.84174">
        <ele>76.7</ele>
        <time>2012-02-04T10:28:42Z</time>
      </trkpt>
      <trkpt lat="50.45969" lon="1.84168">
        <ele>76.6</ele>
        <time>2012-02-04T10:28:43Z</time>
      </trkpt>
      <trkpt lat="50.45965" lon="1.84163">
        <ele>76.7</ele>
        <time>2012-02-04T10:28:44Z</time>
      </trkpt>
      <trkpt lat="50.45958" lon="1.8415">
        <ele>76.4</ele>
        <time>2012-02-04T10:28:46Z</time>
      </trkpt>
      <trkpt lat="50.45956" lon="1.84143">
        <ele>77.1</ele>
        <time>2012-02-04T10:28:47Z</time>
      </trkpt>
      <trkpt lat="50.45952" lon="1.84137">
        <ele>77.2</ele>
        <time>2012-02-04T10:28:48Z</time>
      </trkpt>
      <trkpt lat="50.45949" lon="1.8413">
        <ele>77.4</ele>
        <time>2012-02-04T10:28:49Z</time>
      </trkpt>
      <trkpt lat="50.45945" lon="1.84123">
        <ele>77.5</ele>
        <time>2012-02-04T10:28:50Z</time>
      </trkpt>
      <trkpt lat="50.45942" lon="1.84118">
        <ele>76.7</ele>
        <time>2012-02-04T10:28:51Z</time>
      </trkpt>
      <trkpt lat="50.45938" lon="1.84111">
        <ele>76.2</ele>
        <time>2012-02-04T10:28:52Z</time>
      </trkpt>
      <trkpt lat="50.45934" lon="1.84104">
        <ele>75.9</ele>
        <time>2012-02-04T10:28:53Z</time>
      </trkpt>
      <trkpt lat="50.45931" lon="1.84098">
        <ele>75.8</ele>
        <time>2012-02-04T10:28:54Z</time>
      </trkpt>
      <trkpt lat="50.45927" lon="1.84092">
        <ele>75.9</ele>
        <time>2012-02-04T10:28:55Z</time>
      </trkpt>
      <trkpt lat="50.45921" lon="1.8408">
        <ele>75.6</ele>
        <time>2012-02-04T10:28:57Z</time>
      </trkpt>
      <trkpt lat="50.45916" lon="1.84074">
        <ele>75.2</ele>
        <time>2012-02-04T10:28:58Z</time>
      </trkpt>
      <trkpt lat="50.45913" lon="1.84068">
        <ele>75</ele>
        <time>2012-02-04T10:28:59Z</time>
      </trkpt>
      <trkpt lat="50.4591" lon="1.84062">
        <ele>75.2</ele>
        <time>2012-02-04T10:29:00Z</time>
      </trkpt>
      <trkpt lat="50.45905" lon="1.84056">
        <ele>75.2</ele>
        <time>2012-02-04T10:29:01Z</time>
      </trkpt>
      <trkpt lat="50.45898" lon="1.84045">
        <ele>74.2</ele>
        <time>2012-02-04T10:29:03Z</time>
      </trkpt>
      <trkpt lat="50.45895" lon="1.8404">
        <ele>74.4</ele>
        <time>2012-02-04T10:29:04Z</time>
      </trkpt>
      <trkpt lat="50.4589" lon="1.84035">
        <ele>75</ele>
        <time>2012-02-04T10:29:05Z</time>
      </trkpt>
      <trkpt lat="50.45886" lon="1.84029">
        <ele>75</ele>
        <time>2012-02-04T10:29:06Z</time>
      </trkpt>
      <trkpt lat="50.45882" lon="1.84023">
        <ele>74.9</ele>
        <time>2012-02-04T10:29:07Z</time>
      </trkpt>
      <trkpt lat="50.45876" lon="1.84018">
        <ele>74.6</ele>
        <time>2012-02-04T10:29:08Z</time>
      </trkpt>
      <trkpt lat="50.45873" lon="1.84014">
        <ele>73.2</ele>
        <time>2012-02-04T10:29:09Z</time>
      </trkpt>
      <trkpt lat="50.45868" lon="1.84008">
        <ele>72.2</ele>
        <time>2012-02-04T10:29:10Z</time>
      </trkpt>
      <trkpt lat="50.45864" lon="1.84003">
        <ele>71.7</ele>
        <time>2012-02-04T10:29:11Z</time>
      </trkpt>
      <trkpt lat="50.4586" lon="1.83999">
        <ele>71.1</ele>
        <time>2012-02-04T10:29:12Z</time>
      </trkpt>
      <trkpt lat="50.45854" lon="1.8399">
        <ele>68.9</ele>
        <time>2012-02-04T10:29:14Z</time>
      </trkpt>
      <trkpt lat="50.4585" lon="1.83985">
        <ele>68.8</ele>
        <time>2012-02-04T10:29:15Z</time>
      </trkpt>
      <trkpt lat="50.45846" lon="1.8398">
        <ele>68.6</ele>
        <time>2012-02-04T10:29:16Z</time>
      </trkpt>
      <trkpt lat="50.45839" lon="1.83971">
        <ele>68.4</ele>
        <time>2012-02-04T10:29:18Z</time>
      </trkpt>
      <trkpt lat="50.45836" lon="1.83966">
        <ele>67.9</ele>
        <time>2012-02-04T10:29:19Z</time>
      </trkpt>
      <trkpt lat="50.45832" lon="1.8396">
        <ele>68.3</ele>
        <time>2012-02-04T10:29:20Z</time>
      </trkpt>
      <trkpt lat="50.45828" lon="1.83954">
        <ele>68.4</ele>
        <time>2012-02-04T10:29:21Z</time>
      </trkpt>
      <trkpt lat="50.45824" lon="1.83948">
        <ele>68.5</ele>
        <time>2012-02-04T10:29:22Z</time>
      </trkpt>
      <trkpt lat="50.45821" lon="1.83943">
        <ele>70.2</ele>
        <time>2012-02-04T10:29:23Z</time>
      </trkpt>
      <trkpt lat="50.45817" lon="1.83938">
        <ele>69.4</ele>
        <time>2012-02-04T10:29:24Z</time>
      </trkpt>
      <trkpt lat="50.45813" lon="1.83932">
        <ele>68.9</ele>
        <time>2012-02-04T10:29:25Z</time>
      </trkpt>
      <trkpt lat="50.45809" lon="1.83927">
        <ele>68.8</ele>
        <time>2012-02-04T10:29:26Z</time>
      </trkpt>
      <trkpt lat="50.45804" lon="1.83922">
        <ele>68.7</ele>
        <time>2012-02-04T10:29:27Z</time>
      </trkpt>
      <trkpt lat="50.458" lon="1.83918">
        <ele>68.7</ele>
        <time>2012-02-04T10:29:28Z</time>
      </trkpt>
      <trkpt lat="50.45796" lon="1.83912">
        <ele>68.7</ele>
        <time>2012-02-04T10:29:29Z</time>
      </trkpt>
      <trkpt lat="50.45792" lon="1.83908">
        <ele>69.1</ele>
        <time>2012-02-04T10:29:30Z</time>
      </trkpt>
      <trkpt lat="50.45786" lon="1.83904">
        <ele>66.9</ele>
        <time>2012-02-04T10:29:31Z</time>
      </trkpt>
      <trkpt lat="50.45782" lon="1.83899">
        <ele>65.8</ele>
        <time>2012-02-04T10:29:32Z</time>
      </trkpt>
      <trkpt lat="50.45778" lon="1.83893">
        <ele>66</ele>
        <time>2012-02-04T10:29:33Z</time>
      </trkpt>
      <trkpt lat="50.45774" lon="1.83888">
        <ele>65.3</ele>
        <time>2012-02-04T10:29:34Z</time>
      </trkpt>
      <trkpt lat="50.4577" lon="1.83882">
        <ele>65.2</ele>
        <time>2012-02-04T10:29:35Z</time>
      </trkpt>
      <trkpt lat="50.45766" lon="1.83876">
        <ele>64.8</ele>
        <time>2012-02-04T10:29:36Z</time>
      </trkpt>
      <trkpt lat="50.45762" lon="1.8387">
        <ele>65.1</ele>
        <time>2012-02-04T10:29:37Z</time>
      </trkpt>
      <trkpt lat="50.45759" lon="1.83863">
        <ele>65.8</ele>
        <time>2012-02-04T10:29:38Z</time>
      </trkpt>
      <trkpt lat="50.45756" lon="1.83857">
        <ele>66</ele>
        <time>2012-02-04T10:29:39Z</time>
      </trkpt>
      <trkpt lat="50.45754" lon="1.8385">
        <ele>66.1</ele>
        <time>2012-02-04T10:29:40Z</time>
      </trkpt>
      <trkpt lat="50.45751" lon="1.83843">
        <ele>66</ele>
        <time>2012-02-04T10:29:41Z</time>
      </trkpt>
      <trkpt lat="50.45748" lon="1.83834">
        <ele>66</ele>
        <time>2012-02-04T10:29:42Z</time>
      </trkpt>
      <trkpt lat="50.45747" lon="1.83826">
        <ele>66</ele>
        <time>2012-02-04T10:29:43Z</time>
      </trkpt>
      <trkpt lat="50.45744" lon="1.83818">
        <ele>66</ele>
        <time>2012-02-04T10:29:44Z</time>
      </trkpt>
      <trkpt lat="50.45741" lon="1.8381">
        <ele>65.6</ele>
        <time>2012-02-04T10:29:45Z</time>
      </trkpt>
      <trkpt lat="50.4574" lon="1.83802">
        <ele>65.7</ele>
        <time>2012-02-04T10:29:46Z</time>
      </trkpt>
      <trkpt lat="50.45736" lon="1.83792">
        <ele>65.7</ele>
        <time>2012-02-04T10:29:47Z</time>
      </trkpt>
      <trkpt lat="50.45734" lon="1.83782">
        <ele>66.7</ele>
        <time>2012-02-04T10:29:48Z</time>
      </trkpt>
      <trkpt lat="50.45731" lon="1.83776">
        <ele>67.1</ele>
        <time>2012-02-04T10:29:49Z</time>
      </trkpt>
      <trkpt lat="50.45729" lon="1.83768">
        <ele>66.8</ele>
        <time>2012-02-04T10:29:50Z</time>
      </trkpt>
      <trkpt lat="50.45727" lon="1.8376">
        <ele>66.8</ele>
        <time>2012-02-04T10:29:51Z</time>
      </trkpt>
      <trkpt lat="50.45726" lon="1.83753">
        <ele>66.9</ele>
        <time>2012-02-04T10:29:52Z</time>
      </trkpt>
      <trkpt lat="50.45722" lon="1.83745">
        <ele>67.1</ele>
        <time>2012-02-04T10:29:53Z</time>
      </trkpt>
      <trkpt lat="50.45718" lon="1.83738">
        <ele>67.5</ele>
        <time>2012-02-04T10:29:54Z</time>
      </trkpt>
      <trkpt lat="50.45715" lon="1.83732">
        <ele>67.5</ele>
        <time>2012-02-04T10:29:55Z</time>
      </trkpt>
      <trkpt lat="50.45711" lon="1.83724">
        <ele>67.4</ele>
        <time>2012-02-04T10:29:56Z</time>
      </trkpt>
      <trkpt lat="50.4571" lon="1.83716">
        <ele>67.3</ele>
        <time>2012-02-04T10:29:57Z</time>
      </trkpt>
      <trkpt lat="50.45709" lon="1.83709">
        <ele>67.4</ele>
        <time>2012-02-04T10:29:58Z</time>
      </trkpt>
      <trkpt lat="50.45707" lon="1.837">
        <ele>67.3</ele>
        <time>2012-02-04T10:29:59Z</time>
      </trkpt>
      <trkpt lat="50.45706" lon="1.83692">
        <ele>67.3</ele>
        <time>2012-02-04T10:30:00Z</time>
      </trkpt>
      <trkpt lat="50.45702" lon="1.83683">
        <ele>67.3</ele>
        <time>2012-02-04T10:30:01Z</time>
      </trkpt>
      <trkpt lat="50.45701" lon="1.83675">
        <ele>67.3</ele>
        <time>2012-02-04T10:30:02Z</time>
      </trkpt>
      <trkpt lat="50.45697" lon="1.83667">
        <ele>67.3</ele>
        <time>2012-02-04T10:30:03Z</time>
      </trkpt>
      <trkpt lat="50.45693" lon="1.83654">
        <ele>67.1</ele>
        <time>2012-02-04T10:30:05Z</time>
      </trkpt>
      <trkpt lat="50.45689" lon="1.83646">
        <ele>67.2</ele>
        <time>2012-02-04T10:30:06Z</time>
      </trkpt>
      <trkpt lat="50.45688" lon="1.83638">
        <ele>67.1</ele>
        <time>2012-02-04T10:30:07Z</time>
      </trkpt>
      <trkpt lat="50.45687" lon="1.8363">
        <ele>67.1</ele>
        <time>2012-02-04T10:30:08Z</time>
      </trkpt>
      <trkpt lat="50.45684" lon="1.83622">
        <ele>67</ele>
        <time>2012-02-04T10:30:09Z</time>
      </trkpt>
      <trkpt lat="50.45683" lon="1.83615">
        <ele>67</ele>
        <time>2012-02-04T10:30:10Z</time>
      </trkpt>
      <trkpt lat="50.45678" lon="1.836">
        <ele>67</ele>
        <time>2012-02-04T10:30:12Z</time>
      </trkpt>
      <trkpt lat="50.45676" lon="1.8359">
        <ele>67</ele>
        <time>2012-02-04T10:30:13Z</time>
      </trkpt>
      <trkpt lat="50.45673" lon="1.83577">
        <ele>65.7</ele>
        <time>2012-02-04T10:30:15Z</time>
      </trkpt>
      <trkpt lat="50.45672" lon="1.83569">
        <ele>65.4</ele>
        <time>2012-02-04T10:30:16Z</time>
      </trkpt>
      <trkpt lat="50.45669" lon="1.8356">
        <ele>65.4</ele>
        <time>2012-02-04T10:30:17Z</time>
      </trkpt>
      <trkpt lat="50.45667" lon="1.83554">
        <ele>65.5</ele>
        <time>2012-02-04T10:30:18Z</time>
      </trkpt>
      <trkpt lat="50.45665" lon="1.83545">
        <ele>65.2</ele>
        <time>2012-02-04T10:30:19Z</time>
      </trkpt>
      <trkpt lat="50.45661" lon="1.83535">
        <ele>65.3</ele>
        <time>2012-02-04T10:30:20Z</time>
      </trkpt>
      <trkpt lat="50.4566" lon="1.8352">
        <ele>65.6</ele>
        <time>2012-02-04T10:30:22Z</time>
      </trkpt>
      <trkpt lat="50.45658" lon="1.8351">
        <ele>65.6</ele>
        <time>2012-02-04T10:30:23Z</time>
      </trkpt>
      <trkpt lat="50.45653" lon="1.83496">
        <ele>65.3</ele>
        <time>2012-02-04T10:30:25Z</time>
      </trkpt>
      <trkpt lat="50.45652" lon="1.83486">
        <ele>65.6</ele>
        <time>2012-02-04T10:30:26Z</time>
      </trkpt>
      <trkpt lat="50.45652" lon="1.83475">
        <ele>65.8</ele>
        <time>2012-02-04T10:30:27Z</time>
      </trkpt>
      <trkpt lat="50.45649" lon="1.83466">
        <ele>62.9</ele>
        <time>2012-02-04T10:30:29Z</time>
      </trkpt>
      <trkpt lat="50.45648" lon="1.83457">
        <ele>62.8</ele>
        <time>2012-02-04T10:30:30Z</time>
      </trkpt>
      <trkpt lat="50.45646" lon="1.83449">
        <ele>62.3</ele>
        <time>2012-02-04T10:30:31Z</time>
      </trkpt>
      <trkpt lat="50.45645" lon="1.83441">
        <ele>61.3</ele>
        <time>2012-02-04T10:30:32Z</time>
      </trkpt>
      <trkpt lat="50.45644" lon="1.83433">
        <ele>60.2</ele>
        <time>2012-02-04T10:30:33Z</time>
      </trkpt>
      <trkpt lat="50.4564" lon="1.83419">
        <ele>59.4</ele>
        <time>2012-02-04T10:30:35Z</time>
      </trkpt>
      <trkpt lat="50.4564" lon="1.8341">
        <ele>58.8</ele>
        <time>2012-02-04T10:30:36Z</time>
      </trkpt>
      <trkpt lat="50.45637" lon="1.83392">
        <ele>59.4</ele>
        <time>2012-02-04T10:30:38Z</time>
      </trkpt>
      <trkpt lat="50.45637" lon="1.83384">
        <ele>60.2</ele>
        <time>2012-02-04T10:30:39Z</time>
      </trkpt>
      <trkpt lat="50.45636" lon="1.83373">
        <ele>60.7</ele>
        <time>2012-02-04T10:30:40Z</time>
      </trkpt>
      <trkpt lat="50.45636" lon="1.83362">
        <ele>61</ele>
        <time>2012-02-04T10:30:41Z</time>
      </trkpt>
      <trkpt lat="50.45634" lon="1.83352">
        <ele>61</ele>
        <time>2012-02-04T10:30:42Z</time>
      </trkpt>
      <trkpt lat="50.45629" lon="1.83338">
        <ele>62.4</ele>
        <time>2012-02-04T10:30:43Z</time>
      </trkpt>
      <trkpt lat="50.45624" lon="1.83325">
        <ele>62.7</ele>
        <time>2012-02-04T10:30:44Z</time>
      </trkpt>
      <trkpt lat="50.45621" lon="1.83316">
        <ele>63</ele>
        <time>2012-02-04T10:30:45Z</time>
      </trkpt>
      <trkpt lat="50.45619" lon="1.83308">
        <ele>62.2</ele>
        <time>2012-02-04T10:30:46Z</time>
      </trkpt>
      <trkpt lat="50.45616" lon="1.833">
        <ele>61.5</ele>
        <time>2012-02-04T10:30:47Z</time>
      </trkpt>
      <trkpt lat="50.45613" lon="1.83289">
        <ele>61.1</ele>
        <time>2012-02-04T10:30:48Z</time>
      </trkpt>
      <trkpt lat="50.4561" lon="1.83281">
        <ele>61.2</ele>
        <time>2012-02-04T10:30:49Z</time>
      </trkpt>
      <trkpt lat="50.45603" lon="1.83267">
        <ele>64</ele>
        <time>2012-02-04T10:30:50Z</time>
      </trkpt>
      <trkpt lat="50.456" lon="1.8326">
        <ele>63</ele>
        <time>2012-02-04T10:30:51Z</time>
      </trkpt>
      <trkpt lat="50.45596" lon="1.83252">
        <ele>62.7</ele>
        <time>2012-02-04T10:30:52Z</time>
      </trkpt>
      <trkpt lat="50.45591" lon="1.83247">
        <ele>61.5</ele>
        <time>2012-02-04T10:30:53Z</time>
      </trkpt>
      <trkpt lat="50.45586" lon="1.83242">
        <ele>60.9</ele>
        <time>2012-02-04T10:30:54Z</time>
      </trkpt>
      <trkpt lat="50.4558" lon="1.83235">
        <ele>60.8</ele>
        <time>2012-02-04T10:30:55Z</time>
      </trkpt>
      <trkpt lat="50.45575" lon="1.83229">
        <ele>61</ele>
        <time>2012-02-04T10:30:56Z</time>
      </trkpt>
      <trkpt lat="50.4557" lon="1.83223">
        <ele>60.9</ele>
        <time>2012-02-04T10:30:57Z</time>
      </trkpt>
      <trkpt lat="50.45564" lon="1.83218">
        <ele>61.3</ele>
        <time>2012-02-04T10:30:58Z</time>
      </trkpt>
      <trkpt lat="50.45558" lon="1.83215">
        <ele>61.1</ele>
        <time>2012-02-04T10:30:59Z</time>
      </trkpt>
      <trkpt lat="50.45551" lon="1.83214">
        <ele>61.5</ele>
        <time>2012-02-04T10:31:00Z</time>
      </trkpt>
      <trkpt lat="50.45545" lon="1.83212">
        <ele>60.8</ele>
        <time>2012-02-04T10:31:01Z</time>
      </trkpt>
      <trkpt lat="50.4554" lon="1.83211">
        <ele>60.7</ele>
        <time>2012-02-04T10:31:02Z</time>
      </trkpt>
      <trkpt lat="50.45532" lon="1.83211">
        <ele>59.5</ele>
        <time>2012-02-04T10:31:03Z</time>
      </trkpt>
      <trkpt lat="50.45526" lon="1.83211">
        <ele>59</ele>
        <time>2012-02-04T10:31:04Z</time>
      </trkpt>
      <trkpt lat="50.45518" lon="1.83211">
        <ele>58.7</ele>
        <time>2012-02-04T10:31:05Z</time>
      </trkpt>
      <trkpt lat="50.45512" lon="1.83211">
        <ele>58.5</ele>
        <time>2012-02-04T10:31:06Z</time>
      </trkpt>
      <trkpt lat="50.45506" lon="1.83212">
        <ele>58.5</ele>
        <time>2012-02-04T10:31:07Z</time>
      </trkpt>
      <trkpt lat="50.455" lon="1.83213">
        <ele>58.8</ele>
        <time>2012-02-04T10:31:08Z</time>
      </trkpt>
      <trkpt lat="50.45493" lon="1.83215">
        <ele>58.8</ele>
        <time>2012-02-04T10:31:09Z</time>
      </trkpt>
      <trkpt lat="50.45486" lon="1.83217">
        <ele>58.2</ele>
        <time>2012-02-04T10:31:10Z</time>
      </trkpt>
      <trkpt lat="50.4548" lon="1.83219">
        <ele>57.9</ele>
        <time>2012-02-04T10:31:11Z</time>
      </trkpt>
      <trkpt lat="50.45473" lon="1.83219">
        <ele>57.6</ele>
        <time>2012-02-04T10:31:12Z</time>
      </trkpt>
      <trkpt lat="50.45468" lon="1.83219">
        <ele>57.2</ele>
        <time>2012-02-04T10:31:13Z</time>
      </trkpt>
      <trkpt lat="50.45462" lon="1.83222">
        <ele>55.7</ele>
        <time>2012-02-04T10:31:14Z</time>
      </trkpt>
      <trkpt lat="50.45457" lon="1.83222">
        <ele>54.5</ele>
        <time>2012-02-04T10:31:15Z</time>
      </trkpt>
      <trkpt lat="50.4545" lon="1.83224">
        <ele>54.3</ele>
        <time>2012-02-04T10:31:16Z</time>
      </trkpt>
      <trkpt lat="50.45445" lon="1.83224">
        <ele>53.9</ele>
        <time>2012-02-04T10:31:17Z</time>
      </trkpt>
      <trkpt lat="50.4544" lon="1.83223">
        <ele>53.6</ele>
        <time>2012-02-04T10:31:18Z</time>
      </trkpt>
      <trkpt lat="50.45433" lon="1.83224">
        <ele>53.6</ele>
        <time>2012-02-04T10:31:19Z</time>
      </trkpt>
      <trkpt lat="50.45427" lon="1.83224">
        <ele>53.8</ele>
        <time>2012-02-04T10:31:20Z</time>
      </trkpt>
      <trkpt lat="50.4542" lon="1.83224">
        <ele>53.2</ele>
        <time>2012-02-04T10:31:21Z</time>
      </trkpt>
      <trkpt lat="50.45415" lon="1.83225">
        <ele>52.9</ele>
        <time>2012-02-04T10:31:22Z</time>
      </trkpt>
      <trkpt lat="50.45409" lon="1.83226">
        <ele>52.5</ele>
        <time>2012-02-04T10:31:23Z</time>
      </trkpt>
      <trkpt lat="50.45403" lon="1.83226">
        <ele>52.4</ele>
        <time>2012-02-04T10:31:24Z</time>
      </trkpt>
      <trkpt lat="50.45398" lon="1.83226">
        <ele>52.1</ele>
        <time>2012-02-04T10:31:25Z</time>
      </trkpt>
      <trkpt lat="50.45392" lon="1.83227">
        <ele>52</ele>
        <time>2012-02-04T10:31:26Z</time>
      </trkpt>
      <trkpt lat="50.45386" lon="1.83226">
        <ele>51.8</ele>
        <time>2012-02-04T10:31:27Z</time>
      </trkpt>
      <trkpt lat="50.4538" lon="1.83226">
        <ele>51.5</ele>
        <time>2012-02-04T10:31:28Z</time>
      </trkpt>
      <trkpt lat="50.45376" lon="1.83223">
        <ele>51.3</ele>
        <time>2012-02-04T10:31:29Z</time>
      </trkpt>
      <trkpt lat="50.45369" lon="1.83231">
        <ele>50.8</ele>
        <time>2012-02-04T10:31:30Z</time>
      </trkpt>
      <trkpt lat="50.45363" lon="1.83233">
        <ele>50.5</ele>
        <time>2012-02-04T10:31:31Z</time>
      </trkpt>
      <trkpt lat="50.45357" lon="1.83231">
        <ele>50.4</ele>
        <time>2012-02-04T10:31:32Z</time>
      </trkpt>
      <trkpt lat="50.45351" lon="1.83232">
        <ele>50.5</ele>
        <time>2012-02-04T10:31:33Z</time>
      </trkpt>
      <trkpt lat="50.45344" lon="1.83236">
        <ele>50.8</ele>
        <time>2012-02-04T10:31:34Z</time>
      </trkpt>
      <trkpt lat="50.45336" lon="1.8324">
        <ele>51.2</ele>
        <time>2012-02-04T10:31:35Z</time>
      </trkpt>
      <trkpt lat="50.4533" lon="1.83243">
        <ele>51.5</ele>
        <time>2012-02-04T10:31:36Z</time>
      </trkpt>
      <trkpt lat="50.45323" lon="1.83247">
        <ele>51.6</ele>
        <time>2012-02-04T10:31:37Z</time>
      </trkpt>
      <trkpt lat="50.45317" lon="1.83248">
        <ele>52.3</ele>
        <time>2012-02-04T10:31:38Z</time>
      </trkpt>
      <trkpt lat="50.4531" lon="1.8325">
        <ele>52.2</ele>
        <time>2012-02-04T10:31:39Z</time>
      </trkpt>
      <trkpt lat="50.45303" lon="1.83252">
        <ele>52.5</ele>
        <time>2012-02-04T10:31:40Z</time>
      </trkpt>
      <trkpt lat="50.45296" lon="1.83256">
        <ele>52.4</ele>
        <time>2012-02-04T10:31:41Z</time>
      </trkpt>
      <trkpt lat="50.45291" lon="1.83257">
        <ele>52.5</ele>
        <time>2012-02-04T10:31:42Z</time>
      </trkpt>
      <trkpt lat="50.45285" lon="1.83255">
        <ele>52.4</ele>
        <time>2012-02-04T10:31:43Z</time>
      </trkpt>
      <trkpt lat="50.45286" lon="1.83232">
        <ele>52.7</ele>
        <time>2012-02-04T10:31:44Z</time>
      </trkpt>
      <trkpt lat="50.45281" lon="1.8323">
        <ele>51.8</ele>
        <time>2012-02-04T10:31:45Z</time>
      </trkpt>
      <trkpt lat="50.45272" lon="1.83229">
        <ele>49</ele>
        <time>2012-02-04T10:31:47Z</time>
      </trkpt>
      <trkpt lat="50.45266" lon="1.83229">
        <ele>49.1</ele>
        <time>2012-02-04T10:31:48Z</time>
      </trkpt>
      <trkpt lat="50.45261" lon="1.83229">
        <ele>49.2</ele>
        <time>2012-02-04T10:31:49Z</time>
      </trkpt>
      <trkpt lat="50.45256" lon="1.83229">
        <ele>49.1</ele>
        <time>2012-02-04T10:31:50Z</time>
      </trkpt>
      <trkpt lat="50.4525" lon="1.83229">
        <ele>49.2</ele>
        <time>2012-02-04T10:31:51Z</time>
      </trkpt>
      <trkpt lat="50.45244" lon="1.8323">
        <ele>49.4</ele>
        <time>2012-02-04T10:31:52Z</time>
      </trkpt>
      <trkpt lat="50.45239" lon="1.83231">
        <ele>49.2</ele>
        <time>2012-02-04T10:31:53Z</time>
      </trkpt>
      <trkpt lat="50.45233" lon="1.83231">
        <ele>49.4</ele>
        <time>2012-02-04T10:31:54Z</time>
      </trkpt>
      <trkpt lat="50.45228" lon="1.83229">
        <ele>49.4</ele>
        <time>2012-02-04T10:31:55Z</time>
      </trkpt>
      <trkpt lat="50.45223" lon="1.83228">
        <ele>49.8</ele>
        <time>2012-02-04T10:31:56Z</time>
      </trkpt>
      <trkpt lat="50.45217" lon="1.83228">
        <ele>50</ele>
        <time>2012-02-04T10:31:57Z</time>
      </trkpt>
      <trkpt lat="50.45212" lon="1.83228">
        <ele>50</ele>
        <time>2012-02-04T10:31:58Z</time>
      </trkpt>
      <trkpt lat="50.45207" lon="1.83228">
        <ele>49.8</ele>
        <time>2012-02-04T10:31:59Z</time>
      </trkpt>
      <trkpt lat="50.45202" lon="1.83229">
        <ele>49.6</ele>
        <time>2012-02-04T10:32:00Z</time>
      </trkpt>
      <trkpt lat="50.45197" lon="1.83228">
        <ele>50</ele>
        <time>2012-02-04T10:32:01Z</time>
      </trkpt>
      <trkpt lat="50.45191" lon="1.83228">
        <ele>50.2</ele>
        <time>2012-02-04T10:32:02Z</time>
      </trkpt>
      <trkpt lat="50.45185" lon="1.83228">
        <ele>50.5</ele>
        <time>2012-02-04T10:32:03Z</time>
      </trkpt>
      <trkpt lat="50.4518" lon="1.83227">
        <ele>50.7</ele>
        <time>2012-02-04T10:32:04Z</time>
      </trkpt>
      <trkpt lat="50.45174" lon="1.83226">
        <ele>51.5</ele>
        <time>2012-02-04T10:32:05Z</time>
      </trkpt>
      <trkpt lat="50.45169" lon="1.83227">
        <ele>51.7</ele>
        <time>2012-02-04T10:32:06Z</time>
      </trkpt>
      <trkpt lat="50.45164" lon="1.83228">
        <ele>51.3</ele>
        <time>2012-02-04T10:32:07Z</time>
      </trkpt>
      <trkpt lat="50.45158" lon="1.83229">
        <ele>51.3</ele>
        <time>2012-02-04T10:32:08Z</time>
      </trkpt>
      <trkpt lat="50.45153" lon="1.83229">
        <ele>51.8</ele>
        <time>2012-02-04T10:32:09Z</time>
      </trkpt>
      <trkpt lat="50.45147" lon="1.83229">
        <ele>51.9</ele>
        <time>2012-02-04T10:32:10Z</time>
      </trkpt>
      <trkpt lat="50.45143" lon="1.83225">
        <ele>52.1</ele>
        <time>2012-02-04T10:32:11Z</time>
      </trkpt>
      <trkpt lat="50.45139" lon="1.83222">
        <ele>52</ele>
        <time>2012-02-04T10:32:12Z</time>
      </trkpt>
      <trkpt lat="50.45134" lon="1.83221">
        <ele>52.1</ele>
        <time>2012-02-04T10:32:13Z</time>
      </trkpt>
      <trkpt lat="50.45132" lon="1.83212">
        <ele>52.7</ele>
        <time>2012-02-04T10:32:14Z</time>
      </trkpt>
      <trkpt lat="50.45126" lon="1.83213">
        <ele>53.1</ele>
        <time>2012-02-04T10:32:15Z</time>
      </trkpt>
      <trkpt lat="50.45122" lon="1.83213">
        <ele>53</ele>
        <time>2012-02-04T10:32:16Z</time>
      </trkpt>
      <trkpt lat="50.45117" lon="1.83212">
        <ele>52.8</ele>
        <time>2012-02-04T10:32:17Z</time>
      </trkpt>
      <trkpt lat="50.45112" lon="1.83211">
        <ele>52.4</ele>
        <time>2012-02-04T10:32:18Z</time>
      </trkpt>
      <trkpt lat="50.45107" lon="1.83211">
        <ele>51.9</ele>
        <time>2012-02-04T10:32:19Z</time>
      </trkpt>
      <trkpt lat="50.45102" lon="1.83209">
        <ele>51.6</ele>
        <time>2012-02-04T10:32:20Z</time>
      </trkpt>
      <trkpt lat="50.45094" lon="1.83207">
        <ele>50.7</ele>
        <time>2012-02-04T10:32:22Z</time>
      </trkpt>
      <trkpt lat="50.45089" lon="1.83207">
        <ele>50.6</ele>
        <time>2012-02-04T10:32:23Z</time>
      </trkpt>
      <trkpt lat="50.4508" lon="1.83204">
        <ele>49.9</ele>
        <time>2012-02-04T10:32:25Z</time>
      </trkpt>
      <trkpt lat="50.45072" lon="1.83198">
        <ele>49.5</ele>
        <time>2012-02-04T10:32:27Z</time>
      </trkpt>
      <trkpt lat="50.45063" lon="1.83196">
        <ele>48.6</ele>
        <time>2012-02-04T10:32:29Z</time>
      </trkpt>
      <trkpt lat="50.45054" lon="1.83191">
        <ele>47.8</ele>
        <time>2012-02-04T10:32:31Z</time>
      </trkpt>
      <trkpt lat="50.4505" lon="1.83189">
        <ele>47.7</ele>
        <time>2012-02-04T10:32:32Z</time>
      </trkpt>
      <trkpt lat="50.45045" lon="1.83187">
        <ele>47.6</ele>
        <time>2012-02-04T10:32:33Z</time>
      </trkpt>
      <trkpt lat="50.45041" lon="1.83184">
        <ele>47.7</ele>
        <time>2012-02-04T10:32:34Z</time>
      </trkpt>
      <trkpt lat="50.45036" lon="1.83182">
        <ele>47.5</ele>
        <time>2012-02-04T10:32:35Z</time>
      </trkpt>
      <trkpt lat="50.45027" lon="1.83178">
        <ele>47.3</ele>
        <time>2012-02-04T10:32:37Z</time>
      </trkpt>
      <trkpt lat="50.45021" lon="1.83177">
        <ele>47.5</ele>
        <time>2012-02-04T10:32:38Z</time>
      </trkpt>
      <trkpt lat="50.45017" lon="1.83176">
        <ele>47.4</ele>
        <time>2012-02-04T10:32:39Z</time>
      </trkpt>
      <trkpt lat="50.45012" lon="1.83175">
        <ele>47.5</ele>
        <time>2012-02-04T10:32:40Z</time>
      </trkpt>
      <trkpt lat="50.45007" lon="1.83173">
        <ele>47.8</ele>
        <time>2012-02-04T10:32:41Z</time>
      </trkpt>
      <trkpt lat="50.45003" lon="1.83172">
        <ele>48.4</ele>
        <time>2012-02-04T10:32:42Z</time>
      </trkpt>
      <trkpt lat="50.44998" lon="1.83169">
        <ele>48</ele>
        <time>2012-02-04T10:32:43Z</time>
      </trkpt>
      <trkpt lat="50.44993" lon="1.83166">
        <ele>48.5</ele>
        <time>2012-02-04T10:32:44Z</time>
      </trkpt>
      <trkpt lat="50.44988" lon="1.83164">
        <ele>48.7</ele>
        <time>2012-02-04T10:32:45Z</time>
      </trkpt>
      <trkpt lat="50.44984" lon="1.83162">
        <ele>49</ele>
        <time>2012-02-04T10:32:46Z</time>
      </trkpt>
      <trkpt lat="50.44975" lon="1.83155">
        <ele>48.1</ele>
        <time>2012-02-04T10:32:48Z</time>
      </trkpt>
      <trkpt lat="50.4497" lon="1.83151">
        <ele>48.1</ele>
        <time>2012-02-04T10:32:49Z</time>
      </trkpt>
      <trkpt lat="50.44966" lon="1.83147">
        <ele>48.1</ele>
        <time>2012-02-04T10:32:50Z</time>
      </trkpt>
      <trkpt lat="50.44962" lon="1.83142">
        <ele>48.4</ele>
        <time>2012-02-04T10:32:51Z</time>
      </trkpt>
      <trkpt lat="50.44955" lon="1.83134">
        <ele>48.1</ele>
        <time>2012-02-04T10:32:53Z</time>
      </trkpt>
      <trkpt lat="50.44949" lon="1.83124">
        <ele>48</ele>
        <time>2012-02-04T10:32:55Z</time>
      </trkpt>
      <trkpt lat="50.44944" lon="1.83118">
        <ele>47.6</ele>
        <time>2012-02-04T10:32:56Z</time>
      </trkpt>
      <trkpt lat="50.44941" lon="1.83113">
        <ele>47.7</ele>
        <time>2012-02-04T10:32:57Z</time>
      </trkpt>
      <trkpt lat="50.44935" lon="1.83104">
        <ele>48.1</ele>
        <time>2012-02-04T10:32:59Z</time>
      </trkpt>
      <trkpt lat="50.44932" lon="1.83099">
        <ele>48.7</ele>
        <time>2012-02-04T10:33:00Z</time>
      </trkpt>
      <trkpt lat="50.44924" lon="1.83091">
        <ele>49.1</ele>
        <time>2012-02-04T10:33:02Z</time>
      </trkpt>
      <trkpt lat="50.4492" lon="1.83088">
        <ele>49.2</ele>
        <time>2012-02-04T10:33:03Z</time>
      </trkpt>
      <trkpt lat="50.44915" lon="1.83084">
        <ele>48.7</ele>
        <time>2012-02-04T10:33:04Z</time>
      </trkpt>
      <trkpt lat="50.44906" lon="1.8308">
        <ele>48.1</ele>
        <time>2012-02-04T10:33:06Z</time>
      </trkpt>
      <trkpt lat="50.44901" lon="1.83077">
        <ele>48.6</ele>
        <time>2012-02-04T10:33:07Z</time>
      </trkpt>
      <trkpt lat="50.44896" lon="1.83074">
        <ele>48.7</ele>
        <time>2012-02-04T10:33:08Z</time>
      </trkpt>
      <trkpt lat="50.44887" lon="1.83071">
        <ele>48.8</ele>
        <time>2012-02-04T10:33:10Z</time>
      </trkpt>
      <trkpt lat="50.44882" lon="1.83068">
        <ele>48.6</ele>
        <time>2012-02-04T10:33:11Z</time>
      </trkpt>
      <trkpt lat="50.44877" lon="1.83069">
        <ele>48.8</ele>
        <time>2012-02-04T10:33:12Z</time>
      </trkpt>
      <trkpt lat="50.44872" lon="1.83069">
        <ele>48.9</ele>
        <time>2012-02-04T10:33:13Z</time>
      </trkpt>
      <trkpt lat="50.44868" lon="1.83067">
        <ele>49.2</ele>
        <time>2012-02-04T10:33:14Z</time>
      </trkpt>
      <trkpt lat="50.44862" lon="1.83066">
        <ele>49.1</ele>
        <time>2012-02-04T10:33:15Z</time>
      </trkpt>
      <trkpt lat="50.44858" lon="1.83066">
        <ele>48.6</ele>
        <time>2012-02-04T10:33:16Z</time>
      </trkpt>
      <trkpt lat="50.44853" lon="1.83065">
        <ele>48.7</ele>
        <time>2012-02-04T10:33:17Z</time>
      </trkpt>
      <trkpt lat="50.44848" lon="1.83065">
        <ele>48.8</ele>
        <time>2012-02-04T10:33:18Z</time>
      </trkpt>
      <trkpt lat="50.44843" lon="1.83064">
        <ele>49.1</ele>
        <time>2012-02-04T10:33:19Z</time>
      </trkpt>
      <trkpt lat="50.44839" lon="1.83064">
        <ele>49.4</ele>
        <time>2012-02-04T10:33:20Z</time>
      </trkpt>
      <trkpt lat="50.4483" lon="1.83065">
        <ele>48.6</ele>
        <time>2012-02-04T10:33:22Z</time>
      </trkpt>
      <trkpt lat="50.44821" lon="1.83069">
        <ele>48</ele>
        <time>2012-02-04T10:33:24Z</time>
      </trkpt>
      <trkpt lat="50.44813" lon="1.83073">
        <ele>48.4</ele>
        <time>2012-02-04T10:33:26Z</time>
      </trkpt>
      <trkpt lat="50.44807" lon="1.83078">
        <ele>48.1</ele>
        <time>2012-02-04T10:33:28Z</time>
      </trkpt>
      <trkpt lat="50.44799" lon="1.83085">
        <ele>48.3</ele>
        <time>2012-02-04T10:33:30Z</time>
      </trkpt>
      <trkpt lat="50.44792" lon="1.83091">
        <ele>48</ele>
        <time>2012-02-04T10:33:32Z</time>
      </trkpt>
      <trkpt lat="50.44785" lon="1.83094">
        <ele>48.1</ele>
        <time>2012-02-04T10:33:34Z</time>
      </trkpt>
      <trkpt lat="50.44781" lon="1.83101">
        <ele>48.7</ele>
        <time>2012-02-04T10:33:35Z</time>
      </trkpt>
      <trkpt lat="50.44775" lon="1.83109">
        <ele>49.4</ele>
        <time>2012-02-04T10:33:37Z</time>
      </trkpt>
      <trkpt lat="50.44771" lon="1.83114">
        <ele>50</ele>
        <time>2012-02-04T10:33:39Z</time>
      </trkpt>
      <trkpt lat="50.44766" lon="1.83121">
        <ele>50.1</ele>
        <time>2012-02-04T10:33:42Z</time>
      </trkpt>
      <trkpt lat="50.44762" lon="1.83119">
        <ele>50.4</ele>
        <time>2012-02-04T10:33:45Z</time>
      </trkpt>
      <trkpt lat="50.44763" lon="1.8311">
        <ele>50</ele>
        <time>2012-02-04T10:33:47Z</time>
      </trkpt>
      <trkpt lat="50.44765" lon="1.831">
        <ele>50.1</ele>
        <time>2012-02-04T10:33:49Z</time>
      </trkpt>
      <trkpt lat="50.44765" lon="1.83092">
        <ele>50.6</ele>
        <time>2012-02-04T10:33:50Z</time>
      </trkpt>
      <trkpt lat="50.44764" lon="1.83075">
        <ele>51</ele>
        <time>2012-02-04T10:33:52Z</time>
      </trkpt>
      <trkpt lat="50.44764" lon="1.83062">
        <ele>51</ele>
        <time>2012-02-04T10:33:54Z</time>
      </trkpt>
      <trkpt lat="50.44764" lon="1.83049">
        <ele>51.1</ele>
        <time>2012-02-04T10:33:56Z</time>
      </trkpt>
      <trkpt lat="50.44766" lon="1.83038">
        <ele>50.5</ele>
        <time>2012-02-04T10:33:58Z</time>
      </trkpt>
      <trkpt lat="50.44767" lon="1.83026">
        <ele>49.1</ele>
        <time>2012-02-04T10:34:00Z</time>
      </trkpt>
      <trkpt lat="50.44768" lon="1.83016">
        <ele>49.7</ele>
        <time>2012-02-04T10:34:02Z</time>
      </trkpt>
      <trkpt lat="50.4477" lon="1.83005">
        <ele>48.6</ele>
        <time>2012-02-04T10:34:04Z</time>
      </trkpt>
      <trkpt lat="50.44768" lon="1.82992">
        <ele>48.7</ele>
        <time>2012-02-04T10:34:06Z</time>
      </trkpt>
      <trkpt lat="50.44768" lon="1.8298">
        <ele>48.2</ele>
        <time>2012-02-04T10:34:08Z</time>
      </trkpt>
      <trkpt lat="50.4477" lon="1.82968">
        <ele>48</ele>
        <time>2012-02-04T10:34:10Z</time>
      </trkpt>
      <trkpt lat="50.44773" lon="1.82956">
        <ele>47.9</ele>
        <time>2012-02-04T10:34:12Z</time>
      </trkpt>
      <trkpt lat="50.44774" lon="1.82946">
        <ele>48.3</ele>
        <time>2012-02-04T10:34:14Z</time>
      </trkpt>
      <trkpt lat="50.44776" lon="1.82933">
        <ele>48</ele>
        <time>2012-02-04T10:34:16Z</time>
      </trkpt>
      <trkpt lat="50.44776" lon="1.82922">
        <ele>47.4</ele>
        <time>2012-02-04T10:34:18Z</time>
      </trkpt>
      <trkpt lat="50.44776" lon="1.82911">
        <ele>47.4</ele>
        <time>2012-02-04T10:34:20Z</time>
      </trkpt>
      <trkpt lat="50.44778" lon="1.82894">
        <ele>47.1</ele>
        <time>2012-02-04T10:34:23Z</time>
      </trkpt>
      <trkpt lat="50.44777" lon="1.82887">
        <ele>47.1</ele>
        <time>2012-02-04T10:34:24Z</time>
      </trkpt>
      <trkpt lat="50.44777" lon="1.82875">
        <ele>46.4</ele>
        <time>2012-02-04T10:34:26Z</time>
      </trkpt>
      <trkpt lat="50.44775" lon="1.82863">
        <ele>47.5</ele>
        <time>2012-02-04T10:34:28Z</time>
      </trkpt>
      <trkpt lat="50.44772" lon="1.82854">
        <ele>47.1</ele>
        <time>2012-02-04T10:34:30Z</time>
      </trkpt>
      <trkpt lat="50.44769" lon="1.82842">
        <ele>47.7</ele>
        <time>2012-02-04T10:34:32Z</time>
      </trkpt>
      <trkpt lat="50.44764" lon="1.82836">
        <ele>46.8</ele>
        <time>2012-02-04T10:34:33Z</time>
      </trkpt>
      <trkpt lat="50.4476" lon="1.82824">
        <ele>47.4</ele>
        <time>2012-02-04T10:34:35Z</time>
      </trkpt>
      <trkpt lat="50.44755" lon="1.82813">
        <ele>49.4</ele>
        <time>2012-02-04T10:34:37Z</time>
      </trkpt>
      <trkpt lat="50.44753" lon="1.82803">
        <ele>49.2</ele>
        <time>2012-02-04T10:34:39Z</time>
      </trkpt>
      <trkpt lat="50.4475" lon="1.82794">
        <ele>49.3</ele>
        <time>2012-02-04T10:34:41Z</time>
      </trkpt>
      <trkpt lat="50.44749" lon="1.82785">
        <ele>48.8</ele>
        <time>2012-02-04T10:34:43Z</time>
      </trkpt>
      <trkpt lat="50.44747" lon="1.82774">
        <ele>49.1</ele>
        <time>2012-02-04T10:34:45Z</time>
      </trkpt>
      <trkpt lat="50.44746" lon="1.82762">
        <ele>46.7</ele>
        <time>2012-02-04T10:34:47Z</time>
      </trkpt>
      <trkpt lat="50.44745" lon="1.82752">
        <ele>45.7</ele>
        <time>2012-02-04T10:34:49Z</time>
      </trkpt>
      <trkpt lat="50.44745" lon="1.82738">
        <ele>45.8</ele>
        <time>2012-02-04T10:34:51Z</time>
      </trkpt>
      <trkpt lat="50.44745" lon="1.82727">
        <ele>45.5</ele>
        <time>2012-02-04T10:34:53Z</time>
      </trkpt>
      <trkpt lat="50.44747" lon="1.82716">
        <ele>44.8</ele>
        <time>2012-02-04T10:34:55Z</time>
      </trkpt>
      <trkpt lat="50.44747" lon="1.82707">
        <ele>44.6</ele>
        <time>2012-02-04T10:34:56Z</time>
      </trkpt>
      <trkpt lat="50.44744" lon="1.82697">
        <ele>42.7</ele>
        <time>2012-02-04T10:34:58Z</time>
      </trkpt>
      <trkpt lat="50.44743" lon="1.82684">
        <ele>42.7</ele>
        <time>2012-02-04T10:35:00Z</time>
      </trkpt>
      <trkpt lat="50.44746" lon="1.82673">
        <ele>42.9</ele>
        <time>2012-02-04T10:35:02Z</time>
      </trkpt>
      <trkpt lat="50.44746" lon="1.8266">
        <ele>44.5</ele>
        <time>2012-02-04T10:35:04Z</time>
      </trkpt>
      <trkpt lat="50.44747" lon="1.82648">
        <ele>45.8</ele>
        <time>2012-02-04T10:35:06Z</time>
      </trkpt>
      <trkpt lat="50.44747" lon="1.82636">
        <ele>45.2</ele>
        <time>2012-02-04T10:35:08Z</time>
      </trkpt>
      <trkpt lat="50.44747" lon="1.82621">
        <ele>45.5</ele>
        <time>2012-02-04T10:35:10Z</time>
      </trkpt>
      <trkpt lat="50.44749" lon="1.82609">
        <ele>45.8</ele>
        <time>2012-02-04T10:35:12Z</time>
      </trkpt>
      <trkpt lat="50.44749" lon="1.82602">
        <ele>46.4</ele>
        <time>2012-02-04T10:35:13Z</time>
      </trkpt>
      <trkpt lat="50.44748" lon="1.82589">
        <ele>47.4</ele>
        <time>2012-02-04T10:35:15Z</time>
      </trkpt>
      <trkpt lat="50.44748" lon="1.82575">
        <ele>48</ele>
        <time>2012-02-04T10:35:17Z</time>
      </trkpt>
      <trkpt lat="50.4475" lon="1.82564">
        <ele>48</ele>
        <time>2012-02-04T10:35:19Z</time>
      </trkpt>
      <trkpt lat="50.44751" lon="1.82552">
        <ele>47.6</ele>
        <time>2012-02-04T10:35:21Z</time>
      </trkpt>
      <trkpt lat="50.44752" lon="1.82541">
        <ele>47.2</ele>
        <time>2012-02-04T10:35:23Z</time>
      </trkpt>
      <trkpt lat="50.44754" lon="1.82529">
        <ele>46.8</ele>
        <time>2012-02-04T10:35:25Z</time>
      </trkpt>
      <trkpt lat="50.44754" lon="1.82517">
        <ele>46.9</ele>
        <time>2012-02-04T10:35:27Z</time>
      </trkpt>
      <trkpt lat="50.44756" lon="1.82505">
        <ele>47.1</ele>
        <time>2012-02-04T10:35:29Z</time>
      </trkpt>
      <trkpt lat="50.44756" lon="1.82492">
        <ele>48.1</ele>
        <time>2012-02-04T10:35:31Z</time>
      </trkpt>
      <trkpt lat="50.44755" lon="1.82484">
        <ele>48.7</ele>
        <time>2012-02-04T10:35:32Z</time>
      </trkpt>
      <trkpt lat="50.44753" lon="1.82475">
        <ele>48.7</ele>
        <time>2012-02-04T10:35:33Z</time>
      </trkpt>
      <trkpt lat="50.44756" lon="1.82463">
        <ele>49.7</ele>
        <time>2012-02-04T10:35:35Z</time>
      </trkpt>
      <trkpt lat="50.44754" lon="1.82446">
        <ele>52</ele>
        <time>2012-02-04T10:35:37Z</time>
      </trkpt>
      <trkpt lat="50.44756" lon="1.82435">
        <ele>53.7</ele>
        <time>2012-02-04T10:35:39Z</time>
      </trkpt>
      <trkpt lat="50.44758" lon="1.82423">
        <ele>55</ele>
        <time>2012-02-04T10:35:41Z</time>
      </trkpt>
      <trkpt lat="50.4476" lon="1.8241">
        <ele>55.7</ele>
        <time>2012-02-04T10:35:43Z</time>
      </trkpt>
      <trkpt lat="50.44762" lon="1.82399">
        <ele>55</ele>
        <time>2012-02-04T10:35:45Z</time>
      </trkpt>
      <trkpt lat="50.44764" lon="1.82388">
        <ele>53.6</ele>
        <time>2012-02-04T10:35:47Z</time>
      </trkpt>
      <trkpt lat="50.44766" lon="1.82376">
        <ele>53.3</ele>
        <time>2012-02-04T10:35:49Z</time>
      </trkpt>
      <trkpt lat="50.44768" lon="1.82365">
        <ele>53.5</ele>
        <time>2012-02-04T10:35:51Z</time>
      </trkpt>
      <trkpt lat="50.44771" lon="1.82355">
        <ele>51.8</ele>
        <time>2012-02-04T10:35:53Z</time>
      </trkpt>
      <trkpt lat="50.44776" lon="1.82344">
        <ele>50.8</ele>
        <time>2012-02-04T10:35:55Z</time>
      </trkpt>
      <trkpt lat="50.44779" lon="1.82335">
        <ele>48.9</ele>
        <time>2012-02-04T10:35:57Z</time>
      </trkpt>
      <trkpt lat="50.44783" lon="1.82328">
        <ele>48.5</ele>
        <time>2012-02-04T10:35:59Z</time>
      </trkpt>
      <trkpt lat="50.44785" lon="1.82319">
        <ele>49.1</ele>
        <time>2012-02-04T10:36:01Z</time>
      </trkpt>
      <trkpt lat="50.44789" lon="1.8231">
        <ele>49.1</ele>
        <time>2012-02-04T10:36:03Z</time>
      </trkpt>
      <trkpt lat="50.44791" lon="1.82295">
        <ele>50</ele>
        <time>2012-02-04T10:36:05Z</time>
      </trkpt>
      <trkpt lat="50.44793" lon="1.82283">
        <ele>50.7</ele>
        <time>2012-02-04T10:36:07Z</time>
      </trkpt>
      <trkpt lat="50.44796" lon="1.82272">
        <ele>50.3</ele>
        <time>2012-02-04T10:36:09Z</time>
      </trkpt>
      <trkpt lat="50.44798" lon="1.82259">
        <ele>50.6</ele>
        <time>2012-02-04T10:36:11Z</time>
      </trkpt>
      <trkpt lat="50.44801" lon="1.82249">
        <ele>50.4</ele>
        <time>2012-02-04T10:36:13Z</time>
      </trkpt>
      <trkpt lat="50.44803" lon="1.82238">
        <ele>50.4</ele>
        <time>2012-02-04T10:36:15Z</time>
      </trkpt>
      <trkpt lat="50.44805" lon="1.82228">
        <ele>50.3</ele>
        <time>2012-02-04T10:36:17Z</time>
      </trkpt>
      <trkpt lat="50.44809" lon="1.82217">
        <ele>49.7</ele>
        <time>2012-02-04T10:36:19Z</time>
      </trkpt>
      <trkpt lat="50.44812" lon="1.82205">
        <ele>48.4</ele>
        <time>2012-02-04T10:36:21Z</time>
      </trkpt>
      <trkpt lat="50.44816" lon="1.82194">
        <ele>47.9</ele>
        <time>2012-02-04T10:36:23Z</time>
      </trkpt>
      <trkpt lat="50.4482" lon="1.82183">
        <ele>47.7</ele>
        <time>2012-02-04T10:36:25Z</time>
      </trkpt>
      <trkpt lat="50.44822" lon="1.82172">
        <ele>47.9</ele>
        <time>2012-02-04T10:36:27Z</time>
      </trkpt>
      <trkpt lat="50.44825" lon="1.82159">
        <ele>48</ele>
        <time>2012-02-04T10:36:29Z</time>
      </trkpt>
      <trkpt lat="50.44828" lon="1.82146">
        <ele>47.8</ele>
        <time>2012-02-04T10:36:31Z</time>
      </trkpt>
      <trkpt lat="50.44833" lon="1.82138">
        <ele>48.6</ele>
        <time>2012-02-04T10:36:33Z</time>
      </trkpt>
      <trkpt lat="50.44836" lon="1.82132">
        <ele>49.4</ele>
        <time>2012-02-04T10:36:38Z</time>
      </trkpt>
      <trkpt lat="50.44834" lon="1.82124">
        <ele>48.7</ele>
        <time>2012-02-04T10:36:45Z</time>
      </trkpt>
      <trkpt lat="50.44829" lon="1.8212">
        <ele>49.4</ele>
        <time>2012-02-04T10:36:48Z</time>
      </trkpt>
      <trkpt lat="50.44822" lon="1.82119">
        <ele>51.3</ele>
        <time>2012-02-04T10:36:52Z</time>
      </trkpt>
      <trkpt lat="50.44816" lon="1.82121">
        <ele>51</ele>
        <time>2012-02-04T10:36:54Z</time>
      </trkpt>
      <trkpt lat="50.44812" lon="1.82124">
        <ele>50.6</ele>
        <time>2012-02-04T10:36:57Z</time>
      </trkpt>
      <trkpt lat="50.44817" lon="1.82124">
        <ele>40.1</ele>
        <time>2012-02-04T10:36:59Z</time>
      </trkpt>
      <trkpt lat="50.44812" lon="1.82121">
        <ele>37.7</ele>
        <time>2012-02-04T10:37:02Z</time>
      </trkpt>
      <trkpt lat="50.44805" lon="1.82125">
        <ele>40</ele>
        <time>2012-02-04T10:37:04Z</time>
      </trkpt>
      <trkpt lat="50.44799" lon="1.82128">
        <ele>42.3</ele>
        <time>2012-02-04T10:37:06Z</time>
      </trkpt>
      <trkpt lat="50.44794" lon="1.82131">
        <ele>48</ele>
        <time>2012-02-04T10:37:15Z</time>
      </trkpt>
      <trkpt lat="50.4479" lon="1.82135">
        <ele>49.1</ele>
        <time>2012-02-04T10:37:21Z</time>
      </trkpt>
      <trkpt lat="50.44785" lon="1.82139">
        <ele>49.1</ele>
        <time>2012-02-04T10:37:24Z</time>
      </trkpt>
      <trkpt lat="50.44782" lon="1.82146">
        <ele>48.7</ele>
        <time>2012-02-04T10:37:27Z</time>
      </trkpt>
      <trkpt lat="50.4478" lon="1.82154">
        <ele>48.3</ele>
        <time>2012-02-04T10:37:30Z</time>
      </trkpt>
      <trkpt lat="50.44777" lon="1.8216">
        <ele>48</ele>
        <time>2012-02-04T10:37:32Z</time>
      </trkpt>
      <trkpt lat="50.44774" lon="1.82167">
        <ele>47.8</ele>
        <time>2012-02-04T10:37:34Z</time>
      </trkpt>
      <trkpt lat="50.44771" lon="1.82176">
        <ele>48.3</ele>
        <time>2012-02-04T10:37:36Z</time>
      </trkpt>
      <trkpt lat="50.44768" lon="1.82186">
        <ele>49.4</ele>
        <time>2012-02-04T10:37:38Z</time>
      </trkpt>
      <trkpt lat="50.44765" lon="1.82197">
        <ele>50.3</ele>
        <time>2012-02-04T10:37:40Z</time>
      </trkpt>
      <trkpt lat="50.44762" lon="1.82207">
        <ele>50.1</ele>
        <time>2012-02-04T10:37:42Z</time>
      </trkpt>
      <trkpt lat="50.44759" lon="1.82219">
        <ele>50.6</ele>
        <time>2012-02-04T10:37:44Z</time>
      </trkpt>
      <trkpt lat="50.44754" lon="1.82228">
        <ele>50.4</ele>
        <time>2012-02-04T10:37:46Z</time>
      </trkpt>
      <trkpt lat="50.4475" lon="1.82236">
        <ele>50.9</ele>
        <time>2012-02-04T10:37:48Z</time>
      </trkpt>
      <trkpt lat="50.44746" lon="1.82246">
        <ele>51.4</ele>
        <time>2012-02-04T10:37:50Z</time>
      </trkpt>
      <trkpt lat="50.44742" lon="1.82254">
        <ele>51.7</ele>
        <time>2012-02-04T10:37:52Z</time>
      </trkpt>
      <trkpt lat="50.44739" lon="1.82263">
        <ele>52.5</ele>
        <time>2012-02-04T10:37:54Z</time>
      </trkpt>
      <trkpt lat="50.44735" lon="1.82274">
        <ele>52.6</ele>
        <time>2012-02-04T10:37:56Z</time>
      </trkpt>
      <trkpt lat="50.44732" lon="1.82284">
        <ele>53.8</ele>
        <time>2012-02-04T10:37:58Z</time>
      </trkpt>
      <trkpt lat="50.44728" lon="1.82294">
        <ele>53.7</ele>
        <time>2012-02-04T10:38:00Z</time>
      </trkpt>
      <trkpt lat="50.44725" lon="1.82304">
        <ele>53.6</ele>
        <time>2012-02-04T10:38:02Z</time>
      </trkpt>
      <trkpt lat="50.44721" lon="1.82312">
        <ele>56.4</ele>
        <time>2012-02-04T10:38:04Z</time>
      </trkpt>
      <trkpt lat="50.44718" lon="1.82322">
        <ele>55.5</ele>
        <time>2012-02-04T10:38:06Z</time>
      </trkpt>
      <trkpt lat="50.44715" lon="1.82332">
        <ele>55.9</ele>
        <time>2012-02-04T10:38:08Z</time>
      </trkpt>
      <trkpt lat="50.44712" lon="1.8234">
        <ele>54.9</ele>
        <time>2012-02-04T10:38:10Z</time>
      </trkpt>
      <trkpt lat="50.44709" lon="1.82348">
        <ele>53.2</ele>
        <time>2012-02-04T10:38:12Z</time>
      </trkpt>
      <trkpt lat="50.44706" lon="1.82357">
        <ele>52.5</ele>
        <time>2012-02-04T10:38:14Z</time>
      </trkpt>
      <trkpt lat="50.44702" lon="1.82366">
        <ele>52.9</ele>
        <time>2012-02-04T10:38:16Z</time>
      </trkpt>
      <trkpt lat="50.44702" lon="1.82376">
        <ele>52.7</ele>
        <time>2012-02-04T10:38:18Z</time>
      </trkpt>
      <trkpt lat="50.44699" lon="1.82386">
        <ele>52.7</ele>
        <time>2012-02-04T10:38:20Z</time>
      </trkpt>
      <trkpt lat="50.44693" lon="1.82388">
        <ele>51.8</ele>
        <time>2012-02-04T10:38:22Z</time>
      </trkpt>
      <trkpt lat="50.44687" lon="1.82391">
        <ele>53.5</ele>
        <time>2012-02-04T10:38:25Z</time>
      </trkpt>
      <trkpt lat="50.44688" lon="1.8238">
        <ele>54.4</ele>
        <time>2012-02-04T10:38:28Z</time>
      </trkpt>
      <trkpt lat="50.44688" lon="1.82373">
        <ele>55.5</ele>
        <time>2012-02-04T10:38:29Z</time>
      </trkpt>
      <trkpt lat="50.44688" lon="1.82364">
        <ele>56.7</ele>
        <time>2012-02-04T10:38:31Z</time>
      </trkpt>
      <trkpt lat="50.44687" lon="1.82356">
        <ele>57.8</ele>
        <time>2012-02-04T10:38:33Z</time>
      </trkpt>
      <trkpt lat="50.44686" lon="1.82346">
        <ele>58.5</ele>
        <time>2012-02-04T10:38:35Z</time>
      </trkpt>
      <trkpt lat="50.44685" lon="1.82336">
        <ele>59.3</ele>
        <time>2012-02-04T10:38:37Z</time>
      </trkpt>
      <trkpt lat="50.44687" lon="1.82328">
        <ele>57.8</ele>
        <time>2012-02-04T10:38:39Z</time>
      </trkpt>
      <trkpt lat="50.44686" lon="1.82317">
        <ele>58.3</ele>
        <time>2012-02-04T10:38:41Z</time>
      </trkpt>
      <trkpt lat="50.44685" lon="1.82306">
        <ele>58.7</ele>
        <time>2012-02-04T10:38:43Z</time>
      </trkpt>
      <trkpt lat="50.44683" lon="1.82297">
        <ele>59.6</ele>
        <time>2012-02-04T10:38:45Z</time>
      </trkpt>
      <trkpt lat="50.44681" lon="1.82287">
        <ele>61</ele>
        <time>2012-02-04T10:38:47Z</time>
      </trkpt>
      <trkpt lat="50.4468" lon="1.82276">
        <ele>62.2</ele>
        <time>2012-02-04T10:38:49Z</time>
      </trkpt>
      <trkpt lat="50.44677" lon="1.82267">
        <ele>62.4</ele>
        <time>2012-02-04T10:38:51Z</time>
      </trkpt>
      <trkpt lat="50.44675" lon="1.82256">
        <ele>63.3</ele>
        <time>2012-02-04T10:38:53Z</time>
      </trkpt>
      <trkpt lat="50.44671" lon="1.82246">
        <ele>63.3</ele>
        <time>2012-02-04T10:38:55Z</time>
      </trkpt>
      <trkpt lat="50.44668" lon="1.82235">
        <ele>62.6</ele>
        <time>2012-02-04T10:38:57Z</time>
      </trkpt>
      <trkpt lat="50.44665" lon="1.82227">
        <ele>62.4</ele>
        <time>2012-02-04T10:38:59Z</time>
      </trkpt>
      <trkpt lat="50.44661" lon="1.82219">
        <ele>63.8</ele>
        <time>2012-02-04T10:39:01Z</time>
      </trkpt>
      <trkpt lat="50.44658" lon="1.82207">
        <ele>63.1</ele>
        <time>2012-02-04T10:39:03Z</time>
      </trkpt>
      <trkpt lat="50.44655" lon="1.82202">
        <ele>62.7</ele>
        <time>2012-02-04T10:39:04Z</time>
      </trkpt>
      <trkpt lat="50.44649" lon="1.82193">
        <ele>61.6</ele>
        <time>2012-02-04T10:39:06Z</time>
      </trkpt>
      <trkpt lat="50.44645" lon="1.82187">
        <ele>61.3</ele>
        <time>2012-02-04T10:39:07Z</time>
      </trkpt>
      <trkpt lat="50.44641" lon="1.82182">
        <ele>61.4</ele>
        <time>2012-02-04T10:39:08Z</time>
      </trkpt>
      <trkpt lat="50.44636" lon="1.82176">
        <ele>61.6</ele>
        <time>2012-02-04T10:39:09Z</time>
      </trkpt>
      <trkpt lat="50.44629" lon="1.82167">
        <ele>61</ele>
        <time>2012-02-04T10:39:11Z</time>
      </trkpt>
      <trkpt lat="50.44624" lon="1.82161">
        <ele>60.9</ele>
        <time>2012-02-04T10:39:12Z</time>
      </trkpt>
      <trkpt lat="50.4462" lon="1.82154">
        <ele>61.3</ele>
        <time>2012-02-04T10:39:13Z</time>
      </trkpt>
      <trkpt lat="50.44615" lon="1.82148">
        <ele>61.6</ele>
        <time>2012-02-04T10:39:14Z</time>
      </trkpt>
      <trkpt lat="50.44609" lon="1.82143">
        <ele>62</ele>
        <time>2012-02-04T10:39:15Z</time>
      </trkpt>
      <trkpt lat="50.44604" lon="1.82136">
        <ele>62.2</ele>
        <time>2012-02-04T10:39:16Z</time>
      </trkpt>
      <trkpt lat="50.44598" lon="1.82129">
        <ele>60.8</ele>
        <time>2012-02-04T10:39:18Z</time>
      </trkpt>
      <trkpt lat="50.44593" lon="1.82124">
        <ele>61</ele>
        <time>2012-02-04T10:39:19Z</time>
      </trkpt>
      <trkpt lat="50.44589" lon="1.82119">
        <ele>61.1</ele>
        <time>2012-02-04T10:39:20Z</time>
      </trkpt>
      <trkpt lat="50.44585" lon="1.82113">
        <ele>61.7</ele>
        <time>2012-02-04T10:39:21Z</time>
      </trkpt>
      <trkpt lat="50.44581" lon="1.82107">
        <ele>61.6</ele>
        <time>2012-02-04T10:39:22Z</time>
      </trkpt>
      <trkpt lat="50.44577" lon="1.82103">
        <ele>61.6</ele>
        <time>2012-02-04T10:39:23Z</time>
      </trkpt>
      <trkpt lat="50.44573" lon="1.82096">
        <ele>61.8</ele>
        <time>2012-02-04T10:39:24Z</time>
      </trkpt>
      <trkpt lat="50.44564" lon="1.82088">
        <ele>61.9</ele>
        <time>2012-02-04T10:39:26Z</time>
      </trkpt>
      <trkpt lat="50.4456" lon="1.82083">
        <ele>62</ele>
        <time>2012-02-04T10:39:27Z</time>
      </trkpt>
      <trkpt lat="50.44555" lon="1.82079">
        <ele>62.1</ele>
        <time>2012-02-04T10:39:28Z</time>
      </trkpt>
      <trkpt lat="50.4455" lon="1.82074">
        <ele>62</ele>
        <time>2012-02-04T10:39:29Z</time>
      </trkpt>
      <trkpt lat="50.44545" lon="1.82068">
        <ele>61.8</ele>
        <time>2012-02-04T10:39:30Z</time>
      </trkpt>
      <trkpt lat="50.4454" lon="1.82062">
        <ele>62</ele>
        <time>2012-02-04T10:39:31Z</time>
      </trkpt>
      <trkpt lat="50.44537" lon="1.82056">
        <ele>61.4</ele>
        <time>2012-02-04T10:39:33Z</time>
      </trkpt>
      <trkpt lat="50.44533" lon="1.82051">
        <ele>61.1</ele>
        <time>2012-02-04T10:39:34Z</time>
      </trkpt>
      <trkpt lat="50.44527" lon="1.82044">
        <ele>61.5</ele>
        <time>2012-02-04T10:39:36Z</time>
      </trkpt>
      <trkpt lat="50.4452" lon="1.82037">
        <ele>62.1</ele>
        <time>2012-02-04T10:39:38Z</time>
      </trkpt>
      <trkpt lat="50.44514" lon="1.82031">
        <ele>61.7</ele>
        <time>2012-02-04T10:39:40Z</time>
      </trkpt>
      <trkpt lat="50.44506" lon="1.82023">
        <ele>62.2</ele>
        <time>2012-02-04T10:39:42Z</time>
      </trkpt>
      <trkpt lat="50.445" lon="1.82016">
        <ele>63.1</ele>
        <time>2012-02-04T10:39:44Z</time>
      </trkpt>
      <trkpt lat="50.44493" lon="1.82009">
        <ele>63.3</ele>
        <time>2012-02-04T10:39:46Z</time>
      </trkpt>
      <trkpt lat="50.44485" lon="1.82003">
        <ele>63.9</ele>
        <time>2012-02-04T10:39:48Z</time>
      </trkpt>
      <trkpt lat="50.44481" lon="1.81996">
        <ele>64.2</ele>
        <time>2012-02-04T10:39:50Z</time>
      </trkpt>
      <trkpt lat="50.44474" lon="1.81987">
        <ele>64.1</ele>
        <time>2012-02-04T10:39:52Z</time>
      </trkpt>
      <trkpt lat="50.44467" lon="1.81979">
        <ele>63.9</ele>
        <time>2012-02-04T10:39:54Z</time>
      </trkpt>
      <trkpt lat="50.44462" lon="1.81972">
        <ele>64.4</ele>
        <time>2012-02-04T10:39:56Z</time>
      </trkpt>
      <trkpt lat="50.44455" lon="1.81965">
        <ele>65.7</ele>
        <time>2012-02-04T10:39:58Z</time>
      </trkpt>
      <trkpt lat="50.44449" lon="1.81958">
        <ele>66.3</ele>
        <time>2012-02-04T10:40:00Z</time>
      </trkpt>
      <trkpt lat="50.44444" lon="1.81952">
        <ele>65.7</ele>
        <time>2012-02-04T10:40:02Z</time>
      </trkpt>
      <trkpt lat="50.44439" lon="1.81943">
        <ele>65.5</ele>
        <time>2012-02-04T10:40:04Z</time>
      </trkpt>
      <trkpt lat="50.44432" lon="1.81935">
        <ele>66.2</ele>
        <time>2012-02-04T10:40:06Z</time>
      </trkpt>
      <trkpt lat="50.44427" lon="1.81929">
        <ele>65.7</ele>
        <time>2012-02-04T10:40:08Z</time>
      </trkpt>
      <trkpt lat="50.44421" lon="1.81923">
        <ele>65.7</ele>
        <time>2012-02-04T10:40:10Z</time>
      </trkpt>
      <trkpt lat="50.44415" lon="1.81917">
        <ele>65.7</ele>
        <time>2012-02-04T10:40:12Z</time>
      </trkpt>
      <trkpt lat="50.44412" lon="1.81909">
        <ele>66.5</ele>
        <time>2012-02-04T10:40:14Z</time>
      </trkpt>
      <trkpt lat="50.44408" lon="1.81903">
        <ele>67.2</ele>
        <time>2012-02-04T10:40:16Z</time>
      </trkpt>
      <trkpt lat="50.44404" lon="1.81896">
        <ele>68.3</ele>
        <time>2012-02-04T10:40:18Z</time>
      </trkpt>
      <trkpt lat="50.444" lon="1.8189">
        <ele>69.8</ele>
        <time>2012-02-04T10:40:20Z</time>
      </trkpt>
      <trkpt lat="50.44394" lon="1.81885">
        <ele>70.1</ele>
        <time>2012-02-04T10:40:22Z</time>
      </trkpt>
      <trkpt lat="50.44388" lon="1.8188">
        <ele>71.1</ele>
        <time>2012-02-04T10:40:24Z</time>
      </trkpt>
      <trkpt lat="50.44382" lon="1.81876">
        <ele>70.4</ele>
        <time>2012-02-04T10:40:26Z</time>
      </trkpt>
      <trkpt lat="50.44376" lon="1.81873">
        <ele>70.1</ele>
        <time>2012-02-04T10:40:28Z</time>
      </trkpt>
      <trkpt lat="50.44371" lon="1.8187">
        <ele>69.7</ele>
        <time>2012-02-04T10:40:30Z</time>
      </trkpt>
      <trkpt lat="50.44365" lon="1.8187">
        <ele>70</ele>
        <time>2012-02-04T10:40:32Z</time>
      </trkpt>
      <trkpt lat="50.44359" lon="1.81868">
        <ele>70.1</ele>
        <time>2012-02-04T10:40:34Z</time>
      </trkpt>
      <trkpt lat="50.44352" lon="1.81868">
        <ele>70.3</ele>
        <time>2012-02-04T10:40:36Z</time>
      </trkpt>
      <trkpt lat="50.44347" lon="1.81869">
        <ele>69.9</ele>
        <time>2012-02-04T10:40:37Z</time>
      </trkpt>
      <trkpt lat="50.44341" lon="1.8187">
        <ele>70.5</ele>
        <time>2012-02-04T10:40:39Z</time>
      </trkpt>
      <trkpt lat="50.44333" lon="1.81871">
        <ele>70.6</ele>
        <time>2012-02-04T10:40:41Z</time>
      </trkpt>
      <trkpt lat="50.44329" lon="1.81871">
        <ele>70.4</ele>
        <time>2012-02-04T10:40:42Z</time>
      </trkpt>
      <trkpt lat="50.44321" lon="1.81873">
        <ele>70.5</ele>
        <time>2012-02-04T10:40:44Z</time>
      </trkpt>
      <trkpt lat="50.44313" lon="1.81876">
        <ele>70</ele>
        <time>2012-02-04T10:40:46Z</time>
      </trkpt>
      <trkpt lat="50.44304" lon="1.81877">
        <ele>69.7</ele>
        <time>2012-02-04T10:40:48Z</time>
      </trkpt>
      <trkpt lat="50.44295" lon="1.81879">
        <ele>69.8</ele>
        <time>2012-02-04T10:40:50Z</time>
      </trkpt>
      <trkpt lat="50.44286" lon="1.81881">
        <ele>69.6</ele>
        <time>2012-02-04T10:40:52Z</time>
      </trkpt>
      <trkpt lat="50.44278" lon="1.81882">
        <ele>69.2</ele>
        <time>2012-02-04T10:40:54Z</time>
      </trkpt>
      <trkpt lat="50.4427" lon="1.8188">
        <ele>69.2</ele>
        <time>2012-02-04T10:40:56Z</time>
      </trkpt>
      <trkpt lat="50.44262" lon="1.81879">
        <ele>68.7</ele>
        <time>2012-02-04T10:40:58Z</time>
      </trkpt>
      <trkpt lat="50.44254" lon="1.81877">
        <ele>68.8</ele>
        <time>2012-02-04T10:41:00Z</time>
      </trkpt>
      <trkpt lat="50.44245" lon="1.81873">
        <ele>68.8</ele>
        <time>2012-02-04T10:41:02Z</time>
      </trkpt>
      <trkpt lat="50.44237" lon="1.81869">
        <ele>68.8</ele>
        <time>2012-02-04T10:41:04Z</time>
      </trkpt>
      <trkpt lat="50.44229" lon="1.81864">
        <ele>68.6</ele>
        <time>2012-02-04T10:41:06Z</time>
      </trkpt>
      <trkpt lat="50.44225" lon="1.8186">
        <ele>68.5</ele>
        <time>2012-02-04T10:41:07Z</time>
      </trkpt>
      <trkpt lat="50.44225" lon="1.81846">
        <ele>67.1</ele>
        <time>2012-02-04T10:41:09Z</time>
      </trkpt>
      <trkpt lat="50.44225" lon="1.81833">
        <ele>67</ele>
        <time>2012-02-04T10:41:11Z</time>
      </trkpt>
      <trkpt lat="50.44224" lon="1.8182">
        <ele>66.9</ele>
        <time>2012-02-04T10:41:13Z</time>
      </trkpt>
      <trkpt lat="50.44224" lon="1.81807">
        <ele>67.6</ele>
        <time>2012-02-04T10:41:15Z</time>
      </trkpt>
      <trkpt lat="50.44223" lon="1.81797">
        <ele>68.1</ele>
        <time>2012-02-04T10:41:17Z</time>
      </trkpt>
      <trkpt lat="50.44221" lon="1.81788">
        <ele>69.6</ele>
        <time>2012-02-04T10:41:19Z</time>
      </trkpt>
      <trkpt lat="50.4422" lon="1.81777">
        <ele>69.5</ele>
        <time>2012-02-04T10:41:21Z</time>
      </trkpt>
      <trkpt lat="50.44215" lon="1.8177">
        <ele>69.2</ele>
        <time>2012-02-04T10:41:22Z</time>
      </trkpt>
      <trkpt lat="50.44211" lon="1.81764">
        <ele>69.5</ele>
        <time>2012-02-04T10:41:23Z</time>
      </trkpt>
      <trkpt lat="50.44206" lon="1.81753">
        <ele>70.1</ele>
        <time>2012-02-04T10:41:25Z</time>
      </trkpt>
      <trkpt lat="50.44201" lon="1.81742">
        <ele>70.3</ele>
        <time>2012-02-04T10:41:27Z</time>
      </trkpt>
      <trkpt lat="50.44196" lon="1.81731">
        <ele>69.7</ele>
        <time>2012-02-04T10:41:29Z</time>
      </trkpt>
      <trkpt lat="50.44193" lon="1.81725">
        <ele>69.8</ele>
        <time>2012-02-04T10:41:30Z</time>
      </trkpt>
      <trkpt lat="50.4419" lon="1.81719">
        <ele>69.2</ele>
        <time>2012-02-04T10:41:31Z</time>
      </trkpt>
      <trkpt lat="50.44186" lon="1.81708">
        <ele>69.6</ele>
        <time>2012-02-04T10:41:33Z</time>
      </trkpt>
      <trkpt lat="50.44181" lon="1.81696">
        <ele>69.7</ele>
        <time>2012-02-04T10:41:35Z</time>
      </trkpt>
      <trkpt lat="50.44179" lon="1.8169">
        <ele>69.8</ele>
        <time>2012-02-04T10:41:36Z</time>
      </trkpt>
      <trkpt lat="50.44175" lon="1.81678">
        <ele>69.6</ele>
        <time>2012-02-04T10:41:38Z</time>
      </trkpt>
      <trkpt lat="50.4417" lon="1.81666">
        <ele>69.8</ele>
        <time>2012-02-04T10:41:40Z</time>
      </trkpt>
      <trkpt lat="50.44166" lon="1.81654">
        <ele>70.1</ele>
        <time>2012-02-04T10:41:42Z</time>
      </trkpt>
      <trkpt lat="50.44161" lon="1.81642">
        <ele>70.4</ele>
        <time>2012-02-04T10:41:44Z</time>
      </trkpt>
      <trkpt lat="50.44157" lon="1.8163">
        <ele>70.2</ele>
        <time>2012-02-04T10:41:46Z</time>
      </trkpt>
      <trkpt lat="50.44153" lon="1.81618">
        <ele>70.6</ele>
        <time>2012-02-04T10:41:48Z</time>
      </trkpt>
      <trkpt lat="50.44148" lon="1.81606">
        <ele>71.2</ele>
        <time>2012-02-04T10:41:50Z</time>
      </trkpt>
      <trkpt lat="50.44146" lon="1.816">
        <ele>71.2</ele>
        <time>2012-02-04T10:41:51Z</time>
      </trkpt>
      <trkpt lat="50.44143" lon="1.81588">
        <ele>71.5</ele>
        <time>2012-02-04T10:41:53Z</time>
      </trkpt>
      <trkpt lat="50.4414" lon="1.81576">
        <ele>71.4</ele>
        <time>2012-02-04T10:41:55Z</time>
      </trkpt>
      <trkpt lat="50.44139" lon="1.81565">
        <ele>71.7</ele>
        <time>2012-02-04T10:41:57Z</time>
      </trkpt>
      <trkpt lat="50.44137" lon="1.81553">
        <ele>72.3</ele>
        <time>2012-02-04T10:41:59Z</time>
      </trkpt>
      <trkpt lat="50.44135" lon="1.81541">
        <ele>72.9</ele>
        <time>2012-02-04T10:42:01Z</time>
      </trkpt>
      <trkpt lat="50.44133" lon="1.81529">
        <ele>73.2</ele>
        <time>2012-02-04T10:42:03Z</time>
      </trkpt>
      <trkpt lat="50.44131" lon="1.81518">
        <ele>73.9</ele>
        <time>2012-02-04T10:42:05Z</time>
      </trkpt>
      <trkpt lat="50.44128" lon="1.81507">
        <ele>74.2</ele>
        <time>2012-02-04T10:42:07Z</time>
      </trkpt>
      <trkpt lat="50.44126" lon="1.81495">
        <ele>74</ele>
        <time>2012-02-04T10:42:09Z</time>
      </trkpt>
      <trkpt lat="50.44124" lon="1.81483">
        <ele>74.1</ele>
        <time>2012-02-04T10:42:11Z</time>
      </trkpt>
      <trkpt lat="50.44122" lon="1.81471">
        <ele>74</ele>
        <time>2012-02-04T10:42:13Z</time>
      </trkpt>
      <trkpt lat="50.44121" lon="1.81459">
        <ele>74</ele>
        <time>2012-02-04T10:42:15Z</time>
      </trkpt>
      <trkpt lat="50.44122" lon="1.81449">
        <ele>73.9</ele>
        <time>2012-02-04T10:42:17Z</time>
      </trkpt>
      <trkpt lat="50.44122" lon="1.81441">
        <ele>74.5</ele>
        <time>2012-02-04T10:42:19Z</time>
      </trkpt>
      <trkpt lat="50.44122" lon="1.81434">
        <ele>74.7</ele>
        <time>2012-02-04T10:42:21Z</time>
      </trkpt>
      <trkpt lat="50.44124" lon="1.81424">
        <ele>74.8</ele>
        <time>2012-02-04T10:42:24Z</time>
      </trkpt>
      <trkpt lat="50.44124" lon="1.81416">
        <ele>75.1</ele>
        <time>2012-02-04T10:42:26Z</time>
      </trkpt>
      <trkpt lat="50.44125" lon="1.81407">
        <ele>74.9</ele>
        <time>2012-02-04T10:42:28Z</time>
      </trkpt>
      <trkpt lat="50.44125" lon="1.81396">
        <ele>75.4</ele>
        <time>2012-02-04T10:42:30Z</time>
      </trkpt>
      <trkpt lat="50.44126" lon="1.81387">
        <ele>76.1</ele>
        <time>2012-02-04T10:42:32Z</time>
      </trkpt>
      <trkpt lat="50.44127" lon="1.81378">
        <ele>76.3</ele>
        <time>2012-02-04T10:42:34Z</time>
      </trkpt>
      <trkpt lat="50.44128" lon="1.8137">
        <ele>76.2</ele>
        <time>2012-02-04T10:42:36Z</time>
      </trkpt>
      <trkpt lat="50.44129" lon="1.81358">
        <ele>76</ele>
        <time>2012-02-04T10:42:38Z</time>
      </trkpt>
      <trkpt lat="50.44128" lon="1.81348">
        <ele>76.1</ele>
        <time>2012-02-04T10:42:40Z</time>
      </trkpt>
      <trkpt lat="50.44129" lon="1.81336">
        <ele>76</ele>
        <time>2012-02-04T10:42:42Z</time>
      </trkpt>
      <trkpt lat="50.4413" lon="1.81325">
        <ele>75.8</ele>
        <time>2012-02-04T10:42:44Z</time>
      </trkpt>
      <trkpt lat="50.44131" lon="1.81315">
        <ele>75.8</ele>
        <time>2012-02-04T10:42:46Z</time>
      </trkpt>
      <trkpt lat="50.4413" lon="1.81303">
        <ele>75.1</ele>
        <time>2012-02-04T10:42:48Z</time>
      </trkpt>
      <trkpt lat="50.4413" lon="1.81293">
        <ele>75.7</ele>
        <time>2012-02-04T10:42:50Z</time>
      </trkpt>
      <trkpt lat="50.44129" lon="1.81282">
        <ele>75.9</ele>
        <time>2012-02-04T10:42:52Z</time>
      </trkpt>
      <trkpt lat="50.44129" lon="1.81271">
        <ele>72.9</ele>
        <time>2012-02-04T10:42:54Z</time>
      </trkpt>
      <trkpt lat="50.44129" lon="1.81261">
        <ele>72.8</ele>
        <time>2012-02-04T10:42:56Z</time>
      </trkpt>
      <trkpt lat="50.4413" lon="1.81252">
        <ele>73.1</ele>
        <time>2012-02-04T10:42:58Z</time>
      </trkpt>
      <trkpt lat="50.4413" lon="1.81245">
        <ele>73.9</ele>
        <time>2012-02-04T10:43:00Z</time>
      </trkpt>
      <trkpt lat="50.4413" lon="1.81236">
        <ele>74.1</ele>
        <time>2012-02-04T10:43:02Z</time>
      </trkpt>
      <trkpt lat="50.44131" lon="1.81226">
        <ele>74.1</ele>
        <time>2012-02-04T10:43:04Z</time>
      </trkpt>
      <trkpt lat="50.44128" lon="1.81216">
        <ele>76.5</ele>
        <time>2012-02-04T10:43:06Z</time>
      </trkpt>
      <trkpt lat="50.44127" lon="1.81206">
        <ele>78.7</ele>
        <time>2012-02-04T10:43:08Z</time>
      </trkpt>
      <trkpt lat="50.44126" lon="1.81197">
        <ele>78.5</ele>
        <time>2012-02-04T10:43:10Z</time>
      </trkpt>
      <trkpt lat="50.44125" lon="1.8119">
        <ele>80.3</ele>
        <time>2012-02-04T10:43:12Z</time>
      </trkpt>
      <trkpt lat="50.44126" lon="1.81183">
        <ele>78.6</ele>
        <time>2012-02-04T10:43:15Z</time>
      </trkpt>
      <trkpt lat="50.44127" lon="1.81175">
        <ele>78.3</ele>
        <time>2012-02-04T10:43:18Z</time>
      </trkpt>
      <trkpt lat="50.44127" lon="1.81167">
        <ele>78</ele>
        <time>2012-02-04T10:43:21Z</time>
      </trkpt>
      <trkpt lat="50.44127" lon="1.81159">
        <ele>77.7</ele>
        <time>2012-02-04T10:43:24Z</time>
      </trkpt>
      <trkpt lat="50.44126" lon="1.81152">
        <ele>78.6</ele>
        <time>2012-02-04T10:43:26Z</time>
      </trkpt>
      <trkpt lat="50.44125" lon="1.81141">
        <ele>80.4</ele>
        <time>2012-02-04T10:43:28Z</time>
      </trkpt>
      <trkpt lat="50.44124" lon="1.81134">
        <ele>81.1</ele>
        <time>2012-02-04T10:43:30Z</time>
      </trkpt>
      <trkpt lat="50.44124" lon="1.81126">
        <ele>82</ele>
        <time>2012-02-04T10:43:33Z</time>
      </trkpt>
      <trkpt lat="50.44124" lon="1.81118">
        <ele>82.9</ele>
        <time>2012-02-04T10:43:36Z</time>
      </trkpt>
      <trkpt lat="50.44124" lon="1.8111">
        <ele>83</ele>
        <time>2012-02-04T10:43:38Z</time>
      </trkpt>
      <trkpt lat="50.44122" lon="1.81103">
        <ele>83</ele>
        <time>2012-02-04T10:43:40Z</time>
      </trkpt>
      <trkpt lat="50.4412" lon="1.81095">
        <ele>84.4</ele>
        <time>2012-02-04T10:43:42Z</time>
      </trkpt>
      <trkpt lat="50.44118" lon="1.81086">
        <ele>85.9</ele>
        <time>2012-02-04T10:43:45Z</time>
      </trkpt>
      <trkpt lat="50.44116" lon="1.81079">
        <ele>86.2</ele>
        <time>2012-02-04T10:43:47Z</time>
      </trkpt>
      <trkpt lat="50.44115" lon="1.81069">
        <ele>87</ele>
        <time>2012-02-04T10:43:50Z</time>
      </trkpt>
      <trkpt lat="50.44114" lon="1.81059">
        <ele>88.1</ele>
        <time>2012-02-04T10:43:53Z</time>
      </trkpt>
      <trkpt lat="50.44113" lon="1.81052">
        <ele>89.4</ele>
        <time>2012-02-04T10:43:55Z</time>
      </trkpt>
      <trkpt lat="50.44115" lon="1.81044">
        <ele>85.8</ele>
        <time>2012-02-04T10:43:59Z</time>
      </trkpt>
      <trkpt lat="50.44113" lon="1.81037">
        <ele>86.9</ele>
        <time>2012-02-04T10:44:01Z</time>
      </trkpt>
      <trkpt lat="50.44109" lon="1.81026">
        <ele>88.8</ele>
        <time>2012-02-04T10:44:03Z</time>
      </trkpt>
      <trkpt lat="50.44107" lon="1.81016">
        <ele>90.7</ele>
        <time>2012-02-04T10:44:05Z</time>
      </trkpt>
      <trkpt lat="50.44106" lon="1.81009">
        <ele>92.5</ele>
        <time>2012-02-04T10:44:07Z</time>
      </trkpt>
      <trkpt lat="50.44103" lon="1.81002">
        <ele>95.7</ele>
        <time>2012-02-04T10:44:08Z</time>
      </trkpt>
      <trkpt lat="50.44102" lon="1.80995">
        <ele>94.6</ele>
        <time>2012-02-04T10:44:10Z</time>
      </trkpt>
      <trkpt lat="50.44101" lon="1.80986">
        <ele>94.9</ele>
        <time>2012-02-04T10:44:13Z</time>
      </trkpt>
      <trkpt lat="50.44102" lon="1.80977">
        <ele>93</ele>
        <time>2012-02-04T10:44:16Z</time>
      </trkpt>
      <trkpt lat="50.44101" lon="1.8097">
        <ele>93.4</ele>
        <time>2012-02-04T10:44:18Z</time>
      </trkpt>
      <trkpt lat="50.44099" lon="1.80959">
        <ele>93.1</ele>
        <time>2012-02-04T10:44:21Z</time>
      </trkpt>
      <trkpt lat="50.44098" lon="1.80951">
        <ele>91.6</ele>
        <time>2012-02-04T10:44:23Z</time>
      </trkpt>
      <trkpt lat="50.44098" lon="1.80943">
        <ele>91.5</ele>
        <time>2012-02-04T10:44:25Z</time>
      </trkpt>
      <trkpt lat="50.44095" lon="1.80933">
        <ele>91.8</ele>
        <time>2012-02-04T10:44:27Z</time>
      </trkpt>
      <trkpt lat="50.44096" lon="1.80925">
        <ele>91.5</ele>
        <time>2012-02-04T10:44:29Z</time>
      </trkpt>
      <trkpt lat="50.44093" lon="1.80916">
        <ele>91.6</ele>
        <time>2012-02-04T10:44:31Z</time>
      </trkpt>
      <trkpt lat="50.44092" lon="1.80909">
        <ele>91.7</ele>
        <time>2012-02-04T10:44:33Z</time>
      </trkpt>
      <trkpt lat="50.44091" lon="1.80901">
        <ele>91.9</ele>
        <time>2012-02-04T10:44:35Z</time>
      </trkpt>
      <trkpt lat="50.4409" lon="1.80894">
        <ele>92.5</ele>
        <time>2012-02-04T10:44:37Z</time>
      </trkpt>
      <trkpt lat="50.44089" lon="1.80886">
        <ele>92.6</ele>
        <time>2012-02-04T10:44:39Z</time>
      </trkpt>
      <trkpt lat="50.44087" lon="1.80875">
        <ele>92.3</ele>
        <time>2012-02-04T10:44:42Z</time>
      </trkpt>
      <trkpt lat="50.44086" lon="1.80865">
        <ele>92.2</ele>
        <time>2012-02-04T10:44:45Z</time>
      </trkpt>
      <trkpt lat="50.44085" lon="1.80854">
        <ele>92.6</ele>
        <time>2012-02-04T10:44:48Z</time>
      </trkpt>
      <trkpt lat="50.44083" lon="1.80844">
        <ele>93</ele>
        <time>2012-02-04T10:44:51Z</time>
      </trkpt>
      <trkpt lat="50.44083" lon="1.80837">
        <ele>92.9</ele>
        <time>2012-02-04T10:44:53Z</time>
      </trkpt>
      <trkpt lat="50.44084" lon="1.80828">
        <ele>93</ele>
        <time>2012-02-04T10:44:55Z</time>
      </trkpt>
      <trkpt lat="50.44087" lon="1.80819">
        <ele>93.3</ele>
        <time>2012-02-04T10:44:57Z</time>
      </trkpt>
      <trkpt lat="50.44091" lon="1.80814">
        <ele>96.1</ele>
        <time>2012-02-04T10:45:00Z</time>
      </trkpt>
      <trkpt lat="50.44097" lon="1.8081">
        <ele>95.1</ele>
        <time>2012-02-04T10:45:03Z</time>
      </trkpt>
      <trkpt lat="50.44102" lon="1.80806">
        <ele>94.8</ele>
        <time>2012-02-04T10:45:05Z</time>
      </trkpt>
      <trkpt lat="50.44104" lon="1.808">
        <ele>95.9</ele>
        <time>2012-02-04T10:45:07Z</time>
      </trkpt>
      <trkpt lat="50.44107" lon="1.80793">
        <ele>97.4</ele>
        <time>2012-02-04T10:45:09Z</time>
      </trkpt>
      <trkpt lat="50.44107" lon="1.80785">
        <ele>96.9</ele>
        <time>2012-02-04T10:45:11Z</time>
      </trkpt>
      <trkpt lat="50.44107" lon="1.80778">
        <ele>96.4</ele>
        <time>2012-02-04T10:45:13Z</time>
      </trkpt>
      <trkpt lat="50.44108" lon="1.80768">
        <ele>96.3</ele>
        <time>2012-02-04T10:45:16Z</time>
      </trkpt>
      <trkpt lat="50.44107" lon="1.80757">
        <ele>96.9</ele>
        <time>2012-02-04T10:45:19Z</time>
      </trkpt>
      <trkpt lat="50.44107" lon="1.8075">
        <ele>97.4</ele>
        <time>2012-02-04T10:45:21Z</time>
      </trkpt>
      <trkpt lat="50.44106" lon="1.80742">
        <ele>97.7</ele>
        <time>2012-02-04T10:45:23Z</time>
      </trkpt>
      <trkpt lat="50.44106" lon="1.80732">
        <ele>98.4</ele>
        <time>2012-02-04T10:45:26Z</time>
      </trkpt>
      <trkpt lat="50.44105" lon="1.80724">
        <ele>98.7</ele>
        <time>2012-02-04T10:45:28Z</time>
      </trkpt>
      <trkpt lat="50.44104" lon="1.80717">
        <ele>99</ele>
        <time>2012-02-04T10:45:30Z</time>
      </trkpt>
      <trkpt lat="50.44104" lon="1.8071">
        <ele>98.5</ele>
        <time>2012-02-04T10:45:32Z</time>
      </trkpt>
      <trkpt lat="50.44103" lon="1.80702">
        <ele>98.8</ele>
        <time>2012-02-04T10:45:34Z</time>
      </trkpt>
      <trkpt lat="50.44102" lon="1.80695">
        <ele>98.9</ele>
        <time>2012-02-04T10:45:36Z</time>
      </trkpt>
      <trkpt lat="50.44102" lon="1.80688">
        <ele>99</ele>
        <time>2012-02-04T10:45:38Z</time>
      </trkpt>
      <trkpt lat="50.44101" lon="1.80678">
        <ele>97.8</ele>
        <time>2012-02-04T10:45:41Z</time>
      </trkpt>
      <trkpt lat="50.441" lon="1.80671">
        <ele>98.9</ele>
        <time>2012-02-04T10:45:43Z</time>
      </trkpt>
      <trkpt lat="50.44098" lon="1.80664">
        <ele>99.3</ele>
        <time>2012-02-04T10:45:45Z</time>
      </trkpt>
      <trkpt lat="50.44097" lon="1.80654">
        <ele>98.6</ele>
        <time>2012-02-04T10:45:48Z</time>
      </trkpt>
      <trkpt lat="50.44096" lon="1.80646">
        <ele>99.1</ele>
        <time>2012-02-04T10:45:50Z</time>
      </trkpt>
      <trkpt lat="50.44095" lon="1.80639">
        <ele>99.2</ele>
        <time>2012-02-04T10:45:52Z</time>
      </trkpt>
      <trkpt lat="50.44094" lon="1.80632">
        <ele>98.5</ele>
        <time>2012-02-04T10:45:54Z</time>
      </trkpt>
      <trkpt lat="50.44093" lon="1.80624">
        <ele>99.4</ele>
        <time>2012-02-04T10:45:56Z</time>
      </trkpt>
      <trkpt lat="50.44092" lon="1.80617">
        <ele>99.8</ele>
        <time>2012-02-04T10:45:58Z</time>
      </trkpt>
      <trkpt lat="50.44091" lon="1.80609">
        <ele>100.2</ele>
        <time>2012-02-04T10:46:00Z</time>
      </trkpt>
      <trkpt lat="50.4409" lon="1.80602">
        <ele>100.6</ele>
        <time>2012-02-04T10:46:02Z</time>
      </trkpt>
      <trkpt lat="50.44089" lon="1.80593">
        <ele>100.5</ele>
        <time>2012-02-04T10:46:04Z</time>
      </trkpt>
      <trkpt lat="50.44088" lon="1.80586">
        <ele>100.5</ele>
        <time>2012-02-04T10:46:06Z</time>
      </trkpt>
      <trkpt lat="50.44088" lon="1.80578">
        <ele>101.1</ele>
        <time>2012-02-04T10:46:08Z</time>
      </trkpt>
      <trkpt lat="50.44087" lon="1.8057">
        <ele>101.6</ele>
        <time>2012-02-04T10:46:10Z</time>
      </trkpt>
      <trkpt lat="50.44086" lon="1.80562">
        <ele>101.9</ele>
        <time>2012-02-04T10:46:12Z</time>
      </trkpt>
      <trkpt lat="50.44084" lon="1.80551">
        <ele>102.3</ele>
        <time>2012-02-04T10:46:14Z</time>
      </trkpt>
      <trkpt lat="50.44087" lon="1.80542">
        <ele>102.5</ele>
        <time>2012-02-04T10:46:17Z</time>
      </trkpt>
      <trkpt lat="50.44088" lon="1.80534">
        <ele>103.1</ele>
        <time>2012-02-04T10:46:19Z</time>
      </trkpt>
      <trkpt lat="50.4409" lon="1.80528">
        <ele>103.8</ele>
        <time>2012-02-04T10:46:21Z</time>
      </trkpt>
      <trkpt lat="50.44091" lon="1.8052">
        <ele>104.4</ele>
        <time>2012-02-04T10:46:23Z</time>
      </trkpt>
      <trkpt lat="50.44093" lon="1.80512">
        <ele>105.2</ele>
        <time>2012-02-04T10:46:25Z</time>
      </trkpt>
      <trkpt lat="50.44095" lon="1.80506">
        <ele>105.4</ele>
        <time>2012-02-04T10:46:27Z</time>
      </trkpt>
      <trkpt lat="50.44099" lon="1.80496">
        <ele>106.6</ele>
        <time>2012-02-04T10:46:30Z</time>
      </trkpt>
      <trkpt lat="50.44102" lon="1.8049">
        <ele>107.1</ele>
        <time>2012-02-04T10:46:32Z</time>
      </trkpt>
      <trkpt lat="50.44105" lon="1.80482">
        <ele>109</ele>
        <time>2012-02-04T10:46:35Z</time>
      </trkpt>
      <trkpt lat="50.4411" lon="1.80475">
        <ele>109.7</ele>
        <time>2012-02-04T10:46:38Z</time>
      </trkpt>
      <trkpt lat="50.44112" lon="1.80468">
        <ele>110.3</ele>
        <time>2012-02-04T10:46:40Z</time>
      </trkpt>
      <trkpt lat="50.44116" lon="1.8046">
        <ele>111.3</ele>
        <time>2012-02-04T10:46:43Z</time>
      </trkpt>
      <trkpt lat="50.44119" lon="1.80454">
        <ele>111.7</ele>
        <time>2012-02-04T10:46:45Z</time>
      </trkpt>
      <trkpt lat="50.44123" lon="1.80446">
        <ele>112.4</ele>
        <time>2012-02-04T10:46:48Z</time>
      </trkpt>
      <trkpt lat="50.44125" lon="1.80435">
        <ele>112.4</ele>
        <time>2012-02-04T10:46:50Z</time>
      </trkpt>
      <trkpt lat="50.44127" lon="1.80426">
        <ele>113.2</ele>
        <time>2012-02-04T10:46:53Z</time>
      </trkpt>
      <trkpt lat="50.44129" lon="1.80418">
        <ele>114.3</ele>
        <time>2012-02-04T10:46:55Z</time>
      </trkpt>
      <trkpt lat="50.44131" lon="1.8041">
        <ele>113.6</ele>
        <time>2012-02-04T10:46:57Z</time>
      </trkpt>
      <trkpt lat="50.44134" lon="1.80404">
        <ele>110.9</ele>
        <time>2012-02-04T10:46:59Z</time>
      </trkpt>
      <trkpt lat="50.44136" lon="1.80397">
        <ele>111.3</ele>
        <time>2012-02-04T10:47:01Z</time>
      </trkpt>
      <trkpt lat="50.44139" lon="1.8039">
        <ele>111.6</ele>
        <time>2012-02-04T10:47:03Z</time>
      </trkpt>
      <trkpt lat="50.44143" lon="1.80386">
        <ele>111</ele>
        <time>2012-02-04T10:47:05Z</time>
      </trkpt>
      <trkpt lat="50.44145" lon="1.80379">
        <ele>112.2</ele>
        <time>2012-02-04T10:47:09Z</time>
      </trkpt>
      <trkpt lat="50.44149" lon="1.80374">
        <ele>111.4</ele>
        <time>2012-02-04T10:49:35Z</time>
      </trkpt>
      <trkpt lat="50.44151" lon="1.80364">
        <ele>112</ele>
        <time>2012-02-04T10:49:38Z</time>
      </trkpt>
      <trkpt lat="50.44153" lon="1.80356">
        <ele>112.4</ele>
        <time>2012-02-04T10:49:40Z</time>
      </trkpt>
      <trkpt lat="50.44156" lon="1.80349">
        <ele>112.7</ele>
        <time>2012-02-04T10:49:42Z</time>
      </trkpt>
      <trkpt lat="50.44159" lon="1.80341">
        <ele>112.9</ele>
        <time>2012-02-04T10:49:44Z</time>
      </trkpt>
      <trkpt lat="50.44161" lon="1.80333">
        <ele>113.9</ele>
        <time>2012-02-04T10:49:46Z</time>
      </trkpt>
      <trkpt lat="50.44164" lon="1.80323">
        <ele>114.4</ele>
        <time>2012-02-04T10:49:48Z</time>
      </trkpt>
      <trkpt lat="50.44166" lon="1.80313">
        <ele>115.5</ele>
        <time>2012-02-04T10:49:50Z</time>
      </trkpt>
      <trkpt lat="50.44171" lon="1.80306">
        <ele>115.4</ele>
        <time>2012-02-04T10:49:52Z</time>
      </trkpt>
      <trkpt lat="50.44174" lon="1.80297">
        <ele>115.8</ele>
        <time>2012-02-04T10:49:54Z</time>
      </trkpt>
      <trkpt lat="50.44176" lon="1.80286">
        <ele>116.5</ele>
        <time>2012-02-04T10:49:56Z</time>
      </trkpt>
      <trkpt lat="50.44179" lon="1.80275">
        <ele>117</ele>
        <time>2012-02-04T10:49:58Z</time>
      </trkpt>
      <trkpt lat="50.44182" lon="1.80265">
        <ele>117.6</ele>
        <time>2012-02-04T10:50:00Z</time>
      </trkpt>
      <trkpt lat="50.44184" lon="1.80253">
        <ele>118.5</ele>
        <time>2012-02-04T10:50:02Z</time>
      </trkpt>
      <trkpt lat="50.44187" lon="1.80243">
        <ele>119.5</ele>
        <time>2012-02-04T10:50:04Z</time>
      </trkpt>
      <trkpt lat="50.4419" lon="1.80231">
        <ele>119.2</ele>
        <time>2012-02-04T10:50:06Z</time>
      </trkpt>
      <trkpt lat="50.44193" lon="1.80217">
        <ele>116.7</ele>
        <time>2012-02-04T10:50:08Z</time>
      </trkpt>
      <trkpt lat="50.44195" lon="1.80204">
        <ele>116.7</ele>
        <time>2012-02-04T10:50:10Z</time>
      </trkpt>
      <trkpt lat="50.44198" lon="1.80191">
        <ele>115.9</ele>
        <time>2012-02-04T10:50:12Z</time>
      </trkpt>
      <trkpt lat="50.44198" lon="1.80183">
        <ele>115.5</ele>
        <time>2012-02-04T10:50:13Z</time>
      </trkpt>
      <trkpt lat="50.44198" lon="1.80176">
        <ele>115.5</ele>
        <time>2012-02-04T10:50:14Z</time>
      </trkpt>
      <trkpt lat="50.442" lon="1.80164">
        <ele>115.9</ele>
        <time>2012-02-04T10:50:16Z</time>
      </trkpt>
      <trkpt lat="50.44203" lon="1.80152">
        <ele>114.9</ele>
        <time>2012-02-04T10:50:18Z</time>
      </trkpt>
      <trkpt lat="50.44205" lon="1.80139">
        <ele>114.5</ele>
        <time>2012-02-04T10:50:20Z</time>
      </trkpt>
      <trkpt lat="50.44206" lon="1.80126">
        <ele>114.9</ele>
        <time>2012-02-04T10:50:22Z</time>
      </trkpt>
      <trkpt lat="50.44207" lon="1.80118">
        <ele>115.1</ele>
        <time>2012-02-04T10:50:23Z</time>
      </trkpt>
      <trkpt lat="50.44208" lon="1.80111">
        <ele>115.4</ele>
        <time>2012-02-04T10:50:24Z</time>
      </trkpt>
      <trkpt lat="50.4421" lon="1.80098">
        <ele>114.5</ele>
        <time>2012-02-04T10:50:26Z</time>
      </trkpt>
      <trkpt lat="50.44211" lon="1.80086">
        <ele>115.4</ele>
        <time>2012-02-04T10:50:28Z</time>
      </trkpt>
      <trkpt lat="50.44212" lon="1.80072">
        <ele>115.4</ele>
        <time>2012-02-04T10:50:30Z</time>
      </trkpt>
      <trkpt lat="50.44214" lon="1.80061">
        <ele>114.5</ele>
        <time>2012-02-04T10:50:32Z</time>
      </trkpt>
      <trkpt lat="50.44216" lon="1.80052">
        <ele>113.4</ele>
        <time>2012-02-04T10:50:34Z</time>
      </trkpt>
      <trkpt lat="50.44208" lon="1.80049">
        <ele>109</ele>
        <time>2012-02-04T10:50:39Z</time>
      </trkpt>
      <trkpt lat="50.442" lon="1.80052">
        <ele>108.7</ele>
        <time>2012-02-04T10:50:41Z</time>
      </trkpt>
      <trkpt lat="50.44193" lon="1.80057">
        <ele>109.2</ele>
        <time>2012-02-04T10:50:43Z</time>
      </trkpt>
      <trkpt lat="50.44186" lon="1.80063">
        <ele>109.2</ele>
        <time>2012-02-04T10:50:45Z</time>
      </trkpt>
      <trkpt lat="50.44178" lon="1.80068">
        <ele>109.5</ele>
        <time>2012-02-04T10:50:47Z</time>
      </trkpt>
      <trkpt lat="50.4417" lon="1.80073">
        <ele>109.9</ele>
        <time>2012-02-04T10:50:49Z</time>
      </trkpt>
      <trkpt lat="50.44163" lon="1.80079">
        <ele>110</ele>
        <time>2012-02-04T10:50:51Z</time>
      </trkpt>
      <trkpt lat="50.44155" lon="1.80084">
        <ele>108.5</ele>
        <time>2012-02-04T10:50:53Z</time>
      </trkpt>
      <trkpt lat="50.44147" lon="1.80088">
        <ele>108.2</ele>
        <time>2012-02-04T10:50:55Z</time>
      </trkpt>
      <trkpt lat="50.44143" lon="1.80092">
        <ele>108.2</ele>
        <time>2012-02-04T10:50:56Z</time>
      </trkpt>
      <trkpt lat="50.44135" lon="1.80098">
        <ele>108.1</ele>
        <time>2012-02-04T10:50:58Z</time>
      </trkpt>
      <trkpt lat="50.44127" lon="1.80103">
        <ele>108.4</ele>
        <time>2012-02-04T10:51:00Z</time>
      </trkpt>
      <trkpt lat="50.44123" lon="1.80106">
        <ele>108.2</ele>
        <time>2012-02-04T10:51:01Z</time>
      </trkpt>
      <trkpt lat="50.44115" lon="1.80112">
        <ele>107.9</ele>
        <time>2012-02-04T10:51:03Z</time>
      </trkpt>
      <trkpt lat="50.44107" lon="1.80117">
        <ele>108.7</ele>
        <time>2012-02-04T10:51:05Z</time>
      </trkpt>
      <trkpt lat="50.44103" lon="1.80121">
        <ele>108.3</ele>
        <time>2012-02-04T10:51:06Z</time>
      </trkpt>
      <trkpt lat="50.44095" lon="1.80126">
        <ele>108.7</ele>
        <time>2012-02-04T10:51:08Z</time>
      </trkpt>
      <trkpt lat="50.44087" lon="1.80132">
        <ele>108.9</ele>
        <time>2012-02-04T10:51:10Z</time>
      </trkpt>
      <trkpt lat="50.44079" lon="1.80138">
        <ele>109.6</ele>
        <time>2012-02-04T10:51:12Z</time>
      </trkpt>
      <trkpt lat="50.44074" lon="1.80141">
        <ele>109.4</ele>
        <time>2012-02-04T10:51:13Z</time>
      </trkpt>
      <trkpt lat="50.4407" lon="1.80144">
        <ele>109.3</ele>
        <time>2012-02-04T10:51:14Z</time>
      </trkpt>
      <trkpt lat="50.44065" lon="1.80147">
        <ele>109.1</ele>
        <time>2012-02-04T10:51:15Z</time>
      </trkpt>
      <trkpt lat="50.44057" lon="1.80153">
        <ele>109.4</ele>
        <time>2012-02-04T10:51:17Z</time>
      </trkpt>
      <trkpt lat="50.44048" lon="1.80158">
        <ele>109.1</ele>
        <time>2012-02-04T10:51:19Z</time>
      </trkpt>
      <trkpt lat="50.44044" lon="1.80161">
        <ele>108.6</ele>
        <time>2012-02-04T10:51:20Z</time>
      </trkpt>
      <trkpt lat="50.44035" lon="1.80166">
        <ele>108.5</ele>
        <time>2012-02-04T10:51:22Z</time>
      </trkpt>
      <trkpt lat="50.44027" lon="1.8017">
        <ele>109</ele>
        <time>2012-02-04T10:51:24Z</time>
      </trkpt>
      <trkpt lat="50.44022" lon="1.80172">
        <ele>109</ele>
        <time>2012-02-04T10:51:25Z</time>
      </trkpt>
      <trkpt lat="50.44018" lon="1.80174">
        <ele>108.8</ele>
        <time>2012-02-04T10:51:26Z</time>
      </trkpt>
      <trkpt lat="50.4401" lon="1.80179">
        <ele>108.8</ele>
        <time>2012-02-04T10:51:28Z</time>
      </trkpt>
      <trkpt lat="50.44004" lon="1.8018">
        <ele>109</ele>
        <time>2012-02-04T10:51:29Z</time>
      </trkpt>
      <trkpt lat="50.44" lon="1.80175">
        <ele>108.9</ele>
        <time>2012-02-04T10:51:30Z</time>
      </trkpt>
      <trkpt lat="50.43996" lon="1.80176">
        <ele>108.6</ele>
        <time>2012-02-04T10:51:31Z</time>
      </trkpt>
      <trkpt lat="50.43991" lon="1.80178">
        <ele>108.6</ele>
        <time>2012-02-04T10:51:32Z</time>
      </trkpt>
      <trkpt lat="50.43984" lon="1.80181">
        <ele>108.6</ele>
        <time>2012-02-04T10:51:33Z</time>
      </trkpt>
      <trkpt lat="50.43978" lon="1.80181">
        <ele>108.7</ele>
        <time>2012-02-04T10:51:34Z</time>
      </trkpt>
      <trkpt lat="50.43974" lon="1.80176">
        <ele>108.3</ele>
        <time>2012-02-04T10:51:35Z</time>
      </trkpt>
      <trkpt lat="50.4397" lon="1.80173">
        <ele>108</ele>
        <time>2012-02-04T10:51:36Z</time>
      </trkpt>
      <trkpt lat="50.43965" lon="1.80169">
        <ele>108</ele>
        <time>2012-02-04T10:51:37Z</time>
      </trkpt>
      <trkpt lat="50.4396" lon="1.80167">
        <ele>108.1</ele>
        <time>2012-02-04T10:51:38Z</time>
      </trkpt>
      <trkpt lat="50.43955" lon="1.80163">
        <ele>108</ele>
        <time>2012-02-04T10:51:39Z</time>
      </trkpt>
      <trkpt lat="50.43951" lon="1.80159">
        <ele>108</ele>
        <time>2012-02-04T10:51:40Z</time>
      </trkpt>
      <trkpt lat="50.43948" lon="1.80153">
        <ele>107.6</ele>
        <time>2012-02-04T10:51:41Z</time>
      </trkpt>
      <trkpt lat="50.43944" lon="1.80148">
        <ele>107.5</ele>
        <time>2012-02-04T10:51:42Z</time>
      </trkpt>
      <trkpt lat="50.43938" lon="1.8014">
        <ele>106.7</ele>
        <time>2012-02-04T10:51:44Z</time>
      </trkpt>
      <trkpt lat="50.43934" lon="1.80135">
        <ele>106.7</ele>
        <time>2012-02-04T10:51:45Z</time>
      </trkpt>
      <trkpt lat="50.43931" lon="1.80128">
        <ele>106.1</ele>
        <time>2012-02-04T10:51:46Z</time>
      </trkpt>
      <trkpt lat="50.43927" lon="1.80124">
        <ele>106</ele>
        <time>2012-02-04T10:51:47Z</time>
      </trkpt>
      <trkpt lat="50.43923" lon="1.8012">
        <ele>105.5</ele>
        <time>2012-02-04T10:51:48Z</time>
      </trkpt>
      <trkpt lat="50.43919" lon="1.80115">
        <ele>105.6</ele>
        <time>2012-02-04T10:51:49Z</time>
      </trkpt>
      <trkpt lat="50.43915" lon="1.80109">
        <ele>105.1</ele>
        <time>2012-02-04T10:51:50Z</time>
      </trkpt>
      <trkpt lat="50.43911" lon="1.80104">
        <ele>105.3</ele>
        <time>2012-02-04T10:51:51Z</time>
      </trkpt>
      <trkpt lat="50.43908" lon="1.801">
        <ele>105.7</ele>
        <time>2012-02-04T10:51:52Z</time>
      </trkpt>
      <trkpt lat="50.43901" lon="1.80091">
        <ele>104.9</ele>
        <time>2012-02-04T10:51:54Z</time>
      </trkpt>
      <trkpt lat="50.43898" lon="1.80085">
        <ele>105.5</ele>
        <time>2012-02-04T10:51:55Z</time>
      </trkpt>
      <trkpt lat="50.43891" lon="1.80076">
        <ele>106.1</ele>
        <time>2012-02-04T10:51:57Z</time>
      </trkpt>
      <trkpt lat="50.43888" lon="1.8007">
        <ele>105.2</ele>
        <time>2012-02-04T10:51:58Z</time>
      </trkpt>
      <trkpt lat="50.43881" lon="1.80061">
        <ele>105.5</ele>
        <time>2012-02-04T10:52:00Z</time>
      </trkpt>
      <trkpt lat="50.43877" lon="1.80056">
        <ele>105.8</ele>
        <time>2012-02-04T10:52:01Z</time>
      </trkpt>
      <trkpt lat="50.43871" lon="1.80047">
        <ele>105.9</ele>
        <time>2012-02-04T10:52:03Z</time>
      </trkpt>
      <trkpt lat="50.43864" lon="1.80038">
        <ele>104.8</ele>
        <time>2012-02-04T10:52:05Z</time>
      </trkpt>
      <trkpt lat="50.43858" lon="1.8003">
        <ele>104.6</ele>
        <time>2012-02-04T10:52:07Z</time>
      </trkpt>
      <trkpt lat="50.43854" lon="1.80025">
        <ele>104.4</ele>
        <time>2012-02-04T10:52:08Z</time>
      </trkpt>
      <trkpt lat="50.43848" lon="1.80016">
        <ele>104.6</ele>
        <time>2012-02-04T10:52:10Z</time>
      </trkpt>
      <trkpt lat="50.43843" lon="1.80007">
        <ele>104.5</ele>
        <time>2012-02-04T10:52:12Z</time>
      </trkpt>
      <trkpt lat="50.43841" lon="1.79998">
        <ele>103.9</ele>
        <time>2012-02-04T10:52:14Z</time>
      </trkpt>
      <trkpt lat="50.43843" lon="1.7999">
        <ele>104.8</ele>
        <time>2012-02-04T10:52:17Z</time>
      </trkpt>
      <trkpt lat="50.43843" lon="1.79982">
        <ele>106.5</ele>
        <time>2012-02-04T10:53:15Z</time>
      </trkpt>
      <trkpt lat="50.43849" lon="1.79977">
        <ele>108.7</ele>
        <time>2012-02-04T10:53:17Z</time>
      </trkpt>
      <trkpt lat="50.43854" lon="1.79972">
        <ele>107.5</ele>
        <time>2012-02-04T10:53:19Z</time>
      </trkpt>
      <trkpt lat="50.43858" lon="1.79967">
        <ele>106.5</ele>
        <time>2012-02-04T10:53:21Z</time>
      </trkpt>
      <trkpt lat="50.43865" lon="1.79961">
        <ele>105.4</ele>
        <time>2012-02-04T10:53:23Z</time>
      </trkpt>
      <trkpt lat="50.4387" lon="1.79956">
        <ele>106.1</ele>
        <time>2012-02-04T10:53:25Z</time>
      </trkpt>
      <trkpt lat="50.43876" lon="1.79953">
        <ele>104.9</ele>
        <time>2012-02-04T10:53:27Z</time>
      </trkpt>
      <trkpt lat="50.43884" lon="1.79947">
        <ele>103.6</ele>
        <time>2012-02-04T10:53:29Z</time>
      </trkpt>
      <trkpt lat="50.43887" lon="1.7993">
        <ele>106.3</ele>
        <time>2012-02-04T10:53:31Z</time>
      </trkpt>
      <trkpt lat="50.4389" lon="1.79924">
        <ele>106.1</ele>
        <time>2012-02-04T10:53:32Z</time>
      </trkpt>
      <trkpt lat="50.43895" lon="1.79915">
        <ele>106.7</ele>
        <time>2012-02-04T10:53:34Z</time>
      </trkpt>
      <trkpt lat="50.43901" lon="1.79907">
        <ele>105</ele>
        <time>2012-02-04T10:53:36Z</time>
      </trkpt>
      <trkpt lat="50.43908" lon="1.79901">
        <ele>104</ele>
        <time>2012-02-04T10:53:38Z</time>
      </trkpt>
      <trkpt lat="50.43914" lon="1.79892">
        <ele>104.1</ele>
        <time>2012-02-04T10:53:40Z</time>
      </trkpt>
      <trkpt lat="50.4392" lon="1.79882">
        <ele>103.4</ele>
        <time>2012-02-04T10:53:42Z</time>
      </trkpt>
      <trkpt lat="50.43924" lon="1.79878">
        <ele>102.7</ele>
        <time>2012-02-04T10:53:43Z</time>
      </trkpt>
      <trkpt lat="50.43928" lon="1.79872">
        <ele>102.8</ele>
        <time>2012-02-04T10:53:44Z</time>
      </trkpt>
      <trkpt lat="50.4393" lon="1.7986">
        <ele>104.3</ele>
        <time>2012-02-04T10:53:45Z</time>
      </trkpt>
      <trkpt lat="50.43934" lon="1.79856">
        <ele>104.7</ele>
        <time>2012-02-04T10:53:46Z</time>
      </trkpt>
      <trkpt lat="50.43937" lon="1.7985">
        <ele>105</ele>
        <time>2012-02-04T10:53:47Z</time>
      </trkpt>
      <trkpt lat="50.4394" lon="1.79844">
        <ele>105</ele>
        <time>2012-02-04T10:53:48Z</time>
      </trkpt>
      <trkpt lat="50.43944" lon="1.79838">
        <ele>105.2</ele>
        <time>2012-02-04T10:53:49Z</time>
      </trkpt>
      <trkpt lat="50.4395" lon="1.79829">
        <ele>105</ele>
        <time>2012-02-04T10:53:51Z</time>
      </trkpt>
      <trkpt lat="50.43954" lon="1.79823">
        <ele>105.2</ele>
        <time>2012-02-04T10:53:52Z</time>
      </trkpt>
      <trkpt lat="50.43961" lon="1.79815">
        <ele>105.4</ele>
        <time>2012-02-04T10:53:54Z</time>
      </trkpt>
      <trkpt lat="50.43965" lon="1.7981">
        <ele>105.5</ele>
        <time>2012-02-04T10:53:55Z</time>
      </trkpt>
      <trkpt lat="50.43969" lon="1.79804">
        <ele>106</ele>
        <time>2012-02-04T10:53:56Z</time>
      </trkpt>
      <trkpt lat="50.43972" lon="1.79798">
        <ele>104.9</ele>
        <time>2012-02-04T10:53:57Z</time>
      </trkpt>
      <trkpt lat="50.43975" lon="1.79792">
        <ele>105.6</ele>
        <time>2012-02-04T10:53:58Z</time>
      </trkpt>
      <trkpt lat="50.43982" lon="1.79784">
        <ele>105.2</ele>
        <time>2012-02-04T10:54:00Z</time>
      </trkpt>
      <trkpt lat="50.43988" lon="1.79775">
        <ele>105.8</ele>
        <time>2012-02-04T10:54:02Z</time>
      </trkpt>
      <trkpt lat="50.43995" lon="1.79765">
        <ele>106.5</ele>
        <time>2012-02-04T10:54:04Z</time>
      </trkpt>
      <trkpt lat="50.44002" lon="1.79755">
        <ele>106.8</ele>
        <time>2012-02-04T10:54:06Z</time>
      </trkpt>
      <trkpt lat="50.44007" lon="1.7975">
        <ele>106.2</ele>
        <time>2012-02-04T10:54:07Z</time>
      </trkpt>
      <trkpt lat="50.44012" lon="1.79746">
        <ele>106.4</ele>
        <time>2012-02-04T10:54:08Z</time>
      </trkpt>
      <trkpt lat="50.44019" lon="1.79736">
        <ele>106.7</ele>
        <time>2012-02-04T10:54:10Z</time>
      </trkpt>
      <trkpt lat="50.44023" lon="1.79728">
        <ele>107.2</ele>
        <time>2012-02-04T10:54:11Z</time>
      </trkpt>
      <trkpt lat="50.44026" lon="1.79721">
        <ele>107.3</ele>
        <time>2012-02-04T10:54:12Z</time>
      </trkpt>
      <trkpt lat="50.4403" lon="1.79712">
        <ele>106.3</ele>
        <time>2012-02-04T10:54:13Z</time>
      </trkpt>
      <trkpt lat="50.44034" lon="1.79705">
        <ele>105.9</ele>
        <time>2012-02-04T10:54:14Z</time>
      </trkpt>
      <trkpt lat="50.44038" lon="1.79697">
        <ele>105.1</ele>
        <time>2012-02-04T10:54:15Z</time>
      </trkpt>
      <trkpt lat="50.44041" lon="1.7969">
        <ele>105.7</ele>
        <time>2012-02-04T10:54:16Z</time>
      </trkpt>
      <trkpt lat="50.44046" lon="1.79683">
        <ele>105.9</ele>
        <time>2012-02-04T10:54:17Z</time>
      </trkpt>
      <trkpt lat="50.44051" lon="1.79677">
        <ele>105.5</ele>
        <time>2012-02-04T10:54:18Z</time>
      </trkpt>
      <trkpt lat="50.44056" lon="1.79669">
        <ele>105.3</ele>
        <time>2012-02-04T10:54:19Z</time>
      </trkpt>
      <trkpt lat="50.4406" lon="1.79663">
        <ele>105.2</ele>
        <time>2012-02-04T10:54:20Z</time>
      </trkpt>
      <trkpt lat="50.44064" lon="1.79656">
        <ele>105.3</ele>
        <time>2012-02-04T10:54:21Z</time>
      </trkpt>
      <trkpt lat="50.44069" lon="1.7965">
        <ele>105.6</ele>
        <time>2012-02-04T10:54:22Z</time>
      </trkpt>
      <trkpt lat="50.44073" lon="1.79643">
        <ele>105.8</ele>
        <time>2012-02-04T10:54:23Z</time>
      </trkpt>
      <trkpt lat="50.44077" lon="1.79637">
        <ele>105.8</ele>
        <time>2012-02-04T10:54:24Z</time>
      </trkpt>
      <trkpt lat="50.44082" lon="1.79629">
        <ele>105.2</ele>
        <time>2012-02-04T10:54:25Z</time>
      </trkpt>
      <trkpt lat="50.44086" lon="1.79622">
        <ele>105.1</ele>
        <time>2012-02-04T10:54:26Z</time>
      </trkpt>
      <trkpt lat="50.44091" lon="1.79615">
        <ele>104.5</ele>
        <time>2012-02-04T10:54:27Z</time>
      </trkpt>
      <trkpt lat="50.44096" lon="1.79609">
        <ele>104.2</ele>
        <time>2012-02-04T10:54:28Z</time>
      </trkpt>
      <trkpt lat="50.441" lon="1.79602">
        <ele>104.6</ele>
        <time>2012-02-04T10:54:29Z</time>
      </trkpt>
      <trkpt lat="50.44104" lon="1.79595">
        <ele>104.7</ele>
        <time>2012-02-04T10:54:30Z</time>
      </trkpt>
      <trkpt lat="50.44109" lon="1.79588">
        <ele>105.2</ele>
        <time>2012-02-04T10:54:31Z</time>
      </trkpt>
      <trkpt lat="50.44113" lon="1.79581">
        <ele>105.1</ele>
        <time>2012-02-04T10:54:32Z</time>
      </trkpt>
      <trkpt lat="50.44117" lon="1.79574">
        <ele>105.5</ele>
        <time>2012-02-04T10:54:33Z</time>
      </trkpt>
      <trkpt lat="50.44122" lon="1.79568">
        <ele>105.4</ele>
        <time>2012-02-04T10:54:34Z</time>
      </trkpt>
      <trkpt lat="50.44127" lon="1.7956">
        <ele>105.5</ele>
        <time>2012-02-04T10:54:35Z</time>
      </trkpt>
      <trkpt lat="50.44131" lon="1.79553">
        <ele>105.8</ele>
        <time>2012-02-04T10:54:36Z</time>
      </trkpt>
      <trkpt lat="50.44136" lon="1.79546">
        <ele>105.5</ele>
        <time>2012-02-04T10:54:37Z</time>
      </trkpt>
      <trkpt lat="50.4414" lon="1.79538">
        <ele>104.7</ele>
        <time>2012-02-04T10:54:38Z</time>
      </trkpt>
      <trkpt lat="50.44145" lon="1.79531">
        <ele>104.5</ele>
        <time>2012-02-04T10:54:39Z</time>
      </trkpt>
      <trkpt lat="50.44149" lon="1.79524">
        <ele>104.6</ele>
        <time>2012-02-04T10:54:40Z</time>
      </trkpt>
      <trkpt lat="50.44153" lon="1.79517">
        <ele>104.4</ele>
        <time>2012-02-04T10:54:41Z</time>
      </trkpt>
      <trkpt lat="50.44158" lon="1.79509">
        <ele>104.6</ele>
        <time>2012-02-04T10:54:42Z</time>
      </trkpt>
      <trkpt lat="50.44163" lon="1.79502">
        <ele>104.2</ele>
        <time>2012-02-04T10:54:43Z</time>
      </trkpt>
      <trkpt lat="50.44166" lon="1.79496">
        <ele>103.8</ele>
        <time>2012-02-04T10:54:44Z</time>
      </trkpt>
      <trkpt lat="50.4417" lon="1.79487">
        <ele>102.9</ele>
        <time>2012-02-04T10:54:45Z</time>
      </trkpt>
      <trkpt lat="50.44174" lon="1.7948">
        <ele>102.6</ele>
        <time>2012-02-04T10:54:46Z</time>
      </trkpt>
      <trkpt lat="50.44177" lon="1.79473">
        <ele>102.8</ele>
        <time>2012-02-04T10:54:47Z</time>
      </trkpt>
      <trkpt lat="50.44181" lon="1.79465">
        <ele>103</ele>
        <time>2012-02-04T10:54:48Z</time>
      </trkpt>
      <trkpt lat="50.44185" lon="1.79456">
        <ele>102.7</ele>
        <time>2012-02-04T10:54:49Z</time>
      </trkpt>
      <trkpt lat="50.4419" lon="1.79447">
        <ele>102.5</ele>
        <time>2012-02-04T10:54:50Z</time>
      </trkpt>
      <trkpt lat="50.44193" lon="1.79438">
        <ele>102.4</ele>
        <time>2012-02-04T10:54:51Z</time>
      </trkpt>
      <trkpt lat="50.44196" lon="1.7943">
        <ele>102.3</ele>
        <time>2012-02-04T10:54:52Z</time>
      </trkpt>
      <trkpt lat="50.442" lon="1.79421">
        <ele>102.1</ele>
        <time>2012-02-04T10:54:53Z</time>
      </trkpt>
      <trkpt lat="50.44204" lon="1.79414">
        <ele>101.8</ele>
        <time>2012-02-04T10:54:54Z</time>
      </trkpt>
      <trkpt lat="50.44208" lon="1.79405">
        <ele>101.8</ele>
        <time>2012-02-04T10:54:55Z</time>
      </trkpt>
      <trkpt lat="50.44212" lon="1.79396">
        <ele>101.9</ele>
        <time>2012-02-04T10:54:56Z</time>
      </trkpt>
      <trkpt lat="50.44216" lon="1.79387">
        <ele>101.3</ele>
        <time>2012-02-04T10:54:57Z</time>
      </trkpt>
      <trkpt lat="50.4422" lon="1.79379">
        <ele>101.4</ele>
        <time>2012-02-04T10:54:58Z</time>
      </trkpt>
      <trkpt lat="50.44224" lon="1.79371">
        <ele>100.9</ele>
        <time>2012-02-04T10:54:59Z</time>
      </trkpt>
      <trkpt lat="50.44227" lon="1.79363">
        <ele>101.7</ele>
        <time>2012-02-04T10:55:00Z</time>
      </trkpt>
      <trkpt lat="50.44232" lon="1.79356">
        <ele>101.6</ele>
        <time>2012-02-04T10:55:01Z</time>
      </trkpt>
      <trkpt lat="50.44236" lon="1.79347">
        <ele>102.3</ele>
        <time>2012-02-04T10:55:02Z</time>
      </trkpt>
      <trkpt lat="50.44239" lon="1.79338">
        <ele>102.5</ele>
        <time>2012-02-04T10:55:03Z</time>
      </trkpt>
      <trkpt lat="50.44243" lon="1.79331">
        <ele>102.6</ele>
        <time>2012-02-04T10:55:04Z</time>
      </trkpt>
      <trkpt lat="50.44246" lon="1.79322">
        <ele>102.8</ele>
        <time>2012-02-04T10:55:05Z</time>
      </trkpt>
      <trkpt lat="50.4425" lon="1.79314">
        <ele>102.4</ele>
        <time>2012-02-04T10:55:06Z</time>
      </trkpt>
      <trkpt lat="50.44253" lon="1.79305">
        <ele>102.3</ele>
        <time>2012-02-04T10:55:07Z</time>
      </trkpt>
      <trkpt lat="50.44257" lon="1.79296">
        <ele>102.4</ele>
        <time>2012-02-04T10:55:08Z</time>
      </trkpt>
      <trkpt lat="50.4426" lon="1.79288">
        <ele>103.3</ele>
        <time>2012-02-04T10:55:09Z</time>
      </trkpt>
      <trkpt lat="50.44264" lon="1.7928">
        <ele>103.9</ele>
        <time>2012-02-04T10:55:10Z</time>
      </trkpt>
      <trkpt lat="50.44267" lon="1.79272">
        <ele>104.2</ele>
        <time>2012-02-04T10:55:11Z</time>
      </trkpt>
      <trkpt lat="50.4427" lon="1.79263">
        <ele>104.4</ele>
        <time>2012-02-04T10:55:12Z</time>
      </trkpt>
      <trkpt lat="50.44274" lon="1.79255">
        <ele>104.3</ele>
        <time>2012-02-04T10:55:13Z</time>
      </trkpt>
      <trkpt lat="50.44278" lon="1.79247">
        <ele>103.6</ele>
        <time>2012-02-04T10:55:14Z</time>
      </trkpt>
      <trkpt lat="50.44282" lon="1.79238">
        <ele>103.6</ele>
        <time>2012-02-04T10:55:15Z</time>
      </trkpt>
      <trkpt lat="50.44286" lon="1.79229">
        <ele>103.7</ele>
        <time>2012-02-04T10:55:16Z</time>
      </trkpt>
      <trkpt lat="50.44289" lon="1.7922">
        <ele>104</ele>
        <time>2012-02-04T10:55:17Z</time>
      </trkpt>
      <trkpt lat="50.44293" lon="1.79212">
        <ele>104.3</ele>
        <time>2012-02-04T10:55:18Z</time>
      </trkpt>
      <trkpt lat="50.44296" lon="1.79203">
        <ele>104.4</ele>
        <time>2012-02-04T10:55:19Z</time>
      </trkpt>
      <trkpt lat="50.443" lon="1.79194">
        <ele>104.6</ele>
        <time>2012-02-04T10:55:20Z</time>
      </trkpt>
      <trkpt lat="50.44302" lon="1.79184">
        <ele>104.4</ele>
        <time>2012-02-04T10:55:21Z</time>
      </trkpt>
      <trkpt lat="50.44306" lon="1.79176">
        <ele>104.9</ele>
        <time>2012-02-04T10:55:22Z</time>
      </trkpt>
      <trkpt lat="50.4431" lon="1.79168">
        <ele>105</ele>
        <time>2012-02-04T10:55:23Z</time>
      </trkpt>
      <trkpt lat="50.44313" lon="1.79159">
        <ele>105.5</ele>
        <time>2012-02-04T10:55:24Z</time>
      </trkpt>
      <trkpt lat="50.44316" lon="1.79148">
        <ele>105.6</ele>
        <time>2012-02-04T10:55:25Z</time>
      </trkpt>
      <trkpt lat="50.44318" lon="1.79137">
        <ele>106</ele>
        <time>2012-02-04T10:55:26Z</time>
      </trkpt>
      <trkpt lat="50.4432" lon="1.79125">
        <ele>107</ele>
        <time>2012-02-04T10:55:27Z</time>
      </trkpt>
      <trkpt lat="50.44323" lon="1.79113">
        <ele>107.7</ele>
        <time>2012-02-04T10:55:28Z</time>
      </trkpt>
      <trkpt lat="50.44327" lon="1.79107">
        <ele>108</ele>
        <time>2012-02-04T10:55:29Z</time>
      </trkpt>
      <trkpt lat="50.44331" lon="1.79099">
        <ele>108.4</ele>
        <time>2012-02-04T10:55:30Z</time>
      </trkpt>
      <trkpt lat="50.44335" lon="1.7909">
        <ele>108.7</ele>
        <time>2012-02-04T10:55:31Z</time>
      </trkpt>
      <trkpt lat="50.44338" lon="1.79082">
        <ele>109.1</ele>
        <time>2012-02-04T10:55:32Z</time>
      </trkpt>
      <trkpt lat="50.44342" lon="1.79074">
        <ele>109.8</ele>
        <time>2012-02-04T10:55:33Z</time>
      </trkpt>
      <trkpt lat="50.44345" lon="1.79065">
        <ele>110.4</ele>
        <time>2012-02-04T10:55:34Z</time>
      </trkpt>
      <trkpt lat="50.44348" lon="1.79057">
        <ele>110.7</ele>
        <time>2012-02-04T10:55:35Z</time>
      </trkpt>
      <trkpt lat="50.44351" lon="1.79049">
        <ele>111.2</ele>
        <time>2012-02-04T10:55:36Z</time>
      </trkpt>
      <trkpt lat="50.44354" lon="1.7904">
        <ele>111.5</ele>
        <time>2012-02-04T10:55:37Z</time>
      </trkpt>
      <trkpt lat="50.44357" lon="1.79033">
        <ele>111.9</ele>
        <time>2012-02-04T10:55:38Z</time>
      </trkpt>
      <trkpt lat="50.44361" lon="1.79023">
        <ele>112.6</ele>
        <time>2012-02-04T10:55:39Z</time>
      </trkpt>
      <trkpt lat="50.44364" lon="1.79015">
        <ele>113.3</ele>
        <time>2012-02-04T10:55:40Z</time>
      </trkpt>
      <trkpt lat="50.44367" lon="1.79006">
        <ele>113.8</ele>
        <time>2012-02-04T10:55:41Z</time>
      </trkpt>
      <trkpt lat="50.4437" lon="1.78998">
        <ele>114.8</ele>
        <time>2012-02-04T10:55:42Z</time>
      </trkpt>
      <trkpt lat="50.44374" lon="1.78988">
        <ele>115.1</ele>
        <time>2012-02-04T10:55:43Z</time>
      </trkpt>
      <trkpt lat="50.44377" lon="1.7898">
        <ele>115.6</ele>
        <time>2012-02-04T10:55:44Z</time>
      </trkpt>
      <trkpt lat="50.44381" lon="1.78971">
        <ele>116.2</ele>
        <time>2012-02-04T10:55:45Z</time>
      </trkpt>
      <trkpt lat="50.44385" lon="1.78961">
        <ele>114.6</ele>
        <time>2012-02-04T10:55:46Z</time>
      </trkpt>
      <trkpt lat="50.44388" lon="1.78952">
        <ele>114.9</ele>
        <time>2012-02-04T10:55:47Z</time>
      </trkpt>
      <trkpt lat="50.44392" lon="1.78942">
        <ele>114.1</ele>
        <time>2012-02-04T10:55:48Z</time>
      </trkpt>
      <trkpt lat="50.44396" lon="1.78932">
        <ele>113.5</ele>
        <time>2012-02-04T10:55:49Z</time>
      </trkpt>
      <trkpt lat="50.444" lon="1.78922">
        <ele>112.6</ele>
        <time>2012-02-04T10:55:50Z</time>
      </trkpt>
      <trkpt lat="50.44403" lon="1.78913">
        <ele>112.5</ele>
        <time>2012-02-04T10:55:51Z</time>
      </trkpt>
      <trkpt lat="50.44407" lon="1.78903">
        <ele>112.5</ele>
        <time>2012-02-04T10:55:52Z</time>
      </trkpt>
      <trkpt lat="50.44411" lon="1.78894">
        <ele>112.8</ele>
        <time>2012-02-04T10:55:53Z</time>
      </trkpt>
      <trkpt lat="50.44415" lon="1.78886">
        <ele>112.9</ele>
        <time>2012-02-04T10:55:54Z</time>
      </trkpt>
      <trkpt lat="50.44418" lon="1.78876">
        <ele>112.6</ele>
        <time>2012-02-04T10:55:55Z</time>
      </trkpt>
      <trkpt lat="50.44422" lon="1.78867">
        <ele>112.6</ele>
        <time>2012-02-04T10:55:56Z</time>
      </trkpt>
      <trkpt lat="50.44425" lon="1.78858">
        <ele>112.8</ele>
        <time>2012-02-04T10:55:57Z</time>
      </trkpt>
      <trkpt lat="50.4443" lon="1.78847">
        <ele>112.8</ele>
        <time>2012-02-04T10:55:58Z</time>
      </trkpt>
      <trkpt lat="50.44434" lon="1.78838">
        <ele>112</ele>
        <time>2012-02-04T10:55:59Z</time>
      </trkpt>
      <trkpt lat="50.44437" lon="1.78828">
        <ele>112.4</ele>
        <time>2012-02-04T10:56:00Z</time>
      </trkpt>
      <trkpt lat="50.44441" lon="1.78819">
        <ele>112.7</ele>
        <time>2012-02-04T10:56:01Z</time>
      </trkpt>
      <trkpt lat="50.44445" lon="1.7881">
        <ele>112.8</ele>
        <time>2012-02-04T10:56:02Z</time>
      </trkpt>
      <trkpt lat="50.44448" lon="1.788">
        <ele>112.3</ele>
        <time>2012-02-04T10:56:03Z</time>
      </trkpt>
      <trkpt lat="50.44452" lon="1.78791">
        <ele>112.3</ele>
        <time>2012-02-04T10:56:04Z</time>
      </trkpt>
      <trkpt lat="50.44456" lon="1.78781">
        <ele>112.2</ele>
        <time>2012-02-04T10:56:05Z</time>
      </trkpt>
      <trkpt lat="50.4446" lon="1.78772">
        <ele>112.2</ele>
        <time>2012-02-04T10:56:06Z</time>
      </trkpt>
      <trkpt lat="50.44464" lon="1.78763">
        <ele>111.5</ele>
        <time>2012-02-04T10:56:07Z</time>
      </trkpt>
      <trkpt lat="50.44468" lon="1.78753">
        <ele>111.3</ele>
        <time>2012-02-04T10:56:08Z</time>
      </trkpt>
      <trkpt lat="50.44471" lon="1.78745">
        <ele>111.2</ele>
        <time>2012-02-04T10:56:09Z</time>
      </trkpt>
      <trkpt lat="50.44475" lon="1.78735">
        <ele>111.2</ele>
        <time>2012-02-04T10:56:10Z</time>
      </trkpt>
      <trkpt lat="50.4448" lon="1.78727">
        <ele>111.3</ele>
        <time>2012-02-04T10:56:11Z</time>
      </trkpt>
      <trkpt lat="50.44484" lon="1.78717">
        <ele>111.4</ele>
        <time>2012-02-04T10:56:12Z</time>
      </trkpt>
      <trkpt lat="50.44487" lon="1.78709">
        <ele>111.1</ele>
        <time>2012-02-04T10:56:13Z</time>
      </trkpt>
      <trkpt lat="50.44491" lon="1.78702">
        <ele>111.8</ele>
        <time>2012-02-04T10:56:14Z</time>
      </trkpt>
      <trkpt lat="50.44494" lon="1.78691">
        <ele>112.4</ele>
        <time>2012-02-04T10:56:15Z</time>
      </trkpt>
      <trkpt lat="50.44498" lon="1.78681">
        <ele>111.7</ele>
        <time>2012-02-04T10:56:16Z</time>
      </trkpt>
      <trkpt lat="50.44502" lon="1.78672">
        <ele>111.3</ele>
        <time>2012-02-04T10:56:17Z</time>
      </trkpt>
      <trkpt lat="50.44505" lon="1.78663">
        <ele>111.3</ele>
        <time>2012-02-04T10:56:18Z</time>
      </trkpt>
      <trkpt lat="50.44509" lon="1.78654">
        <ele>111.2</ele>
        <time>2012-02-04T10:56:19Z</time>
      </trkpt>
      <trkpt lat="50.44513" lon="1.78643">
        <ele>111.1</ele>
        <time>2012-02-04T10:56:20Z</time>
      </trkpt>
      <trkpt lat="50.44517" lon="1.78633">
        <ele>109.8</ele>
        <time>2012-02-04T10:56:21Z</time>
      </trkpt>
      <trkpt lat="50.44521" lon="1.78625">
        <ele>109.5</ele>
        <time>2012-02-04T10:56:22Z</time>
      </trkpt>
      <trkpt lat="50.44525" lon="1.78614">
        <ele>110</ele>
        <time>2012-02-04T10:56:23Z</time>
      </trkpt>
      <trkpt lat="50.4453" lon="1.78604">
        <ele>110.3</ele>
        <time>2012-02-04T10:56:24Z</time>
      </trkpt>
      <trkpt lat="50.44534" lon="1.78596">
        <ele>110.3</ele>
        <time>2012-02-04T10:56:25Z</time>
      </trkpt>
      <trkpt lat="50.44538" lon="1.78586">
        <ele>110.2</ele>
        <time>2012-02-04T10:56:26Z</time>
      </trkpt>
      <trkpt lat="50.44541" lon="1.78576">
        <ele>110.4</ele>
        <time>2012-02-04T10:56:27Z</time>
      </trkpt>
      <trkpt lat="50.44545" lon="1.78566">
        <ele>110.4</ele>
        <time>2012-02-04T10:56:28Z</time>
      </trkpt>
      <trkpt lat="50.4455" lon="1.78557">
        <ele>110.3</ele>
        <time>2012-02-04T10:56:29Z</time>
      </trkpt>
      <trkpt lat="50.44554" lon="1.78547">
        <ele>110.2</ele>
        <time>2012-02-04T10:56:30Z</time>
      </trkpt>
      <trkpt lat="50.44559" lon="1.78538">
        <ele>110.2</ele>
        <time>2012-02-04T10:56:31Z</time>
      </trkpt>
      <trkpt lat="50.44563" lon="1.78528">
        <ele>110</ele>
        <time>2012-02-04T10:56:32Z</time>
      </trkpt>
      <trkpt lat="50.44567" lon="1.78519">
        <ele>109.8</ele>
        <time>2012-02-04T10:56:33Z</time>
      </trkpt>
      <trkpt lat="50.44571" lon="1.7851">
        <ele>109.8</ele>
        <time>2012-02-04T10:56:34Z</time>
      </trkpt>
      <trkpt lat="50.44576" lon="1.785">
        <ele>109.9</ele>
        <time>2012-02-04T10:56:35Z</time>
      </trkpt>
      <trkpt lat="50.4458" lon="1.78491">
        <ele>110.1</ele>
        <time>2012-02-04T10:56:36Z</time>
      </trkpt>
      <trkpt lat="50.44584" lon="1.78481">
        <ele>110</ele>
        <time>2012-02-04T10:56:37Z</time>
      </trkpt>
      <trkpt lat="50.44588" lon="1.78472">
        <ele>110</ele>
        <time>2012-02-04T10:56:38Z</time>
      </trkpt>
      <trkpt lat="50.44592" lon="1.78462">
        <ele>109.8</ele>
        <time>2012-02-04T10:56:39Z</time>
      </trkpt>
      <trkpt lat="50.44596" lon="1.78453">
        <ele>109.8</ele>
        <time>2012-02-04T10:56:40Z</time>
      </trkpt>
      <trkpt lat="50.446" lon="1.78444">
        <ele>110.1</ele>
        <time>2012-02-04T10:56:41Z</time>
      </trkpt>
      <trkpt lat="50.44604" lon="1.78436">
        <ele>110</ele>
        <time>2012-02-04T10:56:42Z</time>
      </trkpt>
      <trkpt lat="50.44608" lon="1.78426">
        <ele>110.1</ele>
        <time>2012-02-04T10:56:43Z</time>
      </trkpt>
      <trkpt lat="50.44612" lon="1.78417">
        <ele>110.3</ele>
        <time>2012-02-04T10:56:44Z</time>
      </trkpt>
      <trkpt lat="50.44616" lon="1.78409">
        <ele>110.5</ele>
        <time>2012-02-04T10:56:45Z</time>
      </trkpt>
      <trkpt lat="50.44619" lon="1.784">
        <ele>110.4</ele>
        <time>2012-02-04T10:56:46Z</time>
      </trkpt>
      <trkpt lat="50.44622" lon="1.78392">
        <ele>110.6</ele>
        <time>2012-02-04T10:56:47Z</time>
      </trkpt>
      <trkpt lat="50.44626" lon="1.78383">
        <ele>110.8</ele>
        <time>2012-02-04T10:56:48Z</time>
      </trkpt>
      <trkpt lat="50.4463" lon="1.78374">
        <ele>111.1</ele>
        <time>2012-02-04T10:56:49Z</time>
      </trkpt>
      <trkpt lat="50.44633" lon="1.78364">
        <ele>110.9</ele>
        <time>2012-02-04T10:56:50Z</time>
      </trkpt>
      <trkpt lat="50.44638" lon="1.78357">
        <ele>111.1</ele>
        <time>2012-02-04T10:56:51Z</time>
      </trkpt>
      <trkpt lat="50.44641" lon="1.78348">
        <ele>111.4</ele>
        <time>2012-02-04T10:56:52Z</time>
      </trkpt>
      <trkpt lat="50.44645" lon="1.7834">
        <ele>111.7</ele>
        <time>2012-02-04T10:56:53Z</time>
      </trkpt>
      <trkpt lat="50.4465" lon="1.78332">
        <ele>111.7</ele>
        <time>2012-02-04T10:56:54Z</time>
      </trkpt>
      <trkpt lat="50.44653" lon="1.78325">
        <ele>111.8</ele>
        <time>2012-02-04T10:56:55Z</time>
      </trkpt>
      <trkpt lat="50.44657" lon="1.78317">
        <ele>112.1</ele>
        <time>2012-02-04T10:56:56Z</time>
      </trkpt>
      <trkpt lat="50.4466" lon="1.78308">
        <ele>112.3</ele>
        <time>2012-02-04T10:56:57Z</time>
      </trkpt>
      <trkpt lat="50.44664" lon="1.78299">
        <ele>112.7</ele>
        <time>2012-02-04T10:56:58Z</time>
      </trkpt>
      <trkpt lat="50.44668" lon="1.7829">
        <ele>112.8</ele>
        <time>2012-02-04T10:56:59Z</time>
      </trkpt>
      <trkpt lat="50.44671" lon="1.78281">
        <ele>113.1</ele>
        <time>2012-02-04T10:57:00Z</time>
      </trkpt>
      <trkpt lat="50.44675" lon="1.78272">
        <ele>113.3</ele>
        <time>2012-02-04T10:57:01Z</time>
      </trkpt>
      <trkpt lat="50.44679" lon="1.78264">
        <ele>113.8</ele>
        <time>2012-02-04T10:57:02Z</time>
      </trkpt>
      <trkpt lat="50.44683" lon="1.78255">
        <ele>114.2</ele>
        <time>2012-02-04T10:57:03Z</time>
      </trkpt>
      <trkpt lat="50.44686" lon="1.78246">
        <ele>114.3</ele>
        <time>2012-02-04T10:57:04Z</time>
      </trkpt>
      <trkpt lat="50.4469" lon="1.78238">
        <ele>114.5</ele>
        <time>2012-02-04T10:57:05Z</time>
      </trkpt>
      <trkpt lat="50.44694" lon="1.78228">
        <ele>114.6</ele>
        <time>2012-02-04T10:57:06Z</time>
      </trkpt>
      <trkpt lat="50.44698" lon="1.7822">
        <ele>115.1</ele>
        <time>2012-02-04T10:57:07Z</time>
      </trkpt>
      <trkpt lat="50.44702" lon="1.78211">
        <ele>115.2</ele>
        <time>2012-02-04T10:57:08Z</time>
      </trkpt>
      <trkpt lat="50.44705" lon="1.782">
        <ele>114.7</ele>
        <time>2012-02-04T10:57:09Z</time>
      </trkpt>
      <trkpt lat="50.44711" lon="1.78193">
        <ele>115.1</ele>
        <time>2012-02-04T10:57:10Z</time>
      </trkpt>
      <trkpt lat="50.44715" lon="1.78185">
        <ele>115.1</ele>
        <time>2012-02-04T10:57:11Z</time>
      </trkpt>
      <trkpt lat="50.44718" lon="1.78175">
        <ele>115.3</ele>
        <time>2012-02-04T10:57:12Z</time>
      </trkpt>
      <trkpt lat="50.44721" lon="1.78167">
        <ele>115.3</ele>
        <time>2012-02-04T10:57:13Z</time>
      </trkpt>
      <trkpt lat="50.44725" lon="1.78157">
        <ele>115.1</ele>
        <time>2012-02-04T10:57:14Z</time>
      </trkpt>
      <trkpt lat="50.44729" lon="1.78145">
        <ele>114.8</ele>
        <time>2012-02-04T10:57:15Z</time>
      </trkpt>
      <trkpt lat="50.44732" lon="1.78136">
        <ele>114.6</ele>
        <time>2012-02-04T10:57:16Z</time>
      </trkpt>
      <trkpt lat="50.44736" lon="1.78128">
        <ele>114.7</ele>
        <time>2012-02-04T10:57:17Z</time>
      </trkpt>
      <trkpt lat="50.4474" lon="1.78117">
        <ele>115.1</ele>
        <time>2012-02-04T10:57:18Z</time>
      </trkpt>
      <trkpt lat="50.44743" lon="1.78106">
        <ele>114.6</ele>
        <time>2012-02-04T10:57:19Z</time>
      </trkpt>
      <trkpt lat="50.4475" lon="1.78104">
        <ele>115</ele>
        <time>2012-02-04T10:57:20Z</time>
      </trkpt>
      <trkpt lat="50.44754" lon="1.78097">
        <ele>114.8</ele>
        <time>2012-02-04T10:57:21Z</time>
      </trkpt>
      <trkpt lat="50.44759" lon="1.78085">
        <ele>114.3</ele>
        <time>2012-02-04T10:57:22Z</time>
      </trkpt>
      <trkpt lat="50.44763" lon="1.78076">
        <ele>115.2</ele>
        <time>2012-02-04T10:57:23Z</time>
      </trkpt>
      <trkpt lat="50.44767" lon="1.78067">
        <ele>115.2</ele>
        <time>2012-02-04T10:57:24Z</time>
      </trkpt>
      <trkpt lat="50.4477" lon="1.78059">
        <ele>115.1</ele>
        <time>2012-02-04T10:57:25Z</time>
      </trkpt>
      <trkpt lat="50.44775" lon="1.78052">
        <ele>115</ele>
        <time>2012-02-04T10:57:26Z</time>
      </trkpt>
      <trkpt lat="50.44778" lon="1.78042">
        <ele>115.3</ele>
        <time>2012-02-04T10:57:27Z</time>
      </trkpt>
      <trkpt lat="50.44782" lon="1.78032">
        <ele>115.2</ele>
        <time>2012-02-04T10:57:28Z</time>
      </trkpt>
      <trkpt lat="50.44789" lon="1.78029">
        <ele>114.9</ele>
        <time>2012-02-04T10:57:29Z</time>
      </trkpt>
      <trkpt lat="50.44792" lon="1.7802">
        <ele>115.1</ele>
        <time>2012-02-04T10:57:30Z</time>
      </trkpt>
      <trkpt lat="50.44798" lon="1.78018">
        <ele>114.4</ele>
        <time>2012-02-04T10:57:31Z</time>
      </trkpt>
      <trkpt lat="50.44803" lon="1.78007">
        <ele>114.9</ele>
        <time>2012-02-04T10:57:32Z</time>
      </trkpt>
      <trkpt lat="50.44807" lon="1.77995">
        <ele>115.2</ele>
        <time>2012-02-04T10:57:33Z</time>
      </trkpt>
      <trkpt lat="50.44812" lon="1.77986">
        <ele>114.9</ele>
        <time>2012-02-04T10:57:34Z</time>
      </trkpt>
      <trkpt lat="50.4482" lon="1.77978">
        <ele>114.3</ele>
        <time>2012-02-04T10:57:35Z</time>
      </trkpt>
      <trkpt lat="50.44825" lon="1.77971">
        <ele>113.7</ele>
        <time>2012-02-04T10:57:36Z</time>
      </trkpt>
      <trkpt lat="50.4483" lon="1.77964">
        <ele>113.7</ele>
        <time>2012-02-04T10:57:37Z</time>
      </trkpt>
      <trkpt lat="50.44836" lon="1.77955">
        <ele>113.6</ele>
        <time>2012-02-04T10:57:38Z</time>
      </trkpt>
      <trkpt lat="50.44842" lon="1.77949">
        <ele>114.7</ele>
        <time>2012-02-04T10:57:39Z</time>
      </trkpt>
      <trkpt lat="50.44851" lon="1.77936">
        <ele>114.2</ele>
        <time>2012-02-04T10:57:40Z</time>
      </trkpt>
      <trkpt lat="50.44861" lon="1.7792">
        <ele>113.2</ele>
        <time>2012-02-04T10:57:41Z</time>
      </trkpt>
      <trkpt lat="50.44868" lon="1.7791">
        <ele>113.3</ele>
        <time>2012-02-04T10:57:42Z</time>
      </trkpt>
      <trkpt lat="50.44873" lon="1.77906">
        <ele>113.2</ele>
        <time>2012-02-04T10:57:43Z</time>
      </trkpt>
      <trkpt lat="50.44879" lon="1.77898">
        <ele>113.1</ele>
        <time>2012-02-04T10:57:44Z</time>
      </trkpt>
      <trkpt lat="50.4488" lon="1.77888">
        <ele>114.2</ele>
        <time>2012-02-04T10:57:45Z</time>
      </trkpt>
      <trkpt lat="50.44881" lon="1.77879">
        <ele>115.2</ele>
        <time>2012-02-04T10:57:46Z</time>
      </trkpt>
      <trkpt lat="50.44887" lon="1.77862">
        <ele>113</ele>
        <time>2012-02-04T10:57:47Z</time>
      </trkpt>
      <trkpt lat="50.44892" lon="1.77849">
        <ele>112.4</ele>
        <time>2012-02-04T10:57:48Z</time>
      </trkpt>
      <trkpt lat="50.44898" lon="1.77846">
        <ele>112.9</ele>
        <time>2012-02-04T10:57:50Z</time>
      </trkpt>
      <trkpt lat="50.44901" lon="1.7784">
        <ele>113</ele>
        <time>2012-02-04T10:57:51Z</time>
      </trkpt>
      <trkpt lat="50.44906" lon="1.77833">
        <ele>111.5</ele>
        <time>2012-02-04T10:57:52Z</time>
      </trkpt>
      <trkpt lat="50.4491" lon="1.77824">
        <ele>110.3</ele>
        <time>2012-02-04T10:57:53Z</time>
      </trkpt>
      <trkpt lat="50.44916" lon="1.77816">
        <ele>109.4</ele>
        <time>2012-02-04T10:57:54Z</time>
      </trkpt>
      <trkpt lat="50.44921" lon="1.77808">
        <ele>108</ele>
        <time>2012-02-04T10:57:55Z</time>
      </trkpt>
      <trkpt lat="50.44925" lon="1.778">
        <ele>107.6</ele>
        <time>2012-02-04T10:57:56Z</time>
      </trkpt>
      <trkpt lat="50.4493" lon="1.77792">
        <ele>107</ele>
        <time>2012-02-04T10:57:57Z</time>
      </trkpt>
      <trkpt lat="50.44936" lon="1.77782">
        <ele>106.1</ele>
        <time>2012-02-04T10:57:58Z</time>
      </trkpt>
      <trkpt lat="50.44941" lon="1.7777">
        <ele>105.3</ele>
        <time>2012-02-04T10:57:59Z</time>
      </trkpt>
      <trkpt lat="50.44946" lon="1.77761">
        <ele>104.8</ele>
        <time>2012-02-04T10:58:00Z</time>
      </trkpt>
      <trkpt lat="50.44952" lon="1.77749">
        <ele>104.3</ele>
        <time>2012-02-04T10:58:01Z</time>
      </trkpt>
      <trkpt lat="50.44957" lon="1.77735">
        <ele>103.8</ele>
        <time>2012-02-04T10:58:02Z</time>
      </trkpt>
      <trkpt lat="50.44963" lon="1.77723">
        <ele>103.3</ele>
        <time>2012-02-04T10:58:03Z</time>
      </trkpt>
      <trkpt lat="50.44966" lon="1.77716">
        <ele>103.3</ele>
        <time>2012-02-04T10:58:04Z</time>
      </trkpt>
      <trkpt lat="50.44972" lon="1.77706">
        <ele>103.6</ele>
        <time>2012-02-04T10:58:05Z</time>
      </trkpt>
      <trkpt lat="50.44977" lon="1.777">
        <ele>104</ele>
        <time>2012-02-04T10:58:06Z</time>
      </trkpt>
      <trkpt lat="50.44981" lon="1.77692">
        <ele>104.1</ele>
        <time>2012-02-04T10:58:07Z</time>
      </trkpt>
      <trkpt lat="50.44986" lon="1.77683">
        <ele>104.3</ele>
        <time>2012-02-04T10:58:08Z</time>
      </trkpt>
      <trkpt lat="50.44992" lon="1.77676">
        <ele>103.9</ele>
        <time>2012-02-04T10:58:09Z</time>
      </trkpt>
      <trkpt lat="50.44997" lon="1.77671">
        <ele>103.1</ele>
        <time>2012-02-04T10:58:10Z</time>
      </trkpt>
      <trkpt lat="50.45001" lon="1.77662">
        <ele>103.1</ele>
        <time>2012-02-04T10:58:11Z</time>
      </trkpt>
      <trkpt lat="50.45006" lon="1.77653">
        <ele>103.1</ele>
        <time>2012-02-04T10:58:12Z</time>
      </trkpt>
      <trkpt lat="50.4501" lon="1.77645">
        <ele>103.8</ele>
        <time>2012-02-04T10:58:13Z</time>
      </trkpt>
      <trkpt lat="50.45015" lon="1.77634">
        <ele>104.1</ele>
        <time>2012-02-04T10:58:14Z</time>
      </trkpt>
      <trkpt lat="50.4502" lon="1.77625">
        <ele>104.6</ele>
        <time>2012-02-04T10:58:15Z</time>
      </trkpt>
      <trkpt lat="50.45025" lon="1.77614">
        <ele>105.3</ele>
        <time>2012-02-04T10:58:16Z</time>
      </trkpt>
      <trkpt lat="50.4503" lon="1.77608">
        <ele>105.7</ele>
        <time>2012-02-04T10:58:17Z</time>
      </trkpt>
      <trkpt lat="50.45034" lon="1.776">
        <ele>106.4</ele>
        <time>2012-02-04T10:58:18Z</time>
      </trkpt>
      <trkpt lat="50.45038" lon="1.77591">
        <ele>106.2</ele>
        <time>2012-02-04T10:58:19Z</time>
      </trkpt>
      <trkpt lat="50.45042" lon="1.77582">
        <ele>106</ele>
        <time>2012-02-04T10:58:20Z</time>
      </trkpt>
      <trkpt lat="50.45046" lon="1.77573">
        <ele>106</ele>
        <time>2012-02-04T10:58:21Z</time>
      </trkpt>
      <trkpt lat="50.45051" lon="1.77565">
        <ele>106.4</ele>
        <time>2012-02-04T10:58:22Z</time>
      </trkpt>
      <trkpt lat="50.45055" lon="1.77556">
        <ele>106</ele>
        <time>2012-02-04T10:58:23Z</time>
      </trkpt>
      <trkpt lat="50.4506" lon="1.77549">
        <ele>106</ele>
        <time>2012-02-04T10:58:24Z</time>
      </trkpt>
      <trkpt lat="50.45065" lon="1.77538">
        <ele>105.9</ele>
        <time>2012-02-04T10:58:25Z</time>
      </trkpt>
      <trkpt lat="50.45071" lon="1.7753">
        <ele>105.7</ele>
        <time>2012-02-04T10:58:26Z</time>
      </trkpt>
      <trkpt lat="50.45078" lon="1.7752">
        <ele>105.1</ele>
        <time>2012-02-04T10:58:27Z</time>
      </trkpt>
      <trkpt lat="50.45086" lon="1.77507">
        <ele>104.3</ele>
        <time>2012-02-04T10:58:28Z</time>
      </trkpt>
      <trkpt lat="50.4509" lon="1.77502">
        <ele>102.8</ele>
        <time>2012-02-04T10:58:29Z</time>
      </trkpt>
      <trkpt lat="50.45096" lon="1.77494">
        <ele>103.2</ele>
        <time>2012-02-04T10:58:30Z</time>
      </trkpt>
      <trkpt lat="50.45102" lon="1.77485">
        <ele>102</ele>
        <time>2012-02-04T10:58:31Z</time>
      </trkpt>
      <trkpt lat="50.45108" lon="1.77476">
        <ele>101.6</ele>
        <time>2012-02-04T10:58:32Z</time>
      </trkpt>
      <trkpt lat="50.45113" lon="1.77465">
        <ele>101.9</ele>
        <time>2012-02-04T10:58:33Z</time>
      </trkpt>
      <trkpt lat="50.45121" lon="1.77461">
        <ele>101.3</ele>
        <time>2012-02-04T10:58:34Z</time>
      </trkpt>
      <trkpt lat="50.45126" lon="1.7745">
        <ele>101.3</ele>
        <time>2012-02-04T10:58:35Z</time>
      </trkpt>
      <trkpt lat="50.45132" lon="1.77447">
        <ele>101.7</ele>
        <time>2012-02-04T10:58:36Z</time>
      </trkpt>
      <trkpt lat="50.45137" lon="1.77445">
        <ele>101.4</ele>
        <time>2012-02-04T10:58:37Z</time>
      </trkpt>
      <trkpt lat="50.45151" lon="1.77432">
        <ele>99.8</ele>
        <time>2012-02-04T10:58:38Z</time>
      </trkpt>
      <trkpt lat="50.45157" lon="1.77427">
        <ele>99.5</ele>
        <time>2012-02-04T10:58:39Z</time>
      </trkpt>
      <trkpt lat="50.45163" lon="1.77421">
        <ele>99.5</ele>
        <time>2012-02-04T10:58:40Z</time>
      </trkpt>
      <trkpt lat="50.45171" lon="1.77412">
        <ele>99.9</ele>
        <time>2012-02-04T10:58:41Z</time>
      </trkpt>
      <trkpt lat="50.4518" lon="1.77408">
        <ele>99.7</ele>
        <time>2012-02-04T10:58:42Z</time>
      </trkpt>
      <trkpt lat="50.45187" lon="1.77403">
        <ele>99.7</ele>
        <time>2012-02-04T10:58:43Z</time>
      </trkpt>
      <trkpt lat="50.45195" lon="1.77397">
        <ele>99.9</ele>
        <time>2012-02-04T10:58:44Z</time>
      </trkpt>
      <trkpt lat="50.45202" lon="1.77392">
        <ele>99.4</ele>
        <time>2012-02-04T10:58:45Z</time>
      </trkpt>
      <trkpt lat="50.4521" lon="1.77386">
        <ele>98.5</ele>
        <time>2012-02-04T10:58:46Z</time>
      </trkpt>
      <trkpt lat="50.45218" lon="1.7738">
        <ele>98.3</ele>
        <time>2012-02-04T10:58:47Z</time>
      </trkpt>
      <trkpt lat="50.45226" lon="1.77374">
        <ele>96.1</ele>
        <time>2012-02-04T10:58:48Z</time>
      </trkpt>
      <trkpt lat="50.45234" lon="1.77366">
        <ele>95.5</ele>
        <time>2012-02-04T10:58:49Z</time>
      </trkpt>
      <trkpt lat="50.45241" lon="1.77361">
        <ele>93.8</ele>
        <time>2012-02-04T10:58:50Z</time>
      </trkpt>
      <trkpt lat="50.45248" lon="1.77355">
        <ele>91.9</ele>
        <time>2012-02-04T10:58:51Z</time>
      </trkpt>
      <trkpt lat="50.45256" lon="1.77348">
        <ele>91.1</ele>
        <time>2012-02-04T10:58:52Z</time>
      </trkpt>
      <trkpt lat="50.45263" lon="1.77342">
        <ele>91.1</ele>
        <time>2012-02-04T10:58:53Z</time>
      </trkpt>
      <trkpt lat="50.4527" lon="1.77333">
        <ele>90.8</ele>
        <time>2012-02-04T10:58:54Z</time>
      </trkpt>
      <trkpt lat="50.45278" lon="1.77326">
        <ele>90.7</ele>
        <time>2012-02-04T10:58:55Z</time>
      </trkpt>
      <trkpt lat="50.45285" lon="1.77317">
        <ele>90.6</ele>
        <time>2012-02-04T10:58:56Z</time>
      </trkpt>
      <trkpt lat="50.45292" lon="1.77308">
        <ele>90.4</ele>
        <time>2012-02-04T10:58:57Z</time>
      </trkpt>
      <trkpt lat="50.45299" lon="1.773">
        <ele>90</ele>
        <time>2012-02-04T10:58:58Z</time>
      </trkpt>
      <trkpt lat="50.45306" lon="1.77292">
        <ele>89.9</ele>
        <time>2012-02-04T10:58:59Z</time>
      </trkpt>
      <trkpt lat="50.45312" lon="1.77283">
        <ele>90.1</ele>
        <time>2012-02-04T10:59:00Z</time>
      </trkpt>
      <trkpt lat="50.45319" lon="1.77277">
        <ele>89.8</ele>
        <time>2012-02-04T10:59:01Z</time>
      </trkpt>
      <trkpt lat="50.45326" lon="1.77268">
        <ele>89.7</ele>
        <time>2012-02-04T10:59:02Z</time>
      </trkpt>
      <trkpt lat="50.45333" lon="1.77261">
        <ele>89.5</ele>
        <time>2012-02-04T10:59:03Z</time>
      </trkpt>
      <trkpt lat="50.45341" lon="1.77253">
        <ele>89.4</ele>
        <time>2012-02-04T10:59:04Z</time>
      </trkpt>
      <trkpt lat="50.45348" lon="1.77244">
        <ele>89.4</ele>
        <time>2012-02-04T10:59:05Z</time>
      </trkpt>
      <trkpt lat="50.45355" lon="1.77237">
        <ele>88.9</ele>
        <time>2012-02-04T10:59:06Z</time>
      </trkpt>
      <trkpt lat="50.45361" lon="1.77229">
        <ele>89.5</ele>
        <time>2012-02-04T10:59:07Z</time>
      </trkpt>
      <trkpt lat="50.45368" lon="1.77219">
        <ele>89</ele>
        <time>2012-02-04T10:59:08Z</time>
      </trkpt>
      <trkpt lat="50.45374" lon="1.77211">
        <ele>89.4</ele>
        <time>2012-02-04T10:59:09Z</time>
      </trkpt>
      <trkpt lat="50.4538" lon="1.77204">
        <ele>89.7</ele>
        <time>2012-02-04T10:59:10Z</time>
      </trkpt>
      <trkpt lat="50.45388" lon="1.77195">
        <ele>90.6</ele>
        <time>2012-02-04T10:59:11Z</time>
      </trkpt>
      <trkpt lat="50.45395" lon="1.77188">
        <ele>90.9</ele>
        <time>2012-02-04T10:59:12Z</time>
      </trkpt>
      <trkpt lat="50.45404" lon="1.7718">
        <ele>91</ele>
        <time>2012-02-04T10:59:13Z</time>
      </trkpt>
      <trkpt lat="50.45413" lon="1.77172">
        <ele>91.5</ele>
        <time>2012-02-04T10:59:14Z</time>
      </trkpt>
      <trkpt lat="50.45419" lon="1.77165">
        <ele>92.1</ele>
        <time>2012-02-04T10:59:15Z</time>
      </trkpt>
      <trkpt lat="50.45426" lon="1.77157">
        <ele>92.5</ele>
        <time>2012-02-04T10:59:16Z</time>
      </trkpt>
      <trkpt lat="50.45434" lon="1.7715">
        <ele>92.8</ele>
        <time>2012-02-04T10:59:17Z</time>
      </trkpt>
      <trkpt lat="50.45442" lon="1.77141">
        <ele>93.1</ele>
        <time>2012-02-04T10:59:18Z</time>
      </trkpt>
      <trkpt lat="50.45449" lon="1.77131">
        <ele>92.5</ele>
        <time>2012-02-04T10:59:19Z</time>
      </trkpt>
      <trkpt lat="50.45456" lon="1.77116">
        <ele>91.6</ele>
        <time>2012-02-04T10:59:20Z</time>
      </trkpt>
      <trkpt lat="50.45461" lon="1.77106">
        <ele>91.8</ele>
        <time>2012-02-04T10:59:21Z</time>
      </trkpt>
      <trkpt lat="50.45467" lon="1.77093">
        <ele>92</ele>
        <time>2012-02-04T10:59:22Z</time>
      </trkpt>
      <trkpt lat="50.45474" lon="1.7708">
        <ele>92.7</ele>
        <time>2012-02-04T10:59:23Z</time>
      </trkpt>
      <trkpt lat="50.45481" lon="1.77067">
        <ele>92.7</ele>
        <time>2012-02-04T10:59:24Z</time>
      </trkpt>
      <trkpt lat="50.45488" lon="1.77055">
        <ele>93.7</ele>
        <time>2012-02-04T10:59:25Z</time>
      </trkpt>
      <trkpt lat="50.45495" lon="1.77041">
        <ele>94.2</ele>
        <time>2012-02-04T10:59:26Z</time>
      </trkpt>
      <trkpt lat="50.45502" lon="1.77025">
        <ele>94</ele>
        <time>2012-02-04T10:59:27Z</time>
      </trkpt>
      <trkpt lat="50.45509" lon="1.77014">
        <ele>92.5</ele>
        <time>2012-02-04T10:59:28Z</time>
      </trkpt>
      <trkpt lat="50.45516" lon="1.77001">
        <ele>92.8</ele>
        <time>2012-02-04T10:59:29Z</time>
      </trkpt>
      <trkpt lat="50.45522" lon="1.7699">
        <ele>92.6</ele>
        <time>2012-02-04T10:59:30Z</time>
      </trkpt>
      <trkpt lat="50.45529" lon="1.76979">
        <ele>93</ele>
        <time>2012-02-04T10:59:31Z</time>
      </trkpt>
      <trkpt lat="50.45536" lon="1.76969">
        <ele>90.9</ele>
        <time>2012-02-04T10:59:32Z</time>
      </trkpt>
      <trkpt lat="50.45542" lon="1.76956">
        <ele>90.6</ele>
        <time>2012-02-04T10:59:33Z</time>
      </trkpt>
      <trkpt lat="50.45549" lon="1.76945">
        <ele>90</ele>
        <time>2012-02-04T10:59:34Z</time>
      </trkpt>
      <trkpt lat="50.45556" lon="1.76936">
        <ele>88.7</ele>
        <time>2012-02-04T10:59:35Z</time>
      </trkpt>
      <trkpt lat="50.45563" lon="1.76927">
        <ele>87.7</ele>
        <time>2012-02-04T10:59:36Z</time>
      </trkpt>
      <trkpt lat="50.45572" lon="1.76917">
        <ele>84.9</ele>
        <time>2012-02-04T10:59:37Z</time>
      </trkpt>
      <trkpt lat="50.45579" lon="1.76906">
        <ele>84.1</ele>
        <time>2012-02-04T10:59:38Z</time>
      </trkpt>
      <trkpt lat="50.45585" lon="1.76894">
        <ele>83.9</ele>
        <time>2012-02-04T10:59:39Z</time>
      </trkpt>
      <trkpt lat="50.4559" lon="1.76882">
        <ele>83.7</ele>
        <time>2012-02-04T10:59:40Z</time>
      </trkpt>
      <trkpt lat="50.45595" lon="1.76868">
        <ele>83.6</ele>
        <time>2012-02-04T10:59:41Z</time>
      </trkpt>
      <trkpt lat="50.45598" lon="1.76851">
        <ele>82.2</ele>
        <time>2012-02-04T10:59:42Z</time>
      </trkpt>
      <trkpt lat="50.45602" lon="1.76836">
        <ele>81.6</ele>
        <time>2012-02-04T10:59:43Z</time>
      </trkpt>
      <trkpt lat="50.45605" lon="1.76821">
        <ele>81.4</ele>
        <time>2012-02-04T10:59:44Z</time>
      </trkpt>
      <trkpt lat="50.45607" lon="1.76802">
        <ele>80.1</ele>
        <time>2012-02-04T10:59:45Z</time>
      </trkpt>
      <trkpt lat="50.45607" lon="1.76783">
        <ele>77.3</ele>
        <time>2012-02-04T10:59:46Z</time>
      </trkpt>
      <trkpt lat="50.45609" lon="1.76766">
        <ele>75.7</ele>
        <time>2012-02-04T10:59:47Z</time>
      </trkpt>
      <trkpt lat="50.45609" lon="1.76748">
        <ele>73.3</ele>
        <time>2012-02-04T10:59:48Z</time>
      </trkpt>
      <trkpt lat="50.45609" lon="1.7673">
        <ele>71.2</ele>
        <time>2012-02-04T10:59:49Z</time>
      </trkpt>
      <trkpt lat="50.45608" lon="1.76711">
        <ele>69.3</ele>
        <time>2012-02-04T10:59:50Z</time>
      </trkpt>
      <trkpt lat="50.45608" lon="1.76692">
        <ele>67.9</ele>
        <time>2012-02-04T10:59:51Z</time>
      </trkpt>
      <trkpt lat="50.45608" lon="1.76672">
        <ele>65.8</ele>
        <time>2012-02-04T10:59:52Z</time>
      </trkpt>
      <trkpt lat="50.45607" lon="1.76653">
        <ele>65.2</ele>
        <time>2012-02-04T10:59:53Z</time>
      </trkpt>
      <trkpt lat="50.45607" lon="1.76635">
        <ele>63.9</ele>
        <time>2012-02-04T10:59:54Z</time>
      </trkpt>
      <trkpt lat="50.45607" lon="1.76616">
        <ele>62.6</ele>
        <time>2012-02-04T10:59:55Z</time>
      </trkpt>
      <trkpt lat="50.45608" lon="1.76599">
        <ele>62.2</ele>
        <time>2012-02-04T10:59:56Z</time>
      </trkpt>
      <trkpt lat="50.45611" lon="1.76582">
        <ele>61.6</ele>
        <time>2012-02-04T10:59:57Z</time>
      </trkpt>
      <trkpt lat="50.45613" lon="1.76566">
        <ele>61.6</ele>
        <time>2012-02-04T10:59:58Z</time>
      </trkpt>
      <trkpt lat="50.45616" lon="1.76549">
        <ele>61.5</ele>
        <time>2012-02-04T10:59:59Z</time>
      </trkpt>
      <trkpt lat="50.45618" lon="1.76532">
        <ele>61.7</ele>
        <time>2012-02-04T11:00:00Z</time>
      </trkpt>
      <trkpt lat="50.45622" lon="1.76517">
        <ele>61.8</ele>
        <time>2012-02-04T11:00:01Z</time>
      </trkpt>
      <trkpt lat="50.45625" lon="1.76505">
        <ele>62.1</ele>
        <time>2012-02-04T11:00:02Z</time>
      </trkpt>
      <trkpt lat="50.45627" lon="1.7649">
        <ele>62</ele>
        <time>2012-02-04T11:00:03Z</time>
      </trkpt>
      <trkpt lat="50.45629" lon="1.76476">
        <ele>62</ele>
        <time>2012-02-04T11:00:04Z</time>
      </trkpt>
      <trkpt lat="50.45631" lon="1.76463">
        <ele>62.1</ele>
        <time>2012-02-04T11:00:05Z</time>
      </trkpt>
      <trkpt lat="50.45632" lon="1.76449">
        <ele>62.5</ele>
        <time>2012-02-04T11:00:06Z</time>
      </trkpt>
      <trkpt lat="50.45634" lon="1.76435">
        <ele>62.7</ele>
        <time>2012-02-04T11:00:07Z</time>
      </trkpt>
      <trkpt lat="50.45635" lon="1.76426">
        <ele>62.5</ele>
        <time>2012-02-04T11:00:08Z</time>
      </trkpt>
      <trkpt lat="50.45635" lon="1.76415">
        <ele>62.9</ele>
        <time>2012-02-04T11:00:09Z</time>
      </trkpt>
      <trkpt lat="50.45635" lon="1.76403">
        <ele>62.7</ele>
        <time>2012-02-04T11:00:10Z</time>
      </trkpt>
      <trkpt lat="50.45636" lon="1.76393">
        <ele>62.9</ele>
        <time>2012-02-04T11:00:11Z</time>
      </trkpt>
      <trkpt lat="50.45636" lon="1.76383">
        <ele>63</ele>
        <time>2012-02-04T11:00:12Z</time>
      </trkpt>
      <trkpt lat="50.45636" lon="1.76373">
        <ele>63.2</ele>
        <time>2012-02-04T11:00:13Z</time>
      </trkpt>
      <trkpt lat="50.45635" lon="1.76363">
        <ele>64.2</ele>
        <time>2012-02-04T11:00:14Z</time>
      </trkpt>
      <trkpt lat="50.45635" lon="1.76355">
        <ele>64.5</ele>
        <time>2012-02-04T11:00:15Z</time>
      </trkpt>
      <trkpt lat="50.45634" lon="1.76346">
        <ele>63.9</ele>
        <time>2012-02-04T11:00:16Z</time>
      </trkpt>
      <trkpt lat="50.45633" lon="1.76337">
        <ele>63.8</ele>
        <time>2012-02-04T11:00:17Z</time>
      </trkpt>
      <trkpt lat="50.45632" lon="1.76329">
        <ele>64.2</ele>
        <time>2012-02-04T11:00:18Z</time>
      </trkpt>
      <trkpt lat="50.45631" lon="1.76321">
        <ele>63.8</ele>
        <time>2012-02-04T11:00:19Z</time>
      </trkpt>
      <trkpt lat="50.45629" lon="1.76313">
        <ele>64</ele>
        <time>2012-02-04T11:00:20Z</time>
      </trkpt>
      <trkpt lat="50.45628" lon="1.76305">
        <ele>63.4</ele>
        <time>2012-02-04T11:00:21Z</time>
      </trkpt>
      <trkpt lat="50.45627" lon="1.76296">
        <ele>63</ele>
        <time>2012-02-04T11:00:22Z</time>
      </trkpt>
      <trkpt lat="50.45626" lon="1.76288">
        <ele>63.2</ele>
        <time>2012-02-04T11:00:23Z</time>
      </trkpt>
      <trkpt lat="50.45624" lon="1.76281">
        <ele>63.7</ele>
        <time>2012-02-04T11:00:24Z</time>
      </trkpt>
      <trkpt lat="50.45622" lon="1.76274">
        <ele>63.8</ele>
        <time>2012-02-04T11:00:25Z</time>
      </trkpt>
      <trkpt lat="50.45621" lon="1.76266">
        <ele>64</ele>
        <time>2012-02-04T11:00:26Z</time>
      </trkpt>
      <trkpt lat="50.45619" lon="1.76259">
        <ele>64.5</ele>
        <time>2012-02-04T11:00:27Z</time>
      </trkpt>
      <trkpt lat="50.45617" lon="1.76246">
        <ele>64.7</ele>
        <time>2012-02-04T11:00:29Z</time>
      </trkpt>
      <trkpt lat="50.45614" lon="1.76234">
        <ele>64.9</ele>
        <time>2012-02-04T11:00:31Z</time>
      </trkpt>
      <trkpt lat="50.45612" lon="1.76222">
        <ele>65.1</ele>
        <time>2012-02-04T11:00:33Z</time>
      </trkpt>
      <trkpt lat="50.45611" lon="1.76215">
        <ele>65.7</ele>
        <time>2012-02-04T11:00:34Z</time>
      </trkpt>
      <trkpt lat="50.45609" lon="1.76202">
        <ele>65.4</ele>
        <time>2012-02-04T11:00:36Z</time>
      </trkpt>
      <trkpt lat="50.45607" lon="1.7619">
        <ele>65.9</ele>
        <time>2012-02-04T11:00:38Z</time>
      </trkpt>
      <trkpt lat="50.45605" lon="1.76178">
        <ele>65.5</ele>
        <time>2012-02-04T11:00:40Z</time>
      </trkpt>
      <trkpt lat="50.45604" lon="1.76164">
        <ele>67.2</ele>
        <time>2012-02-04T11:00:42Z</time>
      </trkpt>
      <trkpt lat="50.45602" lon="1.76152">
        <ele>67.3</ele>
        <time>2012-02-04T11:00:44Z</time>
      </trkpt>
      <trkpt lat="50.45603" lon="1.76142">
        <ele>65.3</ele>
        <time>2012-02-04T11:00:46Z</time>
      </trkpt>
      <trkpt lat="50.45603" lon="1.76129">
        <ele>64.7</ele>
        <time>2012-02-04T11:00:48Z</time>
      </trkpt>
      <trkpt lat="50.45603" lon="1.76118">
        <ele>66.2</ele>
        <time>2012-02-04T11:00:50Z</time>
      </trkpt>
      <trkpt lat="50.45604" lon="1.7611">
        <ele>65.8</ele>
        <time>2012-02-04T11:00:52Z</time>
      </trkpt>
      <trkpt lat="50.45604" lon="1.76102">
        <ele>65.8</ele>
        <time>2012-02-04T11:00:54Z</time>
      </trkpt>
      <trkpt lat="50.45607" lon="1.76095">
        <ele>65.5</ele>
        <time>2012-02-04T11:00:56Z</time>
      </trkpt>
      <trkpt lat="50.45609" lon="1.76086">
        <ele>66.3</ele>
        <time>2012-02-04T11:00:58Z</time>
      </trkpt>
      <trkpt lat="50.45612" lon="1.76077">
        <ele>65.9</ele>
        <time>2012-02-04T11:01:01Z</time>
      </trkpt>
      <trkpt lat="50.45612" lon="1.76068">
        <ele>65.7</ele>
        <time>2012-02-04T11:01:03Z</time>
      </trkpt>
      <trkpt lat="50.45616" lon="1.76061">
        <ele>66.8</ele>
        <time>2012-02-04T11:01:05Z</time>
      </trkpt>
      <trkpt lat="50.45618" lon="1.76055">
        <ele>68.2</ele>
        <time>2012-02-04T11:01:07Z</time>
      </trkpt>
      <trkpt lat="50.4562" lon="1.76048">
        <ele>65.3</ele>
        <time>2012-02-04T11:01:10Z</time>
      </trkpt>
      <trkpt lat="50.45622" lon="1.7604">
        <ele>64.4</ele>
        <time>2012-02-04T11:01:13Z</time>
      </trkpt>
      <trkpt lat="50.45627" lon="1.76035">
        <ele>61.6</ele>
        <time>2012-02-04T11:01:17Z</time>
      </trkpt>
      <trkpt lat="50.45632" lon="1.76034">
        <ele>60.5</ele>
        <time>2012-02-04T11:01:20Z</time>
      </trkpt>
      <trkpt lat="50.45632" lon="1.7602">
        <ele>61.3</ele>
        <time>2012-02-04T11:01:24Z</time>
      </trkpt>
      <trkpt lat="50.45634" lon="1.76012">
        <ele>62.8</ele>
        <time>2012-02-04T11:01:26Z</time>
      </trkpt>
      <trkpt lat="50.4564" lon="1.7601">
        <ele>61.7</ele>
        <time>2012-02-04T11:01:29Z</time>
      </trkpt>
      <trkpt lat="50.45644" lon="1.76005">
        <ele>61.9</ele>
        <time>2012-02-04T11:01:32Z</time>
      </trkpt>
      <trkpt lat="50.45647" lon="1.75996">
        <ele>61.6</ele>
        <time>2012-02-04T11:01:35Z</time>
      </trkpt>
      <trkpt lat="50.45645" lon="1.75983">
        <ele>67.4</ele>
        <time>2012-02-04T11:01:38Z</time>
      </trkpt>
      <trkpt lat="50.45648" lon="1.75976">
        <ele>69.9</ele>
        <time>2012-02-04T11:01:41Z</time>
      </trkpt>
      <trkpt lat="50.45653" lon="1.75972">
        <ele>71.3</ele>
        <time>2012-02-04T11:01:44Z</time>
      </trkpt>
      <trkpt lat="50.45657" lon="1.75967">
        <ele>66.9</ele>
        <time>2012-02-04T11:01:45Z</time>
      </trkpt>
      <trkpt lat="50.45658" lon="1.7596">
        <ele>72.3</ele>
        <time>2012-02-04T11:02:00Z</time>
      </trkpt>
      <trkpt lat="50.45654" lon="1.75952">
        <ele>72.4</ele>
        <time>2012-02-04T11:02:03Z</time>
      </trkpt>
      <trkpt lat="50.4565" lon="1.75945">
        <ele>72.2</ele>
        <time>2012-02-04T11:02:05Z</time>
      </trkpt>
      <trkpt lat="50.45647" lon="1.7594">
        <ele>72.3</ele>
        <time>2012-02-04T11:02:07Z</time>
      </trkpt>
      <trkpt lat="50.45644" lon="1.75933">
        <ele>72.2</ele>
        <time>2012-02-04T11:02:09Z</time>
      </trkpt>
      <trkpt lat="50.4564" lon="1.75925">
        <ele>72.7</ele>
        <time>2012-02-04T11:02:12Z</time>
      </trkpt>
      <trkpt lat="50.45636" lon="1.75919">
        <ele>73.6</ele>
        <time>2012-02-04T11:02:14Z</time>
      </trkpt>
      <trkpt lat="50.45632" lon="1.75914">
        <ele>74.2</ele>
        <time>2012-02-04T11:02:16Z</time>
      </trkpt>
      <trkpt lat="50.45628" lon="1.75909">
        <ele>73.1</ele>
        <time>2012-02-04T11:02:18Z</time>
      </trkpt>
      <trkpt lat="50.45623" lon="1.75905">
        <ele>73.5</ele>
        <time>2012-02-04T11:02:20Z</time>
      </trkpt>
      <trkpt lat="50.45619" lon="1.75901">
        <ele>75.3</ele>
        <time>2012-02-04T11:02:22Z</time>
      </trkpt>
      <trkpt lat="50.45613" lon="1.75901">
        <ele>77</ele>
        <time>2012-02-04T11:02:26Z</time>
      </trkpt>
      <trkpt lat="50.45609" lon="1.75896">
        <ele>74.4</ele>
        <time>2012-02-04T11:02:34Z</time>
      </trkpt>
    </trkseg>
  </trk>
</gpx>